<?xml version='1.0' encoding='UTF-8'?><gpx version="1.1" creator="JPX - https://github.com/jenetics/jpx" xmlns="http://www.topografix.com/GPX/1/1"><trk><trkseg><trkpt lat="43.8344511" lon="12.6868669"><ele>88.66666666666667</ele><time>2026-04-19T09:31:13.235Z</time></trkpt><trkpt lat="43.834581" lon="12.686991"><ele>88.33333333333333</ele><time>2026-04-19T09:31:14.235Z</time></trkpt><trkpt lat="43.8347048" lon="12.6871283"><ele>88.0</ele><time>2026-04-19T09:31:15.236Z</time></trkpt><trkpt lat="43.8348149" lon="12.6872848"><ele>88.0</ele><time>2026-04-19T09:31:16.235Z</time></trkpt><trkpt lat="43.8349851" lon="12.6876551"><ele>88.0</ele><time>2026-04-19T09:31:18.235Z</time></trkpt><trkpt lat="43.8350488" lon="12.6878598"><ele>87.33333333333333</ele><time>2026-04-19T09:31:19.235Z</time></trkpt><trkpt lat="43.8351006" lon="12.6880734"><ele>86.66666666666667</ele><time>2026-04-19T09:31:20.235Z</time></trkpt><trkpt lat="43.83515" lon="12.6882875"><ele>86.0</ele><time>2026-04-19T09:31:21.235Z</time></trkpt><trkpt lat="43.8351989" lon="12.6885039"><ele>86.66666666666667</ele><time>2026-04-19T09:31:22.237Z</time></trkpt><trkpt lat="43.8352455" lon="12.6887246"><ele>87.33333333333333</ele><time>2026-04-19T09:31:23.235Z</time></trkpt><trkpt lat="43.8352957" lon="12.6889453"><ele>88.0</ele><time>2026-04-19T09:31:24.235Z</time></trkpt><trkpt lat="43.8353465" lon="12.6891689"><ele>88.0</ele><time>2026-04-19T09:31:25.235Z</time></trkpt><trkpt lat="43.8353997" lon="12.6893912"><ele>88.0</ele><time>2026-04-19T09:31:26.236Z</time></trkpt><trkpt lat="43.8354487" lon="12.6896159"><ele>88.0</ele><time>2026-04-19T09:31:27.234Z</time></trkpt><trkpt lat="43.8354987" lon="12.6898413"><ele>87.66666666666666</ele><time>2026-04-19T09:31:28.235Z</time></trkpt><trkpt lat="43.8355492" lon="12.6900645"><ele>87.33333333333333</ele><time>2026-04-19T09:31:29.235Z</time></trkpt><trkpt lat="43.8355993" lon="12.6902863"><ele>87.0</ele><time>2026-04-19T09:31:30.236Z</time></trkpt><trkpt lat="43.8356496" lon="12.6904989"><ele>86.75</ele><time>2026-04-19T09:31:31.235Z</time></trkpt><trkpt lat="43.8356954" lon="12.6906985"><ele>86.5</ele><time>2026-04-19T09:31:32.236Z</time></trkpt><trkpt lat="43.8357406" lon="12.6908877"><ele>86.25</ele><time>2026-04-19T09:31:33.236Z</time></trkpt><trkpt lat="43.8357829" lon="12.6910721"><ele>86.0</ele><time>2026-04-19T09:31:34.239Z</time></trkpt><trkpt lat="43.8358232" lon="12.6912518"><ele>86.0</ele><time>2026-04-19T09:31:35.235Z</time></trkpt><trkpt lat="43.8358657" lon="12.6914325"><ele>86.0</ele><time>2026-04-19T09:31:36.235Z</time></trkpt><trkpt lat="43.8359165" lon="12.6916068"><ele>86.0</ele><time>2026-04-19T09:31:37.236Z</time></trkpt><trkpt lat="43.8359676" lon="12.6917839"><ele>86.0</ele><time>2026-04-19T09:31:38.237Z</time></trkpt><trkpt lat="43.8360211" lon="12.6919574"><ele>86.0</ele><time>2026-04-19T09:31:39.235Z</time></trkpt><trkpt lat="43.8360788" lon="12.6921305"><ele>86.0</ele><time>2026-04-19T09:31:40.234Z</time></trkpt><trkpt lat="43.8361396" lon="12.6923013"><ele>86.0</ele><time>2026-04-19T09:31:41.247Z</time></trkpt><trkpt lat="43.8362015" lon="12.6924709"><ele>86.0</ele><time>2026-04-19T09:31:42.235Z</time></trkpt><trkpt lat="43.8362643" lon="12.6926434"><ele>85.25</ele><time>2026-04-19T09:31:43.237Z</time></trkpt><trkpt lat="43.8363282" lon="12.6928122"><ele>84.5</ele><time>2026-04-19T09:31:44.236Z</time></trkpt><trkpt lat="43.8363952" lon="12.6929742"><ele>83.75</ele><time>2026-04-19T09:31:45.235Z</time></trkpt><trkpt lat="43.8364607" lon="12.6931258"><ele>83.0</ele><time>2026-04-19T09:31:46.235Z</time></trkpt><trkpt lat="43.836524" lon="12.6932724"><ele>83.0</ele><time>2026-04-19T09:31:47.238Z</time></trkpt><trkpt lat="43.8365867" lon="12.6934122"><ele>83.0</ele><time>2026-04-19T09:31:48.235Z</time></trkpt><trkpt lat="43.8366436" lon="12.6935482"><ele>83.0</ele><time>2026-04-19T09:31:49.238Z</time></trkpt><trkpt lat="43.8367011" lon="12.693684"><ele>83.0</ele><time>2026-04-19T09:31:50.235Z</time></trkpt><trkpt lat="43.8367591" lon="12.6938233"><ele>83.0</ele><time>2026-04-19T09:31:51.236Z</time></trkpt><trkpt lat="43.83682" lon="12.6939672"><ele>83.0</ele><time>2026-04-19T09:31:52.234Z</time></trkpt><trkpt lat="43.8368793" lon="12.694116"><ele>83.0</ele><time>2026-04-19T09:31:53.238Z</time></trkpt><trkpt lat="43.8369406" lon="12.6942659"><ele>83.0</ele><time>2026-04-19T09:31:54.243Z</time></trkpt><trkpt lat="43.8370006" lon="12.6944148"><ele>82.25</ele><time>2026-04-19T09:31:55.238Z</time></trkpt><trkpt lat="43.8370619" lon="12.6945689"><ele>81.5</ele><time>2026-04-19T09:31:56.236Z</time></trkpt><trkpt lat="43.8371226" lon="12.694724"><ele>80.75</ele><time>2026-04-19T09:31:57.238Z</time></trkpt><trkpt lat="43.8371853" lon="12.6948804"><ele>80.0</ele><time>2026-04-19T09:31:58.234Z</time></trkpt><trkpt lat="43.8372449" lon="12.6950426"><ele>80.0</ele><time>2026-04-19T09:31:59.234Z</time></trkpt><trkpt lat="43.8373071" lon="12.6952027"><ele>80.0</ele><time>2026-04-19T09:32:00.236Z</time></trkpt><trkpt lat="43.8373719" lon="12.6953599"><ele>80.0</ele><time>2026-04-19T09:32:01.236Z</time></trkpt><trkpt lat="43.8374357" lon="12.6955163"><ele>80.0</ele><time>2026-04-19T09:32:02.236Z</time></trkpt><trkpt lat="43.8374989" lon="12.6956756"><ele>80.0</ele><time>2026-04-19T09:32:03.235Z</time></trkpt><trkpt lat="43.8375649" lon="12.6958323"><ele>80.0</ele><time>2026-04-19T09:32:04.246Z</time></trkpt><trkpt lat="43.8376304" lon="12.6959854"><ele>80.0</ele><time>2026-04-19T09:32:05.241Z</time></trkpt><trkpt lat="43.8376928" lon="12.6961468"><ele>80.0</ele><time>2026-04-19T09:32:06.235Z</time></trkpt><trkpt lat="43.8377549" lon="12.6963146"><ele>80.5</ele><time>2026-04-19T09:32:07.236Z</time></trkpt><trkpt lat="43.8378216" lon="12.6964788"><ele>81.0</ele><time>2026-04-19T09:32:08.234Z</time></trkpt><trkpt lat="43.8378829" lon="12.6966398"><ele>81.5</ele><time>2026-04-19T09:32:09.237Z</time></trkpt><trkpt lat="43.8379409" lon="12.6967995"><ele>82.0</ele><time>2026-04-19T09:32:10.234Z</time></trkpt><trkpt lat="43.8380036" lon="12.6969478"><ele>82.0</ele><time>2026-04-19T09:32:11.234Z</time></trkpt><trkpt lat="43.8380667" lon="12.6970929"><ele>82.0</ele><time>2026-04-19T09:32:12.235Z</time></trkpt><trkpt lat="43.8383034" lon="12.6976642"><ele>81.75</ele><time>2026-04-19T09:32:16.235Z</time></trkpt><trkpt lat="43.8383616" lon="12.6978092"><ele>81.5</ele><time>2026-04-19T09:32:17.235Z</time></trkpt><trkpt lat="43.8384214" lon="12.6979573"><ele>81.25</ele><time>2026-04-19T09:32:18.234Z</time></trkpt><trkpt lat="43.8384855" lon="12.6981116"><ele>81.0</ele><time>2026-04-19T09:32:19.234Z</time></trkpt><trkpt lat="43.8385483" lon="12.6982698"><ele>81.25</ele><time>2026-04-19T09:32:20.235Z</time></trkpt><trkpt lat="43.8386144" lon="12.6984312"><ele>81.5</ele><time>2026-04-19T09:32:21.234Z</time></trkpt><trkpt lat="43.8386824" lon="12.6985946"><ele>81.75</ele><time>2026-04-19T09:32:22.234Z</time></trkpt><trkpt lat="43.8387533" lon="12.698761"><ele>82.0</ele><time>2026-04-19T09:32:23.235Z</time></trkpt><trkpt lat="43.8388212" lon="12.6989295"><ele>82.0</ele><time>2026-04-19T09:32:24.235Z</time></trkpt><trkpt lat="43.838886" lon="12.6991014"><ele>82.0</ele><time>2026-04-19T09:32:25.234Z</time></trkpt><trkpt lat="43.8389511" lon="12.6992756"><ele>82.0</ele><time>2026-04-19T09:32:26.235Z</time></trkpt><trkpt lat="43.8390161" lon="12.6994521"><ele>82.0</ele><time>2026-04-19T09:32:27.234Z</time></trkpt><trkpt lat="43.8390796" lon="12.6996276"><ele>81.5</ele><time>2026-04-19T09:32:28.234Z</time></trkpt><trkpt lat="43.839142" lon="12.6998019"><ele>81.0</ele><time>2026-04-19T09:32:29.234Z</time></trkpt><trkpt lat="43.8391922" lon="12.6999857"><ele>80.5</ele><time>2026-04-19T09:32:30.234Z</time></trkpt><trkpt lat="43.8392317" lon="12.7001752"><ele>80.0</ele><time>2026-04-19T09:32:31.236Z</time></trkpt><trkpt lat="43.8392606" lon="12.7003651"><ele>79.25</ele><time>2026-04-19T09:32:32.236Z</time></trkpt><trkpt lat="43.8392802" lon="12.7005461"><ele>78.5</ele><time>2026-04-19T09:32:33.234Z</time></trkpt><trkpt lat="43.8392882" lon="12.700727"><ele>77.75</ele><time>2026-04-19T09:32:34.234Z</time></trkpt><trkpt lat="43.8392936" lon="12.7009027"><ele>77.0</ele><time>2026-04-19T09:32:35.235Z</time></trkpt><trkpt lat="43.8392977" lon="12.7010729"><ele>76.75</ele><time>2026-04-19T09:32:36.234Z</time></trkpt><trkpt lat="43.8392979" lon="12.7012352"><ele>76.5</ele><time>2026-04-19T09:32:37.234Z</time></trkpt><trkpt lat="43.8392989" lon="12.7013932"><ele>76.25</ele><time>2026-04-19T09:32:38.235Z</time></trkpt><trkpt lat="43.8392994" lon="12.7015466"><ele>76.0</ele><time>2026-04-19T09:32:39.234Z</time></trkpt><trkpt lat="43.8393007" lon="12.7017035"><ele>76.0</ele><time>2026-04-19T09:32:40.235Z</time></trkpt><trkpt lat="43.8392982" lon="12.7018757"><ele>76.0</ele><time>2026-04-19T09:32:41.235Z</time></trkpt><trkpt lat="43.8392987" lon="12.7020638"><ele>76.0</ele><time>2026-04-19T09:32:42.234Z</time></trkpt><trkpt lat="43.8392941" lon="12.7022575"><ele>76.0</ele><time>2026-04-19T09:32:43.235Z</time></trkpt><trkpt lat="43.8392861" lon="12.7024558"><ele>75.75</ele><time>2026-04-19T09:32:44.235Z</time></trkpt><trkpt lat="43.8392804" lon="12.7026451"><ele>75.5</ele><time>2026-04-19T09:32:45.234Z</time></trkpt><trkpt lat="43.8392791" lon="12.7028315"><ele>75.25</ele><time>2026-04-19T09:32:46.234Z</time></trkpt><trkpt lat="43.83928" lon="12.7030228"><ele>75.0</ele><time>2026-04-19T09:32:47.239Z</time></trkpt><trkpt lat="43.8392874" lon="12.7032141"><ele>75.0</ele><time>2026-04-19T09:32:48.234Z</time></trkpt><trkpt lat="43.8393025" lon="12.7033983"><ele>75.0</ele><time>2026-04-19T09:32:49.235Z</time></trkpt><trkpt lat="43.8393264" lon="12.7035666"><ele>75.0</ele><time>2026-04-19T09:32:50.235Z</time></trkpt><trkpt lat="43.8393591" lon="12.7037241"><ele>75.0</ele><time>2026-04-19T09:32:51.234Z</time></trkpt><trkpt lat="43.8393985" lon="12.7038758"><ele>75.0</ele><time>2026-04-19T09:32:52.235Z</time></trkpt><trkpt lat="43.8394453" lon="12.7040216"><ele>75.0</ele><time>2026-04-19T09:32:53.235Z</time></trkpt><trkpt lat="43.839499" lon="12.7041611"><ele>75.0</ele><time>2026-04-19T09:32:54.234Z</time></trkpt><trkpt lat="43.8395628" lon="12.7042949"><ele>75.0</ele><time>2026-04-19T09:32:55.235Z</time></trkpt><trkpt lat="43.8396342" lon="12.7044325"><ele>73.66666666666667</ele><time>2026-04-19T09:32:56.235Z</time></trkpt><trkpt lat="43.8397128" lon="12.7045804"><ele>72.33333333333334</ele><time>2026-04-19T09:32:57.235Z</time></trkpt><trkpt lat="43.8398079" lon="12.7047575"><ele>71.0</ele><time>2026-04-19T09:32:58.234Z</time></trkpt><trkpt lat="43.8399247" lon="12.704959"><ele>71.0</ele><time>2026-04-19T09:32:59.235Z</time></trkpt><trkpt lat="43.8400427" lon="12.7052057"><ele>71.0</ele><time>2026-04-19T09:33:00.235Z</time></trkpt><trkpt lat="43.8401759" lon="12.7054757"><ele>71.0</ele><time>2026-04-19T09:33:01.235Z</time></trkpt><trkpt lat="43.8403241" lon="12.7057593"><ele>70.5</ele><time>2026-04-19T09:33:02.245Z</time></trkpt><trkpt lat="43.8404815" lon="12.7060621"><ele>70.0</ele><time>2026-04-19T09:33:03.234Z</time></trkpt><trkpt lat="43.8406396" lon="12.7063827"><ele>69.5</ele><time>2026-04-19T09:33:04.235Z</time></trkpt><trkpt lat="43.8407933" lon="12.7067083"><ele>69.0</ele><time>2026-04-19T09:33:05.236Z</time></trkpt><trkpt lat="43.8409344" lon="12.7070107"><ele>70.5</ele><time>2026-04-19T09:33:06.235Z</time></trkpt><trkpt lat="43.8410667" lon="12.7072929"><ele>72.0</ele><time>2026-04-19T09:33:07.235Z</time></trkpt><trkpt lat="43.8411939" lon="12.7075522"><ele>70.33333333333333</ele><time>2026-04-19T09:33:08.236Z</time></trkpt><trkpt lat="43.8413169" lon="12.7077972"><ele>68.66666666666666</ele><time>2026-04-19T09:33:09.234Z</time></trkpt><trkpt lat="43.8414367" lon="12.7080372"><ele>67.0</ele><time>2026-04-19T09:33:10.235Z</time></trkpt><trkpt lat="43.8415571" lon="12.7082721"><ele>67.0</ele><time>2026-04-19T09:33:11.235Z</time></trkpt><trkpt lat="43.8416807" lon="12.7085011"><ele>67.0</ele><time>2026-04-19T09:33:12.234Z</time></trkpt><trkpt lat="43.8418212" lon="12.7087217"><ele>67.0</ele><time>2026-04-19T09:33:13.236Z</time></trkpt><trkpt lat="43.8419908" lon="12.7089146"><ele>65.5</ele><time>2026-04-19T09:33:14.238Z</time></trkpt><trkpt lat="43.8421898" lon="12.7090797"><ele>64.0</ele><time>2026-04-19T09:33:15.235Z</time></trkpt><trkpt lat="43.8424052" lon="12.7092285"><ele>64.0</ele><time>2026-04-19T09:33:16.237Z</time></trkpt><trkpt lat="43.8426231" lon="12.7093772"><ele>64.0</ele><time>2026-04-19T09:33:17.234Z</time></trkpt><trkpt lat="43.8428443" lon="12.7095325"><ele>61.5</ele><time>2026-04-19T09:33:18.239Z</time></trkpt><trkpt lat="43.8430634" lon="12.7096862"><ele>59.0</ele><time>2026-04-19T09:33:19.234Z</time></trkpt><trkpt lat="43.8432776" lon="12.7098521"><ele>59.5</ele><time>2026-04-19T09:33:20.235Z</time></trkpt><trkpt lat="43.8434781" lon="12.710034"><ele>60.0</ele><time>2026-04-19T09:33:21.235Z</time></trkpt><trkpt lat="43.8436581" lon="12.7102484"><ele>59.0</ele><time>2026-04-19T09:33:22.234Z</time></trkpt><trkpt lat="43.8438115" lon="12.7104992"><ele>58.0</ele><time>2026-04-19T09:33:23.234Z</time></trkpt><trkpt lat="43.8439562" lon="12.7107621"><ele>58.0</ele><time>2026-04-19T09:33:24.234Z</time></trkpt><trkpt lat="43.8440996" lon="12.7110272"><ele>58.0</ele><time>2026-04-19T09:33:25.234Z</time></trkpt><trkpt lat="43.8442433" lon="12.7112893"><ele>56.5</ele><time>2026-04-19T09:33:26.235Z</time></trkpt><trkpt lat="43.8443837" lon="12.7115473"><ele>55.0</ele><time>2026-04-19T09:33:27.234Z</time></trkpt><trkpt lat="43.8445207" lon="12.7118026"><ele>56.0</ele><time>2026-04-19T09:33:28.234Z</time></trkpt><trkpt lat="43.8446596" lon="12.7120513"><ele>57.0</ele><time>2026-04-19T09:33:29.234Z</time></trkpt><trkpt lat="43.844798" lon="12.7123008"><ele>57.0</ele><time>2026-04-19T09:33:30.234Z</time></trkpt><trkpt lat="43.8449364" lon="12.7125504"><ele>57.0</ele><time>2026-04-19T09:33:31.236Z</time></trkpt><trkpt lat="43.8450736" lon="12.7128026"><ele>56.0</ele><time>2026-04-19T09:33:32.234Z</time></trkpt><trkpt lat="43.8452104" lon="12.7130596"><ele>55.0</ele><time>2026-04-19T09:33:33.234Z</time></trkpt><trkpt lat="43.8453509" lon="12.7133139"><ele>55.0</ele><time>2026-04-19T09:33:34.234Z</time></trkpt><trkpt lat="43.8454924" lon="12.7135662"><ele>55.0</ele><time>2026-04-19T09:33:35.234Z</time></trkpt><trkpt lat="43.8456325" lon="12.7138244"><ele>56.5</ele><time>2026-04-19T09:33:36.234Z</time></trkpt><trkpt lat="43.8457723" lon="12.7140829"><ele>58.0</ele><time>2026-04-19T09:33:37.234Z</time></trkpt><trkpt lat="43.8459162" lon="12.71434"><ele>55.5</ele><time>2026-04-19T09:33:38.235Z</time></trkpt><trkpt lat="43.8460586" lon="12.7145939"><ele>53.0</ele><time>2026-04-19T09:33:39.236Z</time></trkpt><trkpt lat="43.8461986" lon="12.7148383"><ele>53.0</ele><time>2026-04-19T09:33:40.241Z</time></trkpt><trkpt lat="43.8463268" lon="12.7150696"><ele>53.0</ele><time>2026-04-19T09:33:41.238Z</time></trkpt><trkpt lat="43.8464407" lon="12.7152911"><ele>53.0</ele><time>2026-04-19T09:33:42.235Z</time></trkpt><trkpt lat="43.8465428" lon="12.7155155"><ele>53.66666666666667</ele><time>2026-04-19T09:33:43.248Z</time></trkpt><trkpt lat="43.8466334" lon="12.7157443"><ele>54.33333333333333</ele><time>2026-04-19T09:33:44.235Z</time></trkpt><trkpt lat="43.8467071" lon="12.7159841"><ele>55.0</ele><time>2026-04-19T09:33:45.234Z</time></trkpt><trkpt lat="43.8467699" lon="12.7162358"><ele>54.666666666666664</ele><time>2026-04-19T09:33:46.235Z</time></trkpt><trkpt lat="43.8468201" lon="12.7165021"><ele>54.33333333333333</ele><time>2026-04-19T09:33:47.234Z</time></trkpt><trkpt lat="43.846864" lon="12.7167741"><ele>54.0</ele><time>2026-04-19T09:33:48.234Z</time></trkpt><trkpt lat="43.8469051" lon="12.7170467"><ele>54.0</ele><time>2026-04-19T09:33:49.246Z</time></trkpt><trkpt lat="43.8469484" lon="12.7173166"><ele>54.0</ele><time>2026-04-19T09:33:50.234Z</time></trkpt><trkpt lat="43.8469928" lon="12.7175875"><ele>54.0</ele><time>2026-04-19T09:33:51.233Z</time></trkpt><trkpt lat="43.8470389" lon="12.717855"><ele>54.0</ele><time>2026-04-19T09:33:52.234Z</time></trkpt><trkpt lat="43.8470841" lon="12.7181188"><ele>54.0</ele><time>2026-04-19T09:33:53.234Z</time></trkpt><trkpt lat="43.8471294" lon="12.7183791"><ele>54.0</ele><time>2026-04-19T09:33:54.235Z</time></trkpt><trkpt lat="43.8471794" lon="12.7186316"><ele>54.33333333333333</ele><time>2026-04-19T09:33:55.235Z</time></trkpt><trkpt lat="43.8472244" lon="12.7188713"><ele>54.666666666666664</ele><time>2026-04-19T09:33:56.234Z</time></trkpt><trkpt lat="43.8472657" lon="12.7190945"><ele>55.0</ele><time>2026-04-19T09:33:57.234Z</time></trkpt><trkpt lat="43.8473026" lon="12.7192951"><ele>54.75</ele><time>2026-04-19T09:33:58.242Z</time></trkpt><trkpt lat="43.847331" lon="12.7194822"><ele>54.5</ele><time>2026-04-19T09:33:59.235Z</time></trkpt><trkpt lat="43.8473433" lon="12.7196632"><ele>54.25</ele><time>2026-04-19T09:34:00.233Z</time></trkpt><trkpt lat="43.8473286" lon="12.7198353"><ele>54.0</ele><time>2026-04-19T09:34:01.237Z</time></trkpt><trkpt lat="43.8472897" lon="12.7199908"><ele>54.0</ele><time>2026-04-19T09:34:02.234Z</time></trkpt><trkpt lat="43.8472342" lon="12.7201286"><ele>54.00000000000001</ele><time>2026-04-19T09:34:03.242Z</time></trkpt><trkpt lat="43.8471778" lon="12.7202465"><ele>54.00000000000001</ele><time>2026-04-19T09:34:04.237Z</time></trkpt><trkpt lat="43.8471406" lon="12.7203487"><ele>54.0</ele><time>2026-04-19T09:34:05.233Z</time></trkpt><trkpt lat="43.8471264" lon="12.7204498"><ele>54.0</ele><time>2026-04-19T09:34:06.233Z</time></trkpt><trkpt lat="43.8471815" lon="12.7206419"><ele>53.75</ele><time>2026-04-19T09:34:08.234Z</time></trkpt><trkpt lat="43.8472825" lon="12.7207247"><ele>53.5</ele><time>2026-04-19T09:34:09.234Z</time></trkpt><trkpt lat="43.8474089" lon="12.7208438"><ele>53.25</ele><time>2026-04-19T09:34:10.234Z</time></trkpt><trkpt lat="43.8475127" lon="12.7209974"><ele>53.0</ele><time>2026-04-19T09:34:11.238Z</time></trkpt><trkpt lat="43.8475915" lon="12.7211892"><ele>53.66666666666667</ele><time>2026-04-19T09:34:12.232Z</time></trkpt><trkpt lat="43.8476524" lon="12.7214201"><ele>54.33333333333333</ele><time>2026-04-19T09:34:13.234Z</time></trkpt><trkpt lat="43.8477085" lon="12.7216746"><ele>55.0</ele><time>2026-04-19T09:34:14.234Z</time></trkpt><trkpt lat="43.8477788" lon="12.7219253"><ele>55.33333333333333</ele><time>2026-04-19T09:34:15.233Z</time></trkpt><trkpt lat="43.8478741" lon="12.7221678"><ele>55.66666666666667</ele><time>2026-04-19T09:34:16.234Z</time></trkpt><trkpt lat="43.8479879" lon="12.7223977"><ele>56.0</ele><time>2026-04-19T09:34:17.233Z</time></trkpt><trkpt lat="43.8481184" lon="12.7226133"><ele>55.0</ele><time>2026-04-19T09:34:18.233Z</time></trkpt><trkpt lat="43.8482556" lon="12.7228181"><ele>54.0</ele><time>2026-04-19T09:34:19.234Z</time></trkpt><trkpt lat="43.8483897" lon="12.7230136"><ele>53.0</ele><time>2026-04-19T09:34:20.234Z</time></trkpt><trkpt lat="43.8485149" lon="12.7231952"><ele>53.0</ele><time>2026-04-19T09:34:21.233Z</time></trkpt><trkpt lat="43.8486306" lon="12.7233723"><ele>53.0</ele><time>2026-04-19T09:34:22.233Z</time></trkpt><trkpt lat="43.8487298" lon="12.7235332"><ele>53.0</ele><time>2026-04-19T09:34:23.237Z</time></trkpt><trkpt lat="43.8488207" lon="12.7236729"><ele>53.0</ele><time>2026-04-19T09:34:24.233Z</time></trkpt><trkpt lat="43.8489036" lon="12.7237955"><ele>53.0</ele><time>2026-04-19T09:34:25.234Z</time></trkpt><trkpt lat="43.8489742" lon="12.7239199"><ele>53.0</ele><time>2026-04-19T09:34:26.234Z</time></trkpt><trkpt lat="43.8490149" lon="12.7240616"><ele>53.0</ele><time>2026-04-19T09:34:27.232Z</time></trkpt><trkpt lat="43.8490248" lon="12.7242226"><ele>53.0</ele><time>2026-04-19T09:34:28.233Z</time></trkpt><trkpt lat="43.8490208" lon="12.7243893"><ele>53.0</ele><time>2026-04-19T09:34:29.235Z</time></trkpt><trkpt lat="43.8490343" lon="12.7245436"><ele>53.0</ele><time>2026-04-19T09:34:30.233Z</time></trkpt><trkpt lat="43.8490646" lon="12.7246784"><ele>53.0</ele><time>2026-04-19T09:34:31.233Z</time></trkpt><trkpt lat="43.8491133" lon="12.7247851"><ele>53.0</ele><time>2026-04-19T09:34:32.234Z</time></trkpt><trkpt lat="43.849187" lon="12.7248458"><ele>53.2</ele><time>2026-04-19T09:34:33.233Z</time></trkpt><trkpt lat="43.8492689" lon="12.7248732"><ele>53.4</ele><time>2026-04-19T09:34:34.233Z</time></trkpt><trkpt lat="43.8493518" lon="12.7248031"><ele>53.60000000000001</ele><time>2026-04-19T09:34:35.234Z</time></trkpt><trkpt lat="43.8494141" lon="12.7246693"><ele>53.800000000000004</ele><time>2026-04-19T09:34:36.233Z</time></trkpt><trkpt lat="43.8494385" lon="12.7245078"><ele>54.0</ele><time>2026-04-19T09:34:37.234Z</time></trkpt><trkpt lat="43.8494225" lon="12.7243016"><ele>54.5</ele><time>2026-04-19T09:34:38.234Z</time></trkpt><trkpt lat="43.8494161" lon="12.7241049"><ele>55.0</ele><time>2026-04-19T09:34:39.233Z</time></trkpt><trkpt lat="43.8494506" lon="12.723905"><ele>55.5</ele><time>2026-04-19T09:34:40.233Z</time></trkpt><trkpt lat="43.8495297" lon="12.7237314"><ele>56.0</ele><time>2026-04-19T09:34:41.233Z</time></trkpt><trkpt lat="43.8496406" lon="12.7235876"><ele>55.75</ele><time>2026-04-19T09:34:42.233Z</time></trkpt><trkpt lat="43.8497737" lon="12.7234615"><ele>55.5</ele><time>2026-04-19T09:34:43.234Z</time></trkpt><trkpt lat="43.8498909" lon="12.7233412"><ele>55.25</ele><time>2026-04-19T09:34:44.233Z</time></trkpt><trkpt lat="43.8499959" lon="12.7232216"><ele>55.0</ele><time>2026-04-19T09:34:45.233Z</time></trkpt><trkpt lat="43.8500717" lon="12.7230901"><ele>55.0</ele><time>2026-04-19T09:34:46.233Z</time></trkpt><trkpt lat="43.8501105" lon="12.7229448"><ele>55.0</ele><time>2026-04-19T09:34:47.234Z</time></trkpt><trkpt lat="43.8501246" lon="12.7227857"><ele>55.0</ele><time>2026-04-19T09:34:48.233Z</time></trkpt><trkpt lat="43.8501062" lon="12.7226246"><ele>55.0</ele><time>2026-04-19T09:34:49.233Z</time></trkpt><trkpt lat="43.8500454" lon="12.7224572"><ele>54.75</ele><time>2026-04-19T09:34:50.233Z</time></trkpt><trkpt lat="43.8499744" lon="12.7222774"><ele>54.5</ele><time>2026-04-19T09:34:51.237Z</time></trkpt><trkpt lat="43.8499109" lon="12.7220884"><ele>54.25</ele><time>2026-04-19T09:34:52.233Z</time></trkpt><trkpt lat="43.8498534" lon="12.7218987"><ele>54.0</ele><time>2026-04-19T09:34:53.234Z</time></trkpt><trkpt lat="43.8497998" lon="12.721727"><ele>54.75</ele><time>2026-04-19T09:34:54.233Z</time></trkpt><trkpt lat="43.8497532" lon="12.721572"><ele>55.5</ele><time>2026-04-19T09:34:55.234Z</time></trkpt><trkpt lat="43.8497137" lon="12.7214238"><ele>56.25</ele><time>2026-04-19T09:34:56.234Z</time></trkpt><trkpt lat="43.8497016" lon="12.7212741"><ele>57.0</ele><time>2026-04-19T09:34:57.233Z</time></trkpt><trkpt lat="43.849738" lon="12.7211267"><ele>57.75</ele><time>2026-04-19T09:34:58.233Z</time></trkpt><trkpt lat="43.8498265" lon="12.7210105"><ele>58.5</ele><time>2026-04-19T09:34:59.234Z</time></trkpt><trkpt lat="43.8499426" lon="12.7209256"><ele>59.25</ele><time>2026-04-19T09:35:00.233Z</time></trkpt><trkpt lat="43.8500688" lon="12.7208509"><ele>60.0</ele><time>2026-04-19T09:35:01.233Z</time></trkpt><trkpt lat="43.8501987" lon="12.7207715"><ele>60.66666666666667</ele><time>2026-04-19T09:35:02.233Z</time></trkpt><trkpt lat="43.8503298" lon="12.7206844"><ele>61.333333333333336</ele><time>2026-04-19T09:35:03.233Z</time></trkpt><trkpt lat="43.8504665" lon="12.7205965"><ele>62.0</ele><time>2026-04-19T09:35:04.233Z</time></trkpt><trkpt lat="43.8506061" lon="12.720503"><ele>62.0</ele><time>2026-04-19T09:35:05.234Z</time></trkpt><trkpt lat="43.8507501" lon="12.7204087"><ele>62.0</ele><time>2026-04-19T09:35:06.233Z</time></trkpt><trkpt lat="43.8508945" lon="12.7203102"><ele>62.0</ele><time>2026-04-19T09:35:07.233Z</time></trkpt><trkpt lat="43.8510458" lon="12.7202166"><ele>62.333333333333336</ele><time>2026-04-19T09:35:08.234Z</time></trkpt><trkpt lat="43.8511941" lon="12.720116"><ele>62.66666666666667</ele><time>2026-04-19T09:35:09.233Z</time></trkpt><trkpt lat="43.8513364" lon="12.7200134"><ele>63.0</ele><time>2026-04-19T09:35:10.232Z</time></trkpt><trkpt lat="43.8514766" lon="12.7199113"><ele>63.0</ele><time>2026-04-19T09:35:11.233Z</time></trkpt><trkpt lat="43.8516124" lon="12.7198116"><ele>63.0</ele><time>2026-04-19T09:35:12.233Z</time></trkpt><trkpt lat="43.8517442" lon="12.7197163"><ele>63.0</ele><time>2026-04-19T09:35:13.234Z</time></trkpt><trkpt lat="43.8518728" lon="12.719629"><ele>63.0</ele><time>2026-04-19T09:35:14.234Z</time></trkpt><trkpt lat="43.8520009" lon="12.7195438"><ele>63.25</ele><time>2026-04-19T09:35:15.232Z</time></trkpt><trkpt lat="43.8521224" lon="12.7194641"><ele>63.5</ele><time>2026-04-19T09:35:16.233Z</time></trkpt><trkpt lat="43.8522365" lon="12.7193835"><ele>63.75</ele><time>2026-04-19T09:35:17.234Z</time></trkpt><trkpt lat="43.8523471" lon="12.7193018"><ele>64.0</ele><time>2026-04-19T09:35:18.233Z</time></trkpt><trkpt lat="43.8524671" lon="12.7191953"><ele>64.0</ele><time>2026-04-19T09:35:19.234Z</time></trkpt><trkpt lat="43.8525873" lon="12.7190676"><ele>64.0</ele><time>2026-04-19T09:35:20.234Z</time></trkpt><trkpt lat="43.8527044" lon="12.7189222"><ele>64.0</ele><time>2026-04-19T09:35:21.233Z</time></trkpt><trkpt lat="43.8528214" lon="12.7187671"><ele>65.66666666666666</ele><time>2026-04-19T09:35:22.232Z</time></trkpt><trkpt lat="43.8529325" lon="12.7186032"><ele>67.33333333333333</ele><time>2026-04-19T09:35:23.233Z</time></trkpt><trkpt lat="43.8530446" lon="12.7184376"><ele>69.0</ele><time>2026-04-19T09:35:24.233Z</time></trkpt><trkpt lat="43.8531591" lon="12.718274"><ele>69.0</ele><time>2026-04-19T09:35:25.233Z</time></trkpt><trkpt lat="43.85328" lon="12.7181173"><ele>69.0</ele><time>2026-04-19T09:35:26.235Z</time></trkpt><trkpt lat="43.8534074" lon="12.7179696"><ele>69.0</ele><time>2026-04-19T09:35:27.233Z</time></trkpt><trkpt lat="43.8535425" lon="12.7178223"><ele>69.33333333333333</ele><time>2026-04-19T09:35:28.233Z</time></trkpt><trkpt lat="43.8536835" lon="12.7176855"><ele>69.66666666666666</ele><time>2026-04-19T09:35:29.235Z</time></trkpt><trkpt lat="43.8538291" lon="12.7175665"><ele>70.0</ele><time>2026-04-19T09:35:30.233Z</time></trkpt><trkpt lat="43.8539795" lon="12.7174608"><ele>70.0</ele><time>2026-04-19T09:35:31.233Z</time></trkpt><trkpt lat="43.854138" lon="12.7173676"><ele>70.0</ele><time>2026-04-19T09:35:32.238Z</time></trkpt><trkpt lat="43.8542922" lon="12.7172661"><ele>70.0</ele><time>2026-04-19T09:35:33.233Z</time></trkpt><trkpt lat="43.8544424" lon="12.7171549"><ele>70.0</ele><time>2026-04-19T09:35:34.233Z</time></trkpt><trkpt lat="43.8545877" lon="12.7170333"><ele>70.0</ele><time>2026-04-19T09:35:35.232Z</time></trkpt><trkpt lat="43.8547215" lon="12.7169031"><ele>70.0</ele><time>2026-04-19T09:35:36.233Z</time></trkpt><trkpt lat="43.8548529" lon="12.7167736"><ele>70.0</ele><time>2026-04-19T09:35:37.235Z</time></trkpt><trkpt lat="43.8549828" lon="12.7166466"><ele>70.0</ele><time>2026-04-19T09:35:38.234Z</time></trkpt><trkpt lat="43.8551201" lon="12.716535"><ele>70.0</ele><time>2026-04-19T09:35:39.233Z</time></trkpt><trkpt lat="43.8552604" lon="12.7164319"><ele>71.33333333333333</ele><time>2026-04-19T09:35:40.233Z</time></trkpt><trkpt lat="43.8554031" lon="12.7163393"><ele>72.66666666666667</ele><time>2026-04-19T09:35:41.234Z</time></trkpt><trkpt lat="43.8555428" lon="12.7162495"><ele>74.0</ele><time>2026-04-19T09:35:42.233Z</time></trkpt><trkpt lat="43.8556757" lon="12.7161716"><ele>74.0</ele><time>2026-04-19T09:35:43.234Z</time></trkpt><trkpt lat="43.8557986" lon="12.7161136"><ele>74.0</ele><time>2026-04-19T09:35:44.233Z</time></trkpt><trkpt lat="43.8559104" lon="12.7160841"><ele>74.0</ele><time>2026-04-19T09:35:45.233Z</time></trkpt><trkpt lat="43.8560195" lon="12.7160885"><ele>74.0</ele><time>2026-04-19T09:35:46.232Z</time></trkpt><trkpt lat="43.8561289" lon="12.7161175"><ele>74.25</ele><time>2026-04-19T09:35:47.233Z</time></trkpt><trkpt lat="43.8562472" lon="12.7161632"><ele>74.5</ele><time>2026-04-19T09:35:48.232Z</time></trkpt><trkpt lat="43.8563634" lon="12.7162241"><ele>74.75</ele><time>2026-04-19T09:35:49.233Z</time></trkpt><trkpt lat="43.8564755" lon="12.7162995"><ele>75.0</ele><time>2026-04-19T09:35:50.234Z</time></trkpt><trkpt lat="43.8565722" lon="12.7163664"><ele>75.0</ele><time>2026-04-19T09:35:51.233Z</time></trkpt><trkpt lat="43.8566646" lon="12.7164188"><ele>75.0</ele><time>2026-04-19T09:35:52.233Z</time></trkpt><trkpt lat="43.8567476" lon="12.7164434"><ele>75.0</ele><time>2026-04-19T09:35:53.233Z</time></trkpt><trkpt lat="43.8568201" lon="12.7164379"><ele>75.0</ele><time>2026-04-19T09:35:54.233Z</time></trkpt><trkpt lat="43.8568719" lon="12.7162945"><ele>75.0</ele><time>2026-04-19T09:35:56.234Z</time></trkpt><trkpt lat="43.8568284" lon="12.7161836"><ele>77.0</ele><time>2026-04-19T09:35:57.232Z</time></trkpt><trkpt lat="43.8567512" lon="12.7160614"><ele>79.0</ele><time>2026-04-19T09:35:58.232Z</time></trkpt><trkpt lat="43.8566772" lon="12.7159299"><ele>81.0</ele><time>2026-04-19T09:35:59.233Z</time></trkpt><trkpt lat="43.8566365" lon="12.7157649"><ele>83.0</ele><time>2026-04-19T09:36:00.233Z</time></trkpt><trkpt lat="43.8566464" lon="12.715552"><ele>83.0</ele><time>2026-04-19T09:36:01.234Z</time></trkpt><trkpt lat="43.8566632" lon="12.7153615"><ele>83.0</ele><time>2026-04-19T09:36:02.233Z</time></trkpt><trkpt lat="43.8566827" lon="12.7151902"><ele>83.0</ele><time>2026-04-19T09:36:03.233Z</time></trkpt><trkpt lat="43.8567383" lon="12.7150493"><ele>83.0</ele><time>2026-04-19T09:36:04.232Z</time></trkpt><trkpt lat="43.8568089" lon="12.7149372"><ele>86.75</ele><time>2026-04-19T09:36:05.233Z</time></trkpt><trkpt lat="43.856908" lon="12.7148521"><ele>90.5</ele><time>2026-04-19T09:36:06.233Z</time></trkpt><trkpt lat="43.8570117" lon="12.7147994"><ele>94.25</ele><time>2026-04-19T09:36:07.232Z</time></trkpt><trkpt lat="43.8571391" lon="12.7147991"><ele>98.0</ele><time>2026-04-19T09:36:08.235Z</time></trkpt><trkpt lat="43.8572844" lon="12.7148285"><ele>98.0</ele><time>2026-04-19T09:36:09.232Z</time></trkpt><trkpt lat="43.857438" lon="12.7148715"><ele>98.0</ele><time>2026-04-19T09:36:10.233Z</time></trkpt><trkpt lat="43.8576148" lon="12.7149495"><ele>98.0</ele><time>2026-04-19T09:36:11.233Z</time></trkpt><trkpt lat="43.8577729" lon="12.7150068"><ele>101.66666666666666</ele><time>2026-04-19T09:36:12.233Z</time></trkpt><trkpt lat="43.8579279" lon="12.7150524"><ele>105.33333333333334</ele><time>2026-04-19T09:36:13.233Z</time></trkpt><trkpt lat="43.8580787" lon="12.7150874"><ele>109.0</ele><time>2026-04-19T09:36:14.234Z</time></trkpt><trkpt lat="43.8582257" lon="12.71512"><ele>109.0</ele><time>2026-04-19T09:36:15.232Z</time></trkpt><trkpt lat="43.8583712" lon="12.7151484"><ele>109.0</ele><time>2026-04-19T09:36:16.233Z</time></trkpt><trkpt lat="43.8585174" lon="12.7151723"><ele>109.0</ele><time>2026-04-19T09:36:17.233Z</time></trkpt><trkpt lat="43.8586611" lon="12.7151924"><ele>109.0</ele><time>2026-04-19T09:36:18.233Z</time></trkpt><trkpt lat="43.8588025" lon="12.7152131"><ele>109.25</ele><time>2026-04-19T09:36:19.233Z</time></trkpt><trkpt lat="43.8589463" lon="12.7152348"><ele>109.5</ele><time>2026-04-19T09:36:20.233Z</time></trkpt><trkpt lat="43.8590874" lon="12.7152632"><ele>109.75</ele><time>2026-04-19T09:36:21.233Z</time></trkpt><trkpt lat="43.8592221" lon="12.7152913"><ele>110.0</ele><time>2026-04-19T09:36:22.233Z</time></trkpt><trkpt lat="43.8593432" lon="12.7153151"><ele>111.6</ele><time>2026-04-19T09:36:23.232Z</time></trkpt><trkpt lat="43.8594552" lon="12.7153381"><ele>113.2</ele><time>2026-04-19T09:36:24.234Z</time></trkpt><trkpt lat="43.8595604" lon="12.7153566"><ele>114.80000000000001</ele><time>2026-04-19T09:36:25.232Z</time></trkpt><trkpt lat="43.8596659" lon="12.7153735"><ele>116.4</ele><time>2026-04-19T09:36:26.232Z</time></trkpt><trkpt lat="43.8597678" lon="12.7153988"><ele>118.0</ele><time>2026-04-19T09:36:27.232Z</time></trkpt><trkpt lat="43.8598663" lon="12.7154319"><ele>118.00000000000001</ele><time>2026-04-19T09:36:28.231Z</time></trkpt><trkpt lat="43.8599595" lon="12.7154746"><ele>118.0</ele><time>2026-04-19T09:36:29.232Z</time></trkpt><trkpt lat="43.8600425" lon="12.7155254"><ele>118.0</ele><time>2026-04-19T09:36:30.232Z</time></trkpt><trkpt lat="43.8601227" lon="12.715579"><ele>118.0</ele><time>2026-04-19T09:36:31.232Z</time></trkpt><trkpt lat="43.860194" lon="12.7156307"><ele>118.00000000000001</ele><time>2026-04-19T09:36:32.232Z</time></trkpt><trkpt lat="43.8602563" lon="12.7156858"><ele>118.0</ele><time>2026-04-19T09:36:33.233Z</time></trkpt><trkpt lat="43.8603116" lon="12.7157506"><ele>117.80000000000001</ele><time>2026-04-19T09:36:34.232Z</time></trkpt><trkpt lat="43.8603516" lon="12.7158417"><ele>117.60000000000001</ele><time>2026-04-19T09:36:35.232Z</time></trkpt><trkpt lat="43.8603823" lon="12.7159528"><ele>117.39999999999999</ele><time>2026-04-19T09:36:36.232Z</time></trkpt><trkpt lat="43.8604063" lon="12.7161097"><ele>117.19999999999999</ele><time>2026-04-19T09:36:37.232Z</time></trkpt><trkpt lat="43.8604377" lon="12.716288"><ele>117.0</ele><time>2026-04-19T09:36:38.232Z</time></trkpt><trkpt lat="43.8604771" lon="12.7164793"><ele>117.0</ele><time>2026-04-19T09:36:39.232Z</time></trkpt><trkpt lat="43.8605229" lon="12.716679"><ele>117.0</ele><time>2026-04-19T09:36:40.231Z</time></trkpt><trkpt lat="43.8605671" lon="12.7168901"><ele>117.0</ele><time>2026-04-19T09:36:41.232Z</time></trkpt><trkpt lat="43.8606114" lon="12.7170998"><ele>116.66666666666666</ele><time>2026-04-19T09:36:42.232Z</time></trkpt><trkpt lat="43.8606554" lon="12.7173069"><ele>116.33333333333333</ele><time>2026-04-19T09:36:43.232Z</time></trkpt><trkpt lat="43.8606978" lon="12.7175126"><ele>116.0</ele><time>2026-04-19T09:36:44.232Z</time></trkpt><trkpt lat="43.8607403" lon="12.717722"><ele>115.66666666666666</ele><time>2026-04-19T09:36:45.231Z</time></trkpt><trkpt lat="43.8607903" lon="12.7179323"><ele>115.33333333333334</ele><time>2026-04-19T09:36:46.231Z</time></trkpt><trkpt lat="43.8608354" lon="12.7181469"><ele>115.0</ele><time>2026-04-19T09:36:47.233Z</time></trkpt><trkpt lat="43.8608818" lon="12.7183628"><ele>114.33333333333334</ele><time>2026-04-19T09:36:48.233Z</time></trkpt><trkpt lat="43.8609328" lon="12.7185786"><ele>113.66666666666666</ele><time>2026-04-19T09:36:49.233Z</time></trkpt><trkpt lat="43.860979" lon="12.7187977"><ele>113.0</ele><time>2026-04-19T09:36:50.233Z</time></trkpt><trkpt lat="43.8610247" lon="12.7190175"><ele>114.33333333333333</ele><time>2026-04-19T09:36:51.233Z</time></trkpt><trkpt lat="43.8610753" lon="12.7192333"><ele>115.66666666666666</ele><time>2026-04-19T09:36:52.232Z</time></trkpt><trkpt lat="43.8611277" lon="12.7194471"><ele>117.0</ele><time>2026-04-19T09:36:53.233Z</time></trkpt><trkpt lat="43.8611745" lon="12.719663"><ele>117.66666666666666</ele><time>2026-04-19T09:36:54.233Z</time></trkpt><trkpt lat="43.8612201" lon="12.7198799"><ele>118.33333333333333</ele><time>2026-04-19T09:36:55.233Z</time></trkpt><trkpt lat="43.8612616" lon="12.7200927"><ele>119.0</ele><time>2026-04-19T09:36:56.234Z</time></trkpt><trkpt lat="43.8612935" lon="12.7203135"><ele>119.0</ele><time>2026-04-19T09:36:57.233Z</time></trkpt><trkpt lat="43.8613129" lon="12.7205381"><ele>119.0</ele><time>2026-04-19T09:36:58.231Z</time></trkpt><trkpt lat="43.8613153" lon="12.7207664"><ele>119.0</ele><time>2026-04-19T09:36:59.233Z</time></trkpt><trkpt lat="43.8613044" lon="12.7209963"><ele>117.66666666666666</ele><time>2026-04-19T09:37:00.233Z</time></trkpt><trkpt lat="43.8612856" lon="12.7212254"><ele>116.33333333333334</ele><time>2026-04-19T09:37:01.233Z</time></trkpt><trkpt lat="43.8612638" lon="12.7214613"><ele>115.0</ele><time>2026-04-19T09:37:02.235Z</time></trkpt><trkpt lat="43.8612527" lon="12.7217036"><ele>114.0</ele><time>2026-04-19T09:37:03.234Z</time></trkpt><trkpt lat="43.8612575" lon="12.7219476"><ele>113.0</ele><time>2026-04-19T09:37:04.231Z</time></trkpt><trkpt lat="43.8612788" lon="12.7221971"><ele>112.0</ele><time>2026-04-19T09:37:05.233Z</time></trkpt><trkpt lat="43.8612992" lon="12.7224465"><ele>112.0</ele><time>2026-04-19T09:37:06.233Z</time></trkpt><trkpt lat="43.8613159" lon="12.7226965"><ele>112.0</ele><time>2026-04-19T09:37:07.233Z</time></trkpt><trkpt lat="43.8613284" lon="12.7229486"><ele>112.0</ele><time>2026-04-19T09:37:08.233Z</time></trkpt><trkpt lat="43.8613427" lon="12.7231959"><ele>112.33333333333334</ele><time>2026-04-19T09:37:09.232Z</time></trkpt><trkpt lat="43.8613645" lon="12.7234434"><ele>112.66666666666666</ele><time>2026-04-19T09:37:10.231Z</time></trkpt><trkpt lat="43.8614083" lon="12.7236833"><ele>113.0</ele><time>2026-04-19T09:37:11.233Z</time></trkpt><trkpt lat="43.8614779" lon="12.7239139"><ele>113.66666666666666</ele><time>2026-04-19T09:37:12.233Z</time></trkpt><trkpt lat="43.8615724" lon="12.724134"><ele>114.33333333333334</ele><time>2026-04-19T09:37:13.233Z</time></trkpt><trkpt lat="43.8616799" lon="12.7243474"><ele>115.0</ele><time>2026-04-19T09:37:14.233Z</time></trkpt><trkpt lat="43.8617912" lon="12.7245586"><ele>112.66666666666667</ele><time>2026-04-19T09:37:15.233Z</time></trkpt><trkpt lat="43.8618981" lon="12.7247742"><ele>110.33333333333334</ele><time>2026-04-19T09:37:16.231Z</time></trkpt><trkpt lat="43.8620116" lon="12.7249894"><ele>108.0</ele><time>2026-04-19T09:37:17.232Z</time></trkpt><trkpt lat="43.8621244" lon="12.7252087"><ele>108.66666666666666</ele><time>2026-04-19T09:37:18.231Z</time></trkpt><trkpt lat="43.8622407" lon="12.725421"><ele>109.33333333333333</ele><time>2026-04-19T09:37:19.233Z</time></trkpt><trkpt lat="43.8623665" lon="12.7256249"><ele>110.0</ele><time>2026-04-19T09:37:20.232Z</time></trkpt><trkpt lat="43.8625014" lon="12.7258198"><ele>110.66666666666666</ele><time>2026-04-19T09:37:21.233Z</time></trkpt><trkpt lat="43.8626401" lon="12.7260114"><ele>111.33333333333334</ele><time>2026-04-19T09:37:22.232Z</time></trkpt><trkpt lat="43.8627806" lon="12.7262009"><ele>112.0</ele><time>2026-04-19T09:37:23.233Z</time></trkpt><trkpt lat="43.86292" lon="12.726387"><ele>112.0</ele><time>2026-04-19T09:37:24.234Z</time></trkpt><trkpt lat="43.8630602" lon="12.7265686"><ele>112.0</ele><time>2026-04-19T09:37:25.233Z</time></trkpt><trkpt lat="43.8631987" lon="12.726751"><ele>112.0</ele><time>2026-04-19T09:37:26.232Z</time></trkpt><trkpt lat="43.8633337" lon="12.7269341"><ele>112.0</ele><time>2026-04-19T09:37:27.233Z</time></trkpt><trkpt lat="43.863464" lon="12.7271207"><ele>112.0</ele><time>2026-04-19T09:37:28.232Z</time></trkpt><trkpt lat="43.8635938" lon="12.7273048"><ele>112.0</ele><time>2026-04-19T09:37:29.233Z</time></trkpt><trkpt lat="43.8637271" lon="12.7274835"><ele>112.0</ele><time>2026-04-19T09:37:30.232Z</time></trkpt><trkpt lat="43.8638609" lon="12.7276609"><ele>112.0</ele><time>2026-04-19T09:37:31.232Z</time></trkpt><trkpt lat="43.8639975" lon="12.7278365"><ele>112.0</ele><time>2026-04-19T09:37:32.232Z</time></trkpt><trkpt lat="43.8641439" lon="12.7279981"><ele>112.0</ele><time>2026-04-19T09:37:33.233Z</time></trkpt><trkpt lat="43.8643065" lon="12.7281323"><ele>112.0</ele><time>2026-04-19T09:37:34.232Z</time></trkpt><trkpt lat="43.8644896" lon="12.7282472"><ele>112.0</ele><time>2026-04-19T09:37:35.233Z</time></trkpt><trkpt lat="43.8646865" lon="12.7283595"><ele>112.0</ele><time>2026-04-19T09:37:36.233Z</time></trkpt><trkpt lat="43.8648865" lon="12.7284741"><ele>112.0</ele><time>2026-04-19T09:37:37.233Z</time></trkpt><trkpt lat="43.8650848" lon="12.7285958"><ele>112.0</ele><time>2026-04-19T09:37:38.233Z</time></trkpt><trkpt lat="43.8652796" lon="12.7287175"><ele>111.66666666666667</ele><time>2026-04-19T09:37:39.232Z</time></trkpt><trkpt lat="43.8654733" lon="12.728838"><ele>111.33333333333334</ele><time>2026-04-19T09:37:40.232Z</time></trkpt><trkpt lat="43.8656665" lon="12.728959"><ele>111.0</ele><time>2026-04-19T09:37:41.231Z</time></trkpt><trkpt lat="43.8658582" lon="12.7290779"><ele>111.33333333333334</ele><time>2026-04-19T09:37:42.233Z</time></trkpt><trkpt lat="43.8660484" lon="12.7291985"><ele>111.66666666666667</ele><time>2026-04-19T09:37:43.231Z</time></trkpt><trkpt lat="43.8662332" lon="12.7293182"><ele>112.0</ele><time>2026-04-19T09:37:44.234Z</time></trkpt><trkpt lat="43.8664166" lon="12.7294414"><ele>112.33333333333334</ele><time>2026-04-19T09:37:45.231Z</time></trkpt><trkpt lat="43.8666038" lon="12.7295567"><ele>112.66666666666666</ele><time>2026-04-19T09:37:46.231Z</time></trkpt><trkpt lat="43.8667933" lon="12.7296617"><ele>113.0</ele><time>2026-04-19T09:37:47.231Z</time></trkpt><trkpt lat="43.8669862" lon="12.7297537"><ele>113.0</ele><time>2026-04-19T09:37:48.231Z</time></trkpt><trkpt lat="43.8671827" lon="12.7298453"><ele>113.0</ele><time>2026-04-19T09:37:49.232Z</time></trkpt><trkpt lat="43.8673782" lon="12.7299368"><ele>113.0</ele><time>2026-04-19T09:37:50.232Z</time></trkpt><trkpt lat="43.8675744" lon="12.7300271"><ele>113.33333333333333</ele><time>2026-04-19T09:37:51.231Z</time></trkpt><trkpt lat="43.8677652" lon="12.730122"><ele>113.66666666666666</ele><time>2026-04-19T09:37:52.23Z</time></trkpt><trkpt lat="43.8679583" lon="12.7302218"><ele>114.0</ele><time>2026-04-19T09:37:53.231Z</time></trkpt><trkpt lat="43.8681469" lon="12.7303275"><ele>114.0</ele><time>2026-04-19T09:37:54.231Z</time></trkpt><trkpt lat="43.8683302" lon="12.7304481"><ele>114.0</ele><time>2026-04-19T09:37:55.231Z</time></trkpt><trkpt lat="43.8685051" lon="12.7305888"><ele>114.0</ele><time>2026-04-19T09:37:56.232Z</time></trkpt><trkpt lat="43.8686759" lon="12.7307465"><ele>116.0</ele><time>2026-04-19T09:37:57.231Z</time></trkpt><trkpt lat="43.8688383" lon="12.7309229"><ele>118.0</ele><time>2026-04-19T09:37:58.232Z</time></trkpt><trkpt lat="43.8689848" lon="12.7311123"><ele>120.0</ele><time>2026-04-19T09:37:59.232Z</time></trkpt><trkpt lat="43.8691135" lon="12.7313069"><ele>120.0</ele><time>2026-04-19T09:38:00.232Z</time></trkpt><trkpt lat="43.8692268" lon="12.7314979"><ele>120.0</ele><time>2026-04-19T09:38:01.232Z</time></trkpt><trkpt lat="43.8693286" lon="12.7316816"><ele>120.0</ele><time>2026-04-19T09:38:02.233Z</time></trkpt><trkpt lat="43.8694087" lon="12.7318687"><ele>119.33333333333334</ele><time>2026-04-19T09:38:03.232Z</time></trkpt><trkpt lat="43.8694673" lon="12.7320686"><ele>118.66666666666667</ele><time>2026-04-19T09:38:04.232Z</time></trkpt><trkpt lat="43.8695024" lon="12.7322808"><ele>118.0</ele><time>2026-04-19T09:38:05.232Z</time></trkpt><trkpt lat="43.8695176" lon="12.7324908"><ele>118.0</ele><time>2026-04-19T09:38:06.232Z</time></trkpt><trkpt lat="43.8695109" lon="12.732688"><ele>118.0</ele><time>2026-04-19T09:38:07.233Z</time></trkpt><trkpt lat="43.869488" lon="12.7328699"><ele>118.0</ele><time>2026-04-19T09:38:08.232Z</time></trkpt><trkpt lat="43.8694222" lon="12.7330369"><ele>118.0</ele><time>2026-04-19T09:38:09.231Z</time></trkpt><trkpt lat="43.8693228" lon="12.7331879"><ele>120.33333333333334</ele><time>2026-04-19T09:38:10.231Z</time></trkpt><trkpt lat="43.8692077" lon="12.7333274"><ele>122.66666666666666</ele><time>2026-04-19T09:38:11.232Z</time></trkpt><trkpt lat="43.8690926" lon="12.7334696"><ele>125.0</ele><time>2026-04-19T09:38:12.231Z</time></trkpt><trkpt lat="43.8689834" lon="12.7336189"><ele>126.33333333333333</ele><time>2026-04-19T09:38:13.232Z</time></trkpt><trkpt lat="43.8688772" lon="12.733775"><ele>127.66666666666666</ele><time>2026-04-19T09:38:14.232Z</time></trkpt><trkpt lat="43.8687813" lon="12.7339389"><ele>129.0</ele><time>2026-04-19T09:38:15.231Z</time></trkpt><trkpt lat="43.8686904" lon="12.7341012"><ele>129.0</ele><time>2026-04-19T09:38:16.231Z</time></trkpt><trkpt lat="43.868613" lon="12.7342759"><ele>129.0</ele><time>2026-04-19T09:38:17.231Z</time></trkpt><trkpt lat="43.8685403" lon="12.7344459"><ele>129.0</ele><time>2026-04-19T09:38:18.231Z</time></trkpt><trkpt lat="43.868471" lon="12.7346001"><ele>129.0</ele><time>2026-04-19T09:38:19.232Z</time></trkpt><trkpt lat="43.8684138" lon="12.7347473"><ele>130.25</ele><time>2026-04-19T09:38:20.232Z</time></trkpt><trkpt lat="43.8683647" lon="12.7348985"><ele>131.5</ele><time>2026-04-19T09:38:21.232Z</time></trkpt><trkpt lat="43.8683652" lon="12.7350494"><ele>132.75</ele><time>2026-04-19T09:38:22.231Z</time></trkpt><trkpt lat="43.8684141" lon="12.7351889"><ele>134.0</ele><time>2026-04-19T09:38:23.233Z</time></trkpt><trkpt lat="43.8684951" lon="12.7353191"><ele>135.5</ele><time>2026-04-19T09:38:24.232Z</time></trkpt><trkpt lat="43.8686109" lon="12.7354207"><ele>137.0</ele><time>2026-04-19T09:38:25.231Z</time></trkpt><trkpt lat="43.8687419" lon="12.7355068"><ele>138.5</ele><time>2026-04-19T09:38:26.233Z</time></trkpt><trkpt lat="43.8688769" lon="12.7355944"><ele>140.0</ele><time>2026-04-19T09:38:27.231Z</time></trkpt><trkpt lat="43.8690111" lon="12.7356858"><ele>140.0</ele><time>2026-04-19T09:38:28.231Z</time></trkpt><trkpt lat="43.8691444" lon="12.7357901"><ele>140.0</ele><time>2026-04-19T09:38:29.231Z</time></trkpt><trkpt lat="43.8692877" lon="12.7359014"><ele>140.0</ele><time>2026-04-19T09:38:30.232Z</time></trkpt><trkpt lat="43.8694388" lon="12.7360253"><ele>139.0</ele><time>2026-04-19T09:38:31.232Z</time></trkpt><trkpt lat="43.8695931" lon="12.7361599"><ele>138.0</ele><time>2026-04-19T09:38:32.232Z</time></trkpt><trkpt lat="43.869748" lon="12.7363003"><ele>137.0</ele><time>2026-04-19T09:38:33.232Z</time></trkpt><trkpt lat="43.8699305" lon="12.7364407"><ele>138.0</ele><time>2026-04-19T09:38:34.231Z</time></trkpt><trkpt lat="43.8701286" lon="12.736575"><ele>139.0</ele><time>2026-04-19T09:38:35.231Z</time></trkpt><trkpt lat="43.8703321" lon="12.7367132"><ele>140.0</ele><time>2026-04-19T09:38:36.232Z</time></trkpt><trkpt lat="43.8705266" lon="12.7368348"><ele>138.66666666666666</ele><time>2026-04-19T09:38:37.232Z</time></trkpt><trkpt lat="43.8707157" lon="12.7369469"><ele>137.33333333333334</ele><time>2026-04-19T09:38:38.232Z</time></trkpt><trkpt lat="43.8708996" lon="12.7370522"><ele>136.0</ele><time>2026-04-19T09:38:39.232Z</time></trkpt><trkpt lat="43.8710782" lon="12.7371659"><ele>139.0</ele><time>2026-04-19T09:38:40.231Z</time></trkpt><trkpt lat="43.8712512" lon="12.7372957"><ele>142.0</ele><time>2026-04-19T09:38:41.231Z</time></trkpt><trkpt lat="43.8714131" lon="12.7374406"><ele>145.0</ele><time>2026-04-19T09:38:42.231Z</time></trkpt><trkpt lat="43.8715757" lon="12.7375797"><ele>146.0</ele><time>2026-04-19T09:38:43.231Z</time></trkpt><trkpt lat="43.871733" lon="12.7377222"><ele>147.0</ele><time>2026-04-19T09:38:44.232Z</time></trkpt><trkpt lat="43.8718746" lon="12.7378796"><ele>148.0</ele><time>2026-04-19T09:38:45.231Z</time></trkpt><trkpt lat="43.8719878" lon="12.738069"><ele>148.0</ele><time>2026-04-19T09:38:46.232Z</time></trkpt><trkpt lat="43.8720765" lon="12.7382759"><ele>148.0</ele><time>2026-04-19T09:38:47.232Z</time></trkpt><trkpt lat="43.8721408" lon="12.7385"><ele>148.0</ele><time>2026-04-19T09:38:48.231Z</time></trkpt><trkpt lat="43.8721902" lon="12.7387357"><ele>148.33333333333334</ele><time>2026-04-19T09:38:49.231Z</time></trkpt><trkpt lat="43.8722329" lon="12.7389712"><ele>148.66666666666666</ele><time>2026-04-19T09:38:50.231Z</time></trkpt><trkpt lat="43.8722761" lon="12.7392011"><ele>149.0</ele><time>2026-04-19T09:38:51.231Z</time></trkpt><trkpt lat="43.8723254" lon="12.7394188"><ele>149.0</ele><time>2026-04-19T09:38:52.231Z</time></trkpt><trkpt lat="43.8723918" lon="12.7396092"><ele>149.0</ele><time>2026-04-19T09:38:53.231Z</time></trkpt><trkpt lat="43.872482" lon="12.7397829"><ele>149.0</ele><time>2026-04-19T09:38:54.231Z</time></trkpt><trkpt lat="43.8725987" lon="12.7399417"><ele>147.33333333333331</ele><time>2026-04-19T09:38:55.231Z</time></trkpt><trkpt lat="43.8727339" lon="12.7400803"><ele>145.66666666666666</ele><time>2026-04-19T09:38:56.231Z</time></trkpt><trkpt lat="43.872892" lon="12.7402034"><ele>144.0</ele><time>2026-04-19T09:38:57.23Z</time></trkpt><trkpt lat="43.8730624" lon="12.7403056"><ele>144.0</ele><time>2026-04-19T09:38:58.231Z</time></trkpt><trkpt lat="43.8732413" lon="12.7403865"><ele>144.0</ele><time>2026-04-19T09:38:59.23Z</time></trkpt><trkpt lat="43.8734213" lon="12.7404504"><ele>144.0</ele><time>2026-04-19T09:39:00.231Z</time></trkpt><trkpt lat="43.873597" lon="12.740511"><ele>146.66666666666666</ele><time>2026-04-19T09:39:01.23Z</time></trkpt><trkpt lat="43.8737616" lon="12.7405706"><ele>149.33333333333331</ele><time>2026-04-19T09:39:02.23Z</time></trkpt><trkpt lat="43.8739118" lon="12.7406195"><ele>152.0</ele><time>2026-04-19T09:39:03.23Z</time></trkpt><trkpt lat="43.8740495" lon="12.7406618"><ele>152.0</ele><time>2026-04-19T09:39:04.23Z</time></trkpt><trkpt lat="43.8741886" lon="12.7407026"><ele>152.0</ele><time>2026-04-19T09:39:05.23Z</time></trkpt><trkpt lat="43.8743349" lon="12.7407446"><ele>152.0</ele><time>2026-04-19T09:39:06.231Z</time></trkpt><trkpt lat="43.8744797" lon="12.7407851"><ele>152.0</ele><time>2026-04-19T09:39:07.235Z</time></trkpt><trkpt lat="43.874614" lon="12.7408325"><ele>152.75</ele><time>2026-04-19T09:39:08.23Z</time></trkpt><trkpt lat="43.8747454" lon="12.7408944"><ele>153.5</ele><time>2026-04-19T09:39:09.236Z</time></trkpt><trkpt lat="43.8748689" lon="12.7409942"><ele>154.25</ele><time>2026-04-19T09:39:10.23Z</time></trkpt><trkpt lat="43.8749762" lon="12.7411346"><ele>155.0</ele><time>2026-04-19T09:39:11.231Z</time></trkpt><trkpt lat="43.8750725" lon="12.7413048"><ele>160.66666666666666</ele><time>2026-04-19T09:39:12.231Z</time></trkpt><trkpt lat="43.8751598" lon="12.7414884"><ele>166.33333333333334</ele><time>2026-04-19T09:39:13.23Z</time></trkpt><trkpt lat="43.875251" lon="12.7416652"><ele>172.0</ele><time>2026-04-19T09:39:14.231Z</time></trkpt><trkpt lat="43.8753473" lon="12.741835"><ele>170.33333333333334</ele><time>2026-04-19T09:39:15.231Z</time></trkpt><trkpt lat="43.8754506" lon="12.7419978"><ele>168.66666666666666</ele><time>2026-04-19T09:39:16.233Z</time></trkpt><trkpt lat="43.8755617" lon="12.7421584"><ele>167.0</ele><time>2026-04-19T09:39:17.232Z</time></trkpt><trkpt lat="43.8756804" lon="12.7423164"><ele>167.0</ele><time>2026-04-19T09:39:18.231Z</time></trkpt><trkpt lat="43.8758004" lon="12.7424735"><ele>167.0</ele><time>2026-04-19T09:39:19.23Z</time></trkpt><trkpt lat="43.8759242" lon="12.7426244"><ele>167.0</ele><time>2026-04-19T09:39:20.231Z</time></trkpt><trkpt lat="43.8760459" lon="12.7427757"><ele>166.0</ele><time>2026-04-19T09:39:21.23Z</time></trkpt><trkpt lat="43.8761674" lon="12.7429272"><ele>165.0</ele><time>2026-04-19T09:39:22.23Z</time></trkpt><trkpt lat="43.8762866" lon="12.7430739"><ele>164.0</ele><time>2026-04-19T09:39:23.231Z</time></trkpt><trkpt lat="43.8763998" lon="12.7432254"><ele>164.0</ele><time>2026-04-19T09:39:24.231Z</time></trkpt><trkpt lat="43.8765068" lon="12.7433771"><ele>164.0</ele><time>2026-04-19T09:39:25.231Z</time></trkpt><trkpt lat="43.8766163" lon="12.7435179"><ele>164.0</ele><time>2026-04-19T09:39:26.231Z</time></trkpt><trkpt lat="43.87673" lon="12.7436527"><ele>160.66666666666666</ele><time>2026-04-19T09:39:27.233Z</time></trkpt><trkpt lat="43.8768431" lon="12.7437897"><ele>157.33333333333334</ele><time>2026-04-19T09:39:28.23Z</time></trkpt><trkpt lat="43.8769581" lon="12.7439347"><ele>154.0</ele><time>2026-04-19T09:39:29.231Z</time></trkpt><trkpt lat="43.8770707" lon="12.7440803"><ele>154.0</ele><time>2026-04-19T09:39:30.231Z</time></trkpt><trkpt lat="43.8771812" lon="12.7442196"><ele>154.0</ele><time>2026-04-19T09:39:31.23Z</time></trkpt><trkpt lat="43.8772906" lon="12.7443572"><ele>154.0</ele><time>2026-04-19T09:39:32.232Z</time></trkpt><trkpt lat="43.8773957" lon="12.7444925"><ele>154.0</ele><time>2026-04-19T09:39:33.23Z</time></trkpt><trkpt lat="43.8775009" lon="12.7446277"><ele>150.33333333333334</ele><time>2026-04-19T09:39:34.23Z</time></trkpt><trkpt lat="43.87761" lon="12.7447672"><ele>146.66666666666666</ele><time>2026-04-19T09:39:35.23Z</time></trkpt><trkpt lat="43.8777218" lon="12.7449162"><ele>143.0</ele><time>2026-04-19T09:39:36.23Z</time></trkpt><trkpt lat="43.8778291" lon="12.7450735"><ele>143.66666666666666</ele><time>2026-04-19T09:39:37.231Z</time></trkpt><trkpt lat="43.877934" lon="12.7452375"><ele>144.33333333333334</ele><time>2026-04-19T09:39:38.23Z</time></trkpt><trkpt lat="43.8780242" lon="12.7454183"><ele>145.0</ele><time>2026-04-19T09:39:39.231Z</time></trkpt><trkpt lat="43.8781024" lon="12.7456161"><ele>145.0</ele><time>2026-04-19T09:39:40.23Z</time></trkpt><trkpt lat="43.878172" lon="12.7458345"><ele>145.0</ele><time>2026-04-19T09:39:41.23Z</time></trkpt><trkpt lat="43.8782396" lon="12.7460594"><ele>145.0</ele><time>2026-04-19T09:39:42.23Z</time></trkpt><trkpt lat="43.8783036" lon="12.7462876"><ele>145.0</ele><time>2026-04-19T09:39:43.23Z</time></trkpt><trkpt lat="43.8783702" lon="12.7465152"><ele>145.0</ele><time>2026-04-19T09:39:44.231Z</time></trkpt><trkpt lat="43.8784404" lon="12.7467491"><ele>145.0</ele><time>2026-04-19T09:39:45.23Z</time></trkpt><trkpt lat="43.8785119" lon="12.7469905"><ele>145.0</ele><time>2026-04-19T09:39:46.23Z</time></trkpt><trkpt lat="43.8785848" lon="12.7472275"><ele>145.0</ele><time>2026-04-19T09:39:47.23Z</time></trkpt><trkpt lat="43.8786618" lon="12.7474563"><ele>145.0</ele><time>2026-04-19T09:39:48.23Z</time></trkpt><trkpt lat="43.8787412" lon="12.7476804"><ele>145.66666666666669</ele><time>2026-04-19T09:39:49.23Z</time></trkpt><trkpt lat="43.878828" lon="12.7478913"><ele>146.33333333333334</ele><time>2026-04-19T09:39:50.231Z</time></trkpt><trkpt lat="43.878926" lon="12.7480906"><ele>147.0</ele><time>2026-04-19T09:39:51.23Z</time></trkpt><trkpt lat="43.8790319" lon="12.7482823"><ele>147.0</ele><time>2026-04-19T09:39:52.232Z</time></trkpt><trkpt lat="43.8791425" lon="12.7484689"><ele>147.0</ele><time>2026-04-19T09:39:53.23Z</time></trkpt><trkpt lat="43.8792506" lon="12.748655"><ele>147.0</ele><time>2026-04-19T09:39:54.231Z</time></trkpt><trkpt lat="43.8793574" lon="12.7488455"><ele>146.0</ele><time>2026-04-19T09:39:55.23Z</time></trkpt><trkpt lat="43.8794617" lon="12.7490383"><ele>145.0</ele><time>2026-04-19T09:39:56.231Z</time></trkpt><trkpt lat="43.879562" lon="12.7492393"><ele>144.0</ele><time>2026-04-19T09:39:57.23Z</time></trkpt><trkpt lat="43.8796564" lon="12.7494458"><ele>144.0</ele><time>2026-04-19T09:39:58.231Z</time></trkpt><trkpt lat="43.8797469" lon="12.7496574"><ele>144.0</ele><time>2026-04-19T09:39:59.23Z</time></trkpt><trkpt lat="43.8798398" lon="12.7498699"><ele>144.0</ele><time>2026-04-19T09:40:00.231Z</time></trkpt><trkpt lat="43.8799305" lon="12.7500816"><ele>144.0</ele><time>2026-04-19T09:40:01.23Z</time></trkpt><trkpt lat="43.8800192" lon="12.7502915"><ele>144.0</ele><time>2026-04-19T09:40:02.231Z</time></trkpt><trkpt lat="43.8801049" lon="12.7504945"><ele>144.0</ele><time>2026-04-19T09:40:03.231Z</time></trkpt><trkpt lat="43.8801904" lon="12.7506925"><ele>145.33333333333334</ele><time>2026-04-19T09:40:04.23Z</time></trkpt><trkpt lat="43.8802764" lon="12.7508814"><ele>146.66666666666669</ele><time>2026-04-19T09:40:05.23Z</time></trkpt><trkpt lat="43.8803651" lon="12.7510626"><ele>148.0</ele><time>2026-04-19T09:40:06.243Z</time></trkpt><trkpt lat="43.8804578" lon="12.7512413"><ele>148.0</ele><time>2026-04-19T09:40:07.23Z</time></trkpt><trkpt lat="43.8805592" lon="12.7514204"><ele>148.0</ele><time>2026-04-19T09:40:08.23Z</time></trkpt><trkpt lat="43.8806618" lon="12.7515994"><ele>148.0</ele><time>2026-04-19T09:40:09.23Z</time></trkpt><trkpt lat="43.880762" lon="12.7517813"><ele>146.66666666666669</ele><time>2026-04-19T09:40:10.23Z</time></trkpt><trkpt lat="43.8808581" lon="12.7519712"><ele>145.33333333333334</ele><time>2026-04-19T09:40:11.231Z</time></trkpt><trkpt lat="43.8809488" lon="12.7521694"><ele>144.0</ele><time>2026-04-19T09:40:12.231Z</time></trkpt><trkpt lat="43.8810292" lon="12.7523746"><ele>143.66666666666666</ele><time>2026-04-19T09:40:13.231Z</time></trkpt><trkpt lat="43.8811071" lon="12.7525745"><ele>143.33333333333331</ele><time>2026-04-19T09:40:14.23Z</time></trkpt><trkpt lat="43.8811868" lon="12.7527689"><ele>143.0</ele><time>2026-04-19T09:40:15.23Z</time></trkpt><trkpt lat="43.8812551" lon="12.7529688"><ele>143.66666666666666</ele><time>2026-04-19T09:40:16.229Z</time></trkpt><trkpt lat="43.8813114" lon="12.7531745"><ele>144.33333333333334</ele><time>2026-04-19T09:40:17.23Z</time></trkpt><trkpt lat="43.8813624" lon="12.7533779"><ele>145.0</ele><time>2026-04-19T09:40:18.23Z</time></trkpt><trkpt lat="43.8813961" lon="12.753587"><ele>145.33333333333334</ele><time>2026-04-19T09:40:19.23Z</time></trkpt><trkpt lat="43.881426" lon="12.7538007"><ele>145.66666666666666</ele><time>2026-04-19T09:40:20.23Z</time></trkpt><trkpt lat="43.8814646" lon="12.7540126"><ele>146.0</ele><time>2026-04-19T09:40:21.23Z</time></trkpt><trkpt lat="43.8815146" lon="12.7542199"><ele>147.0</ele><time>2026-04-19T09:40:22.23Z</time></trkpt><trkpt lat="43.8815744" lon="12.7544256"><ele>148.0</ele><time>2026-04-19T09:40:23.23Z</time></trkpt><trkpt lat="43.8816379" lon="12.7546255"><ele>149.0</ele><time>2026-04-19T09:40:24.231Z</time></trkpt><trkpt lat="43.8817033" lon="12.7548237"><ele>146.33333333333331</ele><time>2026-04-19T09:40:25.23Z</time></trkpt><trkpt lat="43.8817717" lon="12.7550218"><ele>143.66666666666666</ele><time>2026-04-19T09:40:26.23Z</time></trkpt><trkpt lat="43.881843" lon="12.7552185"><ele>141.0</ele><time>2026-04-19T09:40:27.23Z</time></trkpt><trkpt lat="43.8819155" lon="12.7554106"><ele>141.0</ele><time>2026-04-19T09:40:28.23Z</time></trkpt><trkpt lat="43.881985" lon="12.7555952"><ele>141.0</ele><time>2026-04-19T09:40:29.23Z</time></trkpt><trkpt lat="43.8820508" lon="12.7557733"><ele>141.0</ele><time>2026-04-19T09:40:30.23Z</time></trkpt><trkpt lat="43.8821111" lon="12.7559351"><ele>141.0</ele><time>2026-04-19T09:40:31.23Z</time></trkpt><trkpt lat="43.8821724" lon="12.7560875"><ele>142.0</ele><time>2026-04-19T09:40:32.23Z</time></trkpt><trkpt lat="43.8822255" lon="12.7562327"><ele>143.0</ele><time>2026-04-19T09:40:33.23Z</time></trkpt><trkpt lat="43.8822764" lon="12.7563688"><ele>144.0</ele><time>2026-04-19T09:40:34.23Z</time></trkpt><trkpt lat="43.8823157" lon="12.7564941"><ele>145.0</ele><time>2026-04-19T09:40:35.23Z</time></trkpt><trkpt lat="43.8823516" lon="12.7566136"><ele>146.0</ele><time>2026-04-19T09:40:36.23Z</time></trkpt><trkpt lat="43.8823796" lon="12.7567167"><ele>146.0</ele><time>2026-04-19T09:40:37.23Z</time></trkpt><trkpt lat="43.8823949" lon="12.7568043"><ele>146.0</ele><time>2026-04-19T09:40:38.23Z</time></trkpt><trkpt lat="43.8824082" lon="12.7569389"><ele>146.0</ele><time>2026-04-19T09:40:40.23Z</time></trkpt><trkpt lat="43.8824653" lon="12.7570415"><ele>146.0</ele><time>2026-04-19T09:40:42.231Z</time></trkpt><trkpt lat="43.8825405" lon="12.7571441"><ele>146.0</ele><time>2026-04-19T09:40:43.231Z</time></trkpt><trkpt lat="43.8826465" lon="12.7572722"><ele>146.0</ele><time>2026-04-19T09:40:44.232Z</time></trkpt><trkpt lat="43.8827776" lon="12.7574184"><ele>146.0</ele><time>2026-04-19T09:40:45.23Z</time></trkpt><trkpt lat="43.8829228" lon="12.7575921"><ele>146.0</ele><time>2026-04-19T09:40:46.23Z</time></trkpt><trkpt lat="43.8830701" lon="12.757782"><ele>146.0</ele><time>2026-04-19T09:40:47.23Z</time></trkpt><trkpt lat="43.8832183" lon="12.7579789"><ele>146.0</ele><time>2026-04-19T09:40:48.23Z</time></trkpt><trkpt lat="43.8833759" lon="12.7581903"><ele>146.0</ele><time>2026-04-19T09:40:49.23Z</time></trkpt><trkpt lat="43.8835387" lon="12.7584093"><ele>147.5</ele><time>2026-04-19T09:40:50.232Z</time></trkpt><trkpt lat="43.8837012" lon="12.7586299"><ele>149.0</ele><time>2026-04-19T09:40:51.23Z</time></trkpt><trkpt lat="43.883873" lon="12.7588704"><ele>149.0</ele><time>2026-04-19T09:40:52.23Z</time></trkpt><trkpt lat="43.8840478" lon="12.7591108"><ele>149.0</ele><time>2026-04-19T09:40:53.23Z</time></trkpt><trkpt lat="43.884213" lon="12.7593377"><ele>150.33333333333331</ele><time>2026-04-19T09:40:54.23Z</time></trkpt><trkpt lat="43.8843648" lon="12.7595521"><ele>151.66666666666666</ele><time>2026-04-19T09:40:55.23Z</time></trkpt><trkpt lat="43.8845088" lon="12.7597571"><ele>153.0</ele><time>2026-04-19T09:40:56.23Z</time></trkpt><trkpt lat="43.8846502" lon="12.7599607"><ele>153.0</ele><time>2026-04-19T09:40:57.23Z</time></trkpt><trkpt lat="43.8847949" lon="12.7601582"><ele>153.0</ele><time>2026-04-19T09:40:58.23Z</time></trkpt><trkpt lat="43.8849346" lon="12.7603567"><ele>153.0</ele><time>2026-04-19T09:40:59.23Z</time></trkpt><trkpt lat="43.8850728" lon="12.7605508"><ele>154.0</ele><time>2026-04-19T09:41:00.23Z</time></trkpt><trkpt lat="43.8852081" lon="12.7607429"><ele>155.0</ele><time>2026-04-19T09:41:01.23Z</time></trkpt><trkpt lat="43.8853415" lon="12.7609231"><ele>156.0</ele><time>2026-04-19T09:41:02.231Z</time></trkpt><trkpt lat="43.885482" lon="12.7610994"><ele>156.0</ele><time>2026-04-19T09:41:03.231Z</time></trkpt><trkpt lat="43.8856398" lon="12.7612785"><ele>156.0</ele><time>2026-04-19T09:41:04.23Z</time></trkpt><trkpt lat="43.8858109" lon="12.7614686"><ele>156.0</ele><time>2026-04-19T09:41:05.231Z</time></trkpt><trkpt lat="43.8859953" lon="12.7616698"><ele>155.5</ele><time>2026-04-19T09:41:06.231Z</time></trkpt><trkpt lat="43.8861944" lon="12.7618749"><ele>155.0</ele><time>2026-04-19T09:41:07.253Z</time></trkpt><trkpt lat="43.8864034" lon="12.7620808"><ele>155.0</ele><time>2026-04-19T09:41:08.23Z</time></trkpt><trkpt lat="43.886622" lon="12.7623076"><ele>155.0</ele><time>2026-04-19T09:41:09.23Z</time></trkpt><trkpt lat="43.8868327" lon="12.7625605"><ele>155.5</ele><time>2026-04-19T09:41:10.23Z</time></trkpt><trkpt lat="43.8870324" lon="12.7628345"><ele>156.0</ele><time>2026-04-19T09:41:11.23Z</time></trkpt><trkpt lat="43.8872275" lon="12.763113"><ele>156.0</ele><time>2026-04-19T09:41:12.23Z</time></trkpt><trkpt lat="43.8874175" lon="12.7633944"><ele>156.0</ele><time>2026-04-19T09:41:13.233Z</time></trkpt><trkpt lat="43.8876029" lon="12.7636637"><ele>159.0</ele><time>2026-04-19T09:41:14.23Z</time></trkpt><trkpt lat="43.8877927" lon="12.7639122"><ele>162.0</ele><time>2026-04-19T09:41:15.229Z</time></trkpt><trkpt lat="43.8879904" lon="12.7641427"><ele>162.0</ele><time>2026-04-19T09:41:16.23Z</time></trkpt><trkpt lat="43.8882053" lon="12.764336"><ele>162.0</ele><time>2026-04-19T09:41:17.231Z</time></trkpt><trkpt lat="43.888432" lon="12.7645014"><ele>165.5</ele><time>2026-04-19T09:41:18.23Z</time></trkpt><trkpt lat="43.8886665" lon="12.7646561"><ele>169.0</ele><time>2026-04-19T09:41:19.231Z</time></trkpt><trkpt lat="43.8889041" lon="12.7648133"><ele>169.0</ele><time>2026-04-19T09:41:20.232Z</time></trkpt><trkpt lat="43.889137" lon="12.7649696"><ele>169.0</ele><time>2026-04-19T09:41:21.23Z</time></trkpt><trkpt lat="43.8893599" lon="12.7651299"><ele>173.0</ele><time>2026-04-19T09:41:22.23Z</time></trkpt><trkpt lat="43.8895773" lon="12.7652933"><ele>177.0</ele><time>2026-04-19T09:41:23.246Z</time></trkpt><trkpt lat="43.889791" lon="12.7654437"><ele>177.0</ele><time>2026-04-19T09:41:24.231Z</time></trkpt><trkpt lat="43.8900122" lon="12.7655656"><ele>177.0</ele><time>2026-04-19T09:41:25.23Z</time></trkpt><trkpt lat="43.8902454" lon="12.7656543"><ele>175.5</ele><time>2026-04-19T09:41:26.231Z</time></trkpt><trkpt lat="43.8904845" lon="12.7657231"><ele>174.0</ele><time>2026-04-19T09:41:27.23Z</time></trkpt><trkpt lat="43.8907139" lon="12.7657737"><ele>173.0</ele><time>2026-04-19T09:41:28.229Z</time></trkpt><trkpt lat="43.8909326" lon="12.7658331"><ele>172.0</ele><time>2026-04-19T09:41:29.23Z</time></trkpt><trkpt lat="43.8911499" lon="12.7659121"><ele>171.0</ele><time>2026-04-19T09:41:30.23Z</time></trkpt><trkpt lat="43.8913683" lon="12.766015"><ele>175.0</ele><time>2026-04-19T09:41:31.23Z</time></trkpt><trkpt lat="43.8915696" lon="12.7661462"><ele>179.0</ele><time>2026-04-19T09:41:32.23Z</time></trkpt><trkpt lat="43.8917566" lon="12.766274"><ele>183.0</ele><time>2026-04-19T09:41:33.23Z</time></trkpt><trkpt lat="43.8919256" lon="12.7663986"><ele>183.0</ele><time>2026-04-19T09:41:34.23Z</time></trkpt><trkpt lat="43.8920796" lon="12.7665116"><ele>183.0</ele><time>2026-04-19T09:41:35.229Z</time></trkpt><trkpt lat="43.8922262" lon="12.766617"><ele>183.0</ele><time>2026-04-19T09:41:36.229Z</time></trkpt><trkpt lat="43.8923618" lon="12.7667105"><ele>183.0</ele><time>2026-04-19T09:41:37.229Z</time></trkpt><trkpt lat="43.8924852" lon="12.7668034"><ele>183.0</ele><time>2026-04-19T09:41:38.229Z</time></trkpt><trkpt lat="43.8925982" lon="12.7668902"><ele>183.0</ele><time>2026-04-19T09:41:39.229Z</time></trkpt><trkpt lat="43.8927022" lon="12.7669697"><ele>183.0</ele><time>2026-04-19T09:41:40.229Z</time></trkpt><trkpt lat="43.8927895" lon="12.767045"><ele>182.8</ele><time>2026-04-19T09:41:41.229Z</time></trkpt><trkpt lat="43.8928462" lon="12.7671179"><ele>182.60000000000002</ele><time>2026-04-19T09:41:42.229Z</time></trkpt><trkpt lat="43.8929098" lon="12.7672411"><ele>182.39999999999998</ele><time>2026-04-19T09:41:44.231Z</time></trkpt><trkpt lat="43.8930064" lon="12.7673038"><ele>182.2</ele><time>2026-04-19T09:41:52.229Z</time></trkpt><trkpt lat="43.8931043" lon="12.7672892"><ele>182.0</ele><time>2026-04-19T09:41:53.23Z</time></trkpt><trkpt lat="43.8932591" lon="12.7672329"><ele>182.0</ele><time>2026-04-19T09:41:54.229Z</time></trkpt><trkpt lat="43.8934311" lon="12.7671762"><ele>182.0</ele><time>2026-04-19T09:41:55.23Z</time></trkpt><trkpt lat="43.8936066" lon="12.7671245"><ele>182.0</ele><time>2026-04-19T09:41:56.23Z</time></trkpt><trkpt lat="43.8937891" lon="12.7670679"><ele>182.0</ele><time>2026-04-19T09:41:57.23Z</time></trkpt><trkpt lat="43.8939852" lon="12.7669979"><ele>182.0</ele><time>2026-04-19T09:41:58.23Z</time></trkpt><trkpt lat="43.8941882" lon="12.766917"><ele>182.0</ele><time>2026-04-19T09:41:59.228Z</time></trkpt><trkpt lat="43.8944003" lon="12.7668209"><ele>185.0</ele><time>2026-04-19T09:42:00.228Z</time></trkpt><trkpt lat="43.8946214" lon="12.766705"><ele>188.0</ele><time>2026-04-19T09:42:01.23Z</time></trkpt><trkpt lat="43.8948319" lon="12.7665698"><ele>188.0</ele><time>2026-04-19T09:42:02.23Z</time></trkpt><trkpt lat="43.8950342" lon="12.7664071"><ele>188.0</ele><time>2026-04-19T09:42:03.23Z</time></trkpt><trkpt lat="43.8952109" lon="12.7662081"><ele>194.0</ele><time>2026-04-19T09:42:04.229Z</time></trkpt><trkpt lat="43.8953631" lon="12.7659679"><ele>200.0</ele><time>2026-04-19T09:42:05.23Z</time></trkpt><trkpt lat="43.8955052" lon="12.7657065"><ele>200.0</ele><time>2026-04-19T09:42:06.229Z</time></trkpt><trkpt lat="43.8956379" lon="12.7654408"><ele>200.0</ele><time>2026-04-19T09:42:07.228Z</time></trkpt><trkpt lat="43.895775" lon="12.7651862"><ele>196.5</ele><time>2026-04-19T09:42:08.228Z</time></trkpt><trkpt lat="43.8959083" lon="12.7649334"><ele>193.0</ele><time>2026-04-19T09:42:09.228Z</time></trkpt><trkpt lat="43.8960408" lon="12.7646803"><ele>198.0</ele><time>2026-04-19T09:42:10.23Z</time></trkpt><trkpt lat="43.8961718" lon="12.7644253"><ele>203.0</ele><time>2026-04-19T09:42:11.229Z</time></trkpt><trkpt lat="43.8962939" lon="12.7641678"><ele>208.0</ele><time>2026-04-19T09:42:12.228Z</time></trkpt><trkpt lat="43.8963997" lon="12.7638996"><ele>208.0</ele><time>2026-04-19T09:42:13.229Z</time></trkpt><trkpt lat="43.8964872" lon="12.7636168"><ele>208.0</ele><time>2026-04-19T09:42:14.23Z</time></trkpt><trkpt lat="43.8965661" lon="12.7633282"><ele>208.0</ele><time>2026-04-19T09:42:15.228Z</time></trkpt><trkpt lat="43.8966433" lon="12.7630398"><ele>208.66666666666666</ele><time>2026-04-19T09:42:16.228Z</time></trkpt><trkpt lat="43.8967233" lon="12.7627536"><ele>209.33333333333331</ele><time>2026-04-19T09:42:17.229Z</time></trkpt><trkpt lat="43.8968068" lon="12.7624713"><ele>210.0</ele><time>2026-04-19T09:42:18.229Z</time></trkpt><trkpt lat="43.8968878" lon="12.7621943"><ele>210.0</ele><time>2026-04-19T09:42:19.228Z</time></trkpt><trkpt lat="43.896961" lon="12.7619268"><ele>210.0</ele><time>2026-04-19T09:42:20.229Z</time></trkpt><trkpt lat="43.8970296" lon="12.761674"><ele>210.0</ele><time>2026-04-19T09:42:21.229Z</time></trkpt><trkpt lat="43.8970919" lon="12.761434"><ele>208.0</ele><time>2026-04-19T09:42:22.228Z</time></trkpt><trkpt lat="43.8971471" lon="12.7612024"><ele>206.0</ele><time>2026-04-19T09:42:23.228Z</time></trkpt><trkpt lat="43.8971882" lon="12.7609769"><ele>204.0</ele><time>2026-04-19T09:42:24.229Z</time></trkpt><trkpt lat="43.8972177" lon="12.7607577"><ele>202.0</ele><time>2026-04-19T09:42:25.229Z</time></trkpt><trkpt lat="43.8972382" lon="12.7605449"><ele>200.0</ele><time>2026-04-19T09:42:26.229Z</time></trkpt><trkpt lat="43.8972544" lon="12.760343"><ele>198.0</ele><time>2026-04-19T09:42:27.229Z</time></trkpt><trkpt lat="43.8972828" lon="12.7601476"><ele>196.0</ele><time>2026-04-19T09:42:28.229Z</time></trkpt><trkpt lat="43.8973272" lon="12.7599665"><ele>194.25</ele><time>2026-04-19T09:42:29.229Z</time></trkpt><trkpt lat="43.897395" lon="12.7597996"><ele>192.5</ele><time>2026-04-19T09:42:30.229Z</time></trkpt><trkpt lat="43.8974856" lon="12.7596433"><ele>190.75</ele><time>2026-04-19T09:42:31.229Z</time></trkpt><trkpt lat="43.8975844" lon="12.759488"><ele>189.0</ele><time>2026-04-19T09:42:32.229Z</time></trkpt><trkpt lat="43.8976876" lon="12.7593414"><ele>186.5</ele><time>2026-04-19T09:42:33.23Z</time></trkpt><trkpt lat="43.8977959" lon="12.7592116"><ele>184.0</ele><time>2026-04-19T09:42:34.233Z</time></trkpt><trkpt lat="43.8978987" lon="12.7590958"><ele>181.5</ele><time>2026-04-19T09:42:35.229Z</time></trkpt><trkpt lat="43.8980095" lon="12.7590138"><ele>179.0</ele><time>2026-04-19T09:42:36.228Z</time></trkpt><trkpt lat="43.8981169" lon="12.7589579"><ele>179.0</ele><time>2026-04-19T09:42:37.227Z</time></trkpt><trkpt lat="43.8982227" lon="12.7589402"><ele>179.0</ele><time>2026-04-19T09:42:38.229Z</time></trkpt><trkpt lat="43.898322" lon="12.7589353"><ele>179.0</ele><time>2026-04-19T09:42:39.228Z</time></trkpt><trkpt lat="43.8984094" lon="12.7589204"><ele>179.0</ele><time>2026-04-19T09:42:40.229Z</time></trkpt><trkpt lat="43.898476" lon="12.7588696"><ele>179.0</ele><time>2026-04-19T09:42:41.229Z</time></trkpt><trkpt lat="43.8985246" lon="12.758788"><ele>179.0</ele><time>2026-04-19T09:42:42.229Z</time></trkpt><trkpt lat="43.8985243" lon="12.7586754"><ele>177.33333333333331</ele><time>2026-04-19T09:42:43.229Z</time></trkpt><trkpt lat="43.8984664" lon="12.758522"><ele>175.66666666666666</ele><time>2026-04-19T09:42:44.236Z</time></trkpt><trkpt lat="43.8983628" lon="12.7583338"><ele>174.0</ele><time>2026-04-19T09:42:45.229Z</time></trkpt><trkpt lat="43.8982541" lon="12.7581279"><ele>174.0</ele><time>2026-04-19T09:42:46.229Z</time></trkpt><trkpt lat="43.8981703" lon="12.7579314"><ele>174.0</ele><time>2026-04-19T09:42:47.228Z</time></trkpt><trkpt lat="43.8981124" lon="12.7577355"><ele>174.0</ele><time>2026-04-19T09:42:48.228Z</time></trkpt><trkpt lat="43.8980817" lon="12.7575336"><ele>171.0</ele><time>2026-04-19T09:42:49.228Z</time></trkpt><trkpt lat="43.8980712" lon="12.7573172"><ele>168.0</ele><time>2026-04-19T09:42:50.228Z</time></trkpt><trkpt lat="43.8980686" lon="12.757093"><ele>165.0</ele><time>2026-04-19T09:42:51.228Z</time></trkpt><trkpt lat="43.8980646" lon="12.7568605"><ele>164.0</ele><time>2026-04-19T09:42:52.237Z</time></trkpt><trkpt lat="43.8980618" lon="12.7566282"><ele>163.0</ele><time>2026-04-19T09:42:53.228Z</time></trkpt><trkpt lat="43.8980524" lon="12.7564081"><ele>162.0</ele><time>2026-04-19T09:42:54.231Z</time></trkpt><trkpt lat="43.8980398" lon="12.7562019"><ele>162.75</ele><time>2026-04-19T09:42:55.238Z</time></trkpt><trkpt lat="43.8980212" lon="12.7560128"><ele>163.5</ele><time>2026-04-19T09:42:56.241Z</time></trkpt><trkpt lat="43.8979984" lon="12.7558361"><ele>164.25</ele><time>2026-04-19T09:42:57.229Z</time></trkpt><trkpt lat="43.8979759" lon="12.7556678"><ele>165.0</ele><time>2026-04-19T09:42:58.231Z</time></trkpt><trkpt lat="43.897954" lon="12.7554997"><ele>165.0</ele><time>2026-04-19T09:42:59.228Z</time></trkpt><trkpt lat="43.8979382" lon="12.7553208"><ele>165.0</ele><time>2026-04-19T09:43:00.229Z</time></trkpt><trkpt lat="43.897936" lon="12.755138"><ele>165.0</ele><time>2026-04-19T09:43:01.228Z</time></trkpt><trkpt lat="43.897941" lon="12.7549599"><ele>165.0</ele><time>2026-04-19T09:43:02.229Z</time></trkpt><trkpt lat="43.8979434" lon="12.7547914"><ele>165.25</ele><time>2026-04-19T09:43:03.228Z</time></trkpt><trkpt lat="43.8979574" lon="12.7546262"><ele>165.5</ele><time>2026-04-19T09:43:04.228Z</time></trkpt><trkpt lat="43.8979789" lon="12.7544594"><ele>165.75</ele><time>2026-04-19T09:43:05.229Z</time></trkpt><trkpt lat="43.8980088" lon="12.7543003"><ele>166.0</ele><time>2026-04-19T09:43:06.228Z</time></trkpt><trkpt lat="43.8980438" lon="12.7541571"><ele>166.0</ele><time>2026-04-19T09:43:07.228Z</time></trkpt><trkpt lat="43.8980754" lon="12.7540277"><ele>166.0</ele><time>2026-04-19T09:43:08.229Z</time></trkpt><trkpt lat="43.898111" lon="12.7539184"><ele>166.0</ele><time>2026-04-19T09:43:09.228Z</time></trkpt><trkpt lat="43.89814" lon="12.7538189"><ele>166.0</ele><time>2026-04-19T09:43:10.229Z</time></trkpt><trkpt lat="43.8981651" lon="12.7537195"><ele>166.0</ele><time>2026-04-19T09:43:11.23Z</time></trkpt><trkpt lat="43.8981777" lon="12.7536189"><ele>166.0</ele><time>2026-04-19T09:43:12.229Z</time></trkpt><trkpt lat="43.8981795" lon="12.7535045"><ele>164.25</ele><time>2026-04-19T09:43:13.229Z</time></trkpt><trkpt lat="43.8981598" lon="12.7533595"><ele>162.5</ele><time>2026-04-19T09:43:14.229Z</time></trkpt><trkpt lat="43.8981163" lon="12.7531736"><ele>160.75</ele><time>2026-04-19T09:43:15.228Z</time></trkpt><trkpt lat="43.8980565" lon="12.7529636"><ele>159.0</ele><time>2026-04-19T09:43:16.228Z</time></trkpt><trkpt lat="43.8979872" lon="12.7527345"><ele>156.0</ele><time>2026-04-19T09:43:17.229Z</time></trkpt><trkpt lat="43.8979256" lon="12.7524964"><ele>153.0</ele><time>2026-04-19T09:43:18.228Z</time></trkpt><trkpt lat="43.8978651" lon="12.7522736"><ele>150.0</ele><time>2026-04-19T09:43:19.228Z</time></trkpt><trkpt lat="43.8977886" lon="12.7520759"><ele>150.0</ele><time>2026-04-19T09:43:20.229Z</time></trkpt><trkpt lat="43.8976986" lon="12.751894"><ele>150.0</ele><time>2026-04-19T09:43:21.228Z</time></trkpt><trkpt lat="43.8975986" lon="12.7517236"><ele>150.0</ele><time>2026-04-19T09:43:22.228Z</time></trkpt><trkpt lat="43.8974974" lon="12.751561"><ele>150.0</ele><time>2026-04-19T09:43:23.229Z</time></trkpt><trkpt lat="43.8973898" lon="12.7513944"><ele>150.0</ele><time>2026-04-19T09:43:24.229Z</time></trkpt><trkpt lat="43.8972765" lon="12.7512078"><ele>150.0</ele><time>2026-04-19T09:43:25.229Z</time></trkpt><trkpt lat="43.8971601" lon="12.7510231"><ele>150.66666666666666</ele><time>2026-04-19T09:43:26.236Z</time></trkpt><trkpt lat="43.8970501" lon="12.7508471"><ele>151.33333333333331</ele><time>2026-04-19T09:43:27.23Z</time></trkpt><trkpt lat="43.8969487" lon="12.7506791"><ele>152.0</ele><time>2026-04-19T09:43:28.23Z</time></trkpt><trkpt lat="43.8968566" lon="12.7505217"><ele>152.0</ele><time>2026-04-19T09:43:29.23Z</time></trkpt><trkpt lat="43.8967688" lon="12.7503808"><ele>152.0</ele><time>2026-04-19T09:43:30.229Z</time></trkpt><trkpt lat="43.8965853" lon="12.7500112"><ele>150.4</ele><time>2026-04-19T09:43:33.229Z</time></trkpt><trkpt lat="43.8965626" lon="12.7498854"><ele>148.79999999999998</ele><time>2026-04-19T09:43:34.228Z</time></trkpt><trkpt lat="43.8965764" lon="12.7497457"><ele>147.2</ele><time>2026-04-19T09:43:35.228Z</time></trkpt><trkpt lat="43.896638" lon="12.7496069"><ele>145.6</ele><time>2026-04-19T09:43:36.229Z</time></trkpt><trkpt lat="43.8967194" lon="12.7494736"><ele>144.0</ele><time>2026-04-19T09:43:37.229Z</time></trkpt><trkpt lat="43.896836" lon="12.7493575"><ele>141.66666666666666</ele><time>2026-04-19T09:43:38.228Z</time></trkpt><trkpt lat="43.8969853" lon="12.7492814"><ele>139.33333333333331</ele><time>2026-04-19T09:43:39.229Z</time></trkpt><trkpt lat="43.8971629" lon="12.7492632"><ele>137.0</ele><time>2026-04-19T09:43:40.228Z</time></trkpt><trkpt lat="43.8973496" lon="12.7492208"><ele>137.0</ele><time>2026-04-19T09:43:41.228Z</time></trkpt><trkpt lat="43.8975351" lon="12.7491532"><ele>137.0</ele><time>2026-04-19T09:43:42.229Z</time></trkpt><trkpt lat="43.897703" lon="12.7490428"><ele>137.0</ele><time>2026-04-19T09:43:43.228Z</time></trkpt><trkpt lat="43.8978527" lon="12.7489143"><ele>135.75</ele><time>2026-04-19T09:43:44.228Z</time></trkpt><trkpt lat="43.8979837" lon="12.7487895"><ele>134.5</ele><time>2026-04-19T09:43:45.228Z</time></trkpt><trkpt lat="43.8980974" lon="12.74868"><ele>133.25</ele><time>2026-04-19T09:43:46.229Z</time></trkpt><trkpt lat="43.8981959" lon="12.7485857"><ele>132.0</ele><time>2026-04-19T09:43:47.228Z</time></trkpt><trkpt lat="43.8982826" lon="12.7485079"><ele>131.16666666666666</ele><time>2026-04-19T09:43:48.229Z</time></trkpt><trkpt lat="43.8983601" lon="12.7484499"><ele>130.33333333333334</ele><time>2026-04-19T09:43:49.233Z</time></trkpt><trkpt lat="43.8984412" lon="12.7484223"><ele>129.5</ele><time>2026-04-19T09:43:50.229Z</time></trkpt><trkpt lat="43.8985173" lon="12.7484298"><ele>128.66666666666669</ele><time>2026-04-19T09:43:51.228Z</time></trkpt><trkpt lat="43.8985862" lon="12.7484445"><ele>127.83333333333334</ele><time>2026-04-19T09:43:52.228Z</time></trkpt><trkpt lat="43.8987041" lon="12.7484291"><ele>127.0</ele><time>2026-04-19T09:43:54.228Z</time></trkpt><trkpt lat="43.898744" lon="12.7483556"><ele>126.25</ele><time>2026-04-19T09:43:55.228Z</time></trkpt><trkpt lat="43.8987878" lon="12.748231"><ele>125.5</ele><time>2026-04-19T09:43:56.229Z</time></trkpt><trkpt lat="43.8988453" lon="12.7481053"><ele>124.75</ele><time>2026-04-19T09:43:57.23Z</time></trkpt><trkpt lat="43.8989513" lon="12.7479675"><ele>124.0</ele><time>2026-04-19T09:43:58.227Z</time></trkpt><trkpt lat="43.8990916" lon="12.7478195"><ele>119.66666666666667</ele><time>2026-04-19T09:43:59.228Z</time></trkpt><trkpt lat="43.8992602" lon="12.7476348"><ele>115.33333333333334</ele><time>2026-04-19T09:44:00.228Z</time></trkpt><trkpt lat="43.8994161" lon="12.7474061"><ele>111.0</ele><time>2026-04-19T09:44:01.228Z</time></trkpt><trkpt lat="43.8995337" lon="12.74715"><ele>111.0</ele><time>2026-04-19T09:44:02.228Z</time></trkpt><trkpt lat="43.8996151" lon="12.7468755"><ele>111.0</ele><time>2026-04-19T09:44:03.228Z</time></trkpt><trkpt lat="43.8996656" lon="12.7465953"><ele>111.0</ele><time>2026-04-19T09:44:04.229Z</time></trkpt><trkpt lat="43.8996968" lon="12.7463077"><ele>109.66666666666666</ele><time>2026-04-19T09:44:05.229Z</time></trkpt><trkpt lat="43.8997124" lon="12.7460225"><ele>108.33333333333333</ele><time>2026-04-19T09:44:06.228Z</time></trkpt><trkpt lat="43.8997228" lon="12.74575"><ele>107.0</ele><time>2026-04-19T09:44:07.229Z</time></trkpt><trkpt lat="43.8997312" lon="12.745494"><ele>107.0</ele><time>2026-04-19T09:44:08.229Z</time></trkpt><trkpt lat="43.8997405" lon="12.7452439"><ele>107.0</ele><time>2026-04-19T09:44:09.228Z</time></trkpt><trkpt lat="43.8997508" lon="12.7449908"><ele>107.0</ele><time>2026-04-19T09:44:10.228Z</time></trkpt><trkpt lat="43.8997545" lon="12.7447331"><ele>107.0</ele><time>2026-04-19T09:44:11.228Z</time></trkpt><trkpt lat="43.8997477" lon="12.7444763"><ele>107.0</ele><time>2026-04-19T09:44:12.229Z</time></trkpt><trkpt lat="43.8997297" lon="12.7442137"><ele>107.0</ele><time>2026-04-19T09:44:13.232Z</time></trkpt><trkpt lat="43.8996955" lon="12.7439593"><ele>106.33333333333333</ele><time>2026-04-19T09:44:14.232Z</time></trkpt><trkpt lat="43.8996309" lon="12.7437132"><ele>105.66666666666666</ele><time>2026-04-19T09:44:15.228Z</time></trkpt><trkpt lat="43.8995522" lon="12.7434706"><ele>105.0</ele><time>2026-04-19T09:44:16.228Z</time></trkpt><trkpt lat="43.8994816" lon="12.7432285"><ele>105.0</ele><time>2026-04-19T09:44:17.227Z</time></trkpt><trkpt lat="43.8994119" lon="12.7429884"><ele>105.0</ele><time>2026-04-19T09:44:18.228Z</time></trkpt><trkpt lat="43.8993452" lon="12.7427459"><ele>105.0</ele><time>2026-04-19T09:44:19.227Z</time></trkpt><trkpt lat="43.8992781" lon="12.7425019"><ele>103.0</ele><time>2026-04-19T09:44:20.228Z</time></trkpt><trkpt lat="43.8992127" lon="12.7422626"><ele>101.0</ele><time>2026-04-19T09:44:21.227Z</time></trkpt><trkpt lat="43.8991504" lon="12.7420231"><ele>99.0</ele><time>2026-04-19T09:44:22.228Z</time></trkpt><trkpt lat="43.8990895" lon="12.7417807"><ele>99.0</ele><time>2026-04-19T09:44:23.234Z</time></trkpt><trkpt lat="43.8990482" lon="12.7415236"><ele>99.0</ele><time>2026-04-19T09:44:24.228Z</time></trkpt><trkpt lat="43.8990426" lon="12.7412538"><ele>99.0</ele><time>2026-04-19T09:44:25.227Z</time></trkpt><trkpt lat="43.8990826" lon="12.7409763"><ele>99.0</ele><time>2026-04-19T09:44:26.228Z</time></trkpt><trkpt lat="43.8991693" lon="12.7407047"><ele>99.0</ele><time>2026-04-19T09:44:27.229Z</time></trkpt><trkpt lat="43.8992981" lon="12.740457"><ele>99.0</ele><time>2026-04-19T09:44:28.227Z</time></trkpt><trkpt lat="43.8994731" lon="12.7402482"><ele>93.0</ele><time>2026-04-19T09:44:29.229Z</time></trkpt><trkpt lat="43.8996791" lon="12.7400838"><ele>87.0</ele><time>2026-04-19T09:44:30.227Z</time></trkpt><trkpt lat="43.8999077" lon="12.7399566"><ele>89.0</ele><time>2026-04-19T09:44:31.228Z</time></trkpt><trkpt lat="43.9001392" lon="12.7398323"><ele>91.0</ele><time>2026-04-19T09:44:32.228Z</time></trkpt><trkpt lat="43.9003693" lon="12.7397042"><ele>91.0</ele><time>2026-04-19T09:44:33.227Z</time></trkpt><trkpt lat="43.9005969" lon="12.7395735"><ele>91.0</ele><time>2026-04-19T09:44:34.227Z</time></trkpt><trkpt lat="43.9008174" lon="12.7394308"><ele>85.5</ele><time>2026-04-19T09:44:35.228Z</time></trkpt><trkpt lat="43.9010362" lon="12.7392879"><ele>80.0</ele><time>2026-04-19T09:44:36.229Z</time></trkpt><trkpt lat="43.9012634" lon="12.7391378"><ele>80.0</ele><time>2026-04-19T09:44:37.228Z</time></trkpt><trkpt lat="43.9015053" lon="12.738975"><ele>80.0</ele><time>2026-04-19T09:44:38.229Z</time></trkpt><trkpt lat="43.9017505" lon="12.7388084"><ele>80.5</ele><time>2026-04-19T09:44:39.227Z</time></trkpt><trkpt lat="43.9019939" lon="12.7386481"><ele>81.0</ele><time>2026-04-19T09:44:40.229Z</time></trkpt><trkpt lat="43.9022415" lon="12.7385003"><ele>78.0</ele><time>2026-04-19T09:44:41.23Z</time></trkpt><trkpt lat="43.9024859" lon="12.7383587"><ele>75.0</ele><time>2026-04-19T09:44:42.228Z</time></trkpt><trkpt lat="43.9027348" lon="12.7382174"><ele>75.0</ele><time>2026-04-19T09:44:43.23Z</time></trkpt><trkpt lat="43.9029838" lon="12.7380773"><ele>75.0</ele><time>2026-04-19T09:44:44.228Z</time></trkpt><trkpt lat="43.9032287" lon="12.7379342"><ele>74.5</ele><time>2026-04-19T09:44:45.228Z</time></trkpt><trkpt lat="43.9034724" lon="12.7377865"><ele>74.0</ele><time>2026-04-19T09:44:46.227Z</time></trkpt><trkpt lat="43.9036994" lon="12.7376408"><ele>72.0</ele><time>2026-04-19T09:44:47.228Z</time></trkpt><trkpt lat="43.9039062" lon="12.7374879"><ele>70.0</ele><time>2026-04-19T09:44:48.228Z</time></trkpt><trkpt lat="43.9040929" lon="12.7373188"><ele>67.0</ele><time>2026-04-19T09:44:49.229Z</time></trkpt><trkpt lat="43.9042578" lon="12.737122"><ele>64.0</ele><time>2026-04-19T09:44:50.229Z</time></trkpt><trkpt lat="43.904407" lon="12.7369157"><ele>61.0</ele><time>2026-04-19T09:44:51.229Z</time></trkpt><trkpt lat="43.9045516" lon="12.7367253"><ele>60.666666666666664</ele><time>2026-04-19T09:44:52.227Z</time></trkpt><trkpt lat="43.9046884" lon="12.7365502"><ele>60.33333333333333</ele><time>2026-04-19T09:44:53.227Z</time></trkpt><trkpt lat="43.9048124" lon="12.7363921"><ele>60.0</ele><time>2026-04-19T09:44:54.227Z</time></trkpt><trkpt lat="43.9049265" lon="12.7362432"><ele>60.0</ele><time>2026-04-19T09:44:55.228Z</time></trkpt><trkpt lat="43.9050346" lon="12.7360986"><ele>60.0</ele><time>2026-04-19T09:44:56.227Z</time></trkpt><trkpt lat="43.9051377" lon="12.7359862"><ele>60.0</ele><time>2026-04-19T09:44:57.227Z</time></trkpt><trkpt lat="43.9052277" lon="12.7359207"><ele>60.0</ele><time>2026-04-19T09:44:58.231Z</time></trkpt><trkpt lat="43.9053037" lon="12.7358717"><ele>57.6</ele><time>2026-04-19T09:44:59.227Z</time></trkpt><trkpt lat="43.9053664" lon="12.7358116"><ele>55.2</ele><time>2026-04-19T09:45:00.227Z</time></trkpt><trkpt lat="43.9053742" lon="12.7356419"><ele>52.8</ele><time>2026-04-19T09:45:02.227Z</time></trkpt><trkpt lat="43.9053136" lon="12.735522"><ele>50.4</ele><time>2026-04-19T09:45:03.228Z</time></trkpt><trkpt lat="43.9052475" lon="12.7353763"><ele>48.0</ele><time>2026-04-19T09:45:04.227Z</time></trkpt><trkpt lat="43.9052033" lon="12.7351994"><ele>47.5</ele><time>2026-04-19T09:45:05.227Z</time></trkpt><trkpt lat="43.9052216" lon="12.7349628"><ele>47.0</ele><time>2026-04-19T09:45:06.226Z</time></trkpt><trkpt lat="43.9052599" lon="12.7347482"><ele>46.5</ele><time>2026-04-19T09:45:07.227Z</time></trkpt><trkpt lat="43.905273" lon="12.7345886"><ele>46.0</ele><time>2026-04-19T09:45:08.228Z</time></trkpt><trkpt lat="43.9052534" lon="12.7344667"><ele>46.0</ele><time>2026-04-19T09:45:09.227Z</time></trkpt><trkpt lat="43.9052008" lon="12.7343577"><ele>46.0</ele><time>2026-04-19T09:45:10.227Z</time></trkpt><trkpt lat="43.9050949" lon="12.7342702"><ele>46.0</ele><time>2026-04-19T09:45:11.227Z</time></trkpt><trkpt lat="43.9049626" lon="12.7341756"><ele>46.0</ele><time>2026-04-19T09:45:12.227Z</time></trkpt><trkpt lat="43.9047976" lon="12.7341013"><ele>46.0</ele><time>2026-04-19T09:45:13.227Z</time></trkpt><trkpt lat="43.9045818" lon="12.7340596"><ele>46.0</ele><time>2026-04-19T09:45:14.228Z</time></trkpt><trkpt lat="43.9043701" lon="12.7340341"><ele>46.0</ele><time>2026-04-19T09:45:15.227Z</time></trkpt><trkpt lat="43.9041751" lon="12.7340359"><ele>45.333333333333336</ele><time>2026-04-19T09:45:16.228Z</time></trkpt><trkpt lat="43.904007" lon="12.7340478"><ele>44.666666666666664</ele><time>2026-04-19T09:45:17.228Z</time></trkpt><trkpt lat="43.903846" lon="12.7340897"><ele>44.0</ele><time>2026-04-19T09:45:18.229Z</time></trkpt><trkpt lat="43.9036841" lon="12.7341597"><ele>44.0</ele><time>2026-04-19T09:45:19.228Z</time></trkpt><trkpt lat="43.9035198" lon="12.7342497"><ele>44.0</ele><time>2026-04-19T09:45:20.23Z</time></trkpt><trkpt lat="43.9033624" lon="12.7343764"><ele>44.0</ele><time>2026-04-19T09:45:21.228Z</time></trkpt><trkpt lat="43.903211" lon="12.7344822"><ele>44.0</ele><time>2026-04-19T09:45:22.227Z</time></trkpt><trkpt lat="43.9030619" lon="12.7345459"><ele>44.0</ele><time>2026-04-19T09:45:23.227Z</time></trkpt><trkpt lat="43.9029116" lon="12.7345691"><ele>44.0</ele><time>2026-04-19T09:45:24.228Z</time></trkpt><trkpt lat="43.9027571" lon="12.7345849"><ele>44.0</ele><time>2026-04-19T09:45:25.229Z</time></trkpt><trkpt lat="43.902593" lon="12.7346128"><ele>44.0</ele><time>2026-04-19T09:45:26.23Z</time></trkpt><trkpt lat="43.9024267" lon="12.7346512"><ele>44.0</ele><time>2026-04-19T09:45:27.227Z</time></trkpt><trkpt lat="43.9022596" lon="12.7346978"><ele>43.666666666666664</ele><time>2026-04-19T09:45:28.227Z</time></trkpt><trkpt lat="43.9020896" lon="12.7347494"><ele>43.333333333333336</ele><time>2026-04-19T09:45:29.229Z</time></trkpt><trkpt lat="43.9019371" lon="12.7348002"><ele>43.0</ele><time>2026-04-19T09:45:30.229Z</time></trkpt><trkpt lat="43.9017977" lon="12.7348422"><ele>43.2</ele><time>2026-04-19T09:45:31.229Z</time></trkpt><trkpt lat="43.9016721" lon="12.7348789"><ele>43.4</ele><time>2026-04-19T09:45:32.229Z</time></trkpt><trkpt lat="43.9015574" lon="12.7349078"><ele>43.6</ele><time>2026-04-19T09:45:33.228Z</time></trkpt><trkpt lat="43.9014518" lon="12.7349166"><ele>43.800000000000004</ele><time>2026-04-19T09:45:34.228Z</time></trkpt><trkpt lat="43.9013538" lon="12.7349182"><ele>44.0</ele><time>2026-04-19T09:45:35.228Z</time></trkpt><trkpt lat="43.901269" lon="12.7349323"><ele>44.0</ele><time>2026-04-19T09:45:36.229Z</time></trkpt><trkpt lat="43.9011996" lon="12.7349504"><ele>44.0</ele><time>2026-04-19T09:45:37.228Z</time></trkpt><trkpt lat="43.9011339" lon="12.7349362"><ele>44.0</ele><time>2026-04-19T09:45:38.227Z</time></trkpt><trkpt lat="43.9010737" lon="12.7349016"><ele>44.0</ele><time>2026-04-19T09:45:39.227Z</time></trkpt><trkpt lat="43.9010084" lon="12.7348518"><ele>44.0</ele><time>2026-04-19T09:45:40.227Z</time></trkpt><trkpt lat="43.9009591" lon="12.7347583"><ele>44.0</ele><time>2026-04-19T09:45:41.227Z</time></trkpt><trkpt lat="43.9009427" lon="12.7345846"><ele>43.0</ele><time>2026-04-19T09:45:42.227Z</time></trkpt><trkpt lat="43.9009425" lon="12.7343418"><ele>42.0</ele><time>2026-04-19T09:45:43.227Z</time></trkpt><trkpt lat="43.9009616" lon="12.7340585"><ele>41.0</ele><time>2026-04-19T09:45:44.228Z</time></trkpt><trkpt lat="43.9009604" lon="12.7338113"><ele>41.0</ele><time>2026-04-19T09:45:45.227Z</time></trkpt><trkpt lat="43.9009532" lon="12.7335775"><ele>41.0</ele><time>2026-04-19T09:45:46.227Z</time></trkpt><trkpt lat="43.9009351" lon="12.7333826"><ele>41.0</ele><time>2026-04-19T09:45:47.227Z</time></trkpt><trkpt lat="43.9009049" lon="12.7332034"><ele>41.0</ele><time>2026-04-19T09:45:48.228Z</time></trkpt><trkpt lat="43.9008677" lon="12.7330204"><ele>39.0</ele><time>2026-04-19T09:45:49.227Z</time></trkpt><trkpt lat="43.9008199" lon="12.7328321"><ele>37.0</ele><time>2026-04-19T09:45:50.227Z</time></trkpt><trkpt lat="43.9007726" lon="12.7326617"><ele>35.0</ele><time>2026-04-19T09:45:51.227Z</time></trkpt><trkpt lat="43.9007374" lon="12.7325035"><ele>33.0</ele><time>2026-04-19T09:45:52.227Z</time></trkpt><trkpt lat="43.9007168" lon="12.7323498"><ele>33.0</ele><time>2026-04-19T09:45:53.229Z</time></trkpt><trkpt lat="43.9007252" lon="12.7321902"><ele>33.0</ele><time>2026-04-19T09:45:54.228Z</time></trkpt><trkpt lat="43.9007769" lon="12.7320374"><ele>33.0</ele><time>2026-04-19T09:45:55.227Z</time></trkpt><trkpt lat="43.9008954" lon="12.7318761"><ele>33.0</ele><time>2026-04-19T09:45:56.228Z</time></trkpt><trkpt lat="43.9010268" lon="12.7316754"><ele>33.0</ele><time>2026-04-19T09:45:57.227Z</time></trkpt><trkpt lat="43.901146" lon="12.7314303"><ele>33.0</ele><time>2026-04-19T09:45:58.227Z</time></trkpt><trkpt lat="43.9012378" lon="12.7311658"><ele>33.0</ele><time>2026-04-19T09:45:59.227Z</time></trkpt><trkpt lat="43.9013045" lon="12.7309108"><ele>33.666666666666664</ele><time>2026-04-19T09:46:00.227Z</time></trkpt><trkpt lat="43.9013455" lon="12.7306753"><ele>34.33333333333333</ele><time>2026-04-19T09:46:01.226Z</time></trkpt><trkpt lat="43.9013699" lon="12.7304612"><ele>35.0</ele><time>2026-04-19T09:46:02.227Z</time></trkpt><trkpt lat="43.9013803" lon="12.7302688"><ele>36.0</ele><time>2026-04-19T09:46:03.227Z</time></trkpt><trkpt lat="43.9013828" lon="12.7300967"><ele>37.0</ele><time>2026-04-19T09:46:04.227Z</time></trkpt><trkpt lat="43.9013774" lon="12.7299512"><ele>38.0</ele><time>2026-04-19T09:46:05.227Z</time></trkpt><trkpt lat="43.9013484" lon="12.7298373"><ele>39.0</ele><time>2026-04-19T09:46:06.227Z</time></trkpt><trkpt lat="43.9012993" lon="12.7297517"><ele>40.0</ele><time>2026-04-19T09:46:07.228Z</time></trkpt><trkpt lat="43.9012348" lon="12.7297025"><ele>40.0</ele><time>2026-04-19T09:46:08.227Z</time></trkpt><trkpt lat="43.9011582" lon="12.729713"><ele>40.0</ele><time>2026-04-19T09:46:09.226Z</time></trkpt><trkpt lat="43.9010558" lon="12.7298229"><ele>40.0</ele><time>2026-04-19T09:46:10.226Z</time></trkpt><trkpt lat="43.9009354" lon="12.729967"><ele>40.0</ele><time>2026-04-19T09:46:11.227Z</time></trkpt><trkpt lat="43.9008003" lon="12.7301196"><ele>41.0</ele><time>2026-04-19T09:46:12.227Z</time></trkpt><trkpt lat="43.9006714" lon="12.7302587"><ele>42.0</ele><time>2026-04-19T09:46:13.227Z</time></trkpt><trkpt lat="43.9005493" lon="12.7303777"><ele>43.0</ele><time>2026-04-19T09:46:14.227Z</time></trkpt><trkpt lat="43.9004331" lon="12.7304755"><ele>44.0</ele><time>2026-04-19T09:46:15.227Z</time></trkpt><trkpt lat="43.9003152" lon="12.7305462"><ele>44.0</ele><time>2026-04-19T09:46:16.226Z</time></trkpt><trkpt lat="43.9001941" lon="12.7305941"><ele>44.0</ele><time>2026-04-19T09:46:17.227Z</time></trkpt><trkpt lat="43.9000744" lon="12.7306191"><ele>44.0</ele><time>2026-04-19T09:46:18.227Z</time></trkpt><trkpt lat="43.8999448" lon="12.7306068"><ele>44.0</ele><time>2026-04-19T09:46:19.229Z</time></trkpt><trkpt lat="43.8998019" lon="12.7305661"><ele>47.0</ele><time>2026-04-19T09:46:20.227Z</time></trkpt><trkpt lat="43.899649" lon="12.7304988"><ele>50.0</ele><time>2026-04-19T09:46:21.227Z</time></trkpt><trkpt lat="43.8994929" lon="12.7304159"><ele>53.0</ele><time>2026-04-19T09:46:22.227Z</time></trkpt><trkpt lat="43.8993344" lon="12.7303308"><ele>54.25</ele><time>2026-04-19T09:46:23.227Z</time></trkpt><trkpt lat="43.899188" lon="12.730237"><ele>55.5</ele><time>2026-04-19T09:46:24.227Z</time></trkpt><trkpt lat="43.899056" lon="12.7301543"><ele>56.75</ele><time>2026-04-19T09:46:25.227Z</time></trkpt><trkpt lat="43.8989399" lon="12.7300757"><ele>58.0</ele><time>2026-04-19T09:46:26.227Z</time></trkpt><trkpt lat="43.8988366" lon="12.7300006"><ele>59.166666666666664</ele><time>2026-04-19T09:46:27.227Z</time></trkpt><trkpt lat="43.8987551" lon="12.7299281"><ele>60.33333333333333</ele><time>2026-04-19T09:46:28.228Z</time></trkpt><trkpt lat="43.8987063" lon="12.7298463"><ele>61.5</ele><time>2026-04-19T09:46:29.227Z</time></trkpt><trkpt lat="43.8986884" lon="12.7297538"><ele>62.66666666666667</ele><time>2026-04-19T09:46:30.227Z</time></trkpt><trkpt lat="43.898726" lon="12.7296598"><ele>63.833333333333336</ele><time>2026-04-19T09:46:31.227Z</time></trkpt><trkpt lat="43.8988124" lon="12.729579"><ele>65.0</ele><time>2026-04-19T09:46:32.227Z</time></trkpt><trkpt lat="43.898937" lon="12.7295028"><ele>65.0</ele><time>2026-04-19T09:46:33.227Z</time></trkpt><trkpt lat="43.899077" lon="12.7294249"><ele>65.0</ele><time>2026-04-19T09:46:34.227Z</time></trkpt><trkpt lat="43.8992102" lon="12.7293449"><ele>65.0</ele><time>2026-04-19T09:46:35.227Z</time></trkpt><trkpt lat="43.899327" lon="12.7292605"><ele>65.0</ele><time>2026-04-19T09:46:36.227Z</time></trkpt><trkpt lat="43.8994214" lon="12.7291686"><ele>64.8</ele><time>2026-04-19T09:46:37.227Z</time></trkpt><trkpt lat="43.8994888" lon="12.7290581"><ele>64.6</ele><time>2026-04-19T09:46:38.227Z</time></trkpt><trkpt lat="43.8995315" lon="12.7289312"><ele>64.4</ele><time>2026-04-19T09:46:39.227Z</time></trkpt><trkpt lat="43.8995245" lon="12.7287735"><ele>64.2</ele><time>2026-04-19T09:46:40.227Z</time></trkpt><trkpt lat="43.8994839" lon="12.7286044"><ele>64.0</ele><time>2026-04-19T09:46:41.227Z</time></trkpt><trkpt lat="43.8994177" lon="12.7284315"><ele>63.33333333333333</ele><time>2026-04-19T09:46:42.227Z</time></trkpt><trkpt lat="43.899327" lon="12.7282674"><ele>62.66666666666667</ele><time>2026-04-19T09:46:43.227Z</time></trkpt><trkpt lat="43.8992163" lon="12.728117"><ele>62.0</ele><time>2026-04-19T09:46:44.228Z</time></trkpt><trkpt lat="43.8990834" lon="12.7279986"><ele>64.66666666666667</ele><time>2026-04-19T09:46:45.226Z</time></trkpt><trkpt lat="43.8989387" lon="12.7278955"><ele>67.33333333333333</ele><time>2026-04-19T09:46:46.226Z</time></trkpt><trkpt lat="43.8987965" lon="12.7277852"><ele>70.0</ele><time>2026-04-19T09:46:47.225Z</time></trkpt><trkpt lat="43.8986691" lon="12.7276561"><ele>70.0</ele><time>2026-04-19T09:46:48.226Z</time></trkpt><trkpt lat="43.8985632" lon="12.7275018"><ele>70.0</ele><time>2026-04-19T09:46:49.226Z</time></trkpt><trkpt lat="43.8984815" lon="12.7273289"><ele>70.0</ele><time>2026-04-19T09:46:50.226Z</time></trkpt><trkpt lat="43.8984223" lon="12.727139"><ele>72.75</ele><time>2026-04-19T09:46:51.226Z</time></trkpt><trkpt lat="43.8983836" lon="12.7269369"><ele>75.5</ele><time>2026-04-19T09:46:52.226Z</time></trkpt><trkpt lat="43.8983498" lon="12.7267354"><ele>78.25</ele><time>2026-04-19T09:46:53.226Z</time></trkpt><trkpt lat="43.8983139" lon="12.7265367"><ele>81.0</ele><time>2026-04-19T09:46:54.225Z</time></trkpt><trkpt lat="43.8982724" lon="12.726345"><ele>81.25</ele><time>2026-04-19T09:46:55.226Z</time></trkpt><trkpt lat="43.898233" lon="12.726168"><ele>81.5</ele><time>2026-04-19T09:46:56.226Z</time></trkpt><trkpt lat="43.8981866" lon="12.7260033"><ele>81.75</ele><time>2026-04-19T09:46:57.226Z</time></trkpt><trkpt lat="43.8981313" lon="12.7258581"><ele>82.0</ele><time>2026-04-19T09:46:58.226Z</time></trkpt><trkpt lat="43.8980704" lon="12.7257304"><ele>82.5</ele><time>2026-04-19T09:46:59.226Z</time></trkpt><trkpt lat="43.8979895" lon="12.7256235"><ele>83.0</ele><time>2026-04-19T09:47:00.226Z</time></trkpt><trkpt lat="43.8979049" lon="12.7255166"><ele>83.5</ele><time>2026-04-19T09:47:01.227Z</time></trkpt><trkpt lat="43.897816" lon="12.7254119"><ele>84.0</ele><time>2026-04-19T09:47:02.225Z</time></trkpt><trkpt lat="43.8977241" lon="12.7253042"><ele>82.75</ele><time>2026-04-19T09:47:03.226Z</time></trkpt><trkpt lat="43.8976303" lon="12.7251969"><ele>81.5</ele><time>2026-04-19T09:47:04.226Z</time></trkpt><trkpt lat="43.8975349" lon="12.7250784"><ele>80.25</ele><time>2026-04-19T09:47:05.227Z</time></trkpt><trkpt lat="43.8974394" lon="12.7249592"><ele>79.0</ele><time>2026-04-19T09:47:06.226Z</time></trkpt><trkpt lat="43.8973426" lon="12.7248365"><ele>81.25</ele><time>2026-04-19T09:47:07.227Z</time></trkpt><trkpt lat="43.8972444" lon="12.7247151"><ele>83.5</ele><time>2026-04-19T09:47:08.226Z</time></trkpt><trkpt lat="43.8971505" lon="12.7245805"><ele>85.75</ele><time>2026-04-19T09:47:09.226Z</time></trkpt><trkpt lat="43.8970691" lon="12.7244321"><ele>88.0</ele><time>2026-04-19T09:47:10.226Z</time></trkpt><trkpt lat="43.896995" lon="12.7242739"><ele>88.0</ele><time>2026-04-19T09:47:11.226Z</time></trkpt><trkpt lat="43.8969244" lon="12.7241125"><ele>88.0</ele><time>2026-04-19T09:47:12.226Z</time></trkpt><trkpt lat="43.8968572" lon="12.7239459"><ele>88.0</ele><time>2026-04-19T09:47:13.226Z</time></trkpt><trkpt lat="43.8967997" lon="12.7237692"><ele>88.0</ele><time>2026-04-19T09:47:14.228Z</time></trkpt><trkpt lat="43.8967601" lon="12.7235803"><ele>90.75</ele><time>2026-04-19T09:47:15.226Z</time></trkpt><trkpt lat="43.896734" lon="12.7233828"><ele>93.5</ele><time>2026-04-19T09:47:16.226Z</time></trkpt><trkpt lat="43.8967162" lon="12.7231854"><ele>96.25</ele><time>2026-04-19T09:47:17.226Z</time></trkpt><trkpt lat="43.8966971" lon="12.7229903"><ele>99.0</ele><time>2026-04-19T09:47:18.227Z</time></trkpt><trkpt lat="43.8966824" lon="12.7227924"><ele>99.66666666666666</ele><time>2026-04-19T09:47:19.226Z</time></trkpt><trkpt lat="43.8966694" lon="12.7225886"><ele>100.33333333333333</ele><time>2026-04-19T09:47:20.227Z</time></trkpt><trkpt lat="43.8966709" lon="12.7223724"><ele>101.0</ele><time>2026-04-19T09:47:21.226Z</time></trkpt><trkpt lat="43.8966774" lon="12.7221509"><ele>101.0</ele><time>2026-04-19T09:47:22.226Z</time></trkpt><trkpt lat="43.8966871" lon="12.7219311"><ele>101.0</ele><time>2026-04-19T09:47:23.226Z</time></trkpt><trkpt lat="43.8967035" lon="12.7217122"><ele>101.0</ele><time>2026-04-19T09:47:24.226Z</time></trkpt><trkpt lat="43.8967217" lon="12.7214939"><ele>100.66666666666666</ele><time>2026-04-19T09:47:25.226Z</time></trkpt><trkpt lat="43.8967366" lon="12.7212793"><ele>100.33333333333334</ele><time>2026-04-19T09:47:26.227Z</time></trkpt><trkpt lat="43.896753" lon="12.7210614"><ele>100.0</ele><time>2026-04-19T09:47:27.226Z</time></trkpt><trkpt lat="43.8967677" lon="12.7208518"><ele>100.0</ele><time>2026-04-19T09:47:28.225Z</time></trkpt><trkpt lat="43.8967851" lon="12.7206396"><ele>100.0</ele><time>2026-04-19T09:47:29.225Z</time></trkpt><trkpt lat="43.8967982" lon="12.720434"><ele>100.0</ele><time>2026-04-19T09:47:30.227Z</time></trkpt><trkpt lat="43.896816" lon="12.7202287"><ele>100.75</ele><time>2026-04-19T09:47:31.224Z</time></trkpt><trkpt lat="43.8968255" lon="12.7200237"><ele>101.5</ele><time>2026-04-19T09:47:32.228Z</time></trkpt><trkpt lat="43.896831" lon="12.7198236"><ele>102.25</ele><time>2026-04-19T09:47:33.227Z</time></trkpt><trkpt lat="43.8968283" lon="12.719625"><ele>103.0</ele><time>2026-04-19T09:47:34.226Z</time></trkpt><trkpt lat="43.8968216" lon="12.7194218"><ele>103.0</ele><time>2026-04-19T09:47:35.226Z</time></trkpt><trkpt lat="43.8967941" lon="12.7192226"><ele>103.0</ele><time>2026-04-19T09:47:36.226Z</time></trkpt><trkpt lat="43.8967552" lon="12.7190232"><ele>103.0</ele><time>2026-04-19T09:47:37.226Z</time></trkpt><trkpt lat="43.8967196" lon="12.7188236"><ele>103.0</ele><time>2026-04-19T09:47:38.226Z</time></trkpt><trkpt lat="43.896684" lon="12.7186267"><ele>105.5</ele><time>2026-04-19T09:47:39.226Z</time></trkpt><trkpt lat="43.8966426" lon="12.7184338"><ele>108.0</ele><time>2026-04-19T09:47:40.226Z</time></trkpt><trkpt lat="43.8966034" lon="12.7182381"><ele>110.5</ele><time>2026-04-19T09:47:41.225Z</time></trkpt><trkpt lat="43.8965623" lon="12.7180428"><ele>113.0</ele><time>2026-04-19T09:47:42.227Z</time></trkpt><trkpt lat="43.8965271" lon="12.7178502"><ele>113.25</ele><time>2026-04-19T09:47:43.226Z</time></trkpt><trkpt lat="43.8964937" lon="12.7176553"><ele>113.5</ele><time>2026-04-19T09:47:44.227Z</time></trkpt><trkpt lat="43.896457" lon="12.7174554"><ele>113.75</ele><time>2026-04-19T09:47:45.227Z</time></trkpt><trkpt lat="43.8964227" lon="12.7172543"><ele>114.0</ele><time>2026-04-19T09:47:46.226Z</time></trkpt><trkpt lat="43.8963879" lon="12.7170564"><ele>113.75</ele><time>2026-04-19T09:47:47.226Z</time></trkpt><trkpt lat="43.8963588" lon="12.7168618"><ele>113.5</ele><time>2026-04-19T09:47:48.226Z</time></trkpt><trkpt lat="43.89632" lon="12.7166612"><ele>113.25</ele><time>2026-04-19T09:47:49.227Z</time></trkpt><trkpt lat="43.8962837" lon="12.7164663"><ele>113.0</ele><time>2026-04-19T09:47:50.226Z</time></trkpt><trkpt lat="43.8962476" lon="12.7162744"><ele>113.0</ele><time>2026-04-19T09:47:51.226Z</time></trkpt><trkpt lat="43.8962076" lon="12.716087"><ele>113.0</ele><time>2026-04-19T09:47:52.226Z</time></trkpt><trkpt lat="43.8961711" lon="12.7158995"><ele>113.0</ele><time>2026-04-19T09:47:53.226Z</time></trkpt><trkpt lat="43.8961336" lon="12.7157142"><ele>113.0</ele><time>2026-04-19T09:47:54.227Z</time></trkpt><trkpt lat="43.8961016" lon="12.7155293"><ele>113.25</ele><time>2026-04-19T09:47:55.233Z</time></trkpt><trkpt lat="43.896069" lon="12.7153469"><ele>113.5</ele><time>2026-04-19T09:47:56.226Z</time></trkpt><trkpt lat="43.8960372" lon="12.715165"><ele>113.75</ele><time>2026-04-19T09:47:57.227Z</time></trkpt><trkpt lat="43.8960049" lon="12.7149848"><ele>114.0</ele><time>2026-04-19T09:47:58.227Z</time></trkpt><trkpt lat="43.8959749" lon="12.7148065"><ele>113.0</ele><time>2026-04-19T09:47:59.225Z</time></trkpt><trkpt lat="43.8959457" lon="12.7146332"><ele>112.0</ele><time>2026-04-19T09:48:00.227Z</time></trkpt><trkpt lat="43.8959109" lon="12.7144631"><ele>111.0</ele><time>2026-04-19T09:48:01.226Z</time></trkpt><trkpt lat="43.8958799" lon="12.7143034"><ele>110.0</ele><time>2026-04-19T09:48:02.226Z</time></trkpt><trkpt lat="43.8958522" lon="12.7141451"><ele>112.8</ele><time>2026-04-19T09:48:03.226Z</time></trkpt><trkpt lat="43.8958327" lon="12.7139879"><ele>115.6</ele><time>2026-04-19T09:48:04.226Z</time></trkpt><trkpt lat="43.8958112" lon="12.7138445"><ele>118.4</ele><time>2026-04-19T09:48:05.226Z</time></trkpt><trkpt lat="43.8957995" lon="12.7137139"><ele>121.2</ele><time>2026-04-19T09:48:06.225Z</time></trkpt><trkpt lat="43.8957964" lon="12.7135849"><ele>124.0</ele><time>2026-04-19T09:48:07.226Z</time></trkpt><trkpt lat="43.8958034" lon="12.7134543"><ele>124.6</ele><time>2026-04-19T09:48:08.226Z</time></trkpt><trkpt lat="43.8958312" lon="12.7133258"><ele>125.2</ele><time>2026-04-19T09:48:09.225Z</time></trkpt><trkpt lat="43.8958694" lon="12.7131995"><ele>125.79999999999998</ele><time>2026-04-19T09:48:10.227Z</time></trkpt><trkpt lat="43.895926" lon="12.7130786"><ele>126.39999999999999</ele><time>2026-04-19T09:48:11.225Z</time></trkpt><trkpt lat="43.8959899" lon="12.7129536"><ele>127.0</ele><time>2026-04-19T09:48:12.226Z</time></trkpt><trkpt lat="43.8960534" lon="12.7128193"><ele>125.75</ele><time>2026-04-19T09:48:13.225Z</time></trkpt><trkpt lat="43.8961159" lon="12.7126767"><ele>124.5</ele><time>2026-04-19T09:48:14.227Z</time></trkpt><trkpt lat="43.8961776" lon="12.7125333"><ele>123.25</ele><time>2026-04-19T09:48:15.226Z</time></trkpt><trkpt lat="43.8962346" lon="12.712387"><ele>122.0</ele><time>2026-04-19T09:48:16.225Z</time></trkpt><trkpt lat="43.896287" lon="12.7122381"><ele>122.0</ele><time>2026-04-19T09:48:17.226Z</time></trkpt><trkpt lat="43.8963425" lon="12.712094"><ele>122.0</ele><time>2026-04-19T09:48:18.226Z</time></trkpt><trkpt lat="43.8963992" lon="12.7119535"><ele>122.0</ele><time>2026-04-19T09:48:19.226Z</time></trkpt><trkpt lat="43.8964532" lon="12.7118179"><ele>122.0</ele><time>2026-04-19T09:48:20.226Z</time></trkpt><trkpt lat="43.8965051" lon="12.7116853"><ele>123.39999999999999</ele><time>2026-04-19T09:48:21.226Z</time></trkpt><trkpt lat="43.8965562" lon="12.7115559"><ele>124.79999999999998</ele><time>2026-04-19T09:48:22.226Z</time></trkpt><trkpt lat="43.8965974" lon="12.7114241"><ele>126.2</ele><time>2026-04-19T09:48:23.226Z</time></trkpt><trkpt lat="43.8966321" lon="12.7112882"><ele>127.6</ele><time>2026-04-19T09:48:24.225Z</time></trkpt><trkpt lat="43.8966591" lon="12.7111541"><ele>129.0</ele><time>2026-04-19T09:48:25.226Z</time></trkpt><trkpt lat="43.8966715" lon="12.7110266"><ele>129.5</ele><time>2026-04-19T09:48:26.227Z</time></trkpt><trkpt lat="43.8966744" lon="12.7109255"><ele>130.0</ele><time>2026-04-19T09:48:27.225Z</time></trkpt><trkpt lat="43.8966707" lon="12.7108345"><ele>130.5</ele><time>2026-04-19T09:48:28.225Z</time></trkpt><trkpt lat="43.8966167" lon="12.7107153"><ele>131.0</ele><time>2026-04-19T09:48:30.226Z</time></trkpt><trkpt lat="43.8965387" lon="12.7106808"><ele>131.5</ele><time>2026-04-19T09:48:32.226Z</time></trkpt><trkpt lat="43.8964531" lon="12.7106257"><ele>132.0</ele><time>2026-04-19T09:48:50.226Z</time></trkpt><trkpt lat="43.8963659" lon="12.710602"><ele>132.0</ele><time>2026-04-19T09:48:52.225Z</time></trkpt><trkpt lat="43.8962601" lon="12.7105701"><ele>132.0</ele><time>2026-04-19T09:48:54.225Z</time></trkpt><trkpt lat="43.8961456" lon="12.7106038"><ele>132.0</ele><time>2026-04-19T09:48:56.226Z</time></trkpt><trkpt lat="43.8960795" lon="12.7106136"><ele>132.0</ele><time>2026-04-19T09:48:57.225Z</time></trkpt><trkpt lat="43.8960114" lon="12.7106291"><ele>132.0</ele><time>2026-04-19T09:48:58.225Z</time></trkpt><trkpt lat="43.8959484" lon="12.7106552"><ele>132.0</ele><time>2026-04-19T09:48:59.225Z</time></trkpt><trkpt lat="43.8958767" lon="12.7106697"><ele>133.16666666666666</ele><time>2026-04-19T09:49:00.225Z</time></trkpt><trkpt lat="43.8958093" lon="12.7106811"><ele>134.33333333333334</ele><time>2026-04-19T09:49:01.225Z</time></trkpt><trkpt lat="43.8957437" lon="12.7107143"><ele>135.5</ele><time>2026-04-19T09:49:02.226Z</time></trkpt><trkpt lat="43.8956711" lon="12.7107412"><ele>136.66666666666669</ele><time>2026-04-19T09:49:03.225Z</time></trkpt><trkpt lat="43.8956081" lon="12.710769"><ele>137.83333333333334</ele><time>2026-04-19T09:49:04.225Z</time></trkpt><trkpt lat="43.8954843" lon="12.7108108"><ele>139.0</ele><time>2026-04-19T09:49:06.226Z</time></trkpt><trkpt lat="43.8954204" lon="12.7108223"><ele>139.0</ele><time>2026-04-19T09:49:07.233Z</time></trkpt><trkpt lat="43.8953479" lon="12.7108194"><ele>139.0</ele><time>2026-04-19T09:49:08.226Z</time></trkpt><trkpt lat="43.89522" lon="12.710853"><ele>139.0</ele><time>2026-04-19T09:49:10.226Z</time></trkpt><trkpt lat="43.895153" lon="12.7108672"><ele>139.0</ele><time>2026-04-19T09:49:11.226Z</time></trkpt><trkpt lat="43.8950308" lon="12.7109027"><ele>139.0</ele><time>2026-04-19T09:49:13.227Z</time></trkpt><trkpt lat="43.8949679" lon="12.710934"><ele>139.5</ele><time>2026-04-19T09:49:14.226Z</time></trkpt><trkpt lat="43.8949038" lon="12.7109676"><ele>140.0</ele><time>2026-04-19T09:49:15.226Z</time></trkpt><trkpt lat="43.8948406" lon="12.7109955"><ele>140.5</ele><time>2026-04-19T09:49:16.225Z</time></trkpt><trkpt lat="43.8947348" lon="12.7110519"><ele>141.0</ele><time>2026-04-19T09:49:18.225Z</time></trkpt><trkpt lat="43.8946576" lon="12.7110944"><ele>141.5</ele><time>2026-04-19T09:49:20.225Z</time></trkpt><trkpt lat="43.8945661" lon="12.7111339"><ele>142.0</ele><time>2026-04-19T09:49:22.225Z</time></trkpt><trkpt lat="43.8944669" lon="12.7111893"><ele>142.2</ele><time>2026-04-19T09:49:24.225Z</time></trkpt><trkpt lat="43.8943731" lon="12.711255"><ele>142.39999999999998</ele><time>2026-04-19T09:49:26.225Z</time></trkpt><trkpt lat="43.8943017" lon="12.7113081"><ele>142.60000000000002</ele><time>2026-04-19T09:49:28.224Z</time></trkpt><trkpt lat="43.8942199" lon="12.7113612"><ele>142.8</ele><time>2026-04-19T09:49:30.225Z</time></trkpt><trkpt lat="43.8941276" lon="12.711425"><ele>143.0</ele><time>2026-04-19T09:49:32.225Z</time></trkpt><trkpt lat="43.8940335" lon="12.7114836"><ele>143.0</ele><time>2026-04-19T09:49:34.224Z</time></trkpt><trkpt lat="43.8939408" lon="12.7115524"><ele>143.0</ele><time>2026-04-19T09:49:36.225Z</time></trkpt><trkpt lat="43.8938502" lon="12.7116291"><ele>143.0</ele><time>2026-04-19T09:49:38.228Z</time></trkpt><trkpt lat="43.8937785" lon="12.711691"><ele>143.0</ele><time>2026-04-19T09:49:40.23Z</time></trkpt><trkpt lat="43.8937074" lon="12.7117507"><ele>143.0</ele><time>2026-04-19T09:49:42.225Z</time></trkpt><trkpt lat="43.8936365" lon="12.7118133"><ele>143.0</ele><time>2026-04-19T09:49:44.226Z</time></trkpt><trkpt lat="43.8935699" lon="12.7118891"><ele>143.0</ele><time>2026-04-19T09:49:46.227Z</time></trkpt><trkpt lat="43.8934901" lon="12.7119698"><ele>143.0</ele><time>2026-04-19T09:49:48.225Z</time></trkpt><trkpt lat="43.893414" lon="12.7120629"><ele>143.0</ele><time>2026-04-19T09:49:50.225Z</time></trkpt><trkpt lat="43.8933159" lon="12.7121451"><ele>143.0</ele><time>2026-04-19T09:49:52.224Z</time></trkpt><trkpt lat="43.8932234" lon="12.7122392"><ele>141.83333333333331</ele><time>2026-04-19T09:49:54.224Z</time></trkpt><trkpt lat="43.8931775" lon="12.7123003"><ele>140.66666666666666</ele><time>2026-04-19T09:49:55.228Z</time></trkpt><trkpt lat="43.893129" lon="12.7123587"><ele>139.5</ele><time>2026-04-19T09:49:56.225Z</time></trkpt><trkpt lat="43.8930801" lon="12.7124165"><ele>138.33333333333334</ele><time>2026-04-19T09:49:57.224Z</time></trkpt><trkpt lat="43.8929859" lon="12.7125182"><ele>137.16666666666669</ele><time>2026-04-19T09:49:59.224Z</time></trkpt><trkpt lat="43.8928837" lon="12.7126186"><ele>136.0</ele><time>2026-04-19T09:50:01.225Z</time></trkpt><trkpt lat="43.8927802" lon="12.7127018"><ele>134.0</ele><time>2026-04-19T09:50:03.224Z</time></trkpt><trkpt lat="43.8926737" lon="12.7127529"><ele>132.0</ele><time>2026-04-19T09:50:05.224Z</time></trkpt><trkpt lat="43.8925535" lon="12.7127829"><ele>130.0</ele><time>2026-04-19T09:50:07.224Z</time></trkpt><trkpt lat="43.8924303" lon="12.7127689"><ele>128.0</ele><time>2026-04-19T09:50:09.226Z</time></trkpt><trkpt lat="43.8923631" lon="12.7127628"><ele>126.0</ele><time>2026-04-19T09:50:10.224Z</time></trkpt><trkpt lat="43.8922927" lon="12.7127545"><ele>126.0</ele><time>2026-04-19T09:50:11.224Z</time></trkpt><trkpt lat="43.892224" lon="12.712747"><ele>126.0</ele><time>2026-04-19T09:50:12.224Z</time></trkpt><trkpt lat="43.8921586" lon="12.7127382"><ele>126.0</ele><time>2026-04-19T09:50:13.225Z</time></trkpt><trkpt lat="43.8920449" lon="12.7127079"><ele>126.0</ele><time>2026-04-19T09:50:15.224Z</time></trkpt><trkpt lat="43.8919393" lon="12.7126809"><ele>126.0</ele><time>2026-04-19T09:50:17.225Z</time></trkpt><trkpt lat="43.8918311" lon="12.7126631"><ele>126.6</ele><time>2026-04-19T09:50:19.224Z</time></trkpt><trkpt lat="43.8917287" lon="12.7126416"><ele>127.19999999999999</ele><time>2026-04-19T09:50:21.224Z</time></trkpt><trkpt lat="43.8916244" lon="12.7126244"><ele>127.80000000000001</ele><time>2026-04-19T09:50:23.224Z</time></trkpt><trkpt lat="43.8915422" lon="12.7126024"><ele>128.4</ele><time>2026-04-19T09:50:25.224Z</time></trkpt><trkpt lat="43.8914463" lon="12.7125979"><ele>129.0</ele><time>2026-04-19T09:50:27.224Z</time></trkpt><trkpt lat="43.891359" lon="12.7125381"><ele>129.0</ele><time>2026-04-19T09:50:29.224Z</time></trkpt><trkpt lat="43.8912786" lon="12.7124616"><ele>129.0</ele><time>2026-04-19T09:50:31.224Z</time></trkpt><trkpt lat="43.8912132" lon="12.7123718"><ele>129.0</ele><time>2026-04-19T09:50:33.224Z</time></trkpt><trkpt lat="43.8911573" lon="12.7122546"><ele>129.0</ele><time>2026-04-19T09:50:35.224Z</time></trkpt><trkpt lat="43.891097" lon="12.7121225"><ele>129.0</ele><time>2026-04-19T09:50:37.224Z</time></trkpt><trkpt lat="43.8910499" lon="12.7120017"><ele>127.66666666666667</ele><time>2026-04-19T09:50:39.225Z</time></trkpt><trkpt lat="43.8909905" lon="12.71189"><ele>126.33333333333334</ele><time>2026-04-19T09:50:42.224Z</time></trkpt><trkpt lat="43.8909539" lon="12.7118114"><ele>125.0</ele><time>2026-04-19T09:50:43.224Z</time></trkpt><trkpt lat="43.8909052" lon="12.7117144"><ele>123.66666666666667</ele><time>2026-04-19T09:50:45.326Z</time></trkpt><trkpt lat="43.8908573" lon="12.711602"><ele>122.33333333333334</ele><time>2026-04-19T09:50:47.229Z</time></trkpt><trkpt lat="43.8908186" lon="12.7115145"><ele>121.0</ele><time>2026-04-19T09:50:49.233Z</time></trkpt><trkpt lat="43.890785" lon="12.7114282"><ele>120.33333333333334</ele><time>2026-04-19T09:50:51.236Z</time></trkpt><trkpt lat="43.8907481" lon="12.7113569"><ele>119.66666666666667</ele><time>2026-04-19T09:50:53.239Z</time></trkpt><trkpt lat="43.8906951" lon="12.7112492"><ele>119.0</ele><time>2026-04-19T09:50:56.286Z</time></trkpt><trkpt lat="43.8906281" lon="12.7111758"><ele>118.33333333333334</ele><time>2026-04-19T09:50:59.225Z</time></trkpt><trkpt lat="43.8905636" lon="12.7111445"><ele>117.66666666666667</ele><time>2026-04-19T09:51:01.225Z</time></trkpt><trkpt lat="43.8905" lon="12.7111134"><ele>117.0</ele><time>2026-04-19T09:51:03.224Z</time></trkpt><trkpt lat="43.8904252" lon="12.7110956"><ele>117.0</ele><time>2026-04-19T09:51:05.26Z</time></trkpt><trkpt lat="43.8903565" lon="12.7110837"><ele>117.0</ele><time>2026-04-19T09:51:07.263Z</time></trkpt><trkpt lat="43.8902906" lon="12.7110932"><ele>117.0</ele><time>2026-04-19T09:51:09.168Z</time></trkpt><trkpt lat="43.8902096" lon="12.7110782"><ele>117.0</ele><time>2026-04-19T09:51:11.307Z</time></trkpt><trkpt lat="43.8901204" lon="12.7110786"><ele>117.0</ele><time>2026-04-19T09:51:13.227Z</time></trkpt><trkpt lat="43.8900201" lon="12.7110767"><ele>117.0</ele><time>2026-04-19T09:51:15.224Z</time></trkpt><trkpt lat="43.8899181" lon="12.7110791"><ele>115.0</ele><time>2026-04-19T09:51:17.224Z</time></trkpt><trkpt lat="43.8898293" lon="12.7110832"><ele>113.0</ele><time>2026-04-19T09:51:19.224Z</time></trkpt><trkpt lat="43.8897461" lon="12.7111039"><ele>111.0</ele><time>2026-04-19T09:51:21.225Z</time></trkpt><trkpt lat="43.8896628" lon="12.7111437"><ele>109.0</ele><time>2026-04-19T09:51:23.225Z</time></trkpt><trkpt lat="43.889588" lon="12.7111835"><ele>107.0</ele><time>2026-04-19T09:51:25.224Z</time></trkpt><trkpt lat="43.8895171" lon="12.7112124"><ele>105.0</ele><time>2026-04-19T09:51:27.277Z</time></trkpt><trkpt lat="43.8894312" lon="12.7112681"><ele>105.0</ele><time>2026-04-19T09:51:29.28Z</time></trkpt><trkpt lat="43.8893543" lon="12.711318"><ele>105.0</ele><time>2026-04-19T09:51:31.256Z</time></trkpt><trkpt lat="43.889276" lon="12.7113522"><ele>105.0</ele><time>2026-04-19T09:51:33.301Z</time></trkpt><trkpt lat="43.8891972" lon="12.7113762"><ele>105.0</ele><time>2026-04-19T09:51:35.208Z</time></trkpt><trkpt lat="43.8891069" lon="12.7113808"><ele>105.0</ele><time>2026-04-19T09:51:37.225Z</time></trkpt><trkpt lat="43.8890016" lon="12.7113523"><ele>105.0</ele><time>2026-04-19T09:51:39.224Z</time></trkpt><trkpt lat="43.8889029" lon="12.7113178"><ele>103.0</ele><time>2026-04-19T09:51:41.224Z</time></trkpt><trkpt lat="43.8888045" lon="12.7112843"><ele>101.0</ele><time>2026-04-19T09:51:43.223Z</time></trkpt><trkpt lat="43.8887159" lon="12.7112497"><ele>99.0</ele><time>2026-04-19T09:51:45.223Z</time></trkpt><trkpt lat="43.8886249" lon="12.7111922"><ele>97.0</ele><time>2026-04-19T09:51:47.223Z</time></trkpt><trkpt lat="43.8885196" lon="12.7111793"><ele>95.0</ele><time>2026-04-19T09:51:49.223Z</time></trkpt><trkpt lat="43.888422" lon="12.7111647"><ele>92.6</ele><time>2026-04-19T09:51:51.222Z</time></trkpt><trkpt lat="43.8883334" lon="12.7111431"><ele>90.2</ele><time>2026-04-19T09:51:53.224Z</time></trkpt><trkpt lat="43.8882373" lon="12.7111152"><ele>87.80000000000001</ele><time>2026-04-19T09:51:55.225Z</time></trkpt><trkpt lat="43.8881422" lon="12.7110956"><ele>85.4</ele><time>2026-04-19T09:51:57.223Z</time></trkpt><trkpt lat="43.8880476" lon="12.7110834"><ele>83.0</ele><time>2026-04-19T09:51:59.223Z</time></trkpt><trkpt lat="43.8879559" lon="12.7110658"><ele>83.0</ele><time>2026-04-19T09:52:01.223Z</time></trkpt><trkpt lat="43.8878677" lon="12.7110629"><ele>83.0</ele><time>2026-04-19T09:52:03.223Z</time></trkpt><trkpt lat="43.887779" lon="12.7111112"><ele>83.0</ele><time>2026-04-19T09:52:05.223Z</time></trkpt><trkpt lat="43.8876904" lon="12.7111728"><ele>83.0</ele><time>2026-04-19T09:52:07.223Z</time></trkpt><trkpt lat="43.8875997" lon="12.7112455"><ele>83.0</ele><time>2026-04-19T09:52:09.223Z</time></trkpt><trkpt lat="43.8875143" lon="12.7113088"><ele>80.80000000000001</ele><time>2026-04-19T09:52:11.223Z</time></trkpt><trkpt lat="43.8874269" lon="12.7113676"><ele>78.60000000000001</ele><time>2026-04-19T09:52:13.223Z</time></trkpt><trkpt lat="43.8873551" lon="12.7114097"><ele>76.4</ele><time>2026-04-19T09:52:15.23Z</time></trkpt><trkpt lat="43.8872749" lon="12.7114541"><ele>74.2</ele><time>2026-04-19T09:52:18.223Z</time></trkpt><trkpt lat="43.8872188" lon="12.7115901"><ele>72.0</ele><time>2026-04-19T09:52:41.225Z</time></trkpt><trkpt lat="43.8872042" lon="12.711719"><ele>72.0</ele><time>2026-04-19T09:52:43.228Z</time></trkpt><trkpt lat="43.8871955" lon="12.7118494"><ele>72.0</ele><time>2026-04-19T09:52:45.223Z</time></trkpt><trkpt lat="43.8872052" lon="12.7120049"><ele>72.0</ele><time>2026-04-19T09:52:47.223Z</time></trkpt><trkpt lat="43.8872034" lon="12.7120924"><ele>72.0</ele><time>2026-04-19T09:52:48.223Z</time></trkpt><trkpt lat="43.8871703" lon="12.7122483"><ele>72.0</ele><time>2026-04-19T09:52:50.223Z</time></trkpt><trkpt lat="43.887125" lon="12.7123877"><ele>73.2</ele><time>2026-04-19T09:52:52.223Z</time></trkpt><trkpt lat="43.8870908" lon="12.7125284"><ele>74.4</ele><time>2026-04-19T09:52:54.223Z</time></trkpt><trkpt lat="43.8870669" lon="12.7126769"><ele>75.6</ele><time>2026-04-19T09:52:56.224Z</time></trkpt><trkpt lat="43.8870441" lon="12.7128132"><ele>76.8</ele><time>2026-04-19T09:52:58.223Z</time></trkpt><trkpt lat="43.8870184" lon="12.7129375"><ele>78.0</ele><time>2026-04-19T09:53:00.223Z</time></trkpt><trkpt lat="43.8869916" lon="12.7130956"><ele>77.6</ele><time>2026-04-19T09:53:02.224Z</time></trkpt><trkpt lat="43.886969" lon="12.7132825"><ele>77.19999999999999</ele><time>2026-04-19T09:53:04.223Z</time></trkpt><trkpt lat="43.8869643" lon="12.7134057"><ele>76.8</ele><time>2026-04-19T09:53:05.223Z</time></trkpt><trkpt lat="43.8869613" lon="12.7135402"><ele>76.39999999999999</ele><time>2026-04-19T09:53:06.223Z</time></trkpt><trkpt lat="43.8869576" lon="12.713684"><ele>76.0</ele><time>2026-04-19T09:53:07.223Z</time></trkpt><trkpt lat="43.8869598" lon="12.7138192"><ele>76.0</ele><time>2026-04-19T09:53:08.223Z</time></trkpt><trkpt lat="43.8869636" lon="12.7139297"><ele>76.0</ele><time>2026-04-19T09:53:09.223Z</time></trkpt><trkpt lat="43.8869683" lon="12.7140896"><ele>76.0</ele><time>2026-04-19T09:53:11.223Z</time></trkpt><trkpt lat="43.8869835" lon="12.7142614"><ele>76.0</ele><time>2026-04-19T09:53:13.223Z</time></trkpt><trkpt lat="43.8869959" lon="12.7143516"><ele>76.0</ele><time>2026-04-19T09:53:14.223Z</time></trkpt><trkpt lat="43.8870043" lon="12.7144492"><ele>74.85714285714285</ele><time>2026-04-19T09:53:15.223Z</time></trkpt><trkpt lat="43.8870102" lon="12.7145442"><ele>73.71428571428572</ele><time>2026-04-19T09:53:16.223Z</time></trkpt><trkpt lat="43.887022" lon="12.7146382"><ele>72.57142857142857</ele><time>2026-04-19T09:53:17.223Z</time></trkpt><trkpt lat="43.887039" lon="12.7147302"><ele>71.42857142857142</ele><time>2026-04-19T09:53:18.225Z</time></trkpt><trkpt lat="43.8870563" lon="12.71482"><ele>70.28571428571428</ele><time>2026-04-19T09:53:19.222Z</time></trkpt><trkpt lat="43.8870769" lon="12.7149077"><ele>69.14285714285714</ele><time>2026-04-19T09:53:20.223Z</time></trkpt><trkpt lat="43.8871012" lon="12.7149972"><ele>68.0</ele><time>2026-04-19T09:53:21.223Z</time></trkpt><trkpt lat="43.8871205" lon="12.7150925"><ele>68.0</ele><time>2026-04-19T09:53:22.223Z</time></trkpt><trkpt lat="43.8871387" lon="12.7151972"><ele>68.0</ele><time>2026-04-19T09:53:23.223Z</time></trkpt><trkpt lat="43.8871526" lon="12.7153084"><ele>68.0</ele><time>2026-04-19T09:53:24.223Z</time></trkpt><trkpt lat="43.8871664" lon="12.7154238"><ele>68.0</ele><time>2026-04-19T09:53:25.223Z</time></trkpt><trkpt lat="43.8871811" lon="12.7155454"><ele>68.0</ele><time>2026-04-19T09:53:26.223Z</time></trkpt><trkpt lat="43.8871836" lon="12.7156596"><ele>68.0</ele><time>2026-04-19T09:53:27.223Z</time></trkpt><trkpt lat="43.8871724" lon="12.7157798"><ele>68.4</ele><time>2026-04-19T09:53:28.222Z</time></trkpt><trkpt lat="43.8871501" lon="12.7158979"><ele>68.8</ele><time>2026-04-19T09:53:29.224Z</time></trkpt><trkpt lat="43.8871185" lon="12.7160175"><ele>69.2</ele><time>2026-04-19T09:53:30.222Z</time></trkpt><trkpt lat="43.8870888" lon="12.7161351"><ele>69.6</ele><time>2026-04-19T09:53:31.223Z</time></trkpt><trkpt lat="43.8870593" lon="12.7162532"><ele>70.0</ele><time>2026-04-19T09:53:32.222Z</time></trkpt><trkpt lat="43.8870277" lon="12.7163729"><ele>70.0</ele><time>2026-04-19T09:53:33.224Z</time></trkpt><trkpt lat="43.8869968" lon="12.7164912"><ele>70.0</ele><time>2026-04-19T09:53:34.222Z</time></trkpt><trkpt lat="43.8869677" lon="12.7166063"><ele>70.0</ele><time>2026-04-19T09:53:35.223Z</time></trkpt><trkpt lat="43.8869401" lon="12.7167185"><ele>70.0</ele><time>2026-04-19T09:53:36.223Z</time></trkpt><trkpt lat="43.8869205" lon="12.7168292"><ele>70.0</ele><time>2026-04-19T09:53:37.222Z</time></trkpt><trkpt lat="43.886893" lon="12.7169728"><ele>69.33333333333333</ele><time>2026-04-19T09:53:39.223Z</time></trkpt><trkpt lat="43.8868724" lon="12.7170677"><ele>68.66666666666666</ele><time>2026-04-19T09:53:41.223Z</time></trkpt><trkpt lat="43.8868509" lon="12.7171806"><ele>68.0</ele><time>2026-04-19T09:53:43.223Z</time></trkpt><trkpt lat="43.886825" lon="12.7173104"><ele>67.33333333333333</ele><time>2026-04-19T09:53:45.223Z</time></trkpt><trkpt lat="43.8867854" lon="12.71742"><ele>66.66666666666667</ele><time>2026-04-19T09:53:47.223Z</time></trkpt><trkpt lat="43.8867575" lon="12.7175076"><ele>66.0</ele><time>2026-04-19T09:53:49.224Z</time></trkpt><trkpt lat="43.8867013" lon="12.7175542"><ele>66.0</ele><time>2026-04-19T09:53:51.223Z</time></trkpt><trkpt lat="43.8866073" lon="12.7175375"><ele>66.0</ele><time>2026-04-19T09:53:54.358Z</time></trkpt><trkpt lat="43.8865198" lon="12.7174728"><ele>66.0</ele><time>2026-04-19T09:53:57.3Z</time></trkpt><trkpt lat="43.8864542" lon="12.7174321"><ele>66.0</ele><time>2026-04-19T09:53:59.304Z</time></trkpt><trkpt lat="43.886389" lon="12.7174001"><ele>66.0</ele><time>2026-04-19T09:54:01.307Z</time></trkpt><trkpt lat="43.8863302" lon="12.717357"><ele>66.0</ele><time>2026-04-19T09:54:03.31Z</time></trkpt><trkpt lat="43.8862651" lon="12.7173018"><ele>66.0</ele><time>2026-04-19T09:54:05.221Z</time></trkpt><trkpt lat="43.8861891" lon="12.7172624"><ele>66.0</ele><time>2026-04-19T09:54:08.242Z</time></trkpt><trkpt lat="43.8861119" lon="12.7172849"><ele>66.0</ele><time>2026-04-19T09:54:11.324Z</time></trkpt><trkpt lat="43.8860292" lon="12.7172843"><ele>66.0</ele><time>2026-04-19T09:54:14.223Z</time></trkpt><trkpt lat="43.8859321" lon="12.7173147"><ele>66.0</ele><time>2026-04-19T09:54:17.234Z</time></trkpt><trkpt lat="43.8858724" lon="12.717386"><ele>66.0</ele><time>2026-04-19T09:54:19.238Z</time></trkpt><trkpt lat="43.8857848" lon="12.7174541"><ele>64.33333333333333</ele><time>2026-04-19T09:54:21.341Z</time></trkpt><trkpt lat="43.8857129" lon="12.7175082"><ele>62.66666666666667</ele><time>2026-04-19T09:54:23.244Z</time></trkpt><trkpt lat="43.885635" lon="12.7175415"><ele>61.0</ele><time>2026-04-19T09:54:25.248Z</time></trkpt><trkpt lat="43.8855625" lon="12.7175612"><ele>59.333333333333336</ele><time>2026-04-19T09:54:27.259Z</time></trkpt><trkpt lat="43.8855053" lon="12.717604"><ele>57.66666666666667</ele><time>2026-04-19T09:54:29.255Z</time></trkpt><trkpt lat="43.8854405" lon="12.7176526"><ele>56.0</ele><time>2026-04-19T09:54:31.258Z</time></trkpt><trkpt lat="43.8853574" lon="12.7176587"><ele>56.00000000000001</ele><time>2026-04-19T09:54:33.261Z</time></trkpt><trkpt lat="43.8852698" lon="12.7176346"><ele>56.0</ele><time>2026-04-19T09:54:35.265Z</time></trkpt><trkpt lat="43.8851808" lon="12.7176571"><ele>56.0</ele><time>2026-04-19T09:54:37.268Z</time></trkpt><trkpt lat="43.8850885" lon="12.717651"><ele>56.0</ele><time>2026-04-19T09:54:39.178Z</time></trkpt><trkpt lat="43.8850112" lon="12.7176137"><ele>56.00000000000001</ele><time>2026-04-19T09:54:41.274Z</time></trkpt><trkpt lat="43.8849444" lon="12.7175814"><ele>56.0</ele><time>2026-04-19T09:54:43.34Z</time></trkpt><trkpt lat="43.8848521" lon="12.7175358"><ele>56.0</ele><time>2026-04-19T09:54:45.222Z</time></trkpt><trkpt lat="43.8847613" lon="12.7174952"><ele>55.99999999999999</ele><time>2026-04-19T09:54:47.225Z</time></trkpt><trkpt lat="43.8846603" lon="12.7174323"><ele>55.99999999999999</ele><time>2026-04-19T09:54:49.226Z</time></trkpt><trkpt lat="43.8845588" lon="12.7173581"><ele>56.0</ele><time>2026-04-19T09:54:51.222Z</time></trkpt><trkpt lat="43.8844581" lon="12.7173039"><ele>56.0</ele><time>2026-04-19T09:54:53.222Z</time></trkpt><trkpt lat="43.8843458" lon="12.717274"><ele>56.833333333333336</ele><time>2026-04-19T09:54:55.221Z</time></trkpt><trkpt lat="43.8842416" lon="12.717242"><ele>57.66666666666667</ele><time>2026-04-19T09:54:57.222Z</time></trkpt><trkpt lat="43.8841348" lon="12.717201"><ele>58.5</ele><time>2026-04-19T09:54:59.221Z</time></trkpt><trkpt lat="43.8840744" lon="12.7171737"><ele>59.33333333333333</ele><time>2026-04-19T09:55:00.222Z</time></trkpt><trkpt lat="43.8840128" lon="12.7171376"><ele>60.166666666666664</ele><time>2026-04-19T09:55:01.297Z</time></trkpt><trkpt lat="43.883944" lon="12.7170988"><ele>61.0</ele><time>2026-04-19T09:55:02.222Z</time></trkpt><trkpt lat="43.8838705" lon="12.7170606"><ele>60.99999999999999</ele><time>2026-04-19T09:55:03.223Z</time></trkpt><trkpt lat="43.8837953" lon="12.717027"><ele>61.0</ele><time>2026-04-19T09:55:04.226Z</time></trkpt><trkpt lat="43.8837245" lon="12.7169942"><ele>61.0</ele><time>2026-04-19T09:55:05.221Z</time></trkpt><trkpt lat="43.8836579" lon="12.716961"><ele>61.0</ele><time>2026-04-19T09:55:06.22Z</time></trkpt><trkpt lat="43.8835939" lon="12.7169233"><ele>60.99999999999999</ele><time>2026-04-19T09:55:07.296Z</time></trkpt><trkpt lat="43.8835318" lon="12.7168961"><ele>61.0</ele><time>2026-04-19T09:55:08.223Z</time></trkpt><trkpt lat="43.8834217" lon="12.7168332"><ele>63.199999999999996</ele><time>2026-04-19T09:55:10.221Z</time></trkpt><trkpt lat="43.8833294" lon="12.7167888"><ele>65.39999999999999</ele><time>2026-04-19T09:55:12.221Z</time></trkpt><trkpt lat="43.883244" lon="12.7167529"><ele>67.6</ele><time>2026-04-19T09:55:14.222Z</time></trkpt><trkpt lat="43.8831357" lon="12.7166929"><ele>69.8</ele><time>2026-04-19T09:55:16.221Z</time></trkpt><trkpt lat="43.8830217" lon="12.7166404"><ele>72.0</ele><time>2026-04-19T09:55:18.222Z</time></trkpt><trkpt lat="43.88293" lon="12.7166759"><ele>72.0</ele><time>2026-04-19T09:55:20.221Z</time></trkpt><trkpt lat="43.8828634" lon="12.7167678"><ele>72.0</ele><time>2026-04-19T09:55:22.222Z</time></trkpt><trkpt lat="43.8828307" lon="12.716886"><ele>72.0</ele><time>2026-04-19T09:55:40.222Z</time></trkpt><trkpt lat="43.8827405" lon="12.7170152"><ele>72.0</ele><time>2026-04-19T09:55:42.221Z</time></trkpt><trkpt lat="43.8826829" lon="12.7170894"><ele>72.0</ele><time>2026-04-19T09:55:43.222Z</time></trkpt><trkpt lat="43.8826242" lon="12.7171615"><ele>72.83333333333333</ele><time>2026-04-19T09:55:44.222Z</time></trkpt><trkpt lat="43.8825667" lon="12.717243"><ele>73.66666666666667</ele><time>2026-04-19T09:55:45.222Z</time></trkpt><trkpt lat="43.8825032" lon="12.717326"><ele>74.5</ele><time>2026-04-19T09:55:46.222Z</time></trkpt><trkpt lat="43.8824421" lon="12.7174058"><ele>75.33333333333334</ele><time>2026-04-19T09:55:47.222Z</time></trkpt><trkpt lat="43.8823847" lon="12.7174835"><ele>76.16666666666667</ele><time>2026-04-19T09:55:48.222Z</time></trkpt><trkpt lat="43.8823283" lon="12.7175668"><ele>77.0</ele><time>2026-04-19T09:55:49.222Z</time></trkpt><trkpt lat="43.8822691" lon="12.7176436"><ele>77.0</ele><time>2026-04-19T09:55:50.222Z</time></trkpt><trkpt lat="43.8822126" lon="12.7177229"><ele>77.0</ele><time>2026-04-19T09:55:51.222Z</time></trkpt><trkpt lat="43.8821592" lon="12.7178026"><ele>77.0</ele><time>2026-04-19T09:55:52.221Z</time></trkpt><trkpt lat="43.8821037" lon="12.7178814"><ele>77.0</ele><time>2026-04-19T09:55:53.221Z</time></trkpt><trkpt lat="43.8820456" lon="12.7179597"><ele>77.0</ele><time>2026-04-19T09:55:54.221Z</time></trkpt><trkpt lat="43.8819905" lon="12.7180371"><ele>77.0</ele><time>2026-04-19T09:55:55.221Z</time></trkpt><trkpt lat="43.8819343" lon="12.718102"><ele>76.2</ele><time>2026-04-19T09:55:56.221Z</time></trkpt><trkpt lat="43.8818804" lon="12.71816"><ele>75.4</ele><time>2026-04-19T09:55:57.223Z</time></trkpt><trkpt lat="43.881798" lon="12.7182513"><ele>74.6</ele><time>2026-04-19T09:55:59.222Z</time></trkpt><trkpt lat="43.8817171" lon="12.7183017"><ele>73.8</ele><time>2026-04-19T09:56:01.226Z</time></trkpt><trkpt lat="43.8816281" lon="12.7182864"><ele>73.0</ele><time>2026-04-19T09:56:03.221Z</time></trkpt><trkpt lat="43.8815372" lon="12.7182245"><ele>76.0</ele><time>2026-04-19T09:56:05.223Z</time></trkpt><trkpt lat="43.8814519" lon="12.718119"><ele>79.0</ele><time>2026-04-19T09:56:07.221Z</time></trkpt><trkpt lat="43.8813868" lon="12.7179773"><ele>82.0</ele><time>2026-04-19T09:56:09.221Z</time></trkpt><trkpt lat="43.8813565" lon="12.7178191"><ele>85.0</ele><time>2026-04-19T09:56:11.222Z</time></trkpt><trkpt lat="43.8813508" lon="12.7176568"><ele>86.0</ele><time>2026-04-19T09:56:13.222Z</time></trkpt><trkpt lat="43.8813543" lon="12.717492"><ele>87.0</ele><time>2026-04-19T09:56:15.222Z</time></trkpt><trkpt lat="43.8813624" lon="12.7173964"><ele>88.0</ele><time>2026-04-19T09:56:16.221Z</time></trkpt><trkpt lat="43.8813789" lon="12.7172786"><ele>89.0</ele><time>2026-04-19T09:56:17.222Z</time></trkpt><trkpt lat="43.8813947" lon="12.717155"><ele>90.0</ele><time>2026-04-19T09:56:18.22Z</time></trkpt><trkpt lat="43.8814214" lon="12.717024"><ele>90.33333333333333</ele><time>2026-04-19T09:56:19.222Z</time></trkpt><trkpt lat="43.8814377" lon="12.7168829"><ele>90.66666666666667</ele><time>2026-04-19T09:56:20.221Z</time></trkpt><trkpt lat="43.881436" lon="12.716761"><ele>91.0</ele><time>2026-04-19T09:56:21.221Z</time></trkpt><trkpt lat="43.8814264" lon="12.7166739"><ele>91.33333333333334</ele><time>2026-04-19T09:56:22.223Z</time></trkpt><trkpt lat="43.8814212" lon="12.7165841"><ele>91.66666666666667</ele><time>2026-04-19T09:56:23.221Z</time></trkpt><trkpt lat="43.8814194" lon="12.7164895"><ele>92.0</ele><time>2026-04-19T09:56:24.222Z</time></trkpt><trkpt lat="43.8814175" lon="12.7163922"><ele>92.0</ele><time>2026-04-19T09:56:25.222Z</time></trkpt><trkpt lat="43.8814003" lon="12.7162218"><ele>92.0</ele><time>2026-04-19T09:56:27.22Z</time></trkpt><trkpt lat="43.8813884" lon="12.7161357"><ele>92.0</ele><time>2026-04-19T09:56:28.22Z</time></trkpt><trkpt lat="43.8813777" lon="12.7160441"><ele>92.0</ele><time>2026-04-19T09:56:29.22Z</time></trkpt><trkpt lat="43.881373" lon="12.7159476"><ele>92.0</ele><time>2026-04-19T09:56:30.22Z</time></trkpt><trkpt lat="43.881371" lon="12.7158468"><ele>92.0</ele><time>2026-04-19T09:56:31.22Z</time></trkpt><trkpt lat="43.8813647" lon="12.7157311"><ele>93.16666666666667</ele><time>2026-04-19T09:56:32.221Z</time></trkpt><trkpt lat="43.8813594" lon="12.7156186"><ele>94.33333333333334</ele><time>2026-04-19T09:56:33.219Z</time></trkpt><trkpt lat="43.8813508" lon="12.7154991"><ele>95.5</ele><time>2026-04-19T09:56:34.221Z</time></trkpt><trkpt lat="43.881349" lon="12.7153786"><ele>96.66666666666667</ele><time>2026-04-19T09:56:35.22Z</time></trkpt><trkpt lat="43.8813553" lon="12.7152595"><ele>97.83333333333333</ele><time>2026-04-19T09:56:36.22Z</time></trkpt><trkpt lat="43.8813607" lon="12.7151446"><ele>99.0</ele><time>2026-04-19T09:56:37.222Z</time></trkpt><trkpt lat="43.8813595" lon="12.7150292"><ele>99.83333333333333</ele><time>2026-04-19T09:56:38.222Z</time></trkpt><trkpt lat="43.8813555" lon="12.7149142"><ele>100.66666666666666</ele><time>2026-04-19T09:56:39.221Z</time></trkpt><trkpt lat="43.8813538" lon="12.7147982"><ele>101.5</ele><time>2026-04-19T09:56:40.219Z</time></trkpt><trkpt lat="43.8813525" lon="12.7146818"><ele>102.33333333333333</ele><time>2026-04-19T09:56:41.221Z</time></trkpt><trkpt lat="43.8813523" lon="12.7145666"><ele>103.16666666666666</ele><time>2026-04-19T09:56:42.222Z</time></trkpt><trkpt lat="43.8813537" lon="12.714454"><ele>104.0</ele><time>2026-04-19T09:56:43.221Z</time></trkpt><trkpt lat="43.8813553" lon="12.7143452"><ele>104.2</ele><time>2026-04-19T09:56:44.219Z</time></trkpt><trkpt lat="43.8813582" lon="12.7142277"><ele>104.4</ele><time>2026-04-19T09:56:45.221Z</time></trkpt><trkpt lat="43.8813599" lon="12.714103"><ele>104.6</ele><time>2026-04-19T09:56:46.22Z</time></trkpt><trkpt lat="43.88136" lon="12.7139575"><ele>104.8</ele><time>2026-04-19T09:56:47.221Z</time></trkpt><trkpt lat="43.8813574" lon="12.7138009"><ele>105.0</ele><time>2026-04-19T09:56:48.22Z</time></trkpt><trkpt lat="43.8813545" lon="12.7136574"><ele>104.83333333333333</ele><time>2026-04-19T09:56:49.22Z</time></trkpt><trkpt lat="43.8813498" lon="12.7135265"><ele>104.66666666666666</ele><time>2026-04-19T09:56:50.22Z</time></trkpt><trkpt lat="43.8813432" lon="12.7134082"><ele>104.5</ele><time>2026-04-19T09:56:51.222Z</time></trkpt><trkpt lat="43.8813373" lon="12.7132927"><ele>104.33333333333333</ele><time>2026-04-19T09:56:52.22Z</time></trkpt><trkpt lat="43.8813268" lon="12.7131822"><ele>104.16666666666666</ele><time>2026-04-19T09:56:53.22Z</time></trkpt><trkpt lat="43.8813113" lon="12.7130639"><ele>104.0</ele><time>2026-04-19T09:56:54.22Z</time></trkpt><trkpt lat="43.8813101" lon="12.7129569"><ele>103.99999999999999</ele><time>2026-04-19T09:56:55.221Z</time></trkpt><trkpt lat="43.8813076" lon="12.7128443"><ele>104.0</ele><time>2026-04-19T09:56:56.22Z</time></trkpt><trkpt lat="43.8813008" lon="12.71273"><ele>104.0</ele><time>2026-04-19T09:56:57.22Z</time></trkpt><trkpt lat="43.8812912" lon="12.712614"><ele>104.0</ele><time>2026-04-19T09:56:58.22Z</time></trkpt><trkpt lat="43.8812801" lon="12.7125063"><ele>103.99999999999999</ele><time>2026-04-19T09:56:59.221Z</time></trkpt><trkpt lat="43.8812702" lon="12.7124048"><ele>104.0</ele><time>2026-04-19T09:57:00.221Z</time></trkpt><trkpt lat="43.8812622" lon="12.7123041"><ele>104.57142857142857</ele><time>2026-04-19T09:57:01.221Z</time></trkpt><trkpt lat="43.8812509" lon="12.7122026"><ele>105.14285714285715</ele><time>2026-04-19T09:57:02.221Z</time></trkpt><trkpt lat="43.8812394" lon="12.7120973"><ele>105.71428571428572</ele><time>2026-04-19T09:57:03.22Z</time></trkpt><trkpt lat="43.8812278" lon="12.7119905"><ele>106.28571428571428</ele><time>2026-04-19T09:57:04.22Z</time></trkpt><trkpt lat="43.8812144" lon="12.7118882"><ele>106.85714285714286</ele><time>2026-04-19T09:57:05.22Z</time></trkpt><trkpt lat="43.8812047" lon="12.711792"><ele>107.42857142857143</ele><time>2026-04-19T09:57:06.22Z</time></trkpt><trkpt lat="43.8811926" lon="12.7116914"><ele>108.0</ele><time>2026-04-19T09:57:07.22Z</time></trkpt><trkpt lat="43.8811809" lon="12.7115905"><ele>108.0</ele><time>2026-04-19T09:57:08.222Z</time></trkpt><trkpt lat="43.881168" lon="12.711479"><ele>108.0</ele><time>2026-04-19T09:57:09.222Z</time></trkpt><trkpt lat="43.881156" lon="12.7113701"><ele>108.0</ele><time>2026-04-19T09:57:10.222Z</time></trkpt><trkpt lat="43.8811432" lon="12.7112631"><ele>108.0</ele><time>2026-04-19T09:57:11.22Z</time></trkpt><trkpt lat="43.8811255" lon="12.7111619"><ele>108.0</ele><time>2026-04-19T09:57:12.221Z</time></trkpt><trkpt lat="43.8811096" lon="12.7110624"><ele>108.0</ele><time>2026-04-19T09:57:13.221Z</time></trkpt><trkpt lat="43.8810957" lon="12.7109636"><ele>108.28571428571428</ele><time>2026-04-19T09:57:14.225Z</time></trkpt><trkpt lat="43.8810739" lon="12.7108684"><ele>108.57142857142857</ele><time>2026-04-19T09:57:15.222Z</time></trkpt><trkpt lat="43.881049" lon="12.7107714"><ele>108.85714285714286</ele><time>2026-04-19T09:57:16.22Z</time></trkpt><trkpt lat="43.881022" lon="12.7106821"><ele>109.14285714285714</ele><time>2026-04-19T09:57:17.22Z</time></trkpt><trkpt lat="43.8809887" lon="12.7105919"><ele>109.42857142857143</ele><time>2026-04-19T09:57:18.221Z</time></trkpt><trkpt lat="43.8809485" lon="12.7105045"><ele>109.71428571428571</ele><time>2026-04-19T09:57:19.22Z</time></trkpt><trkpt lat="43.880908" lon="12.7104171"><ele>110.0</ele><time>2026-04-19T09:57:20.22Z</time></trkpt><trkpt lat="43.8808641" lon="12.7103252"><ele>113.6</ele><time>2026-04-19T09:57:21.226Z</time></trkpt><trkpt lat="43.8807833" lon="12.7101369"><ele>117.2</ele><time>2026-04-19T09:57:23.221Z</time></trkpt><trkpt lat="43.8807502" lon="12.710028"><ele>120.80000000000001</ele><time>2026-04-19T09:57:24.22Z</time></trkpt><trkpt lat="43.8807222" lon="12.7099072"><ele>124.4</ele><time>2026-04-19T09:57:25.229Z</time></trkpt><trkpt lat="43.8806936" lon="12.7097764"><ele>128.0</ele><time>2026-04-19T09:57:26.22Z</time></trkpt><trkpt lat="43.8806623" lon="12.7096395"><ele>128.0</ele><time>2026-04-19T09:57:27.223Z</time></trkpt><trkpt lat="43.8806249" lon="12.7095072"><ele>128.0</ele><time>2026-04-19T09:57:28.223Z</time></trkpt><trkpt lat="43.880585" lon="12.7093825"><ele>128.0</ele><time>2026-04-19T09:57:29.222Z</time></trkpt><trkpt lat="43.8805466" lon="12.709263"><ele>128.0</ele><time>2026-04-19T09:57:30.22Z</time></trkpt><trkpt lat="43.8805052" lon="12.7091462"><ele>128.0</ele><time>2026-04-19T09:57:31.22Z</time></trkpt><trkpt lat="43.8804524" lon="12.7090378"><ele>128.0</ele><time>2026-04-19T09:57:32.222Z</time></trkpt><trkpt lat="43.8803936" lon="12.7089345"><ele>128.0</ele><time>2026-04-19T09:57:33.224Z</time></trkpt><trkpt lat="43.8803288" lon="12.7088334"><ele>128.0</ele><time>2026-04-19T09:57:34.223Z</time></trkpt><trkpt lat="43.8802545" lon="12.7087187"><ele>128.0</ele><time>2026-04-19T09:57:35.22Z</time></trkpt><trkpt lat="43.8801774" lon="12.7085918"><ele>128.0</ele><time>2026-04-19T09:57:36.221Z</time></trkpt><trkpt lat="43.8801042" lon="12.7084551"><ele>129.5</ele><time>2026-04-19T09:57:37.224Z</time></trkpt><trkpt lat="43.8800342" lon="12.7083103"><ele>131.0</ele><time>2026-04-19T09:57:38.22Z</time></trkpt><trkpt lat="43.8799645" lon="12.7081459"><ele>132.5</ele><time>2026-04-19T09:57:39.22Z</time></trkpt><trkpt lat="43.8798857" lon="12.7079485"><ele>134.0</ele><time>2026-04-19T09:57:40.22Z</time></trkpt><trkpt lat="43.8798046" lon="12.7077472"><ele>134.5</ele><time>2026-04-19T09:57:41.221Z</time></trkpt><trkpt lat="43.8797362" lon="12.7075745"><ele>135.0</ele><time>2026-04-19T09:57:42.221Z</time></trkpt><trkpt lat="43.8796806" lon="12.7074352"><ele>135.5</ele><time>2026-04-19T09:57:43.22Z</time></trkpt><trkpt lat="43.87963" lon="12.707315"><ele>136.0</ele><time>2026-04-19T09:57:44.222Z</time></trkpt><trkpt lat="43.8795729" lon="12.7071992"><ele>136.0</ele><time>2026-04-19T09:57:45.22Z</time></trkpt><trkpt lat="43.8795012" lon="12.7070709"><ele>136.0</ele><time>2026-04-19T09:57:46.222Z</time></trkpt><trkpt lat="43.8794222" lon="12.7069288"><ele>136.0</ele><time>2026-04-19T09:57:47.22Z</time></trkpt><trkpt lat="43.8793334" lon="12.706772"><ele>136.0</ele><time>2026-04-19T09:57:48.221Z</time></trkpt><trkpt lat="43.8792364" lon="12.7065907"><ele>136.0</ele><time>2026-04-19T09:57:49.22Z</time></trkpt><trkpt lat="43.879145" lon="12.7063913"><ele>136.0</ele><time>2026-04-19T09:57:50.221Z</time></trkpt><trkpt lat="43.8790555" lon="12.7061997"><ele>136.0</ele><time>2026-04-19T09:57:51.223Z</time></trkpt><trkpt lat="43.8789687" lon="12.7060173"><ele>136.0</ele><time>2026-04-19T09:57:52.22Z</time></trkpt><trkpt lat="43.8788841" lon="12.7058453"><ele>136.0</ele><time>2026-04-19T09:57:53.221Z</time></trkpt><trkpt lat="43.8788059" lon="12.7056737"><ele>136.0</ele><time>2026-04-19T09:57:54.221Z</time></trkpt><trkpt lat="43.8787358" lon="12.7055082"><ele>136.0</ele><time>2026-04-19T09:57:55.238Z</time></trkpt><trkpt lat="43.878681" lon="12.7053482"><ele>134.75</ele><time>2026-04-19T09:57:56.222Z</time></trkpt><trkpt lat="43.8786423" lon="12.7051821"><ele>133.5</ele><time>2026-04-19T09:57:57.22Z</time></trkpt><trkpt lat="43.8786132" lon="12.7050064"><ele>132.25</ele><time>2026-04-19T09:57:58.22Z</time></trkpt><trkpt lat="43.8785895" lon="12.7048234"><ele>131.0</ele><time>2026-04-19T09:57:59.221Z</time></trkpt><trkpt lat="43.8785681" lon="12.7046389"><ele>131.0</ele><time>2026-04-19T09:58:00.22Z</time></trkpt><trkpt lat="43.8785489" lon="12.7044547"><ele>131.0</ele><time>2026-04-19T09:58:01.222Z</time></trkpt><trkpt lat="43.878529" lon="12.704283"><ele>131.0</ele><time>2026-04-19T09:58:02.221Z</time></trkpt><trkpt lat="43.8785113" lon="12.7041281"><ele>131.0</ele><time>2026-04-19T09:58:03.225Z</time></trkpt><trkpt lat="43.8784958" lon="12.7039786"><ele>131.8</ele><time>2026-04-19T09:58:04.221Z</time></trkpt><trkpt lat="43.8784784" lon="12.7038358"><ele>132.6</ele><time>2026-04-19T09:58:05.223Z</time></trkpt><trkpt lat="43.8784613" lon="12.703699"><ele>133.4</ele><time>2026-04-19T09:58:06.221Z</time></trkpt><trkpt lat="43.8784423" lon="12.7035664"><ele>134.2</ele><time>2026-04-19T09:58:07.222Z</time></trkpt><trkpt lat="43.8784188" lon="12.7034301"><ele>135.0</ele><time>2026-04-19T09:58:08.22Z</time></trkpt><trkpt lat="43.8783833" lon="12.7032877"><ele>136.0</ele><time>2026-04-19T09:58:09.221Z</time></trkpt><trkpt lat="43.8783278" lon="12.7031387"><ele>137.0</ele><time>2026-04-19T09:58:10.221Z</time></trkpt><trkpt lat="43.8782588" lon="12.702981"><ele>138.0</ele><time>2026-04-19T09:58:11.223Z</time></trkpt><trkpt lat="43.8781896" lon="12.7028234"><ele>139.0</ele><time>2026-04-19T09:58:12.221Z</time></trkpt><trkpt lat="43.8781233" lon="12.7026764"><ele>139.0</ele><time>2026-04-19T09:58:13.221Z</time></trkpt><trkpt lat="43.8780558" lon="12.7025401"><ele>139.0</ele><time>2026-04-19T09:58:14.221Z</time></trkpt><trkpt lat="43.8779817" lon="12.70241"><ele>139.0</ele><time>2026-04-19T09:58:15.22Z</time></trkpt><trkpt lat="43.877906" lon="12.7022728"><ele>139.0</ele><time>2026-04-19T09:58:16.221Z</time></trkpt><trkpt lat="43.8778346" lon="12.7021276"><ele>139.0</ele><time>2026-04-19T09:58:17.221Z</time></trkpt><trkpt lat="43.8777688" lon="12.7019728"><ele>139.0</ele><time>2026-04-19T09:58:18.22Z</time></trkpt><trkpt lat="43.8777092" lon="12.7018246"><ele>139.0</ele><time>2026-04-19T09:58:19.222Z</time></trkpt><trkpt lat="43.8776577" lon="12.7016884"><ele>139.0</ele><time>2026-04-19T09:58:20.221Z</time></trkpt><trkpt lat="43.8776048" lon="12.7015655"><ele>139.4</ele><time>2026-04-19T09:58:21.22Z</time></trkpt><trkpt lat="43.87756" lon="12.701443"><ele>139.8</ele><time>2026-04-19T09:58:22.22Z</time></trkpt><trkpt lat="43.8775194" lon="12.7013242"><ele>140.2</ele><time>2026-04-19T09:58:23.22Z</time></trkpt><trkpt lat="43.8774818" lon="12.7012058"><ele>140.6</ele><time>2026-04-19T09:58:24.221Z</time></trkpt><trkpt lat="43.8774497" lon="12.7010801"><ele>141.0</ele><time>2026-04-19T09:58:25.22Z</time></trkpt><trkpt lat="43.8774196" lon="12.7009468"><ele>142.0</ele><time>2026-04-19T09:58:26.22Z</time></trkpt><trkpt lat="43.8773854" lon="12.7008072"><ele>143.0</ele><time>2026-04-19T09:58:27.22Z</time></trkpt><trkpt lat="43.8773562" lon="12.7006595"><ele>144.0</ele><time>2026-04-19T09:58:28.22Z</time></trkpt><trkpt lat="43.8773229" lon="12.7005075"><ele>145.0</ele><time>2026-04-19T09:58:29.22Z</time></trkpt><trkpt lat="43.8772849" lon="12.7003517"><ele>145.75</ele><time>2026-04-19T09:58:30.219Z</time></trkpt><trkpt lat="43.877247" lon="12.7001928"><ele>146.5</ele><time>2026-04-19T09:58:31.22Z</time></trkpt><trkpt lat="43.8772154" lon="12.7000315"><ele>147.25</ele><time>2026-04-19T09:58:32.221Z</time></trkpt><trkpt lat="43.8771856" lon="12.6998778"><ele>148.0</ele><time>2026-04-19T09:58:33.22Z</time></trkpt><trkpt lat="43.877157" lon="12.6997256"><ele>148.0</ele><time>2026-04-19T09:58:34.22Z</time></trkpt><trkpt lat="43.8771272" lon="12.6995782"><ele>148.0</ele><time>2026-04-19T09:58:35.22Z</time></trkpt><trkpt lat="43.8770949" lon="12.6994396"><ele>148.0</ele><time>2026-04-19T09:58:36.221Z</time></trkpt><trkpt lat="43.8770601" lon="12.6993055"><ele>148.0</ele><time>2026-04-19T09:58:37.22Z</time></trkpt><trkpt lat="43.8770197" lon="12.6991798"><ele>148.0</ele><time>2026-04-19T09:58:38.218Z</time></trkpt><trkpt lat="43.8769845" lon="12.6990676"><ele>148.16666666666669</ele><time>2026-04-19T09:58:39.219Z</time></trkpt><trkpt lat="43.8769549" lon="12.6989714"><ele>148.33333333333334</ele><time>2026-04-19T09:58:40.219Z</time></trkpt><trkpt lat="43.8769254" lon="12.6988694"><ele>148.5</ele><time>2026-04-19T09:58:41.219Z</time></trkpt><trkpt lat="43.8768973" lon="12.6987719"><ele>148.66666666666666</ele><time>2026-04-19T09:58:42.219Z</time></trkpt><trkpt lat="43.8768702" lon="12.6986782"><ele>148.83333333333331</ele><time>2026-04-19T09:58:43.22Z</time></trkpt><trkpt lat="43.8768363" lon="12.6985843"><ele>149.0</ele><time>2026-04-19T09:58:44.22Z</time></trkpt><trkpt lat="43.8767879" lon="12.698493"><ele>149.66666666666666</ele><time>2026-04-19T09:58:45.219Z</time></trkpt><trkpt lat="43.8767252" lon="12.6984028"><ele>150.33333333333331</ele><time>2026-04-19T09:58:46.219Z</time></trkpt><trkpt lat="43.8766446" lon="12.6983226"><ele>151.0</ele><time>2026-04-19T09:58:47.219Z</time></trkpt><trkpt lat="43.8765684" lon="12.6982515"><ele>151.66666666666666</ele><time>2026-04-19T09:58:48.219Z</time></trkpt><trkpt lat="43.8764999" lon="12.6981846"><ele>152.33333333333334</ele><time>2026-04-19T09:58:49.22Z</time></trkpt><trkpt lat="43.8764366" lon="12.6981178"><ele>153.0</ele><time>2026-04-19T09:58:50.22Z</time></trkpt><trkpt lat="43.8763889" lon="12.6980359"><ele>153.0</ele><time>2026-04-19T09:58:51.219Z</time></trkpt><trkpt lat="43.8763441" lon="12.6979379"><ele>153.0</ele><time>2026-04-19T09:58:52.22Z</time></trkpt><trkpt lat="43.8763024" lon="12.6978351"><ele>153.0</ele><time>2026-04-19T09:58:53.219Z</time></trkpt><trkpt lat="43.876261" lon="12.6977315"><ele>153.0</ele><time>2026-04-19T09:58:54.22Z</time></trkpt><trkpt lat="43.8762187" lon="12.6976104"><ele>153.0</ele><time>2026-04-19T09:58:55.219Z</time></trkpt><trkpt lat="43.8761746" lon="12.6974838"><ele>152.6</ele><time>2026-04-19T09:58:56.219Z</time></trkpt><trkpt lat="43.8761272" lon="12.6973556"><ele>152.20000000000002</ele><time>2026-04-19T09:58:57.219Z</time></trkpt><trkpt lat="43.8760766" lon="12.6972248"><ele>151.8</ele><time>2026-04-19T09:58:58.219Z</time></trkpt><trkpt lat="43.8760265" lon="12.6970872"><ele>151.4</ele><time>2026-04-19T09:58:59.219Z</time></trkpt><trkpt lat="43.8759791" lon="12.6969534"><ele>151.0</ele><time>2026-04-19T09:59:00.219Z</time></trkpt><trkpt lat="43.8759324" lon="12.6968263"><ele>151.0</ele><time>2026-04-19T09:59:01.219Z</time></trkpt><trkpt lat="43.8758884" lon="12.6967038"><ele>151.0</ele><time>2026-04-19T09:59:02.22Z</time></trkpt><trkpt lat="43.8758464" lon="12.6965862"><ele>151.0</ele><time>2026-04-19T09:59:03.22Z</time></trkpt><trkpt lat="43.8758007" lon="12.6964799"><ele>151.0</ele><time>2026-04-19T09:59:04.22Z</time></trkpt><trkpt lat="43.8757552" lon="12.6963755"><ele>151.0</ele><time>2026-04-19T09:59:05.218Z</time></trkpt><trkpt lat="43.8757003" lon="12.6962659"><ele>151.0</ele><time>2026-04-19T09:59:06.219Z</time></trkpt><trkpt lat="43.8756415" lon="12.6961675"><ele>151.0</ele><time>2026-04-19T09:59:07.219Z</time></trkpt><trkpt lat="43.8755846" lon="12.6960765"><ele>151.0</ele><time>2026-04-19T09:59:08.219Z</time></trkpt><trkpt lat="43.8755256" lon="12.6959916"><ele>151.0</ele><time>2026-04-19T09:59:09.22Z</time></trkpt><trkpt lat="43.8754609" lon="12.6959101"><ele>151.0</ele><time>2026-04-19T09:59:10.304Z</time></trkpt><trkpt lat="43.875408" lon="12.695832"><ele>151.0</ele><time>2026-04-19T09:59:11.22Z</time></trkpt><trkpt lat="43.8753609" lon="12.6957556"><ele>151.5</ele><time>2026-04-19T09:59:12.219Z</time></trkpt><trkpt lat="43.8753124" lon="12.6956832"><ele>152.0</ele><time>2026-04-19T09:59:13.222Z</time></trkpt><trkpt lat="43.87526" lon="12.6956053"><ele>152.5</ele><time>2026-04-19T09:59:14.22Z</time></trkpt><trkpt lat="43.8751993" lon="12.6955272"><ele>153.0</ele><time>2026-04-19T09:59:15.219Z</time></trkpt><trkpt lat="43.8751406" lon="12.6954547"><ele>153.5</ele><time>2026-04-19T09:59:16.219Z</time></trkpt><trkpt lat="43.8750822" lon="12.6953883"><ele>154.0</ele><time>2026-04-19T09:59:17.22Z</time></trkpt><trkpt lat="43.8750349" lon="12.6953254"><ele>153.57142857142858</ele><time>2026-04-19T09:59:18.22Z</time></trkpt><trkpt lat="43.8749879" lon="12.6952588"><ele>153.14285714285714</ele><time>2026-04-19T09:59:19.222Z</time></trkpt><trkpt lat="43.8749421" lon="12.6951938"><ele>152.71428571428572</ele><time>2026-04-19T09:59:20.22Z</time></trkpt><trkpt lat="43.874896" lon="12.6951276"><ele>152.28571428571428</ele><time>2026-04-19T09:59:21.219Z</time></trkpt><trkpt lat="43.8748423" lon="12.695066"><ele>151.85714285714286</ele><time>2026-04-19T09:59:22.219Z</time></trkpt><trkpt lat="43.8747822" lon="12.6950115"><ele>151.42857142857144</ele><time>2026-04-19T09:59:23.218Z</time></trkpt><trkpt lat="43.8747133" lon="12.6949624"><ele>151.0</ele><time>2026-04-19T09:59:24.23Z</time></trkpt><trkpt lat="43.8746455" lon="12.6949143"><ele>151.0</ele><time>2026-04-19T09:59:25.221Z</time></trkpt><trkpt lat="43.8745792" lon="12.6948774"><ele>151.0</ele><time>2026-04-19T09:59:26.221Z</time></trkpt><trkpt lat="43.8745138" lon="12.6948498"><ele>151.0</ele><time>2026-04-19T09:59:27.221Z</time></trkpt><trkpt lat="43.8744527" lon="12.6948196"><ele>151.0</ele><time>2026-04-19T09:59:28.219Z</time></trkpt><trkpt lat="43.8743462" lon="12.6947762"><ele>151.0</ele><time>2026-04-19T09:59:30.22Z</time></trkpt><trkpt lat="43.8742373" lon="12.6947457"><ele>151.0</ele><time>2026-04-19T09:59:32.218Z</time></trkpt><trkpt lat="43.8741731" lon="12.6947555"><ele>150.0</ele><time>2026-04-19T09:59:33.218Z</time></trkpt><trkpt lat="43.8740963" lon="12.6947696"><ele>149.0</ele><time>2026-04-19T09:59:34.219Z</time></trkpt><trkpt lat="43.8740144" lon="12.694789"><ele>148.0</ele><time>2026-04-19T09:59:35.218Z</time></trkpt><trkpt lat="43.87393" lon="12.6948096"><ele>147.0</ele><time>2026-04-19T09:59:36.22Z</time></trkpt><trkpt lat="43.8738387" lon="12.6948164"><ele>146.0</ele><time>2026-04-19T09:59:37.219Z</time></trkpt><trkpt lat="43.8737528" lon="12.694842"><ele>145.0</ele><time>2026-04-19T09:59:38.22Z</time></trkpt><trkpt lat="43.873668" lon="12.6948676"><ele>145.0</ele><time>2026-04-19T09:59:39.219Z</time></trkpt><trkpt lat="43.8735797" lon="12.6948896"><ele>145.0</ele><time>2026-04-19T09:59:40.219Z</time></trkpt><trkpt lat="43.873487" lon="12.6949059"><ele>145.0</ele><time>2026-04-19T09:59:41.219Z</time></trkpt><trkpt lat="43.8733922" lon="12.6949196"><ele>145.0</ele><time>2026-04-19T09:59:42.219Z</time></trkpt><trkpt lat="43.8732967" lon="12.6949325"><ele>145.0</ele><time>2026-04-19T09:59:43.22Z</time></trkpt><trkpt lat="43.8731989" lon="12.6949431"><ele>145.0</ele><time>2026-04-19T09:59:44.22Z</time></trkpt><trkpt lat="43.8730993" lon="12.6949558"><ele>145.0</ele><time>2026-04-19T09:59:45.22Z</time></trkpt><trkpt lat="43.8730031" lon="12.6949673"><ele>145.0</ele><time>2026-04-19T09:59:46.219Z</time></trkpt><trkpt lat="43.8729093" lon="12.6949729"><ele>145.0</ele><time>2026-04-19T09:59:47.219Z</time></trkpt><trkpt lat="43.8728178" lon="12.6949773"><ele>145.0</ele><time>2026-04-19T09:59:48.219Z</time></trkpt><trkpt lat="43.8727318" lon="12.6949806"><ele>145.0</ele><time>2026-04-19T09:59:49.219Z</time></trkpt><trkpt lat="43.8726473" lon="12.6949832"><ele>145.0</ele><time>2026-04-19T09:59:50.219Z</time></trkpt><trkpt lat="43.8725604" lon="12.6949888"><ele>145.0</ele><time>2026-04-19T09:59:51.219Z</time></trkpt><trkpt lat="43.8724726" lon="12.6949913"><ele>145.0</ele><time>2026-04-19T09:59:52.219Z</time></trkpt><trkpt lat="43.8723819" lon="12.6949858"><ele>145.0</ele><time>2026-04-19T09:59:53.22Z</time></trkpt><trkpt lat="43.8722963" lon="12.6949661"><ele>145.0</ele><time>2026-04-19T09:59:54.219Z</time></trkpt><trkpt lat="43.8722097" lon="12.6949422"><ele>145.83333333333334</ele><time>2026-04-19T09:59:55.219Z</time></trkpt><trkpt lat="43.8721245" lon="12.6949171"><ele>146.66666666666669</ele><time>2026-04-19T09:59:56.219Z</time></trkpt><trkpt lat="43.8720453" lon="12.6948876"><ele>147.5</ele><time>2026-04-19T09:59:57.221Z</time></trkpt><trkpt lat="43.8719716" lon="12.6948568"><ele>148.33333333333334</ele><time>2026-04-19T09:59:58.222Z</time></trkpt><trkpt lat="43.8719043" lon="12.6948208"><ele>149.16666666666666</ele><time>2026-04-19T09:59:59.218Z</time></trkpt><trkpt lat="43.8718379" lon="12.6947697"><ele>150.0</ele><time>2026-04-19T10:00:00.219Z</time></trkpt><trkpt lat="43.8717755" lon="12.6947096"><ele>149.83333333333334</ele><time>2026-04-19T10:00:01.224Z</time></trkpt><trkpt lat="43.8717247" lon="12.6946368"><ele>149.66666666666666</ele><time>2026-04-19T10:00:02.219Z</time></trkpt><trkpt lat="43.8716822" lon="12.6945594"><ele>149.5</ele><time>2026-04-19T10:00:03.223Z</time></trkpt><trkpt lat="43.8716411" lon="12.6944804"><ele>149.33333333333331</ele><time>2026-04-19T10:00:04.22Z</time></trkpt><trkpt lat="43.8715967" lon="12.6944125"><ele>149.16666666666666</ele><time>2026-04-19T10:00:05.231Z</time></trkpt><trkpt lat="43.871507" lon="12.6942953"><ele>149.0</ele><time>2026-04-19T10:00:07.22Z</time></trkpt><trkpt lat="43.8714566" lon="12.69424"><ele>147.33333333333331</ele><time>2026-04-19T10:00:08.219Z</time></trkpt><trkpt lat="43.8714029" lon="12.6941793"><ele>145.66666666666666</ele><time>2026-04-19T10:00:09.226Z</time></trkpt><trkpt lat="43.8713376" lon="12.694118"><ele>144.0</ele><time>2026-04-19T10:00:10.219Z</time></trkpt><trkpt lat="43.871259" lon="12.6940572"><ele>142.33333333333334</ele><time>2026-04-19T10:00:11.22Z</time></trkpt><trkpt lat="43.8711683" lon="12.693997"><ele>140.66666666666669</ele><time>2026-04-19T10:00:12.22Z</time></trkpt><trkpt lat="43.8710696" lon="12.6939394"><ele>139.0</ele><time>2026-04-19T10:00:13.219Z</time></trkpt><trkpt lat="43.8709682" lon="12.6938838"><ele>139.6</ele><time>2026-04-19T10:00:14.219Z</time></trkpt><trkpt lat="43.8708631" lon="12.6938397"><ele>140.2</ele><time>2026-04-19T10:00:15.218Z</time></trkpt><trkpt lat="43.8707626" lon="12.6938012"><ele>140.79999999999998</ele><time>2026-04-19T10:00:16.219Z</time></trkpt><trkpt lat="43.8706662" lon="12.6937717"><ele>141.4</ele><time>2026-04-19T10:00:17.219Z</time></trkpt><trkpt lat="43.8705709" lon="12.6937505"><ele>142.0</ele><time>2026-04-19T10:00:18.219Z</time></trkpt><trkpt lat="43.8704748" lon="12.6937354"><ele>142.0</ele><time>2026-04-19T10:00:19.219Z</time></trkpt><trkpt lat="43.8703811" lon="12.6937186"><ele>142.0</ele><time>2026-04-19T10:00:20.219Z</time></trkpt><trkpt lat="43.870292" lon="12.6936994"><ele>142.0</ele><time>2026-04-19T10:00:21.219Z</time></trkpt><trkpt lat="43.8702041" lon="12.6936794"><ele>142.0</ele><time>2026-04-19T10:00:22.219Z</time></trkpt><trkpt lat="43.8701186" lon="12.6936619"><ele>142.0</ele><time>2026-04-19T10:00:23.219Z</time></trkpt><trkpt lat="43.8700335" lon="12.6936487"><ele>142.0</ele><time>2026-04-19T10:00:24.222Z</time></trkpt><trkpt lat="43.8699596" lon="12.6936195"><ele>141.0</ele><time>2026-04-19T10:00:25.219Z</time></trkpt><trkpt lat="43.8698844" lon="12.6935826"><ele>140.0</ele><time>2026-04-19T10:00:26.219Z</time></trkpt><trkpt lat="43.8698207" lon="12.6935269"><ele>139.0</ele><time>2026-04-19T10:00:27.218Z</time></trkpt><trkpt lat="43.86978" lon="12.693449"><ele>138.0</ele><time>2026-04-19T10:00:28.219Z</time></trkpt><trkpt lat="43.869738" lon="12.6933588"><ele>137.0</ele><time>2026-04-19T10:00:29.219Z</time></trkpt><trkpt lat="43.8696859" lon="12.6932823"><ele>136.0</ele><time>2026-04-19T10:00:30.219Z</time></trkpt><trkpt lat="43.8696225" lon="12.693219"><ele>136.0</ele><time>2026-04-19T10:00:31.219Z</time></trkpt><trkpt lat="43.8695361" lon="12.6931788"><ele>136.0</ele><time>2026-04-19T10:00:32.219Z</time></trkpt><trkpt lat="43.869444" lon="12.6931445"><ele>136.0</ele><time>2026-04-19T10:00:33.22Z</time></trkpt><trkpt lat="43.8693448" lon="12.6931282"><ele>136.0</ele><time>2026-04-19T10:00:34.219Z</time></trkpt><trkpt lat="43.8692397" lon="12.6931132"><ele>136.0</ele><time>2026-04-19T10:00:35.219Z</time></trkpt><trkpt lat="43.8691401" lon="12.6931014"><ele>137.0</ele><time>2026-04-19T10:00:36.219Z</time></trkpt><trkpt lat="43.8690445" lon="12.6930877"><ele>138.0</ele><time>2026-04-19T10:00:37.219Z</time></trkpt><trkpt lat="43.8689502" lon="12.6930763"><ele>139.0</ele><time>2026-04-19T10:00:38.219Z</time></trkpt><trkpt lat="43.868859" lon="12.6930611"><ele>140.0</ele><time>2026-04-19T10:00:39.219Z</time></trkpt><trkpt lat="43.8687702" lon="12.6930378"><ele>141.0</ele><time>2026-04-19T10:00:40.219Z</time></trkpt><trkpt lat="43.8686833" lon="12.693011"><ele>141.0</ele><time>2026-04-19T10:00:41.219Z</time></trkpt><trkpt lat="43.8685943" lon="12.6929797"><ele>141.0</ele><time>2026-04-19T10:00:42.219Z</time></trkpt><trkpt lat="43.868502" lon="12.692946"><ele>141.0</ele><time>2026-04-19T10:00:43.219Z</time></trkpt><trkpt lat="43.8684147" lon="12.692909"><ele>141.0</ele><time>2026-04-19T10:00:44.219Z</time></trkpt><trkpt lat="43.8683351" lon="12.692868"><ele>141.0</ele><time>2026-04-19T10:00:45.219Z</time></trkpt><trkpt lat="43.8682634" lon="12.6928379"><ele>141.0</ele><time>2026-04-19T10:00:46.218Z</time></trkpt><trkpt lat="43.868219" lon="12.6927036"><ele>141.5</ele><time>2026-04-19T10:00:48.22Z</time></trkpt><trkpt lat="43.8683144" lon="12.6926128"><ele>142.0</ele><time>2026-04-19T10:00:50.223Z</time></trkpt><trkpt lat="43.8683876" lon="12.6926183"><ele>142.5</ele><time>2026-04-19T10:00:51.219Z</time></trkpt><trkpt lat="43.8684578" lon="12.6926241"><ele>143.0</ele><time>2026-04-19T10:00:52.219Z</time></trkpt><trkpt lat="43.8685418" lon="12.692644"><ele>143.5</ele><time>2026-04-19T10:00:53.219Z</time></trkpt><trkpt lat="43.8686436" lon="12.6926581"><ele>144.0</ele><time>2026-04-19T10:00:54.219Z</time></trkpt><trkpt lat="43.8687588" lon="12.6926614"><ele>144.25</ele><time>2026-04-19T10:00:55.218Z</time></trkpt><trkpt lat="43.8688797" lon="12.6926707"><ele>144.5</ele><time>2026-04-19T10:00:56.218Z</time></trkpt><trkpt lat="43.869009" lon="12.6926846"><ele>144.75</ele><time>2026-04-19T10:00:57.217Z</time></trkpt><trkpt lat="43.8691463" lon="12.6926629"><ele>145.0</ele><time>2026-04-19T10:00:58.219Z</time></trkpt><trkpt lat="43.8692767" lon="12.692639"><ele>144.2</ele><time>2026-04-19T10:00:59.219Z</time></trkpt><trkpt lat="43.8693994" lon="12.6926163"><ele>143.4</ele><time>2026-04-19T10:01:00.218Z</time></trkpt><trkpt lat="43.8695087" lon="12.6925941"><ele>142.6</ele><time>2026-04-19T10:01:01.218Z</time></trkpt><trkpt lat="43.8696065" lon="12.6925598"><ele>141.8</ele><time>2026-04-19T10:01:02.219Z</time></trkpt><trkpt lat="43.8696949" lon="12.6925034"><ele>141.0</ele><time>2026-04-19T10:01:03.219Z</time></trkpt><trkpt lat="43.8697633" lon="12.6924249"><ele>141.0</ele><time>2026-04-19T10:01:04.218Z</time></trkpt><trkpt lat="43.8698154" lon="12.6923323"><ele>141.0</ele><time>2026-04-19T10:01:05.218Z</time></trkpt><trkpt lat="43.8698453" lon="12.6922217"><ele>141.0</ele><time>2026-04-19T10:01:06.219Z</time></trkpt><trkpt lat="43.8698303" lon="12.6920839"><ele>141.0</ele><time>2026-04-19T10:01:07.219Z</time></trkpt><trkpt lat="43.8697913" lon="12.6919486"><ele>141.0</ele><time>2026-04-19T10:01:08.219Z</time></trkpt><trkpt lat="43.869729" lon="12.69182"><ele>142.4</ele><time>2026-04-19T10:01:09.22Z</time></trkpt><trkpt lat="43.8696596" lon="12.6916977"><ele>143.8</ele><time>2026-04-19T10:01:10.218Z</time></trkpt><trkpt lat="43.8695886" lon="12.6915802"><ele>145.20000000000002</ele><time>2026-04-19T10:01:11.219Z</time></trkpt><trkpt lat="43.8695206" lon="12.6914697"><ele>146.6</ele><time>2026-04-19T10:01:12.219Z</time></trkpt><trkpt lat="43.8694511" lon="12.6913706"><ele>148.0</ele><time>2026-04-19T10:01:13.219Z</time></trkpt><trkpt lat="43.8693873" lon="12.6912755"><ele>148.0</ele><time>2026-04-19T10:01:14.219Z</time></trkpt><trkpt lat="43.8693317" lon="12.6911859"><ele>148.0</ele><time>2026-04-19T10:01:15.216Z</time></trkpt><trkpt lat="43.869273" lon="12.691102"><ele>148.0</ele><time>2026-04-19T10:01:16.218Z</time></trkpt><trkpt lat="43.8692138" lon="12.6910172"><ele>148.0</ele><time>2026-04-19T10:01:17.219Z</time></trkpt><trkpt lat="43.8691588" lon="12.6909336"><ele>148.0</ele><time>2026-04-19T10:01:18.219Z</time></trkpt><trkpt lat="43.8690962" lon="12.6908423"><ele>148.0</ele><time>2026-04-19T10:01:19.218Z</time></trkpt><trkpt lat="43.8690298" lon="12.6907366"><ele>150.0</ele><time>2026-04-19T10:01:20.219Z</time></trkpt><trkpt lat="43.8689555" lon="12.6906323"><ele>152.0</ele><time>2026-04-19T10:01:21.218Z</time></trkpt><trkpt lat="43.8688739" lon="12.6905341"><ele>154.0</ele><time>2026-04-19T10:01:22.218Z</time></trkpt><trkpt lat="43.8687876" lon="12.6904371"><ele>156.0</ele><time>2026-04-19T10:01:23.219Z</time></trkpt><trkpt lat="43.8687018" lon="12.6903378"><ele>158.0</ele><time>2026-04-19T10:01:24.218Z</time></trkpt><trkpt lat="43.8686141" lon="12.6902421"><ele>159.5</ele><time>2026-04-19T10:01:25.218Z</time></trkpt><trkpt lat="43.8685224" lon="12.6901439"><ele>161.0</ele><time>2026-04-19T10:01:26.218Z</time></trkpt><trkpt lat="43.8684213" lon="12.6900337"><ele>162.5</ele><time>2026-04-19T10:01:27.218Z</time></trkpt><trkpt lat="43.8683229" lon="12.689916"><ele>164.0</ele><time>2026-04-19T10:01:28.216Z</time></trkpt><trkpt lat="43.8682325" lon="12.6897837"><ele>165.5</ele><time>2026-04-19T10:01:29.221Z</time></trkpt><trkpt lat="43.8681466" lon="12.6896382"><ele>167.0</ele><time>2026-04-19T10:01:30.218Z</time></trkpt><trkpt lat="43.8680713" lon="12.6894735"><ele>168.5</ele><time>2026-04-19T10:01:31.218Z</time></trkpt><trkpt lat="43.868012" lon="12.6893142"><ele>170.0</ele><time>2026-04-19T10:01:32.217Z</time></trkpt><trkpt lat="43.8679678" lon="12.6891756"><ele>172.2</ele><time>2026-04-19T10:01:33.218Z</time></trkpt><trkpt lat="43.867927" lon="12.6890559"><ele>174.4</ele><time>2026-04-19T10:01:34.219Z</time></trkpt><trkpt lat="43.86788" lon="12.6889466"><ele>176.60000000000002</ele><time>2026-04-19T10:01:35.218Z</time></trkpt><trkpt lat="43.8678201" lon="12.688852"><ele>178.8</ele><time>2026-04-19T10:01:36.218Z</time></trkpt><trkpt lat="43.8677396" lon="12.6887863"><ele>181.0</ele><time>2026-04-19T10:01:37.217Z</time></trkpt><trkpt lat="43.867644" lon="12.6887441"><ele>181.5</ele><time>2026-04-19T10:01:38.218Z</time></trkpt><trkpt lat="43.8675443" lon="12.6887048"><ele>182.0</ele><time>2026-04-19T10:01:39.218Z</time></trkpt><trkpt lat="43.8674212" lon="12.6886787"><ele>182.5</ele><time>2026-04-19T10:01:40.219Z</time></trkpt><trkpt lat="43.8672694" lon="12.6886523"><ele>183.0</ele><time>2026-04-19T10:01:41.218Z</time></trkpt><trkpt lat="43.8670993" lon="12.688626"><ele>183.0</ele><time>2026-04-19T10:01:42.219Z</time></trkpt><trkpt lat="43.8669128" lon="12.6886291"><ele>183.0</ele><time>2026-04-19T10:01:43.218Z</time></trkpt><trkpt lat="43.8667115" lon="12.688627"><ele>183.0</ele><time>2026-04-19T10:01:44.218Z</time></trkpt><trkpt lat="43.8664914" lon="12.6886233"><ele>185.33333333333334</ele><time>2026-04-19T10:01:45.219Z</time></trkpt><trkpt lat="43.8662685" lon="12.6886189"><ele>187.66666666666669</ele><time>2026-04-19T10:01:46.242Z</time></trkpt><trkpt lat="43.8660634" lon="12.6886195"><ele>190.0</ele><time>2026-04-19T10:01:47.223Z</time></trkpt><trkpt lat="43.8658693" lon="12.6886196"><ele>194.0</ele><time>2026-04-19T10:01:48.217Z</time></trkpt><trkpt lat="43.8656825" lon="12.6886318"><ele>198.0</ele><time>2026-04-19T10:01:49.22Z</time></trkpt><trkpt lat="43.8655176" lon="12.6886468"><ele>202.0</ele><time>2026-04-19T10:01:50.219Z</time></trkpt><trkpt lat="43.8653689" lon="12.6886696"><ele>202.0</ele><time>2026-04-19T10:01:51.217Z</time></trkpt><trkpt lat="43.865233" lon="12.6886942"><ele>202.0</ele><time>2026-04-19T10:01:52.217Z</time></trkpt><trkpt lat="43.8651056" lon="12.6887093"><ele>202.0</ele><time>2026-04-19T10:01:53.217Z</time></trkpt><trkpt lat="43.8649865" lon="12.6887197"><ele>202.0</ele><time>2026-04-19T10:01:54.228Z</time></trkpt><trkpt lat="43.864871" lon="12.6887171"><ele>203.75</ele><time>2026-04-19T10:01:55.218Z</time></trkpt><trkpt lat="43.8647481" lon="12.688697"><ele>205.5</ele><time>2026-04-19T10:01:56.218Z</time></trkpt><trkpt lat="43.8646151" lon="12.6886668"><ele>207.25</ele><time>2026-04-19T10:01:57.219Z</time></trkpt><trkpt lat="43.8644843" lon="12.6886238"><ele>209.0</ele><time>2026-04-19T10:01:58.218Z</time></trkpt><trkpt lat="43.8643638" lon="12.6885665"><ele>211.79999999999998</ele><time>2026-04-19T10:01:59.219Z</time></trkpt><trkpt lat="43.8642597" lon="12.6884895"><ele>214.6</ele><time>2026-04-19T10:02:00.218Z</time></trkpt><trkpt lat="43.8641741" lon="12.688401"><ele>217.4</ele><time>2026-04-19T10:02:01.219Z</time></trkpt><trkpt lat="43.8641054" lon="12.6883113"><ele>220.2</ele><time>2026-04-19T10:02:02.218Z</time></trkpt><trkpt lat="43.8640508" lon="12.6882333"><ele>223.0</ele><time>2026-04-19T10:02:03.218Z</time></trkpt><trkpt lat="43.8640182" lon="12.6881538"><ele>222.99999999999997</ele><time>2026-04-19T10:02:04.218Z</time></trkpt><trkpt lat="43.8640177" lon="12.6880614"><ele>223.0</ele><time>2026-04-19T10:02:05.219Z</time></trkpt><trkpt lat="43.864042" lon="12.6879795"><ele>223.0</ele><time>2026-04-19T10:02:06.219Z</time></trkpt><trkpt lat="43.8640939" lon="12.68793"><ele>223.0</ele><time>2026-04-19T10:02:07.22Z</time></trkpt><trkpt lat="43.8641722" lon="12.6879071"><ele>222.99999999999997</ele><time>2026-04-19T10:02:08.223Z</time></trkpt><trkpt lat="43.8642695" lon="12.6879152"><ele>223.0</ele><time>2026-04-19T10:02:09.218Z</time></trkpt><trkpt lat="43.8643886" lon="12.6879369"><ele>222.75</ele><time>2026-04-19T10:02:10.22Z</time></trkpt><trkpt lat="43.8645299" lon="12.6879458"><ele>222.5</ele><time>2026-04-19T10:02:11.218Z</time></trkpt><trkpt lat="43.8646693" lon="12.6879244"><ele>222.25</ele><time>2026-04-19T10:02:12.22Z</time></trkpt><trkpt lat="43.8647974" lon="12.6878494"><ele>222.0</ele><time>2026-04-19T10:02:13.218Z</time></trkpt><trkpt lat="43.8649132" lon="12.6877327"><ele>224.33333333333331</ele><time>2026-04-19T10:02:14.219Z</time></trkpt><trkpt lat="43.8650308" lon="12.6875928"><ele>226.66666666666666</ele><time>2026-04-19T10:02:15.219Z</time></trkpt><trkpt lat="43.8651592" lon="12.687438"><ele>229.0</ele><time>2026-04-19T10:02:16.217Z</time></trkpt><trkpt lat="43.8652948" lon="12.6872838"><ele>229.0</ele><time>2026-04-19T10:02:17.224Z</time></trkpt><trkpt lat="43.8654298" lon="12.6871407"><ele>229.0</ele><time>2026-04-19T10:02:18.218Z</time></trkpt><trkpt lat="43.8655605" lon="12.6870082"><ele>229.0</ele><time>2026-04-19T10:02:19.228Z</time></trkpt><trkpt lat="43.8656729" lon="12.6868893"><ele>230.25</ele><time>2026-04-19T10:02:20.218Z</time></trkpt><trkpt lat="43.8657713" lon="12.6867762"><ele>231.5</ele><time>2026-04-19T10:02:21.219Z</time></trkpt><trkpt lat="43.8658551" lon="12.6866502"><ele>232.75</ele><time>2026-04-19T10:02:22.218Z</time></trkpt><trkpt lat="43.8659267" lon="12.6865053"><ele>234.0</ele><time>2026-04-19T10:02:23.218Z</time></trkpt><trkpt lat="43.865988" lon="12.6863299"><ele>234.0</ele><time>2026-04-19T10:02:24.219Z</time></trkpt><trkpt lat="43.8660482" lon="12.6861204"><ele>234.0</ele><time>2026-04-19T10:02:25.218Z</time></trkpt><trkpt lat="43.8661152" lon="12.6858884"><ele>234.0</ele><time>2026-04-19T10:02:26.218Z</time></trkpt><trkpt lat="43.8661781" lon="12.6856372"><ele>240.0</ele><time>2026-04-19T10:02:27.219Z</time></trkpt><trkpt lat="43.8662172" lon="12.6853887"><ele>246.0</ele><time>2026-04-19T10:02:28.219Z</time></trkpt><trkpt lat="43.8662357" lon="12.6851727"><ele>252.0</ele><time>2026-04-19T10:02:29.218Z</time></trkpt><trkpt lat="43.8662447" lon="12.6849864"><ele>254.83333333333334</ele><time>2026-04-19T10:02:30.218Z</time></trkpt><trkpt lat="43.8662618" lon="12.6848312"><ele>257.6666666666667</ele><time>2026-04-19T10:02:31.219Z</time></trkpt><trkpt lat="43.8662931" lon="12.6847156"><ele>260.5</ele><time>2026-04-19T10:02:32.218Z</time></trkpt><trkpt lat="43.8663393" lon="12.6846388"><ele>263.33333333333337</ele><time>2026-04-19T10:02:33.218Z</time></trkpt><trkpt lat="43.8663977" lon="12.6845843"><ele>266.1666666666667</ele><time>2026-04-19T10:02:34.218Z</time></trkpt><trkpt lat="43.8664802" lon="12.6846149"><ele>269.0</ele><time>2026-04-19T10:02:35.218Z</time></trkpt><trkpt lat="43.8665893" lon="12.6846744"><ele>269.0</ele><time>2026-04-19T10:02:36.22Z</time></trkpt><trkpt lat="43.8666871" lon="12.6847001"><ele>269.0</ele><time>2026-04-19T10:02:37.218Z</time></trkpt><trkpt lat="43.8667697" lon="12.684701"><ele>269.0</ele><time>2026-04-19T10:02:38.225Z</time></trkpt><trkpt lat="43.8668324" lon="12.6846777"><ele>269.0</ele><time>2026-04-19T10:02:39.218Z</time></trkpt><trkpt lat="43.8668393" lon="12.6845664"><ele>269.0</ele><time>2026-04-19T10:02:41.218Z</time></trkpt><trkpt lat="43.8667856" lon="12.6844738"><ele>269.0</ele><time>2026-04-19T10:02:42.224Z</time></trkpt><trkpt lat="43.866656" lon="12.6842177"><ele>272.0</ele><time>2026-04-19T10:02:44.218Z</time></trkpt><trkpt lat="43.8666045" lon="12.6840603"><ele>275.0</ele><time>2026-04-19T10:02:45.217Z</time></trkpt><trkpt lat="43.8665714" lon="12.683874"><ele>278.0</ele><time>2026-04-19T10:02:46.222Z</time></trkpt><trkpt lat="43.8665486" lon="12.6836764"><ele>281.0</ele><time>2026-04-19T10:02:47.218Z</time></trkpt><trkpt lat="43.8665271" lon="12.6834816"><ele>282.0</ele><time>2026-04-19T10:02:48.218Z</time></trkpt><trkpt lat="43.8665073" lon="12.6833154"><ele>283.0</ele><time>2026-04-19T10:02:49.217Z</time></trkpt><trkpt lat="43.8664777" lon="12.6831763"><ele>284.0</ele><time>2026-04-19T10:02:50.218Z</time></trkpt><trkpt lat="43.8664271" lon="12.6830565"><ele>285.0</ele><time>2026-04-19T10:02:51.226Z</time></trkpt><trkpt lat="43.8663498" lon="12.6829572"><ele>286.0</ele><time>2026-04-19T10:02:52.224Z</time></trkpt><trkpt lat="43.8662456" lon="12.6828854"><ele>286.0</ele><time>2026-04-19T10:02:53.218Z</time></trkpt><trkpt lat="43.8661202" lon="12.6828536"><ele>286.0</ele><time>2026-04-19T10:02:54.217Z</time></trkpt><trkpt lat="43.8659961" lon="12.6828534"><ele>286.0</ele><time>2026-04-19T10:02:55.218Z</time></trkpt><trkpt lat="43.8658882" lon="12.6828609"><ele>286.0</ele><time>2026-04-19T10:02:56.218Z</time></trkpt><trkpt lat="43.865792" lon="12.6828577"><ele>285.40000000000003</ele><time>2026-04-19T10:02:57.219Z</time></trkpt><trkpt lat="43.8657096" lon="12.6828281"><ele>284.8</ele><time>2026-04-19T10:02:58.217Z</time></trkpt><trkpt lat="43.8656411" lon="12.6827759"><ele>284.20000000000005</ele><time>2026-04-19T10:02:59.217Z</time></trkpt><trkpt lat="43.8655931" lon="12.6826854"><ele>283.6</ele><time>2026-04-19T10:03:00.219Z</time></trkpt><trkpt lat="43.8655625" lon="12.6825369"><ele>283.0</ele><time>2026-04-19T10:03:01.219Z</time></trkpt><trkpt lat="43.8655441" lon="12.682344"><ele>286.5</ele><time>2026-04-19T10:03:02.218Z</time></trkpt><trkpt lat="43.8655138" lon="12.6821675"><ele>290.0</ele><time>2026-04-19T10:03:03.218Z</time></trkpt><trkpt lat="43.8654666" lon="12.6820186"><ele>293.5</ele><time>2026-04-19T10:03:04.218Z</time></trkpt><trkpt lat="43.8654077" lon="12.681886"><ele>297.0</ele><time>2026-04-19T10:03:05.217Z</time></trkpt><trkpt lat="43.8653446" lon="12.6817667"><ele>297.3333333333333</ele><time>2026-04-19T10:03:06.219Z</time></trkpt><trkpt lat="43.865286" lon="12.6816668"><ele>297.6666666666667</ele><time>2026-04-19T10:03:07.217Z</time></trkpt><trkpt lat="43.8652258" lon="12.6815959"><ele>298.0</ele><time>2026-04-19T10:03:08.218Z</time></trkpt><trkpt lat="43.8651533" lon="12.6815529"><ele>298.33333333333337</ele><time>2026-04-19T10:03:09.219Z</time></trkpt><trkpt lat="43.8650693" lon="12.6815475"><ele>298.6666666666667</ele><time>2026-04-19T10:03:10.218Z</time></trkpt><trkpt lat="43.8649705" lon="12.6815834"><ele>299.0</ele><time>2026-04-19T10:03:11.217Z</time></trkpt><trkpt lat="43.8648722" lon="12.6816321"><ele>301.8</ele><time>2026-04-19T10:03:12.218Z</time></trkpt><trkpt lat="43.8647759" lon="12.6816809"><ele>304.59999999999997</ele><time>2026-04-19T10:03:13.222Z</time></trkpt><trkpt lat="43.864684" lon="12.6817258"><ele>307.4</ele><time>2026-04-19T10:03:14.217Z</time></trkpt><trkpt lat="43.8645972" lon="12.6817547"><ele>310.2</ele><time>2026-04-19T10:03:15.22Z</time></trkpt><trkpt lat="43.8645059" lon="12.6817737"><ele>313.0</ele><time>2026-04-19T10:03:16.219Z</time></trkpt><trkpt lat="43.8644176" lon="12.6817637"><ele>313.0</ele><time>2026-04-19T10:03:17.217Z</time></trkpt><trkpt lat="43.8643259" lon="12.6817304"><ele>313.0</ele><time>2026-04-19T10:03:18.217Z</time></trkpt><trkpt lat="43.8642511" lon="12.6816305"><ele>313.0</ele><time>2026-04-19T10:03:19.217Z</time></trkpt><trkpt lat="43.8642018" lon="12.6814809"><ele>313.0</ele><time>2026-04-19T10:03:20.219Z</time></trkpt><trkpt lat="43.8641665" lon="12.6813206"><ele>313.0</ele><time>2026-04-19T10:03:21.219Z</time></trkpt><trkpt lat="43.8641348" lon="12.6811731"><ele>315.6</ele><time>2026-04-19T10:03:22.217Z</time></trkpt><trkpt lat="43.8640953" lon="12.681037"><ele>318.20000000000005</ele><time>2026-04-19T10:03:23.217Z</time></trkpt><trkpt lat="43.8640417" lon="12.6809229"><ele>320.8</ele><time>2026-04-19T10:03:24.217Z</time></trkpt><trkpt lat="43.8639762" lon="12.6808277"><ele>323.40000000000003</ele><time>2026-04-19T10:03:25.218Z</time></trkpt><trkpt lat="43.8639066" lon="12.6807361"><ele>326.0</ele><time>2026-04-19T10:03:26.217Z</time></trkpt><trkpt lat="43.8638367" lon="12.6806411"><ele>326.0</ele><time>2026-04-19T10:03:27.217Z</time></trkpt><trkpt lat="43.863768" lon="12.6805396"><ele>326.0</ele><time>2026-04-19T10:03:28.216Z</time></trkpt><trkpt lat="43.863701" lon="12.6804317"><ele>326.0</ele><time>2026-04-19T10:03:29.218Z</time></trkpt><trkpt lat="43.8636339" lon="12.6803177"><ele>326.0</ele><time>2026-04-19T10:03:30.217Z</time></trkpt><trkpt lat="43.8635698" lon="12.6801915"><ele>326.0</ele><time>2026-04-19T10:03:31.216Z</time></trkpt><trkpt lat="43.8635075" lon="12.6800546"><ele>328.25</ele><time>2026-04-19T10:03:32.216Z</time></trkpt><trkpt lat="43.8634448" lon="12.6799105"><ele>330.5</ele><time>2026-04-19T10:03:33.219Z</time></trkpt><trkpt lat="43.8633828" lon="12.6797605"><ele>332.75</ele><time>2026-04-19T10:03:34.216Z</time></trkpt><trkpt lat="43.8633184" lon="12.6796133"><ele>335.0</ele><time>2026-04-19T10:03:35.217Z</time></trkpt><trkpt lat="43.863252" lon="12.6794727"><ele>335.2</ele><time>2026-04-19T10:03:36.23Z</time></trkpt><trkpt lat="43.8631829" lon="12.6793489"><ele>335.4</ele><time>2026-04-19T10:03:37.22Z</time></trkpt><trkpt lat="43.8631022" lon="12.6792455"><ele>335.6</ele><time>2026-04-19T10:03:38.233Z</time></trkpt><trkpt lat="43.8630117" lon="12.679163"><ele>335.8</ele><time>2026-04-19T10:03:39.217Z</time></trkpt><trkpt lat="43.8629139" lon="12.6790902"><ele>336.0</ele><time>2026-04-19T10:03:40.218Z</time></trkpt><trkpt lat="43.8628089" lon="12.6790246"><ele>336.0</ele><time>2026-04-19T10:03:41.219Z</time></trkpt><trkpt lat="43.8627013" lon="12.6789695"><ele>336.0</ele><time>2026-04-19T10:03:42.217Z</time></trkpt><trkpt lat="43.862593" lon="12.6789145"><ele>336.0</ele><time>2026-04-19T10:03:43.238Z</time></trkpt><trkpt lat="43.862491" lon="12.6788589"><ele>336.0</ele><time>2026-04-19T10:03:44.218Z</time></trkpt><trkpt lat="43.8623919" lon="12.6787962"><ele>336.0</ele><time>2026-04-19T10:03:45.216Z</time></trkpt><trkpt lat="43.8623022" lon="12.6787315"><ele>337.4</ele><time>2026-04-19T10:03:46.217Z</time></trkpt><trkpt lat="43.8622208" lon="12.6786643"><ele>338.8</ele><time>2026-04-19T10:03:47.218Z</time></trkpt><trkpt lat="43.8621428" lon="12.6785886"><ele>340.2</ele><time>2026-04-19T10:03:48.226Z</time></trkpt><trkpt lat="43.8620657" lon="12.6785071"><ele>341.59999999999997</ele><time>2026-04-19T10:03:49.218Z</time></trkpt><trkpt lat="43.8619838" lon="12.6784276"><ele>343.0</ele><time>2026-04-19T10:03:50.219Z</time></trkpt><trkpt lat="43.8618979" lon="12.678358"><ele>343.3333333333333</ele><time>2026-04-19T10:03:51.218Z</time></trkpt><trkpt lat="43.8618133" lon="12.6783024"><ele>343.66666666666663</ele><time>2026-04-19T10:03:52.217Z</time></trkpt><trkpt lat="43.8617302" lon="12.6782642"><ele>344.0</ele><time>2026-04-19T10:03:53.218Z</time></trkpt><trkpt lat="43.8616441" lon="12.6782343"><ele>344.3333333333333</ele><time>2026-04-19T10:03:54.22Z</time></trkpt><trkpt lat="43.8615561" lon="12.6782211"><ele>344.6666666666667</ele><time>2026-04-19T10:03:55.218Z</time></trkpt><trkpt lat="43.8614656" lon="12.6782348"><ele>345.0</ele><time>2026-04-19T10:03:56.219Z</time></trkpt><trkpt lat="43.8613633" lon="12.6782799"><ele>346.2</ele><time>2026-04-19T10:03:57.218Z</time></trkpt><trkpt lat="43.8612444" lon="12.6783493"><ele>347.4</ele><time>2026-04-19T10:03:58.219Z</time></trkpt><trkpt lat="43.8611353" lon="12.6784083"><ele>348.6</ele><time>2026-04-19T10:03:59.217Z</time></trkpt><trkpt lat="43.8610353" lon="12.6784421"><ele>349.8</ele><time>2026-04-19T10:04:00.218Z</time></trkpt><trkpt lat="43.8609376" lon="12.6784537"><ele>351.0</ele><time>2026-04-19T10:04:01.218Z</time></trkpt><trkpt lat="43.8608393" lon="12.6784569"><ele>351.0</ele><time>2026-04-19T10:04:02.221Z</time></trkpt><trkpt lat="43.8607397" lon="12.6784573"><ele>351.0</ele><time>2026-04-19T10:04:03.219Z</time></trkpt><trkpt lat="43.8606403" lon="12.6784589"><ele>351.0</ele><time>2026-04-19T10:04:04.218Z</time></trkpt><trkpt lat="43.8605361" lon="12.6784658"><ele>351.0</ele><time>2026-04-19T10:04:05.217Z</time></trkpt><trkpt lat="43.860437" lon="12.6784808"><ele>351.0</ele><time>2026-04-19T10:04:06.219Z</time></trkpt><trkpt lat="43.8603432" lon="12.6785141"><ele>351.0</ele><time>2026-04-19T10:04:07.221Z</time></trkpt><trkpt lat="43.8602537" lon="12.6785642"><ele>351.0</ele><time>2026-04-19T10:04:08.217Z</time></trkpt><trkpt lat="43.8601729" lon="12.6786232"><ele>351.0</ele><time>2026-04-19T10:04:09.218Z</time></trkpt><trkpt lat="43.8600199" lon="12.6787193"><ele>351.0</ele><time>2026-04-19T10:04:11.23Z</time></trkpt><trkpt lat="43.8599432" lon="12.6787404"><ele>351.0</ele><time>2026-04-19T10:04:12.22Z</time></trkpt><trkpt lat="43.8598577" lon="12.6787436"><ele>352.0</ele><time>2026-04-19T10:04:13.407Z</time></trkpt><trkpt lat="43.8597119" lon="12.6786582"><ele>353.0</ele><time>2026-04-19T10:04:15.217Z</time></trkpt><trkpt lat="43.8595975" lon="12.6784286"><ele>354.0</ele><time>2026-04-19T10:04:17.216Z</time></trkpt><trkpt lat="43.8595557" lon="12.6782876"><ele>354.0</ele><time>2026-04-19T10:04:18.216Z</time></trkpt><trkpt lat="43.8595136" lon="12.6781538"><ele>354.0</ele><time>2026-04-19T10:04:19.217Z</time></trkpt><trkpt lat="43.8594704" lon="12.67803"><ele>354.0</ele><time>2026-04-19T10:04:20.217Z</time></trkpt><trkpt lat="43.8594254" lon="12.6779141"><ele>354.0</ele><time>2026-04-19T10:04:21.215Z</time></trkpt><trkpt lat="43.8593816" lon="12.6778"><ele>354.0</ele><time>2026-04-19T10:04:22.216Z</time></trkpt><trkpt lat="43.859338" lon="12.6776904"><ele>354.1666666666667</ele><time>2026-04-19T10:04:23.219Z</time></trkpt><trkpt lat="43.859288" lon="12.6775869"><ele>354.3333333333333</ele><time>2026-04-19T10:04:24.224Z</time></trkpt><trkpt lat="43.859228" lon="12.6775044"><ele>354.5</ele><time>2026-04-19T10:04:25.219Z</time></trkpt><trkpt lat="43.8591661" lon="12.6774383"><ele>354.66666666666663</ele><time>2026-04-19T10:04:26.219Z</time></trkpt><trkpt lat="43.8590996" lon="12.6774041"><ele>354.8333333333333</ele><time>2026-04-19T10:04:27.217Z</time></trkpt><trkpt lat="43.8590189" lon="12.6774154"><ele>355.0</ele><time>2026-04-19T10:04:28.217Z</time></trkpt><trkpt lat="43.85893" lon="12.6774461"><ele>355.0</ele><time>2026-04-19T10:04:29.216Z</time></trkpt><trkpt lat="43.8588455" lon="12.6774686"><ele>355.0</ele><time>2026-04-19T10:04:30.217Z</time></trkpt><trkpt lat="43.8587673" lon="12.6774851"><ele>355.0</ele><time>2026-04-19T10:04:31.216Z</time></trkpt><trkpt lat="43.8587027" lon="12.6774886"><ele>355.0</ele><time>2026-04-19T10:04:32.217Z</time></trkpt><trkpt lat="43.8586074" lon="12.6774599"><ele>355.0</ele><time>2026-04-19T10:04:34.217Z</time></trkpt><trkpt lat="43.8585403" lon="12.6774129"><ele>355.0</ele><time>2026-04-19T10:04:36.237Z</time></trkpt><trkpt lat="43.8585029" lon="12.6772701"><ele>355.0</ele><time>2026-04-19T10:04:39.237Z</time></trkpt><trkpt lat="43.8585034" lon="12.6771615"><ele>355.0</ele><time>2026-04-19T10:04:40.221Z</time></trkpt><trkpt lat="43.8585119" lon="12.6770036"><ele>355.0</ele><time>2026-04-19T10:04:41.221Z</time></trkpt><trkpt lat="43.8585391" lon="12.6767855"><ele>355.0</ele><time>2026-04-19T10:04:42.22Z</time></trkpt><trkpt lat="43.8585869" lon="12.6762953"><ele>361.66666666666663</ele><time>2026-04-19T10:04:44.218Z</time></trkpt><trkpt lat="43.8586165" lon="12.6760026"><ele>368.3333333333333</ele><time>2026-04-19T10:04:45.222Z</time></trkpt><trkpt lat="43.8586432" lon="12.675681"><ele>375.0</ele><time>2026-04-19T10:04:46.218Z</time></trkpt><trkpt lat="43.8586687" lon="12.6753516"><ele>376.0</ele><time>2026-04-19T10:04:47.216Z</time></trkpt><trkpt lat="43.8586929" lon="12.6750387"><ele>377.0</ele><time>2026-04-19T10:04:48.219Z</time></trkpt><trkpt lat="43.8587111" lon="12.6747512"><ele>378.0</ele><time>2026-04-19T10:04:49.217Z</time></trkpt><trkpt lat="43.8587157" lon="12.6744869"><ele>379.0</ele><time>2026-04-19T10:04:50.217Z</time></trkpt><trkpt lat="43.8587181" lon="12.6742509"><ele>380.0</ele><time>2026-04-19T10:04:51.216Z</time></trkpt><trkpt lat="43.8587214" lon="12.6740425"><ele>381.0</ele><time>2026-04-19T10:04:52.216Z</time></trkpt><trkpt lat="43.8587309" lon="12.6738505"><ele>381.0</ele><time>2026-04-19T10:04:53.216Z</time></trkpt><trkpt lat="43.8587493" lon="12.6736725"><ele>381.0</ele><time>2026-04-19T10:04:54.218Z</time></trkpt><trkpt lat="43.8587682" lon="12.6735096"><ele>381.0</ele><time>2026-04-19T10:04:55.219Z</time></trkpt><trkpt lat="43.8587854" lon="12.6733585"><ele>381.0</ele><time>2026-04-19T10:04:56.217Z</time></trkpt><trkpt lat="43.8587995" lon="12.6732228"><ele>380.5</ele><time>2026-04-19T10:04:57.218Z</time></trkpt><trkpt lat="43.8588097" lon="12.6731064"><ele>380.0</ele><time>2026-04-19T10:04:58.219Z</time></trkpt><trkpt lat="43.8588114" lon="12.6730033"><ele>379.5</ele><time>2026-04-19T10:04:59.216Z</time></trkpt><trkpt lat="43.8588087" lon="12.6729129"><ele>379.0</ele><time>2026-04-19T10:05:00.219Z</time></trkpt><trkpt lat="43.8587693" lon="12.6727478"><ele>378.5</ele><time>2026-04-19T10:05:02.217Z</time></trkpt><trkpt lat="43.8587276" lon="12.672672"><ele>378.0</ele><time>2026-04-19T10:05:03.219Z</time></trkpt><trkpt lat="43.8586589" lon="12.6726053"><ele>378.3333333333333</ele><time>2026-04-19T10:05:04.216Z</time></trkpt><trkpt lat="43.8585509" lon="12.6725471"><ele>378.66666666666663</ele><time>2026-04-19T10:05:05.216Z</time></trkpt><trkpt lat="43.8584004" lon="12.6724942"><ele>379.0</ele><time>2026-04-19T10:05:06.218Z</time></trkpt><trkpt lat="43.8582152" lon="12.6724245"><ele>379.0</ele><time>2026-04-19T10:05:07.216Z</time></trkpt><trkpt lat="43.8580362" lon="12.672343"><ele>379.0</ele><time>2026-04-19T10:05:08.219Z</time></trkpt><trkpt lat="43.8578738" lon="12.6722657"><ele>379.0</ele><time>2026-04-19T10:05:09.226Z</time></trkpt><trkpt lat="43.8577339" lon="12.6722007"><ele>379.0</ele><time>2026-04-19T10:05:10.216Z</time></trkpt><trkpt lat="43.8576243" lon="12.6721411"><ele>379.0</ele><time>2026-04-19T10:05:11.216Z</time></trkpt><trkpt lat="43.8575425" lon="12.6720848"><ele>379.0</ele><time>2026-04-19T10:05:12.216Z</time></trkpt><trkpt lat="43.8574737" lon="12.6720315"><ele>379.0</ele><time>2026-04-19T10:05:13.216Z</time></trkpt><trkpt lat="43.8573945" lon="12.6719334"><ele>379.0</ele><time>2026-04-19T10:05:15.217Z</time></trkpt><trkpt lat="43.8572437" lon="12.6718935"><ele>380.0</ele><time>2026-04-19T10:05:18.217Z</time></trkpt><trkpt lat="43.8571352" lon="12.6718833"><ele>381.0</ele><time>2026-04-19T10:05:19.217Z</time></trkpt><trkpt lat="43.8569966" lon="12.6718252"><ele>382.0</ele><time>2026-04-19T10:05:20.22Z</time></trkpt><trkpt lat="43.8568519" lon="12.671757"><ele>383.0</ele><time>2026-04-19T10:05:21.218Z</time></trkpt><trkpt lat="43.8567261" lon="12.6716996"><ele>383.79999999999995</ele><time>2026-04-19T10:05:22.217Z</time></trkpt><trkpt lat="43.8566163" lon="12.6716681"><ele>384.6</ele><time>2026-04-19T10:05:23.218Z</time></trkpt><trkpt lat="43.8565181" lon="12.6716626"><ele>385.4</ele><time>2026-04-19T10:05:24.227Z</time></trkpt><trkpt lat="43.8564344" lon="12.6716768"><ele>386.20000000000005</ele><time>2026-04-19T10:05:25.216Z</time></trkpt><trkpt lat="43.856366" lon="12.6716982"><ele>387.0</ele><time>2026-04-19T10:05:26.22Z</time></trkpt><trkpt lat="43.856278" lon="12.6717398"><ele>387.0</ele><time>2026-04-19T10:05:28.221Z</time></trkpt><trkpt lat="43.8562265" lon="12.6718084"><ele>387.0</ele><time>2026-04-19T10:05:31.219Z</time></trkpt><trkpt lat="43.8561722" lon="12.6718812"><ele>387.0</ele><time>2026-04-19T10:05:33.215Z</time></trkpt><trkpt lat="43.856087" lon="12.6719127"><ele>387.0</ele><time>2026-04-19T10:05:34.215Z</time></trkpt><trkpt lat="43.8558105" lon="12.6720021"><ele>384.0</ele><time>2026-04-19T10:05:36.215Z</time></trkpt><trkpt lat="43.8556632" lon="12.6720341"><ele>381.0</ele><time>2026-04-19T10:05:37.217Z</time></trkpt><trkpt lat="43.855526" lon="12.6720516"><ele>378.0</ele><time>2026-04-19T10:05:38.215Z</time></trkpt><trkpt lat="43.8553951" lon="12.6720552"><ele>375.0</ele><time>2026-04-19T10:05:39.216Z</time></trkpt><trkpt lat="43.8552754" lon="12.6720507"><ele>375.0</ele><time>2026-04-19T10:05:40.218Z</time></trkpt><trkpt lat="43.855164" lon="12.672036"><ele>375.0</ele><time>2026-04-19T10:05:41.216Z</time></trkpt><trkpt lat="43.8550546" lon="12.6720173"><ele>375.0</ele><time>2026-04-19T10:05:42.216Z</time></trkpt><trkpt lat="43.8549478" lon="12.6719975"><ele>375.0</ele><time>2026-04-19T10:05:43.221Z</time></trkpt><trkpt lat="43.8547268" lon="12.6719519"><ele>373.5</ele><time>2026-04-19T10:05:45.218Z</time></trkpt><trkpt lat="43.8546097" lon="12.6719455"><ele>372.0</ele><time>2026-04-19T10:05:46.216Z</time></trkpt><trkpt lat="43.8544826" lon="12.6719584"><ele>370.5</ele><time>2026-04-19T10:05:47.215Z</time></trkpt><trkpt lat="43.8543496" lon="12.6719828"><ele>369.0</ele><time>2026-04-19T10:05:48.218Z</time></trkpt><trkpt lat="43.8542194" lon="12.6720014"><ele>367.25</ele><time>2026-04-19T10:05:49.215Z</time></trkpt><trkpt lat="43.854093" lon="12.6720151"><ele>365.5</ele><time>2026-04-19T10:05:50.217Z</time></trkpt><trkpt lat="43.8539771" lon="12.672025"><ele>363.75</ele><time>2026-04-19T10:05:51.215Z</time></trkpt><trkpt lat="43.8538684" lon="12.672031"><ele>362.0</ele><time>2026-04-19T10:05:52.215Z</time></trkpt><trkpt lat="43.8537625" lon="12.6720258"><ele>362.0</ele><time>2026-04-19T10:05:53.221Z</time></trkpt><trkpt lat="43.8536628" lon="12.6720174"><ele>362.0</ele><time>2026-04-19T10:05:54.215Z</time></trkpt><trkpt lat="43.8535626" lon="12.6719993"><ele>362.0</ele><time>2026-04-19T10:05:55.248Z</time></trkpt><trkpt lat="43.8534635" lon="12.6719643"><ele>362.0</ele><time>2026-04-19T10:05:56.22Z</time></trkpt><trkpt lat="43.8533583" lon="12.6719274"><ele>362.0</ele><time>2026-04-19T10:05:57.216Z</time></trkpt><trkpt lat="43.8532546" lon="12.6718834"><ele>366.25</ele><time>2026-04-19T10:05:58.215Z</time></trkpt><trkpt lat="43.8530493" lon="12.6717869"><ele>370.5</ele><time>2026-04-19T10:06:00.219Z</time></trkpt><trkpt lat="43.8529511" lon="12.6717361"><ele>374.75</ele><time>2026-04-19T10:06:01.216Z</time></trkpt><trkpt lat="43.8528583" lon="12.6716784"><ele>379.0</ele><time>2026-04-19T10:06:02.217Z</time></trkpt><trkpt lat="43.8527698" lon="12.6716083"><ele>379.0</ele><time>2026-04-19T10:06:03.217Z</time></trkpt><trkpt lat="43.8526887" lon="12.6715283"><ele>379.0</ele><time>2026-04-19T10:06:04.219Z</time></trkpt><trkpt lat="43.8526195" lon="12.6714382"><ele>379.0</ele><time>2026-04-19T10:06:05.216Z</time></trkpt><trkpt lat="43.8525581" lon="12.6713437"><ele>379.0</ele><time>2026-04-19T10:06:06.217Z</time></trkpt><trkpt lat="43.8525" lon="12.6712481"><ele>379.0</ele><time>2026-04-19T10:06:07.219Z</time></trkpt><trkpt lat="43.8524398" lon="12.671162"><ele>377.16666666666663</ele><time>2026-04-19T10:06:08.224Z</time></trkpt><trkpt lat="43.8523835" lon="12.6710856"><ele>375.3333333333333</ele><time>2026-04-19T10:06:09.217Z</time></trkpt><trkpt lat="43.8523334" lon="12.671007"><ele>373.5</ele><time>2026-04-19T10:06:10.219Z</time></trkpt><trkpt lat="43.8522874" lon="12.670927"><ele>371.6666666666667</ele><time>2026-04-19T10:06:11.216Z</time></trkpt><trkpt lat="43.8522496" lon="12.6708335"><ele>369.83333333333337</ele><time>2026-04-19T10:06:12.219Z</time></trkpt><trkpt lat="43.8522239" lon="12.6707275"><ele>368.0</ele><time>2026-04-19T10:06:13.218Z</time></trkpt><trkpt lat="43.8522126" lon="12.6706144"><ele>368.0</ele><time>2026-04-19T10:06:14.217Z</time></trkpt><trkpt lat="43.8522335" lon="12.6704957"><ele>368.0</ele><time>2026-04-19T10:06:15.216Z</time></trkpt><trkpt lat="43.8522876" lon="12.6703765"><ele>368.0</ele><time>2026-04-19T10:06:16.215Z</time></trkpt><trkpt lat="43.852363" lon="12.6702708"><ele>368.0</ele><time>2026-04-19T10:06:17.216Z</time></trkpt><trkpt lat="43.8524404" lon="12.6701731"><ele>368.0</ele><time>2026-04-19T10:06:18.217Z</time></trkpt><trkpt lat="43.8525121" lon="12.6700839"><ele>366.6666666666667</ele><time>2026-04-19T10:06:19.216Z</time></trkpt><trkpt lat="43.852577" lon="12.6700061"><ele>365.33333333333337</ele><time>2026-04-19T10:06:20.215Z</time></trkpt><trkpt lat="43.852633" lon="12.6699437"><ele>364.0</ele><time>2026-04-19T10:06:21.215Z</time></trkpt><trkpt lat="43.8526831" lon="12.6698898"><ele>362.6666666666667</ele><time>2026-04-19T10:06:22.238Z</time></trkpt><trkpt lat="43.8527537" lon="12.669771"><ele>361.3333333333333</ele><time>2026-04-19T10:06:24.223Z</time></trkpt><trkpt lat="43.8527109" lon="12.6696526"><ele>360.0</ele><time>2026-04-19T10:06:26.215Z</time></trkpt><trkpt lat="43.8525736" lon="12.6696919"><ele>359.3333333333333</ele><time>2026-04-19T10:06:28.215Z</time></trkpt><trkpt lat="43.8524974" lon="12.6697728"><ele>358.6666666666667</ele><time>2026-04-19T10:06:29.217Z</time></trkpt><trkpt lat="43.8524263" lon="12.6698631"><ele>358.0</ele><time>2026-04-19T10:06:30.215Z</time></trkpt><trkpt lat="43.8523585" lon="12.6699484"><ele>357.33333333333337</ele><time>2026-04-19T10:06:31.215Z</time></trkpt><trkpt lat="43.8522943" lon="12.6700241"><ele>356.6666666666667</ele><time>2026-04-19T10:06:32.215Z</time></trkpt><trkpt lat="43.852235" lon="12.6700844"><ele>356.0</ele><time>2026-04-19T10:06:33.215Z</time></trkpt><trkpt lat="43.8521738" lon="12.6701273"><ele>356.0</ele><time>2026-04-19T10:06:34.215Z</time></trkpt><trkpt lat="43.8520605" lon="12.6700693"><ele>356.0</ele><time>2026-04-19T10:06:36.215Z</time></trkpt><trkpt lat="43.85204" lon="12.6699845"><ele>356.0</ele><time>2026-04-19T10:06:37.216Z</time></trkpt><trkpt lat="43.8520778" lon="12.6698739"><ele>356.0</ele><time>2026-04-19T10:06:38.217Z</time></trkpt><trkpt lat="43.8521663" lon="12.6697614"><ele>356.0</ele><time>2026-04-19T10:06:39.217Z</time></trkpt><trkpt lat="43.8522667" lon="12.6696535"><ele>356.0</ele><time>2026-04-19T10:06:40.215Z</time></trkpt><trkpt lat="43.8523676" lon="12.669558"><ele>356.0</ele><time>2026-04-19T10:06:41.215Z</time></trkpt><trkpt lat="43.8524598" lon="12.6694745"><ele>356.0</ele><time>2026-04-19T10:06:42.215Z</time></trkpt><trkpt lat="43.8525437" lon="12.6694097"><ele>356.0</ele><time>2026-04-19T10:06:43.214Z</time></trkpt><trkpt lat="43.8526189" lon="12.6693538"><ele>356.0</ele><time>2026-04-19T10:06:44.216Z</time></trkpt><trkpt lat="43.852689" lon="12.6693075"><ele>352.5</ele><time>2026-04-19T10:06:45.215Z</time></trkpt><trkpt lat="43.852748" lon="12.6692664"><ele>349.0</ele><time>2026-04-19T10:06:46.215Z</time></trkpt><trkpt lat="43.8527965" lon="12.6691513"><ele>345.5</ele><time>2026-04-19T10:06:48.215Z</time></trkpt><trkpt lat="43.8527492" lon="12.6690864"><ele>342.0</ele><time>2026-04-19T10:06:49.215Z</time></trkpt><trkpt lat="43.8526583" lon="12.6690822"><ele>338.5</ele><time>2026-04-19T10:06:50.216Z</time></trkpt><trkpt lat="43.8525637" lon="12.6691042"><ele>335.0</ele><time>2026-04-19T10:06:51.215Z</time></trkpt><trkpt lat="43.8524589" lon="12.6691676"><ele>335.0</ele><time>2026-04-19T10:06:52.216Z</time></trkpt><trkpt lat="43.8523461" lon="12.669222"><ele>335.0</ele><time>2026-04-19T10:06:53.215Z</time></trkpt><trkpt lat="43.8522208" lon="12.6692702"><ele>335.0</ele><time>2026-04-19T10:06:54.215Z</time></trkpt><trkpt lat="43.8520932" lon="12.6692599"><ele>335.0</ele><time>2026-04-19T10:06:55.215Z</time></trkpt><trkpt lat="43.8519792" lon="12.6691931"><ele>335.0</ele><time>2026-04-19T10:06:56.216Z</time></trkpt><trkpt lat="43.8518811" lon="12.6691062"><ele>335.0</ele><time>2026-04-19T10:06:57.215Z</time></trkpt><trkpt lat="43.8517952" lon="12.6690422"><ele>335.0</ele><time>2026-04-19T10:06:58.215Z</time></trkpt><trkpt lat="43.8517209" lon="12.6690001"><ele>335.0</ele><time>2026-04-19T10:06:59.215Z</time></trkpt><trkpt lat="43.8516485" lon="12.669001"><ele>335.0</ele><time>2026-04-19T10:07:00.215Z</time></trkpt><trkpt lat="43.8515843" lon="12.6690715"><ele>335.0</ele><time>2026-04-19T10:07:01.215Z</time></trkpt><trkpt lat="43.851544" lon="12.6692098"><ele>334.5</ele><time>2026-04-19T10:07:02.215Z</time></trkpt><trkpt lat="43.8515042" lon="12.66938"><ele>334.0</ele><time>2026-04-19T10:07:03.215Z</time></trkpt><trkpt lat="43.8514611" lon="12.6695595"><ele>333.5</ele><time>2026-04-19T10:07:04.215Z</time></trkpt><trkpt lat="43.8514188" lon="12.6697498"><ele>333.0</ele><time>2026-04-19T10:07:05.215Z</time></trkpt><trkpt lat="43.8513767" lon="12.6699327"><ele>333.0</ele><time>2026-04-19T10:07:06.215Z</time></trkpt><trkpt lat="43.8513339" lon="12.6701053"><ele>333.0</ele><time>2026-04-19T10:07:07.215Z</time></trkpt><trkpt lat="43.8512903" lon="12.6702602"><ele>333.0</ele><time>2026-04-19T10:07:08.215Z</time></trkpt><trkpt lat="43.8512483" lon="12.6703934"><ele>333.0</ele><time>2026-04-19T10:07:09.215Z</time></trkpt><trkpt lat="43.8511957" lon="12.6705103"><ele>334.4</ele><time>2026-04-19T10:07:10.215Z</time></trkpt><trkpt lat="43.8511248" lon="12.6706068"><ele>335.79999999999995</ele><time>2026-04-19T10:07:11.215Z</time></trkpt><trkpt lat="43.8510339" lon="12.6706754"><ele>337.2</ele><time>2026-04-19T10:07:12.215Z</time></trkpt><trkpt lat="43.8509246" lon="12.670719"><ele>338.6</ele><time>2026-04-19T10:07:13.215Z</time></trkpt><trkpt lat="43.8508021" lon="12.6707481"><ele>340.0</ele><time>2026-04-19T10:07:14.215Z</time></trkpt><trkpt lat="43.8506763" lon="12.670763"><ele>334.0</ele><time>2026-04-19T10:07:15.215Z</time></trkpt><trkpt lat="43.8505574" lon="12.6707754"><ele>328.0</ele><time>2026-04-19T10:07:16.215Z</time></trkpt><trkpt lat="43.8504419" lon="12.6707655"><ele>322.0</ele><time>2026-04-19T10:07:17.215Z</time></trkpt><trkpt lat="43.8503319" lon="12.6707092"><ele>316.0</ele><time>2026-04-19T10:07:18.214Z</time></trkpt><trkpt lat="43.8502284" lon="12.6705868"><ele>316.0</ele><time>2026-04-19T10:07:19.214Z</time></trkpt><trkpt lat="43.8501299" lon="12.6704263"><ele>316.0</ele><time>2026-04-19T10:07:20.215Z</time></trkpt><trkpt lat="43.8500314" lon="12.6702469"><ele>316.0</ele><time>2026-04-19T10:07:21.215Z</time></trkpt><trkpt lat="43.8499299" lon="12.6700507"><ele>317.0</ele><time>2026-04-19T10:07:22.214Z</time></trkpt><trkpt lat="43.8498262" lon="12.6698528"><ele>318.0</ele><time>2026-04-19T10:07:23.215Z</time></trkpt><trkpt lat="43.8497304" lon="12.6696668"><ele>319.0</ele><time>2026-04-19T10:07:24.215Z</time></trkpt><trkpt lat="43.8496391" lon="12.6695106"><ele>319.25</ele><time>2026-04-19T10:07:25.215Z</time></trkpt><trkpt lat="43.8495361" lon="12.6693876"><ele>319.5</ele><time>2026-04-19T10:07:26.215Z</time></trkpt><trkpt lat="43.8494075" lon="12.6693008"><ele>319.75</ele><time>2026-04-19T10:07:27.215Z</time></trkpt><trkpt lat="43.8492637" lon="12.6692444"><ele>320.0</ele><time>2026-04-19T10:07:28.215Z</time></trkpt><trkpt lat="43.8491253" lon="12.6691913"><ele>320.0</ele><time>2026-04-19T10:07:29.215Z</time></trkpt><trkpt lat="43.8490037" lon="12.6691081"><ele>320.0</ele><time>2026-04-19T10:07:30.216Z</time></trkpt><trkpt lat="43.848892" lon="12.6689866"><ele>320.0</ele><time>2026-04-19T10:07:31.215Z</time></trkpt><trkpt lat="43.8487916" lon="12.6688283"><ele>320.0</ele><time>2026-04-19T10:07:32.215Z</time></trkpt><trkpt lat="43.8486827" lon="12.6686723"><ele>321.6666666666667</ele><time>2026-04-19T10:07:33.216Z</time></trkpt><trkpt lat="43.848559" lon="12.6685322"><ele>323.3333333333333</ele><time>2026-04-19T10:07:34.214Z</time></trkpt><trkpt lat="43.8484373" lon="12.6683896"><ele>325.0</ele><time>2026-04-19T10:07:35.217Z</time></trkpt><trkpt lat="43.8483403" lon="12.6682293"><ele>325.0</ele><time>2026-04-19T10:07:36.218Z</time></trkpt><trkpt lat="43.8482762" lon="12.6680531"><ele>325.0</ele><time>2026-04-19T10:07:37.215Z</time></trkpt><trkpt lat="43.8482328" lon="12.6678846"><ele>325.0</ele><time>2026-04-19T10:07:38.216Z</time></trkpt><trkpt lat="43.8481967" lon="12.6677383"><ele>325.0</ele><time>2026-04-19T10:07:39.22Z</time></trkpt><trkpt lat="43.8481367" lon="12.667615"><ele>322.0</ele><time>2026-04-19T10:07:40.216Z</time></trkpt><trkpt lat="43.848055" lon="12.6675067"><ele>319.0</ele><time>2026-04-19T10:07:41.215Z</time></trkpt><trkpt lat="43.84794" lon="12.6674167"><ele>316.0</ele><time>2026-04-19T10:07:42.215Z</time></trkpt><trkpt lat="43.8477917" lon="12.6673517"><ele>313.0</ele><time>2026-04-19T10:07:43.215Z</time></trkpt><trkpt lat="43.8476333" lon="12.6672983"><ele>316.5</ele><time>2026-04-19T10:07:44.215Z</time></trkpt><trkpt lat="43.84748" lon="12.6672583"><ele>320.0</ele><time>2026-04-19T10:07:45.214Z</time></trkpt><trkpt lat="43.8473483" lon="12.6672083"><ele>323.5</ele><time>2026-04-19T10:07:46.215Z</time></trkpt><trkpt lat="43.8472217" lon="12.6671567"><ele>327.0</ele><time>2026-04-19T10:07:47.215Z</time></trkpt><trkpt lat="43.8470967" lon="12.6671033"><ele>327.0</ele><time>2026-04-19T10:07:48.218Z</time></trkpt><trkpt lat="43.8469783" lon="12.66703"><ele>327.0</ele><time>2026-04-19T10:07:49.216Z</time></trkpt><trkpt lat="43.84687" lon="12.6669433"><ele>327.0</ele><time>2026-04-19T10:07:50.216Z</time></trkpt><trkpt lat="43.846775" lon="12.666845"><ele>327.0</ele><time>2026-04-19T10:07:51.215Z</time></trkpt><trkpt lat="43.8466933" lon="12.66672"><ele>327.25</ele><time>2026-04-19T10:07:52.216Z</time></trkpt><trkpt lat="43.846645" lon="12.666575"><ele>327.5</ele><time>2026-04-19T10:07:53.216Z</time></trkpt><trkpt lat="43.846615" lon="12.6664183"><ele>327.75</ele><time>2026-04-19T10:07:54.215Z</time></trkpt><trkpt lat="43.8465817" lon="12.6662633"><ele>328.0</ele><time>2026-04-19T10:07:55.22Z</time></trkpt><trkpt lat="43.846545" lon="12.666125"><ele>324.25</ele><time>2026-04-19T10:07:56.217Z</time></trkpt><trkpt lat="43.846475" lon="12.6660033"><ele>320.5</ele><time>2026-04-19T10:07:57.215Z</time></trkpt><trkpt lat="43.84637" lon="12.6658833"><ele>316.75</ele><time>2026-04-19T10:07:58.215Z</time></trkpt><trkpt lat="43.8462483" lon="12.6657717"><ele>313.0</ele><time>2026-04-19T10:07:59.218Z</time></trkpt><trkpt lat="43.846145" lon="12.6656683"><ele>313.0</ele><time>2026-04-19T10:08:00.215Z</time></trkpt><trkpt lat="43.8460533" lon="12.665565"><ele>313.0</ele><time>2026-04-19T10:08:01.214Z</time></trkpt><trkpt lat="43.84597" lon="12.6654417"><ele>313.0</ele><time>2026-04-19T10:08:02.215Z</time></trkpt><trkpt lat="43.84589" lon="12.6653017"><ele>313.0</ele><time>2026-04-19T10:08:03.215Z</time></trkpt><trkpt lat="43.8458317" lon="12.6651483"><ele>314.2</ele><time>2026-04-19T10:08:04.22Z</time></trkpt><trkpt lat="43.8457917" lon="12.6649983"><ele>315.4</ele><time>2026-04-19T10:08:05.217Z</time></trkpt><trkpt lat="43.8457533" lon="12.6648533"><ele>316.59999999999997</ele><time>2026-04-19T10:08:06.215Z</time></trkpt><trkpt lat="43.84571" lon="12.66473"><ele>317.8</ele><time>2026-04-19T10:08:07.221Z</time></trkpt><trkpt lat="43.8456633" lon="12.6646283"><ele>319.0</ele><time>2026-04-19T10:08:08.214Z</time></trkpt><trkpt lat="43.8455767" lon="12.6645733"><ele>319.0</ele><time>2026-04-19T10:08:09.213Z</time></trkpt><trkpt lat="43.845495" lon="12.6645483"><ele>319.0</ele><time>2026-04-19T10:08:10.213Z</time></trkpt><trkpt lat="43.8453983" lon="12.6645717"><ele>319.0</ele><time>2026-04-19T10:08:11.215Z</time></trkpt><trkpt lat="43.8453033" lon="12.664645"><ele>319.0</ele><time>2026-04-19T10:08:12.214Z</time></trkpt><trkpt lat="43.8452133" lon="12.6647583"><ele>319.0</ele><time>2026-04-19T10:08:13.221Z</time></trkpt><trkpt lat="43.8451267" lon="12.66486"><ele>319.4</ele><time>2026-04-19T10:08:14.214Z</time></trkpt><trkpt lat="43.8450317" lon="12.6649317"><ele>319.79999999999995</ele><time>2026-04-19T10:08:15.217Z</time></trkpt><trkpt lat="43.844945" lon="12.664985"><ele>320.20000000000005</ele><time>2026-04-19T10:08:16.214Z</time></trkpt><trkpt lat="43.8448672" lon="12.6650432"><ele>320.6</ele><time>2026-04-19T10:08:17.213Z</time></trkpt><trkpt lat="43.8447793" lon="12.6650459"><ele>321.0</ele><time>2026-04-19T10:08:18.214Z</time></trkpt><trkpt lat="43.8446878" lon="12.6649991"><ele>321.0</ele><time>2026-04-19T10:08:19.224Z</time></trkpt><trkpt lat="43.8446039" lon="12.664976"><ele>321.0</ele><time>2026-04-19T10:08:20.217Z</time></trkpt><trkpt lat="43.8445235" lon="12.664982"><ele>321.0</ele><time>2026-04-19T10:08:21.214Z</time></trkpt><trkpt lat="43.8444437" lon="12.6650143"><ele>321.0</ele><time>2026-04-19T10:08:22.214Z</time></trkpt><trkpt lat="43.8443805" lon="12.6651098"><ele>321.0</ele><time>2026-04-19T10:08:23.214Z</time></trkpt><trkpt lat="43.8443312" lon="12.6652536"><ele>319.25</ele><time>2026-04-19T10:08:24.214Z</time></trkpt><trkpt lat="43.8442757" lon="12.6654197"><ele>317.5</ele><time>2026-04-19T10:08:25.22Z</time></trkpt><trkpt lat="43.8442063" lon="12.6655807"><ele>315.75</ele><time>2026-04-19T10:08:26.217Z</time></trkpt><trkpt lat="43.844121" lon="12.6657161"><ele>314.0</ele><time>2026-04-19T10:08:27.214Z</time></trkpt><trkpt lat="43.8440276" lon="12.6658399"><ele>314.0</ele><time>2026-04-19T10:08:28.214Z</time></trkpt><trkpt lat="43.843967" lon="12.6659659"><ele>314.0</ele><time>2026-04-19T10:08:29.213Z</time></trkpt><trkpt lat="43.8439018" lon="12.6660876"><ele>314.0</ele><time>2026-04-19T10:08:30.214Z</time></trkpt><trkpt lat="43.8438107" lon="12.666201"><ele>314.0</ele><time>2026-04-19T10:08:31.214Z</time></trkpt><trkpt lat="43.8437038" lon="12.6662964"><ele>311.5</ele><time>2026-04-19T10:08:32.214Z</time></trkpt><trkpt lat="43.8435827" lon="12.6663644"><ele>309.0</ele><time>2026-04-19T10:08:33.216Z</time></trkpt><trkpt lat="43.8434698" lon="12.6664406"><ele>306.5</ele><time>2026-04-19T10:08:34.218Z</time></trkpt><trkpt lat="43.8433836" lon="12.6665515"><ele>304.0</ele><time>2026-04-19T10:08:35.215Z</time></trkpt><trkpt lat="43.8433122" lon="12.6666948"><ele>304.0</ele><time>2026-04-19T10:08:36.215Z</time></trkpt><trkpt lat="43.8432505" lon="12.6668542"><ele>304.0</ele><time>2026-04-19T10:08:37.218Z</time></trkpt><trkpt lat="43.8431925" lon="12.6670019"><ele>304.0</ele><time>2026-04-19T10:08:38.214Z</time></trkpt><trkpt lat="43.843125" lon="12.6671206"><ele>304.0</ele><time>2026-04-19T10:08:39.214Z</time></trkpt><trkpt lat="43.8430423" lon="12.6672146"><ele>304.5</ele><time>2026-04-19T10:08:40.214Z</time></trkpt><trkpt lat="43.8429472" lon="12.66728"><ele>305.0</ele><time>2026-04-19T10:08:41.214Z</time></trkpt><trkpt lat="43.8428405" lon="12.6673133"><ele>305.5</ele><time>2026-04-19T10:08:42.219Z</time></trkpt><trkpt lat="43.8427285" lon="12.6673091"><ele>306.0</ele><time>2026-04-19T10:08:43.214Z</time></trkpt><trkpt lat="43.8426047" lon="12.6672736"><ele>306.0</ele><time>2026-04-19T10:08:44.214Z</time></trkpt><trkpt lat="43.8424718" lon="12.6672394"><ele>306.0</ele><time>2026-04-19T10:08:45.213Z</time></trkpt><trkpt lat="43.8423346" lon="12.667217"><ele>306.0</ele><time>2026-04-19T10:08:46.214Z</time></trkpt><trkpt lat="43.8422056" lon="12.6672132"><ele>306.0</ele><time>2026-04-19T10:08:47.216Z</time></trkpt><trkpt lat="43.8420908" lon="12.6672257"><ele>306.0</ele><time>2026-04-19T10:08:48.215Z</time></trkpt><trkpt lat="43.8419858" lon="12.667261"><ele>306.0</ele><time>2026-04-19T10:08:49.215Z</time></trkpt><trkpt lat="43.8418881" lon="12.6673077"><ele>306.0</ele><time>2026-04-19T10:08:50.214Z</time></trkpt><trkpt lat="43.8418067" lon="12.6673753"><ele>306.0</ele><time>2026-04-19T10:08:51.214Z</time></trkpt><trkpt lat="43.841745" lon="12.6674837"><ele>306.0</ele><time>2026-04-19T10:08:52.213Z</time></trkpt><trkpt lat="43.8416912" lon="12.6676005"><ele>305.0</ele><time>2026-04-19T10:08:53.213Z</time></trkpt><trkpt lat="43.8416393" lon="12.6677137"><ele>304.0</ele><time>2026-04-19T10:08:54.217Z</time></trkpt><trkpt lat="43.8415736" lon="12.6678012"><ele>303.0</ele><time>2026-04-19T10:08:55.319Z</time></trkpt><trkpt lat="43.8414199" lon="12.6679729"><ele>302.0</ele><time>2026-04-19T10:08:57.215Z</time></trkpt><trkpt lat="43.8413253" lon="12.6680667"><ele>302.0</ele><time>2026-04-19T10:08:58.214Z</time></trkpt><trkpt lat="43.8412359" lon="12.6681539"><ele>302.0</ele><time>2026-04-19T10:08:59.214Z</time></trkpt><trkpt lat="43.8411465" lon="12.6682381"><ele>302.0</ele><time>2026-04-19T10:09:00.32Z</time></trkpt><trkpt lat="43.8409618" lon="12.6683392"><ele>302.0</ele><time>2026-04-19T10:09:02.215Z</time></trkpt><trkpt lat="43.8408517" lon="12.6683584"><ele>297.75</ele><time>2026-04-19T10:09:03.213Z</time></trkpt><trkpt lat="43.8407396" lon="12.6683763"><ele>293.5</ele><time>2026-04-19T10:09:04.215Z</time></trkpt><trkpt lat="43.8406222" lon="12.6683838"><ele>289.25</ele><time>2026-04-19T10:09:05.215Z</time></trkpt><trkpt lat="43.8405056" lon="12.668406"><ele>285.0</ele><time>2026-04-19T10:09:06.221Z</time></trkpt><trkpt lat="43.8403953" lon="12.6684474"><ele>285.0</ele><time>2026-04-19T10:09:07.214Z</time></trkpt><trkpt lat="43.8402805" lon="12.6684903"><ele>285.0</ele><time>2026-04-19T10:09:08.218Z</time></trkpt><trkpt lat="43.8401695" lon="12.6685118"><ele>285.0</ele><time>2026-04-19T10:09:09.214Z</time></trkpt><trkpt lat="43.8400554" lon="12.6685028"><ele>285.0</ele><time>2026-04-19T10:09:10.214Z</time></trkpt><trkpt lat="43.8399392" lon="12.6684647"><ele>283.75</ele><time>2026-04-19T10:09:11.213Z</time></trkpt><trkpt lat="43.8398222" lon="12.6684239"><ele>282.5</ele><time>2026-04-19T10:09:12.215Z</time></trkpt><trkpt lat="43.8397028" lon="12.6683836"><ele>281.25</ele><time>2026-04-19T10:09:13.213Z</time></trkpt><trkpt lat="43.8395815" lon="12.6683507"><ele>280.0</ele><time>2026-04-19T10:09:14.214Z</time></trkpt><trkpt lat="43.8394659" lon="12.6683173"><ele>280.0</ele><time>2026-04-19T10:09:15.213Z</time></trkpt><trkpt lat="43.8393521" lon="12.6682837"><ele>280.0</ele><time>2026-04-19T10:09:16.213Z</time></trkpt><trkpt lat="43.8392447" lon="12.6682378"><ele>280.0</ele><time>2026-04-19T10:09:17.215Z</time></trkpt><trkpt lat="43.8391374" lon="12.6681947"><ele>280.0</ele><time>2026-04-19T10:09:18.214Z</time></trkpt><trkpt lat="43.8390374" lon="12.6681591"><ele>280.0</ele><time>2026-04-19T10:09:19.214Z</time></trkpt><trkpt lat="43.8389415" lon="12.6681266"><ele>279.6</ele><time>2026-04-19T10:09:20.214Z</time></trkpt><trkpt lat="43.8388463" lon="12.6680995"><ele>279.2</ele><time>2026-04-19T10:09:21.214Z</time></trkpt><trkpt lat="43.8387554" lon="12.6680757"><ele>278.8</ele><time>2026-04-19T10:09:22.213Z</time></trkpt><trkpt lat="43.8386701" lon="12.6680749"><ele>278.4</ele><time>2026-04-19T10:09:23.213Z</time></trkpt><trkpt lat="43.8385921" lon="12.6681194"><ele>278.0</ele><time>2026-04-19T10:09:24.215Z</time></trkpt><trkpt lat="43.8385198" lon="12.668204"><ele>277.6</ele><time>2026-04-19T10:09:25.215Z</time></trkpt><trkpt lat="43.8384539" lon="12.6683125"><ele>277.20000000000005</ele><time>2026-04-19T10:09:26.213Z</time></trkpt><trkpt lat="43.8383938" lon="12.6684344"><ele>276.8</ele><time>2026-04-19T10:09:27.214Z</time></trkpt><trkpt lat="43.8383377" lon="12.668571"><ele>276.40000000000003</ele><time>2026-04-19T10:09:28.214Z</time></trkpt><trkpt lat="43.838275" lon="12.6687056"><ele>276.0</ele><time>2026-04-19T10:09:29.214Z</time></trkpt><trkpt lat="43.8382042" lon="12.6688313"><ele>276.0</ele><time>2026-04-19T10:09:30.214Z</time></trkpt><trkpt lat="43.8381279" lon="12.6689616"><ele>276.0</ele><time>2026-04-19T10:09:31.215Z</time></trkpt><trkpt lat="43.8380458" lon="12.6690926"><ele>276.0</ele><time>2026-04-19T10:09:32.214Z</time></trkpt><trkpt lat="43.8379569" lon="12.6692095"><ele>276.0</ele><time>2026-04-19T10:09:33.215Z</time></trkpt><trkpt lat="43.8378783" lon="12.6693257"><ele>276.0</ele><time>2026-04-19T10:09:34.214Z</time></trkpt><trkpt lat="43.8378" lon="12.6694413"><ele>276.0</ele><time>2026-04-19T10:09:35.213Z</time></trkpt><trkpt lat="43.8377259" lon="12.669557"><ele>276.0</ele><time>2026-04-19T10:09:36.214Z</time></trkpt><trkpt lat="43.8376526" lon="12.6696718"><ele>276.0</ele><time>2026-04-19T10:09:37.214Z</time></trkpt><trkpt lat="43.8375796" lon="12.6697864"><ele>276.0</ele><time>2026-04-19T10:09:38.214Z</time></trkpt><trkpt lat="43.8375091" lon="12.6699016"><ele>274.0</ele><time>2026-04-19T10:09:39.214Z</time></trkpt><trkpt lat="43.8374434" lon="12.6700203"><ele>272.0</ele><time>2026-04-19T10:09:40.214Z</time></trkpt><trkpt lat="43.8373802" lon="12.6701443"><ele>270.0</ele><time>2026-04-19T10:09:41.215Z</time></trkpt><trkpt lat="43.8373131" lon="12.6702588"><ele>268.0</ele><time>2026-04-19T10:09:42.219Z</time></trkpt><trkpt lat="43.8372354" lon="12.670347"><ele>266.0</ele><time>2026-04-19T10:09:43.215Z</time></trkpt><trkpt lat="43.8371436" lon="12.670405"><ele>266.0</ele><time>2026-04-19T10:09:44.213Z</time></trkpt><trkpt lat="43.8370317" lon="12.670423"><ele>266.0</ele><time>2026-04-19T10:09:45.214Z</time></trkpt><trkpt lat="43.8369119" lon="12.670401"><ele>266.0</ele><time>2026-04-19T10:09:46.213Z</time></trkpt><trkpt lat="43.8367929" lon="12.6703598"><ele>266.0</ele><time>2026-04-19T10:09:47.215Z</time></trkpt><trkpt lat="43.8366745" lon="12.670338"><ele>264.8</ele><time>2026-04-19T10:09:48.215Z</time></trkpt><trkpt lat="43.836558" lon="12.6703421"><ele>263.6</ele><time>2026-04-19T10:09:49.215Z</time></trkpt><trkpt lat="43.8364489" lon="12.6703668"><ele>262.4</ele><time>2026-04-19T10:09:50.217Z</time></trkpt><trkpt lat="43.8363441" lon="12.6704014"><ele>261.2</ele><time>2026-04-19T10:09:51.215Z</time></trkpt><trkpt lat="43.8362425" lon="12.6704349"><ele>260.0</ele><time>2026-04-19T10:09:52.215Z</time></trkpt><trkpt lat="43.8361417" lon="12.6704597"><ele>260.0</ele><time>2026-04-19T10:09:53.215Z</time></trkpt><trkpt lat="43.8360405" lon="12.6704664"><ele>260.0</ele><time>2026-04-19T10:09:54.214Z</time></trkpt><trkpt lat="43.8359362" lon="12.670444"><ele>260.0</ele><time>2026-04-19T10:09:55.215Z</time></trkpt><trkpt lat="43.8358322" lon="12.6703868"><ele>260.0</ele><time>2026-04-19T10:09:56.215Z</time></trkpt><trkpt lat="43.8357268" lon="12.6702948"><ele>260.0</ele><time>2026-04-19T10:09:57.215Z</time></trkpt><trkpt lat="43.8356217" lon="12.6701968"><ele>256.0</ele><time>2026-04-19T10:09:58.216Z</time></trkpt><trkpt lat="43.8355257" lon="12.6700969"><ele>252.0</ele><time>2026-04-19T10:09:59.215Z</time></trkpt><trkpt lat="43.8354334" lon="12.6699976"><ele>248.0</ele><time>2026-04-19T10:10:00.216Z</time></trkpt><trkpt lat="43.8353384" lon="12.6699081"><ele>244.0</ele><time>2026-04-19T10:10:01.215Z</time></trkpt><trkpt lat="43.8352403" lon="12.6698312"><ele>244.0</ele><time>2026-04-19T10:10:02.215Z</time></trkpt><trkpt lat="43.8351403" lon="12.6697653"><ele>243.99999999999997</ele><time>2026-04-19T10:10:03.215Z</time></trkpt><trkpt lat="43.8350376" lon="12.6697212"><ele>243.99999999999997</ele><time>2026-04-19T10:10:04.215Z</time></trkpt><trkpt lat="43.8349319" lon="12.6697003"><ele>244.0</ele><time>2026-04-19T10:10:05.215Z</time></trkpt><trkpt lat="43.8348279" lon="12.6697283"><ele>244.0</ele><time>2026-04-19T10:10:06.215Z</time></trkpt><trkpt lat="43.8347343" lon="12.6697984"><ele>243.6</ele><time>2026-04-19T10:10:07.215Z</time></trkpt><trkpt lat="43.8346517" lon="12.6698875"><ele>243.2</ele><time>2026-04-19T10:10:08.215Z</time></trkpt><trkpt lat="43.834561" lon="12.6699555"><ele>242.79999999999998</ele><time>2026-04-19T10:10:09.216Z</time></trkpt><trkpt lat="43.8344619" lon="12.6699875"><ele>242.39999999999998</ele><time>2026-04-19T10:10:10.214Z</time></trkpt><trkpt lat="43.8343505" lon="12.6699848"><ele>242.0</ele><time>2026-04-19T10:10:11.215Z</time></trkpt><trkpt lat="43.8342312" lon="12.669957"><ele>240.0</ele><time>2026-04-19T10:10:12.215Z</time></trkpt><trkpt lat="43.8341102" lon="12.6699131"><ele>238.0</ele><time>2026-04-19T10:10:13.217Z</time></trkpt><trkpt lat="43.8339876" lon="12.6698694"><ele>236.0</ele><time>2026-04-19T10:10:14.22Z</time></trkpt><trkpt lat="43.8338641" lon="12.6698316"><ele>234.0</ele><time>2026-04-19T10:10:15.214Z</time></trkpt><trkpt lat="43.8337393" lon="12.6697927"><ele>234.0</ele><time>2026-04-19T10:10:16.213Z</time></trkpt><trkpt lat="43.8336169" lon="12.6697589"><ele>234.0</ele><time>2026-04-19T10:10:17.214Z</time></trkpt><trkpt lat="43.8334952" lon="12.6697383"><ele>234.0</ele><time>2026-04-19T10:10:18.214Z</time></trkpt><trkpt lat="43.8333764" lon="12.6697262"><ele>234.0</ele><time>2026-04-19T10:10:19.213Z</time></trkpt><trkpt lat="43.8332595" lon="12.6697284"><ele>233.2</ele><time>2026-04-19T10:10:20.214Z</time></trkpt><trkpt lat="43.8331443" lon="12.6697454"><ele>232.39999999999998</ele><time>2026-04-19T10:10:21.214Z</time></trkpt><trkpt lat="43.8330363" lon="12.6697703"><ele>231.6</ele><time>2026-04-19T10:10:22.213Z</time></trkpt><trkpt lat="43.8329361" lon="12.6697969"><ele>230.8</ele><time>2026-04-19T10:10:23.214Z</time></trkpt><trkpt lat="43.8328384" lon="12.6698215"><ele>230.0</ele><time>2026-04-19T10:10:24.213Z</time></trkpt><trkpt lat="43.8327406" lon="12.6698234"><ele>230.0</ele><time>2026-04-19T10:10:25.212Z</time></trkpt><trkpt lat="43.8326459" lon="12.6697874"><ele>230.0</ele><time>2026-04-19T10:10:26.213Z</time></trkpt><trkpt lat="43.8325589" lon="12.6697171"><ele>230.0</ele><time>2026-04-19T10:10:27.213Z</time></trkpt><trkpt lat="43.832479" lon="12.6696254"><ele>230.0</ele><time>2026-04-19T10:10:28.213Z</time></trkpt><trkpt lat="43.832411" lon="12.6695235"><ele>230.0</ele><time>2026-04-19T10:10:29.214Z</time></trkpt><trkpt lat="43.8323496" lon="12.6694242"><ele>228.00000000000003</ele><time>2026-04-19T10:10:30.214Z</time></trkpt><trkpt lat="43.8322901" lon="12.669331"><ele>226.0</ele><time>2026-04-19T10:10:31.214Z</time></trkpt><trkpt lat="43.8322309" lon="12.6692452"><ele>224.0</ele><time>2026-04-19T10:10:32.213Z</time></trkpt><trkpt lat="43.8321741" lon="12.6691712"><ele>222.0</ele><time>2026-04-19T10:10:33.213Z</time></trkpt><trkpt lat="43.832085" lon="12.6691002"><ele>220.00000000000003</ele><time>2026-04-19T10:10:35.212Z</time></trkpt><trkpt lat="43.8320275" lon="12.6690541"><ele>218.0</ele><time>2026-04-19T10:10:37.212Z</time></trkpt><trkpt lat="43.8319758" lon="12.6689821"><ele>218.0</ele><time>2026-04-19T10:10:44.213Z</time></trkpt><trkpt lat="43.8318895" lon="12.6688578"><ele>218.0</ele><time>2026-04-19T10:10:46.215Z</time></trkpt><trkpt lat="43.8318427" lon="12.668749"><ele>218.0</ele><time>2026-04-19T10:10:47.213Z</time></trkpt><trkpt lat="43.8318203" lon="12.66859"><ele>218.0</ele><time>2026-04-19T10:10:48.214Z</time></trkpt><trkpt lat="43.8318198" lon="12.6683965"><ele>214.25</ele><time>2026-04-19T10:10:49.214Z</time></trkpt><trkpt lat="43.8318405" lon="12.6682003"><ele>210.5</ele><time>2026-04-19T10:10:50.214Z</time></trkpt><trkpt lat="43.8318739" lon="12.6680155"><ele>206.75</ele><time>2026-04-19T10:10:51.214Z</time></trkpt><trkpt lat="43.8319163" lon="12.6678401"><ele>203.0</ele><time>2026-04-19T10:10:52.214Z</time></trkpt><trkpt lat="43.8319461" lon="12.667676"><ele>205.0</ele><time>2026-04-19T10:10:53.214Z</time></trkpt><trkpt lat="43.8319339" lon="12.6675296"><ele>207.0</ele><time>2026-04-19T10:10:54.214Z</time></trkpt><trkpt lat="43.8318905" lon="12.6673842"><ele>209.0</ele><time>2026-04-19T10:10:55.215Z</time></trkpt><trkpt lat="43.8318121" lon="12.6672463"><ele>211.0</ele><time>2026-04-19T10:10:56.214Z</time></trkpt><trkpt lat="43.8317074" lon="12.6671135"><ele>211.0</ele><time>2026-04-19T10:10:57.214Z</time></trkpt><trkpt lat="43.8316093" lon="12.6669706"><ele>211.0</ele><time>2026-04-19T10:10:58.214Z</time></trkpt><trkpt lat="43.8315368" lon="12.6668005"><ele>211.0</ele><time>2026-04-19T10:10:59.214Z</time></trkpt><trkpt lat="43.8314928" lon="12.6666218"><ele>211.0</ele><time>2026-04-19T10:11:00.214Z</time></trkpt><trkpt lat="43.8314572" lon="12.6664585"><ele>210.8</ele><time>2026-04-19T10:11:01.215Z</time></trkpt><trkpt lat="43.8314046" lon="12.6663213"><ele>210.60000000000002</ele><time>2026-04-19T10:11:02.215Z</time></trkpt><trkpt lat="43.8313203" lon="12.6662263"><ele>210.4</ele><time>2026-04-19T10:11:03.214Z</time></trkpt><trkpt lat="43.8312161" lon="12.6661875"><ele>210.2</ele><time>2026-04-19T10:11:04.214Z</time></trkpt><trkpt lat="43.8310982" lon="12.6661994"><ele>210.0</ele><time>2026-04-19T10:11:05.214Z</time></trkpt><trkpt lat="43.8309715" lon="12.6662446"><ele>210.0</ele><time>2026-04-19T10:11:06.214Z</time></trkpt><trkpt lat="43.8308491" lon="12.6662752"><ele>210.0</ele><time>2026-04-19T10:11:07.214Z</time></trkpt><trkpt lat="43.8307237" lon="12.6662563"><ele>210.0</ele><time>2026-04-19T10:11:08.214Z</time></trkpt><trkpt lat="43.8306122" lon="12.6661851"><ele>210.0</ele><time>2026-04-19T10:11:09.214Z</time></trkpt><trkpt lat="43.830517" lon="12.6660887"><ele>206.4</ele><time>2026-04-19T10:11:10.214Z</time></trkpt><trkpt lat="43.830431" lon="12.6659765"><ele>202.8</ele><time>2026-04-19T10:11:11.214Z</time></trkpt><trkpt lat="43.8303543" lon="12.6658638"><ele>199.2</ele><time>2026-04-19T10:11:12.214Z</time></trkpt><trkpt lat="43.8302896" lon="12.6657746"><ele>195.6</ele><time>2026-04-19T10:11:13.214Z</time></trkpt><trkpt lat="43.8302113" lon="12.6657114"><ele>192.0</ele><time>2026-04-19T10:11:14.212Z</time></trkpt><trkpt lat="43.8301139" lon="12.665677"><ele>192.0</ele><time>2026-04-19T10:11:15.213Z</time></trkpt><trkpt lat="43.830004" lon="12.6656966"><ele>192.0</ele><time>2026-04-19T10:11:16.213Z</time></trkpt><trkpt lat="43.8298872" lon="12.6657679"><ele>192.0</ele><time>2026-04-19T10:11:17.213Z</time></trkpt><trkpt lat="43.8297657" lon="12.6658709"><ele>192.0</ele><time>2026-04-19T10:11:18.215Z</time></trkpt><trkpt lat="43.8296447" lon="12.6659785"><ele>192.0</ele><time>2026-04-19T10:11:19.212Z</time></trkpt><trkpt lat="43.8295241" lon="12.6660859"><ele>192.0</ele><time>2026-04-19T10:11:20.213Z</time></trkpt><trkpt lat="43.829412" lon="12.6661823"><ele>192.0</ele><time>2026-04-19T10:11:21.212Z</time></trkpt><trkpt lat="43.829312" lon="12.6662689"><ele>192.0</ele><time>2026-04-19T10:11:22.213Z</time></trkpt><trkpt lat="43.829226" lon="12.666339"><ele>188.8</ele><time>2026-04-19T10:11:23.212Z</time></trkpt><trkpt lat="43.829152" lon="12.6663902"><ele>185.6</ele><time>2026-04-19T10:11:24.213Z</time></trkpt><trkpt lat="43.8290868" lon="12.6664222"><ele>182.4</ele><time>2026-04-19T10:11:25.212Z</time></trkpt><trkpt lat="43.8290221" lon="12.6663879"><ele>179.20000000000002</ele><time>2026-04-19T10:11:26.213Z</time></trkpt><trkpt lat="43.8290205" lon="12.6662206"><ele>176.0</ele><time>2026-04-19T10:11:28.214Z</time></trkpt><trkpt lat="43.8291093" lon="12.6661269"><ele>175.33333333333331</ele><time>2026-04-19T10:11:29.216Z</time></trkpt><trkpt lat="43.8292307" lon="12.6660093"><ele>174.66666666666666</ele><time>2026-04-19T10:11:30.215Z</time></trkpt><trkpt lat="43.829353" lon="12.6658534"><ele>174.0</ele><time>2026-04-19T10:11:31.215Z</time></trkpt><trkpt lat="43.8294646" lon="12.6656643"><ele>174.33333333333334</ele><time>2026-04-19T10:11:32.217Z</time></trkpt><trkpt lat="43.8295703" lon="12.6654712"><ele>174.66666666666669</ele><time>2026-04-19T10:11:33.213Z</time></trkpt><trkpt lat="43.8296728" lon="12.6652859"><ele>175.0</ele><time>2026-04-19T10:11:34.212Z</time></trkpt><trkpt lat="43.8297811" lon="12.6651224"><ele>175.0</ele><time>2026-04-19T10:11:35.213Z</time></trkpt><trkpt lat="43.8298805" lon="12.6649779"><ele>175.0</ele><time>2026-04-19T10:11:36.213Z</time></trkpt><trkpt lat="43.8299721" lon="12.6648468"><ele>175.0</ele><time>2026-04-19T10:11:37.212Z</time></trkpt><trkpt lat="43.830046" lon="12.6647211"><ele>175.0</ele><time>2026-04-19T10:11:38.212Z</time></trkpt><trkpt lat="43.8301016" lon="12.6645801"><ele>172.75</ele><time>2026-04-19T10:11:39.212Z</time></trkpt><trkpt lat="43.8301277" lon="12.664425"><ele>170.5</ele><time>2026-04-19T10:11:40.212Z</time></trkpt><trkpt lat="43.8301206" lon="12.6642498"><ele>168.25</ele><time>2026-04-19T10:11:41.212Z</time></trkpt><trkpt lat="43.83009" lon="12.6640742"><ele>166.0</ele><time>2026-04-19T10:11:42.212Z</time></trkpt><trkpt lat="43.8300455" lon="12.6639007"><ele>166.0</ele><time>2026-04-19T10:11:43.213Z</time></trkpt><trkpt lat="43.8299831" lon="12.6637348"><ele>166.0</ele><time>2026-04-19T10:11:44.218Z</time></trkpt><trkpt lat="43.8299011" lon="12.6635799"><ele>166.0</ele><time>2026-04-19T10:11:45.214Z</time></trkpt><trkpt lat="43.8298036" lon="12.6634374"><ele>166.0</ele><time>2026-04-19T10:11:46.213Z</time></trkpt><trkpt lat="43.8297029" lon="12.6633016"><ele>162.75</ele><time>2026-04-19T10:11:47.329Z</time></trkpt><trkpt lat="43.8295445" lon="12.6630454"><ele>159.5</ele><time>2026-04-19T10:11:49.212Z</time></trkpt><trkpt lat="43.8294778" lon="12.6629301"><ele>156.25</ele><time>2026-04-19T10:11:50.212Z</time></trkpt><trkpt lat="43.8294149" lon="12.662837"><ele>153.0</ele><time>2026-04-19T10:11:51.214Z</time></trkpt><trkpt lat="43.8293421" lon="12.6627814"><ele>152.20000000000002</ele><time>2026-04-19T10:11:52.212Z</time></trkpt><trkpt lat="43.8292585" lon="12.6628154"><ele>151.4</ele><time>2026-04-19T10:11:53.213Z</time></trkpt><trkpt lat="43.8291932" lon="12.6629071"><ele>150.60000000000002</ele><time>2026-04-19T10:11:54.213Z</time></trkpt><trkpt lat="43.8291429" lon="12.663025"><ele>149.8</ele><time>2026-04-19T10:11:55.215Z</time></trkpt><trkpt lat="43.8291487" lon="12.6631783"><ele>149.0</ele><time>2026-04-19T10:11:56.214Z</time></trkpt><trkpt lat="43.8291949" lon="12.6633571"><ele>149.0</ele><time>2026-04-19T10:11:57.214Z</time></trkpt><trkpt lat="43.8292405" lon="12.6635456"><ele>149.0</ele><time>2026-04-19T10:11:58.214Z</time></trkpt><trkpt lat="43.8292595" lon="12.6637291"><ele>149.0</ele><time>2026-04-19T10:11:59.214Z</time></trkpt><trkpt lat="43.8292521" lon="12.663897"><ele>149.0</ele><time>2026-04-19T10:12:00.216Z</time></trkpt><trkpt lat="43.8292015" lon="12.6640345"><ele>149.5</ele><time>2026-04-19T10:12:01.215Z</time></trkpt><trkpt lat="43.8291061" lon="12.6641347"><ele>150.0</ele><time>2026-04-19T10:12:02.22Z</time></trkpt><trkpt lat="43.8289944" lon="12.6642357"><ele>150.5</ele><time>2026-04-19T10:12:03.215Z</time></trkpt><trkpt lat="43.8288957" lon="12.6643675"><ele>151.0</ele><time>2026-04-19T10:12:04.215Z</time></trkpt><trkpt lat="43.8288075" lon="12.6645122"><ele>152.5</ele><time>2026-04-19T10:12:05.228Z</time></trkpt><trkpt lat="43.8287219" lon="12.6646507"><ele>154.0</ele><time>2026-04-19T10:12:06.213Z</time></trkpt><trkpt lat="43.8286223" lon="12.6647783"><ele>155.5</ele><time>2026-04-19T10:12:07.215Z</time></trkpt><trkpt lat="43.8285088" lon="12.6648915"><ele>157.0</ele><time>2026-04-19T10:12:08.225Z</time></trkpt><trkpt lat="43.8283846" lon="12.6649955"><ele>155.66666666666669</ele><time>2026-04-19T10:12:09.214Z</time></trkpt><trkpt lat="43.8282505" lon="12.6650976"><ele>154.33333333333334</ele><time>2026-04-19T10:12:10.214Z</time></trkpt><trkpt lat="43.828117" lon="12.6652064"><ele>153.0</ele><time>2026-04-19T10:12:11.213Z</time></trkpt><trkpt lat="43.827985" lon="12.66531"><ele>153.0</ele><time>2026-04-19T10:12:12.219Z</time></trkpt><trkpt lat="43.8278508" lon="12.6653936"><ele>153.0</ele><time>2026-04-19T10:12:13.214Z</time></trkpt><trkpt lat="43.8277141" lon="12.665455"><ele>153.0</ele><time>2026-04-19T10:12:14.214Z</time></trkpt><trkpt lat="43.8275782" lon="12.6655068"><ele>153.0</ele><time>2026-04-19T10:12:15.213Z</time></trkpt><trkpt lat="43.8274515" lon="12.6655638"><ele>149.6</ele><time>2026-04-19T10:12:16.215Z</time></trkpt><trkpt lat="43.8273396" lon="12.6656355"><ele>146.20000000000002</ele><time>2026-04-19T10:12:17.217Z</time></trkpt><trkpt lat="43.8272535" lon="12.6657251"><ele>142.8</ele><time>2026-04-19T10:12:18.214Z</time></trkpt><trkpt lat="43.8272003" lon="12.6658432"><ele>139.4</ele><time>2026-04-19T10:12:19.214Z</time></trkpt><trkpt lat="43.8272082" lon="12.6659885"><ele>136.0</ele><time>2026-04-19T10:12:20.212Z</time></trkpt><trkpt lat="43.82726" lon="12.666145"><ele>135.8</ele><time>2026-04-19T10:12:21.211Z</time></trkpt><trkpt lat="43.8273399" lon="12.6662872"><ele>135.6</ele><time>2026-04-19T10:12:22.212Z</time></trkpt><trkpt lat="43.8274206" lon="12.6664146"><ele>135.4</ele><time>2026-04-19T10:12:23.212Z</time></trkpt><trkpt lat="43.8274826" lon="12.6665303"><ele>135.2</ele><time>2026-04-19T10:12:24.213Z</time></trkpt><trkpt lat="43.8275132" lon="12.6666459"><ele>135.0</ele><time>2026-04-19T10:12:25.214Z</time></trkpt><trkpt lat="43.8275234" lon="12.6667537"><ele>135.0</ele><time>2026-04-19T10:12:26.213Z</time></trkpt><trkpt lat="43.8274868" lon="12.6668583"><ele>135.0</ele><time>2026-04-19T10:12:27.212Z</time></trkpt><trkpt lat="43.8274102" lon="12.6669295"><ele>135.0</ele><time>2026-04-19T10:12:28.212Z</time></trkpt><trkpt lat="43.8273044" lon="12.6669516"><ele>135.0</ele><time>2026-04-19T10:12:29.214Z</time></trkpt><trkpt lat="43.8271664" lon="12.6669368"><ele>135.0</ele><time>2026-04-19T10:12:30.213Z</time></trkpt><trkpt lat="43.8270023" lon="12.6668946"><ele>135.0</ele><time>2026-04-19T10:12:31.212Z</time></trkpt><trkpt lat="43.8268497" lon="12.6668326"><ele>135.0</ele><time>2026-04-19T10:12:32.212Z</time></trkpt><trkpt lat="43.826716" lon="12.6667572"><ele>135.0</ele><time>2026-04-19T10:12:33.217Z</time></trkpt><trkpt lat="43.8265998" lon="12.6666763"><ele>135.0</ele><time>2026-04-19T10:12:34.214Z</time></trkpt><trkpt lat="43.8264975" lon="12.6666127"><ele>133.0</ele><time>2026-04-19T10:12:35.213Z</time></trkpt><trkpt lat="43.8264036" lon="12.6665815"><ele>131.0</ele><time>2026-04-19T10:12:36.216Z</time></trkpt><trkpt lat="43.8263086" lon="12.6665812"><ele>129.0</ele><time>2026-04-19T10:12:37.215Z</time></trkpt><trkpt lat="43.8262206" lon="12.6666075"><ele>127.0</ele><time>2026-04-19T10:12:38.215Z</time></trkpt><trkpt lat="43.8261459" lon="12.6666515"><ele>125.0</ele><time>2026-04-19T10:12:39.212Z</time></trkpt><trkpt lat="43.826086" lon="12.6666941"><ele>123.0</ele><time>2026-04-19T10:12:40.212Z</time></trkpt><trkpt lat="43.8260343" lon="12.6667502"><ele>123.0</ele><time>2026-04-19T10:12:42.213Z</time></trkpt><trkpt lat="43.8260733" lon="12.6666133"><ele>123.00000000000001</ele><time>2026-04-19T10:12:46.213Z</time></trkpt><trkpt lat="43.8261307" lon="12.6665522"><ele>123.00000000000001</ele><time>2026-04-19T10:12:47.212Z</time></trkpt><trkpt lat="43.8262054" lon="12.666484"><ele>123.0</ele><time>2026-04-19T10:12:48.213Z</time></trkpt><trkpt lat="43.8263014" lon="12.666427"><ele>123.0</ele><time>2026-04-19T10:12:49.213Z</time></trkpt><trkpt lat="43.8263958" lon="12.6663742"><ele>123.0</ele><time>2026-04-19T10:12:50.213Z</time></trkpt><trkpt lat="43.8264743" lon="12.6663138"><ele>123.00000000000001</ele><time>2026-04-19T10:12:51.212Z</time></trkpt><trkpt lat="43.8265411" lon="12.6662415"><ele>123.00000000000001</ele><time>2026-04-19T10:12:52.212Z</time></trkpt><trkpt lat="43.8265913" lon="12.6661463"><ele>123.0</ele><time>2026-04-19T10:12:53.212Z</time></trkpt><trkpt lat="43.8266254" lon="12.666023"><ele>123.0</ele><time>2026-04-19T10:12:54.213Z</time></trkpt><trkpt lat="43.8266428" lon="12.665883"><ele>121.4</ele><time>2026-04-19T10:12:55.212Z</time></trkpt><trkpt lat="43.826643" lon="12.6657377"><ele>119.80000000000001</ele><time>2026-04-19T10:12:56.213Z</time></trkpt><trkpt lat="43.826644" lon="12.6655961"><ele>118.2</ele><time>2026-04-19T10:12:57.213Z</time></trkpt><trkpt lat="43.8266458" lon="12.6654687"><ele>116.6</ele><time>2026-04-19T10:12:58.215Z</time></trkpt><trkpt lat="43.8266562" lon="12.6653504"><ele>115.0</ele><time>2026-04-19T10:12:59.214Z</time></trkpt><trkpt lat="43.8266696" lon="12.6652292"><ele>113.66666666666667</ele><time>2026-04-19T10:13:00.217Z</time></trkpt><trkpt lat="43.8266962" lon="12.6651198"><ele>112.33333333333334</ele><time>2026-04-19T10:13:01.212Z</time></trkpt><trkpt lat="43.8267319" lon="12.6650143"><ele>111.0</ele><time>2026-04-19T10:13:02.213Z</time></trkpt><trkpt lat="43.8267733" lon="12.6649086"><ele>109.66666666666666</ele><time>2026-04-19T10:13:03.212Z</time></trkpt><trkpt lat="43.8268172" lon="12.6648188"><ele>108.33333333333333</ele><time>2026-04-19T10:13:04.21Z</time></trkpt><trkpt lat="43.8268652" lon="12.6647399"><ele>107.0</ele><time>2026-04-19T10:13:05.211Z</time></trkpt><trkpt lat="43.8269246" lon="12.6646645"><ele>108.33333333333333</ele><time>2026-04-19T10:13:06.211Z</time></trkpt><trkpt lat="43.8269774" lon="12.6645817"><ele>109.66666666666666</ele><time>2026-04-19T10:13:07.212Z</time></trkpt><trkpt lat="43.8270252" lon="12.664494"><ele>111.0</ele><time>2026-04-19T10:13:08.21Z</time></trkpt><trkpt lat="43.8270612" lon="12.6644022"><ele>112.33333333333334</ele><time>2026-04-19T10:13:09.211Z</time></trkpt><trkpt lat="43.8270924" lon="12.6643009"><ele>113.66666666666667</ele><time>2026-04-19T10:13:10.212Z</time></trkpt><trkpt lat="43.8271174" lon="12.6641923"><ele>115.0</ele><time>2026-04-19T10:13:11.214Z</time></trkpt><trkpt lat="43.8271382" lon="12.6640766"><ele>115.00000000000001</ele><time>2026-04-19T10:13:12.212Z</time></trkpt><trkpt lat="43.8271547" lon="12.6639656"><ele>115.0</ele><time>2026-04-19T10:13:13.212Z</time></trkpt><trkpt lat="43.8271717" lon="12.6638572"><ele>115.0</ele><time>2026-04-19T10:13:14.212Z</time></trkpt><trkpt lat="43.8271958" lon="12.6637639"><ele>115.0</ele><time>2026-04-19T10:13:15.212Z</time></trkpt><trkpt lat="43.8272255" lon="12.6636769"><ele>115.00000000000001</ele><time>2026-04-19T10:13:16.212Z</time></trkpt><trkpt lat="43.827249" lon="12.6635852"><ele>115.0</ele><time>2026-04-19T10:13:17.212Z</time></trkpt><trkpt lat="43.8272663" lon="12.6634757"><ele>113.66666666666667</ele><time>2026-04-19T10:13:18.213Z</time></trkpt><trkpt lat="43.8272913" lon="12.6633753"><ele>112.33333333333334</ele><time>2026-04-19T10:13:19.213Z</time></trkpt><trkpt lat="43.8273328" lon="12.6632747"><ele>111.0</ele><time>2026-04-19T10:13:20.213Z</time></trkpt><trkpt lat="43.8273728" lon="12.6631647"><ele>109.66666666666666</ele><time>2026-04-19T10:13:21.213Z</time></trkpt><trkpt lat="43.8274109" lon="12.6630462"><ele>108.33333333333333</ele><time>2026-04-19T10:13:22.212Z</time></trkpt><trkpt lat="43.8274519" lon="12.6629242"><ele>107.0</ele><time>2026-04-19T10:13:23.213Z</time></trkpt><trkpt lat="43.827495" lon="12.6628076"><ele>106.0</ele><time>2026-04-19T10:13:24.213Z</time></trkpt><trkpt lat="43.8275296" lon="12.6626831"><ele>104.99999999999999</ele><time>2026-04-19T10:13:25.211Z</time></trkpt><trkpt lat="43.8275618" lon="12.6625595"><ele>104.0</ele><time>2026-04-19T10:13:26.211Z</time></trkpt><trkpt lat="43.8275969" lon="12.662436"><ele>103.0</ele><time>2026-04-19T10:13:27.21Z</time></trkpt><trkpt lat="43.8276359" lon="12.662315"><ele>102.0</ele><time>2026-04-19T10:13:28.211Z</time></trkpt><trkpt lat="43.8276801" lon="12.6621899"><ele>103.8</ele><time>2026-04-19T10:13:29.212Z</time></trkpt><trkpt lat="43.8277248" lon="12.6620612"><ele>105.6</ele><time>2026-04-19T10:13:30.213Z</time></trkpt><trkpt lat="43.8277644" lon="12.6619282"><ele>107.39999999999999</ele><time>2026-04-19T10:13:31.211Z</time></trkpt><trkpt lat="43.8278024" lon="12.6617981"><ele>109.19999999999999</ele><time>2026-04-19T10:13:32.212Z</time></trkpt><trkpt lat="43.8278383" lon="12.661671"><ele>111.0</ele><time>2026-04-19T10:13:33.211Z</time></trkpt><trkpt lat="43.827883" lon="12.6615385"><ele>111.0</ele><time>2026-04-19T10:13:34.211Z</time></trkpt><trkpt lat="43.8279351" lon="12.6614053"><ele>111.0</ele><time>2026-04-19T10:13:35.211Z</time></trkpt><trkpt lat="43.8279849" lon="12.6612775"><ele>111.0</ele><time>2026-04-19T10:13:36.212Z</time></trkpt><trkpt lat="43.8280377" lon="12.6611525"><ele>111.0</ele><time>2026-04-19T10:13:37.212Z</time></trkpt><trkpt lat="43.8280992" lon="12.6610242"><ele>111.0</ele><time>2026-04-19T10:13:38.212Z</time></trkpt><trkpt lat="43.8281682" lon="12.6608945"><ele>107.5</ele><time>2026-04-19T10:13:39.211Z</time></trkpt><trkpt lat="43.8282426" lon="12.6607611"><ele>104.0</ele><time>2026-04-19T10:13:40.212Z</time></trkpt><trkpt lat="43.8283154" lon="12.6606295"><ele>100.5</ele><time>2026-04-19T10:13:41.211Z</time></trkpt><trkpt lat="43.8283858" lon="12.6604977"><ele>97.0</ele><time>2026-04-19T10:13:42.211Z</time></trkpt><trkpt lat="43.8284551" lon="12.6603586"><ele>97.5</ele><time>2026-04-19T10:13:43.211Z</time></trkpt><trkpt lat="43.8285201" lon="12.6602295"><ele>98.0</ele><time>2026-04-19T10:13:44.212Z</time></trkpt><trkpt lat="43.8285851" lon="12.6601008"><ele>98.5</ele><time>2026-04-19T10:13:45.212Z</time></trkpt><trkpt lat="43.8286493" lon="12.659968"><ele>99.0</ele><time>2026-04-19T10:13:46.211Z</time></trkpt><trkpt lat="43.8287182" lon="12.6598338"><ele>99.0</ele><time>2026-04-19T10:13:47.211Z</time></trkpt><trkpt lat="43.8287887" lon="12.6597006"><ele>99.0</ele><time>2026-04-19T10:13:48.211Z</time></trkpt><trkpt lat="43.8288565" lon="12.6595672"><ele>99.0</ele><time>2026-04-19T10:13:49.212Z</time></trkpt><trkpt lat="43.8289211" lon="12.6594347"><ele>99.0</ele><time>2026-04-19T10:13:50.215Z</time></trkpt><trkpt lat="43.8289805" lon="12.6592968"><ele>98.25</ele><time>2026-04-19T10:13:51.212Z</time></trkpt><trkpt lat="43.8290394" lon="12.659158"><ele>97.5</ele><time>2026-04-19T10:13:52.211Z</time></trkpt><trkpt lat="43.8290985" lon="12.6590181"><ele>96.75</ele><time>2026-04-19T10:13:53.21Z</time></trkpt><trkpt lat="43.8291591" lon="12.6588785"><ele>96.0</ele><time>2026-04-19T10:13:54.21Z</time></trkpt><trkpt lat="43.8292136" lon="12.6587459"><ele>96.0</ele><time>2026-04-19T10:13:55.211Z</time></trkpt><trkpt lat="43.8292662" lon="12.6586193"><ele>96.0</ele><time>2026-04-19T10:13:56.211Z</time></trkpt><trkpt lat="43.8293206" lon="12.6585008"><ele>96.0</ele><time>2026-04-19T10:13:57.212Z</time></trkpt><trkpt lat="43.8293732" lon="12.6584013"><ele>96.0</ele><time>2026-04-19T10:13:58.211Z</time></trkpt><trkpt lat="43.8294278" lon="12.6583119"><ele>96.0</ele><time>2026-04-19T10:13:59.212Z</time></trkpt><trkpt lat="43.8294923" lon="12.6582255"><ele>97.5</ele><time>2026-04-19T10:14:00.212Z</time></trkpt><trkpt lat="43.829578" lon="12.6581286"><ele>99.0</ele><time>2026-04-19T10:14:01.217Z</time></trkpt><trkpt lat="43.8296761" lon="12.6580269"><ele>100.5</ele><time>2026-04-19T10:14:02.212Z</time></trkpt><trkpt lat="43.8297806" lon="12.6579237"><ele>102.0</ele><time>2026-04-19T10:14:03.213Z</time></trkpt><trkpt lat="43.8298851" lon="12.6578217"><ele>101.25</ele><time>2026-04-19T10:14:04.211Z</time></trkpt><trkpt lat="43.8299933" lon="12.6577266"><ele>100.5</ele><time>2026-04-19T10:14:05.211Z</time></trkpt><trkpt lat="43.8300915" lon="12.6576267"><ele>99.75</ele><time>2026-04-19T10:14:06.213Z</time></trkpt><trkpt lat="43.8301792" lon="12.6575284"><ele>99.0</ele><time>2026-04-19T10:14:07.211Z</time></trkpt><trkpt lat="43.8302579" lon="12.6574353"><ele>99.2</ele><time>2026-04-19T10:14:08.212Z</time></trkpt><trkpt lat="43.8303346" lon="12.6573396"><ele>99.4</ele><time>2026-04-19T10:14:09.212Z</time></trkpt><trkpt lat="43.8304129" lon="12.6572397"><ele>99.6</ele><time>2026-04-19T10:14:10.211Z</time></trkpt><trkpt lat="43.8304911" lon="12.6571354"><ele>99.8</ele><time>2026-04-19T10:14:11.211Z</time></trkpt><trkpt lat="43.8305676" lon="12.6570269"><ele>100.0</ele><time>2026-04-19T10:14:12.211Z</time></trkpt><trkpt lat="43.8306329" lon="12.6569177"><ele>100.0</ele><time>2026-04-19T10:14:13.211Z</time></trkpt><trkpt lat="43.8306927" lon="12.6568136"><ele>100.0</ele><time>2026-04-19T10:14:14.211Z</time></trkpt><trkpt lat="43.8307476" lon="12.6567131"><ele>100.0</ele><time>2026-04-19T10:14:15.211Z</time></trkpt><trkpt lat="43.830801" lon="12.6566092"><ele>100.0</ele><time>2026-04-19T10:14:16.211Z</time></trkpt><trkpt lat="43.8308666" lon="12.6565112"><ele>100.0</ele><time>2026-04-19T10:14:17.211Z</time></trkpt><trkpt lat="43.8309328" lon="12.6564198"><ele>103.2</ele><time>2026-04-19T10:14:18.214Z</time></trkpt><trkpt lat="43.8310057" lon="12.6563438"><ele>106.4</ele><time>2026-04-19T10:14:19.21Z</time></trkpt><trkpt lat="43.8310862" lon="12.6562797"><ele>109.6</ele><time>2026-04-19T10:14:20.21Z</time></trkpt><trkpt lat="43.8311714" lon="12.6562275"><ele>112.8</ele><time>2026-04-19T10:14:21.211Z</time></trkpt><trkpt lat="43.8312674" lon="12.6561905"><ele>116.0</ele><time>2026-04-19T10:14:22.212Z</time></trkpt><trkpt lat="43.8313709" lon="12.6561587"><ele>112.75</ele><time>2026-04-19T10:14:23.211Z</time></trkpt><trkpt lat="43.8314724" lon="12.6561069"><ele>109.5</ele><time>2026-04-19T10:14:24.212Z</time></trkpt><trkpt lat="43.8315721" lon="12.6560342"><ele>106.25</ele><time>2026-04-19T10:14:25.211Z</time></trkpt><trkpt lat="43.831667" lon="12.6559402"><ele>103.0</ele><time>2026-04-19T10:14:26.211Z</time></trkpt><trkpt lat="43.8317574" lon="12.6558394"><ele>106.0</ele><time>2026-04-19T10:14:27.211Z</time></trkpt><trkpt lat="43.8318535" lon="12.6557398"><ele>109.0</ele><time>2026-04-19T10:14:28.213Z</time></trkpt><trkpt lat="43.8319557" lon="12.6556391"><ele>112.0</ele><time>2026-04-19T10:14:29.212Z</time></trkpt><trkpt lat="43.8320646" lon="12.6555258"><ele>115.0</ele><time>2026-04-19T10:14:30.211Z</time></trkpt><trkpt lat="43.8321676" lon="12.6554028"><ele>115.0</ele><time>2026-04-19T10:14:31.211Z</time></trkpt><trkpt lat="43.8322684" lon="12.6552878"><ele>115.0</ele><time>2026-04-19T10:14:32.211Z</time></trkpt><trkpt lat="43.8323714" lon="12.6551856"><ele>115.0</ele><time>2026-04-19T10:14:33.21Z</time></trkpt><trkpt lat="43.8324822" lon="12.655103"><ele>115.0</ele><time>2026-04-19T10:14:34.21Z</time></trkpt><trkpt lat="43.8325914" lon="12.6550288"><ele>113.25</ele><time>2026-04-19T10:14:35.211Z</time></trkpt><trkpt lat="43.8327092" lon="12.6549597"><ele>111.5</ele><time>2026-04-19T10:14:36.21Z</time></trkpt><trkpt lat="43.8328325" lon="12.6549171"><ele>109.75</ele><time>2026-04-19T10:14:37.21Z</time></trkpt><trkpt lat="43.8329634" lon="12.6548929"><ele>108.0</ele><time>2026-04-19T10:14:38.21Z</time></trkpt><trkpt lat="43.8331007" lon="12.6548806"><ele>108.0</ele><time>2026-04-19T10:14:39.211Z</time></trkpt><trkpt lat="43.8332464" lon="12.6548725"><ele>108.0</ele><time>2026-04-19T10:14:40.21Z</time></trkpt><trkpt lat="43.8333923" lon="12.6548524"><ele>108.0</ele><time>2026-04-19T10:14:41.21Z</time></trkpt><trkpt lat="43.8335335" lon="12.6548194"><ele>108.0</ele><time>2026-04-19T10:14:42.21Z</time></trkpt><trkpt lat="43.8336788" lon="12.6547747"><ele>110.0</ele><time>2026-04-19T10:14:43.211Z</time></trkpt><trkpt lat="43.8338269" lon="12.6547162"><ele>112.0</ele><time>2026-04-19T10:14:44.211Z</time></trkpt><trkpt lat="43.8339709" lon="12.6546595"><ele>114.0</ele><time>2026-04-19T10:14:45.211Z</time></trkpt><trkpt lat="43.8341031" lon="12.6546064"><ele>116.0</ele><time>2026-04-19T10:14:46.211Z</time></trkpt><trkpt lat="43.8342294" lon="12.6545574"><ele>115.0</ele><time>2026-04-19T10:14:47.212Z</time></trkpt><trkpt lat="43.834362" lon="12.6545134"><ele>114.0</ele><time>2026-04-19T10:14:48.21Z</time></trkpt><trkpt lat="43.834487" lon="12.654462"><ele>113.0</ele><time>2026-04-19T10:14:49.211Z</time></trkpt><trkpt lat="43.8346099" lon="12.6543986"><ele>112.0</ele><time>2026-04-19T10:14:50.213Z</time></trkpt><trkpt lat="43.8347286" lon="12.6543286"><ele>112.0</ele><time>2026-04-19T10:14:51.211Z</time></trkpt><trkpt lat="43.8348464" lon="12.6542578"><ele>112.0</ele><time>2026-04-19T10:14:52.211Z</time></trkpt><trkpt lat="43.8349607" lon="12.6541866"><ele>112.0</ele><time>2026-04-19T10:14:53.211Z</time></trkpt><trkpt lat="43.8350766" lon="12.6541151"><ele>112.0</ele><time>2026-04-19T10:14:54.211Z</time></trkpt><trkpt lat="43.8351865" lon="12.6540301"><ele>116.0</ele><time>2026-04-19T10:14:55.211Z</time></trkpt><trkpt lat="43.8352916" lon="12.6539342"><ele>120.0</ele><time>2026-04-19T10:14:56.211Z</time></trkpt><trkpt lat="43.8353922" lon="12.6538311"><ele>124.0</ele><time>2026-04-19T10:14:57.211Z</time></trkpt><trkpt lat="43.8354905" lon="12.6537299"><ele>128.0</ele><time>2026-04-19T10:14:58.21Z</time></trkpt><trkpt lat="43.8355827" lon="12.6536352"><ele>123.25</ele><time>2026-04-19T10:14:59.211Z</time></trkpt><trkpt lat="43.8356749" lon="12.6535453"><ele>118.5</ele><time>2026-04-19T10:15:00.211Z</time></trkpt><trkpt lat="43.8357683" lon="12.6534519"><ele>113.75</ele><time>2026-04-19T10:15:01.211Z</time></trkpt><trkpt lat="43.8358677" lon="12.6533647"><ele>109.0</ele><time>2026-04-19T10:15:02.211Z</time></trkpt><trkpt lat="43.8359675" lon="12.6532693"><ele>110.5</ele><time>2026-04-19T10:15:03.21Z</time></trkpt><trkpt lat="43.8360681" lon="12.6531726"><ele>112.0</ele><time>2026-04-19T10:15:04.211Z</time></trkpt><trkpt lat="43.8361567" lon="12.6530789"><ele>113.5</ele><time>2026-04-19T10:15:05.211Z</time></trkpt><trkpt lat="43.8362425" lon="12.6529762"><ele>115.0</ele><time>2026-04-19T10:15:06.21Z</time></trkpt><trkpt lat="43.8363339" lon="12.6528695"><ele>113.2</ele><time>2026-04-19T10:15:07.21Z</time></trkpt><trkpt lat="43.8364237" lon="12.6527617"><ele>111.4</ele><time>2026-04-19T10:15:08.211Z</time></trkpt><trkpt lat="43.8365081" lon="12.6526611"><ele>109.6</ele><time>2026-04-19T10:15:09.21Z</time></trkpt><trkpt lat="43.836584" lon="12.6525647"><ele>107.8</ele><time>2026-04-19T10:15:10.212Z</time></trkpt><trkpt lat="43.8366549" lon="12.6524737"><ele>106.0</ele><time>2026-04-19T10:15:11.212Z</time></trkpt><trkpt lat="43.836726" lon="12.6523877"><ele>106.00000000000001</ele><time>2026-04-19T10:15:12.211Z</time></trkpt><trkpt lat="43.8367904" lon="12.6523056"><ele>106.0</ele><time>2026-04-19T10:15:13.21Z</time></trkpt><trkpt lat="43.8368505" lon="12.652223"><ele>106.0</ele><time>2026-04-19T10:15:14.211Z</time></trkpt><trkpt lat="43.8369036" lon="12.6521391"><ele>106.0</ele><time>2026-04-19T10:15:15.211Z</time></trkpt><trkpt lat="43.8369544" lon="12.652059"><ele>106.00000000000001</ele><time>2026-04-19T10:15:16.211Z</time></trkpt><trkpt lat="43.8370026" lon="12.651986"><ele>106.0</ele><time>2026-04-19T10:15:17.21Z</time></trkpt><trkpt lat="43.8370421" lon="12.6519126"><ele>106.0</ele><time>2026-04-19T10:15:18.211Z</time></trkpt><trkpt lat="43.8371088" lon="12.6517807"><ele>106.0</ele><time>2026-04-19T10:15:20.211Z</time></trkpt><trkpt lat="43.8371819" lon="12.6515706"><ele>106.0</ele><time>2026-04-19T10:15:22.21Z</time></trkpt><trkpt lat="43.837237" lon="12.6513624"><ele>106.0</ele><time>2026-04-19T10:15:23.211Z</time></trkpt><trkpt lat="43.8372893" lon="12.6511404"><ele>105.75</ele><time>2026-04-19T10:15:24.214Z</time></trkpt><trkpt lat="43.837326" lon="12.6509528"><ele>105.5</ele><time>2026-04-19T10:15:25.211Z</time></trkpt><trkpt lat="43.8373304" lon="12.6507941"><ele>105.25</ele><time>2026-04-19T10:15:26.212Z</time></trkpt><trkpt lat="43.8372968" lon="12.6506481"><ele>105.0</ele><time>2026-04-19T10:15:27.212Z</time></trkpt><trkpt lat="43.8372382" lon="12.6505018"><ele>105.0</ele><time>2026-04-19T10:15:28.211Z</time></trkpt><trkpt lat="43.8371974" lon="12.6503605"><ele>105.0</ele><time>2026-04-19T10:15:29.214Z</time></trkpt><trkpt lat="43.8371982" lon="12.6502227"><ele>105.0</ele><time>2026-04-19T10:15:30.211Z</time></trkpt><trkpt lat="43.8372237" lon="12.6500873"><ele>105.0</ele><time>2026-04-19T10:15:31.211Z</time></trkpt><trkpt lat="43.8372627" lon="12.6499654"><ele>105.0</ele><time>2026-04-19T10:15:32.21Z</time></trkpt><trkpt lat="43.8373054" lon="12.6498369"><ele>105.25</ele><time>2026-04-19T10:15:33.21Z</time></trkpt><trkpt lat="43.8373539" lon="12.649674"><ele>105.5</ele><time>2026-04-19T10:15:34.21Z</time></trkpt><trkpt lat="43.8374099" lon="12.6494928"><ele>105.75</ele><time>2026-04-19T10:15:35.212Z</time></trkpt><trkpt lat="43.8374659" lon="12.6493166"><ele>106.0</ele><time>2026-04-19T10:15:36.209Z</time></trkpt><trkpt lat="43.8375187" lon="12.649155"><ele>106.0</ele><time>2026-04-19T10:15:37.21Z</time></trkpt><trkpt lat="43.8375654" lon="12.6490106"><ele>106.0</ele><time>2026-04-19T10:15:38.212Z</time></trkpt><trkpt lat="43.837615" lon="12.6488747"><ele>106.0</ele><time>2026-04-19T10:15:39.214Z</time></trkpt><trkpt lat="43.8376718" lon="12.6487433"><ele>106.0</ele><time>2026-04-19T10:15:40.209Z</time></trkpt><trkpt lat="43.8377454" lon="12.6486207"><ele>107.5</ele><time>2026-04-19T10:15:41.209Z</time></trkpt><trkpt lat="43.8378324" lon="12.6485224"><ele>109.0</ele><time>2026-04-19T10:15:42.211Z</time></trkpt><trkpt lat="43.8379464" lon="12.6484474"><ele>110.5</ele><time>2026-04-19T10:15:43.211Z</time></trkpt><trkpt lat="43.8380768" lon="12.6483846"><ele>112.0</ele><time>2026-04-19T10:15:44.209Z</time></trkpt><trkpt lat="43.8382344" lon="12.6483123"><ele>112.0</ele><time>2026-04-19T10:15:45.209Z</time></trkpt><trkpt lat="43.8383785" lon="12.6482091"><ele>112.0</ele><time>2026-04-19T10:15:46.209Z</time></trkpt><trkpt lat="43.8384896" lon="12.6480921"><ele>112.0</ele><time>2026-04-19T10:15:47.209Z</time></trkpt><trkpt lat="43.8385752" lon="12.6479756"><ele>112.0</ele><time>2026-04-19T10:15:48.209Z</time></trkpt><trkpt lat="43.8386458" lon="12.6478754"><ele>113.33333333333334</ele><time>2026-04-19T10:15:49.21Z</time></trkpt><trkpt lat="43.8387069" lon="12.6477881"><ele>114.66666666666667</ele><time>2026-04-19T10:15:50.211Z</time></trkpt><trkpt lat="43.8387584" lon="12.6477083"><ele>116.0</ele><time>2026-04-19T10:15:51.21Z</time></trkpt><trkpt lat="43.8388014" lon="12.6476389"><ele>117.33333333333334</ele><time>2026-04-19T10:15:52.212Z</time></trkpt><trkpt lat="43.8388548" lon="12.6475407"><ele>118.66666666666667</ele><time>2026-04-19T10:15:54.211Z</time></trkpt><trkpt lat="43.8388854" lon="12.6474423"><ele>120.0</ele><time>2026-04-19T10:15:56.211Z</time></trkpt><trkpt lat="43.8388791" lon="12.6473408"><ele>120.0</ele><time>2026-04-19T10:15:58.21Z</time></trkpt><trkpt lat="43.8388759" lon="12.6472296"><ele>120.0</ele><time>2026-04-19T10:16:00.212Z</time></trkpt><trkpt lat="43.8389064" lon="12.6470741"><ele>120.0</ele><time>2026-04-19T10:16:02.211Z</time></trkpt><trkpt lat="43.8389388" lon="12.6469886"><ele>120.0</ele><time>2026-04-19T10:16:03.209Z</time></trkpt><trkpt lat="43.8389793" lon="12.6469151"><ele>120.0</ele><time>2026-04-19T10:16:04.209Z</time></trkpt><trkpt lat="43.8390318" lon="12.6468505"><ele>120.0</ele><time>2026-04-19T10:16:05.209Z</time></trkpt><trkpt lat="43.8390962" lon="12.6467942"><ele>119.83333333333333</ele><time>2026-04-19T10:16:06.21Z</time></trkpt><trkpt lat="43.8391634" lon="12.6467477"><ele>119.66666666666666</ele><time>2026-04-19T10:16:07.209Z</time></trkpt><trkpt lat="43.8392318" lon="12.6467078"><ele>119.5</ele><time>2026-04-19T10:16:08.21Z</time></trkpt><trkpt lat="43.8393028" lon="12.6466645"><ele>119.33333333333333</ele><time>2026-04-19T10:16:09.209Z</time></trkpt><trkpt lat="43.8393767" lon="12.6466223"><ele>119.16666666666666</ele><time>2026-04-19T10:16:10.209Z</time></trkpt><trkpt lat="43.8394534" lon="12.6465969"><ele>119.0</ele><time>2026-04-19T10:16:11.21Z</time></trkpt><trkpt lat="43.8395388" lon="12.6465834"><ele>119.33333333333333</ele><time>2026-04-19T10:16:12.21Z</time></trkpt><trkpt lat="43.839625" lon="12.6465651"><ele>119.66666666666666</ele><time>2026-04-19T10:16:13.211Z</time></trkpt><trkpt lat="43.8397154" lon="12.6465455"><ele>120.0</ele><time>2026-04-19T10:16:14.209Z</time></trkpt><trkpt lat="43.8398021" lon="12.6465161"><ele>120.33333333333334</ele><time>2026-04-19T10:16:15.209Z</time></trkpt><trkpt lat="43.8398801" lon="12.6464821"><ele>120.66666666666667</ele><time>2026-04-19T10:16:16.209Z</time></trkpt><trkpt lat="43.839955" lon="12.6464538"><ele>121.0</ele><time>2026-04-19T10:16:17.209Z</time></trkpt><trkpt lat="43.8400228" lon="12.6464166"><ele>121.0</ele><time>2026-04-19T10:16:18.21Z</time></trkpt><trkpt lat="43.8400906" lon="12.6463792"><ele>120.99999999999999</ele><time>2026-04-19T10:16:19.21Z</time></trkpt><trkpt lat="43.8401611" lon="12.6463431"><ele>121.0</ele><time>2026-04-19T10:16:20.21Z</time></trkpt><trkpt lat="43.8402317" lon="12.6463059"><ele>121.0</ele><time>2026-04-19T10:16:21.21Z</time></trkpt><trkpt lat="43.8403039" lon="12.6462705"><ele>120.99999999999999</ele><time>2026-04-19T10:16:22.209Z</time></trkpt><trkpt lat="43.8403726" lon="12.6462327"><ele>121.0</ele><time>2026-04-19T10:16:23.21Z</time></trkpt><trkpt lat="43.8404329" lon="12.6461776"><ele>121.0</ele><time>2026-04-19T10:16:24.209Z</time></trkpt><trkpt lat="43.8404879" lon="12.6461036"><ele>120.83333333333334</ele><time>2026-04-19T10:16:25.21Z</time></trkpt><trkpt lat="43.8405451" lon="12.6460221"><ele>120.66666666666667</ele><time>2026-04-19T10:16:26.21Z</time></trkpt><trkpt lat="43.8405837" lon="12.6459207"><ele>120.5</ele><time>2026-04-19T10:16:27.21Z</time></trkpt><trkpt lat="43.8406069" lon="12.6458042"><ele>120.33333333333334</ele><time>2026-04-19T10:16:28.21Z</time></trkpt><trkpt lat="43.8406324" lon="12.6456791"><ele>120.16666666666667</ele><time>2026-04-19T10:16:29.209Z</time></trkpt><trkpt lat="43.8406569" lon="12.6455518"><ele>120.0</ele><time>2026-04-19T10:16:30.21Z</time></trkpt><trkpt lat="43.8406815" lon="12.6454268"><ele>120.0</ele><time>2026-04-19T10:16:31.21Z</time></trkpt><trkpt lat="43.8407036" lon="12.6453107"><ele>120.0</ele><time>2026-04-19T10:16:32.21Z</time></trkpt><trkpt lat="43.8407234" lon="12.6452063"><ele>120.0</ele><time>2026-04-19T10:16:33.209Z</time></trkpt><trkpt lat="43.840747" lon="12.6451154"><ele>120.0</ele><time>2026-04-19T10:16:34.209Z</time></trkpt><trkpt lat="43.8407745" lon="12.6450334"><ele>120.0</ele><time>2026-04-19T10:16:35.21Z</time></trkpt><trkpt lat="43.8408225" lon="12.6448873"><ele>120.0</ele><time>2026-04-19T10:16:37.21Z</time></trkpt><trkpt lat="43.8408341" lon="12.6448004"><ele>119.71428571428572</ele><time>2026-04-19T10:16:38.21Z</time></trkpt><trkpt lat="43.8408354" lon="12.6447093"><ele>119.42857142857142</ele><time>2026-04-19T10:16:39.211Z</time></trkpt><trkpt lat="43.8408321" lon="12.6446178"><ele>119.14285714285714</ele><time>2026-04-19T10:16:40.211Z</time></trkpt><trkpt lat="43.8408257" lon="12.6445275"><ele>118.85714285714286</ele><time>2026-04-19T10:16:41.209Z</time></trkpt><trkpt lat="43.8408256" lon="12.6444324"><ele>118.57142857142858</ele><time>2026-04-19T10:16:42.209Z</time></trkpt><trkpt lat="43.8408335" lon="12.644337"><ele>118.28571428571428</ele><time>2026-04-19T10:16:43.208Z</time></trkpt><trkpt lat="43.8408539" lon="12.6442322"><ele>118.0</ele><time>2026-04-19T10:16:44.22Z</time></trkpt><trkpt lat="43.8408807" lon="12.6441248"><ele>117.80000000000001</ele><time>2026-04-19T10:16:45.21Z</time></trkpt><trkpt lat="43.8409356" lon="12.6439194"><ele>117.60000000000001</ele><time>2026-04-19T10:16:47.209Z</time></trkpt><trkpt lat="43.8409657" lon="12.64381"><ele>117.39999999999999</ele><time>2026-04-19T10:16:48.213Z</time></trkpt><trkpt lat="43.8409971" lon="12.6436984"><ele>117.19999999999999</ele><time>2026-04-19T10:16:49.211Z</time></trkpt><trkpt lat="43.8410248" lon="12.6435847"><ele>117.0</ele><time>2026-04-19T10:16:50.21Z</time></trkpt><trkpt lat="43.8410502" lon="12.6434679"><ele>118.6</ele><time>2026-04-19T10:16:51.21Z</time></trkpt><trkpt lat="43.8410805" lon="12.6433493"><ele>120.19999999999999</ele><time>2026-04-19T10:16:52.212Z</time></trkpt><trkpt lat="43.8411124" lon="12.6432282"><ele>121.8</ele><time>2026-04-19T10:16:53.21Z</time></trkpt><trkpt lat="43.8411443" lon="12.6431061"><ele>123.4</ele><time>2026-04-19T10:16:54.21Z</time></trkpt><trkpt lat="43.8411731" lon="12.6429841"><ele>125.0</ele><time>2026-04-19T10:16:55.21Z</time></trkpt><trkpt lat="43.8412027" lon="12.6428624"><ele>124.33333333333333</ele><time>2026-04-19T10:16:56.21Z</time></trkpt><trkpt lat="43.8412341" lon="12.6427449"><ele>123.66666666666666</ele><time>2026-04-19T10:16:57.21Z</time></trkpt><trkpt lat="43.8412644" lon="12.6426312"><ele>123.0</ele><time>2026-04-19T10:16:58.21Z</time></trkpt><trkpt lat="43.8412917" lon="12.6425151"><ele>122.33333333333334</ele><time>2026-04-19T10:16:59.21Z</time></trkpt><trkpt lat="43.8413131" lon="12.6423973"><ele>121.66666666666667</ele><time>2026-04-19T10:17:00.21Z</time></trkpt><trkpt lat="43.8413296" lon="12.6422786"><ele>121.0</ele><time>2026-04-19T10:17:01.212Z</time></trkpt><trkpt lat="43.8413425" lon="12.6421604"><ele>121.0</ele><time>2026-04-19T10:17:02.21Z</time></trkpt><trkpt lat="43.8413539" lon="12.6420464"><ele>120.99999999999999</ele><time>2026-04-19T10:17:03.21Z</time></trkpt><trkpt lat="43.8413669" lon="12.641938"><ele>121.0</ele><time>2026-04-19T10:17:04.209Z</time></trkpt><trkpt lat="43.8413824" lon="12.6418408"><ele>121.0</ele><time>2026-04-19T10:17:05.21Z</time></trkpt><trkpt lat="43.8414056" lon="12.6417468"><ele>120.99999999999999</ele><time>2026-04-19T10:17:06.209Z</time></trkpt><trkpt lat="43.8414392" lon="12.6416627"><ele>121.0</ele><time>2026-04-19T10:17:07.209Z</time></trkpt><trkpt lat="43.8414778" lon="12.6415832"><ele>121.0</ele><time>2026-04-19T10:17:08.21Z</time></trkpt><trkpt lat="43.8415142" lon="12.6415033"><ele>120.8</ele><time>2026-04-19T10:17:09.209Z</time></trkpt><trkpt lat="43.8415401" lon="12.6414217"><ele>120.6</ele><time>2026-04-19T10:17:10.209Z</time></trkpt><trkpt lat="43.8415684" lon="12.6412532"><ele>120.4</ele><time>2026-04-19T10:17:12.209Z</time></trkpt><trkpt lat="43.8415653" lon="12.6410775"><ele>120.2</ele><time>2026-04-19T10:17:14.215Z</time></trkpt><trkpt lat="43.8415384" lon="12.6409367"><ele>120.0</ele><time>2026-04-19T10:17:16.21Z</time></trkpt><trkpt lat="43.8414962" lon="12.640824"><ele>119.6</ele><time>2026-04-19T10:17:18.21Z</time></trkpt><trkpt lat="43.8414263" lon="12.6407086"><ele>119.2</ele><time>2026-04-19T10:17:20.21Z</time></trkpt><trkpt lat="43.8413402" lon="12.6405973"><ele>118.80000000000001</ele><time>2026-04-19T10:17:22.209Z</time></trkpt><trkpt lat="43.8412429" lon="12.6404925"><ele>118.4</ele><time>2026-04-19T10:17:24.209Z</time></trkpt><trkpt lat="43.8411899" lon="12.6404236"><ele>118.0</ele><time>2026-04-19T10:17:25.21Z</time></trkpt><trkpt lat="43.8411334" lon="12.6403474"><ele>117.83333333333334</ele><time>2026-04-19T10:17:26.211Z</time></trkpt><trkpt lat="43.8410775" lon="12.6402739"><ele>117.66666666666667</ele><time>2026-04-19T10:17:27.209Z</time></trkpt><trkpt lat="43.8410257" lon="12.6401977"><ele>117.5</ele><time>2026-04-19T10:17:28.209Z</time></trkpt><trkpt lat="43.8409731" lon="12.6401156"><ele>117.33333333333334</ele><time>2026-04-19T10:17:29.209Z</time></trkpt><trkpt lat="43.8409179" lon="12.64002"><ele>117.16666666666667</ele><time>2026-04-19T10:17:30.21Z</time></trkpt><trkpt lat="43.8408602" lon="12.6399266"><ele>117.0</ele><time>2026-04-19T10:17:31.209Z</time></trkpt><trkpt lat="43.8408001" lon="12.6398333"><ele>117.5</ele><time>2026-04-19T10:17:32.21Z</time></trkpt><trkpt lat="43.8407357" lon="12.6397423"><ele>118.0</ele><time>2026-04-19T10:17:33.21Z</time></trkpt><trkpt lat="43.8406654" lon="12.6396583"><ele>118.5</ele><time>2026-04-19T10:17:34.209Z</time></trkpt><trkpt lat="43.8405971" lon="12.6395776"><ele>119.0</ele><time>2026-04-19T10:17:35.209Z</time></trkpt><trkpt lat="43.8405327" lon="12.6394919"><ele>119.5</ele><time>2026-04-19T10:17:36.209Z</time></trkpt><trkpt lat="43.8404783" lon="12.6394006"><ele>120.0</ele><time>2026-04-19T10:17:37.209Z</time></trkpt><trkpt lat="43.8404356" lon="12.6392927"><ele>120.0</ele><time>2026-04-19T10:17:38.209Z</time></trkpt><trkpt lat="43.8404052" lon="12.6391755"><ele>120.0</ele><time>2026-04-19T10:17:39.211Z</time></trkpt><trkpt lat="43.8403875" lon="12.6390533"><ele>120.0</ele><time>2026-04-19T10:17:40.211Z</time></trkpt><trkpt lat="43.8403826" lon="12.638925"><ele>120.0</ele><time>2026-04-19T10:17:41.211Z</time></trkpt><trkpt lat="43.840384" lon="12.6387996"><ele>120.0</ele><time>2026-04-19T10:17:42.211Z</time></trkpt><trkpt lat="43.8403792" lon="12.6386775"><ele>120.0</ele><time>2026-04-19T10:17:43.211Z</time></trkpt><trkpt lat="43.8403716" lon="12.6385651"><ele>120.0</ele><time>2026-04-19T10:17:44.211Z</time></trkpt><trkpt lat="43.8403554" lon="12.6384459"><ele>120.0</ele><time>2026-04-19T10:17:45.208Z</time></trkpt><trkpt lat="43.8403352" lon="12.6383243"><ele>120.0</ele><time>2026-04-19T10:17:46.209Z</time></trkpt><trkpt lat="43.8403204" lon="12.638212"><ele>120.0</ele><time>2026-04-19T10:17:47.21Z</time></trkpt><trkpt lat="43.8403148" lon="12.6381035"><ele>120.0</ele><time>2026-04-19T10:17:48.21Z</time></trkpt><trkpt lat="43.8403232" lon="12.6379927"><ele>120.0</ele><time>2026-04-19T10:17:49.209Z</time></trkpt><trkpt lat="43.8403561" lon="12.6378812"><ele>120.0</ele><time>2026-04-19T10:17:50.209Z</time></trkpt><trkpt lat="43.8404025" lon="12.6377748"><ele>120.0</ele><time>2026-04-19T10:17:51.21Z</time></trkpt><trkpt lat="43.8404608" lon="12.6376843"><ele>120.0</ele><time>2026-04-19T10:17:52.21Z</time></trkpt><trkpt lat="43.8405231" lon="12.6376123"><ele>120.0</ele><time>2026-04-19T10:17:53.209Z</time></trkpt><trkpt lat="43.8405843" lon="12.6375438"><ele>120.0</ele><time>2026-04-19T10:17:54.208Z</time></trkpt><trkpt lat="43.8406375" lon="12.63746"><ele>120.0</ele><time>2026-04-19T10:17:55.208Z</time></trkpt><trkpt lat="43.840678" lon="12.6373526"><ele>120.0</ele><time>2026-04-19T10:17:56.209Z</time></trkpt><trkpt lat="43.8407031" lon="12.637211"><ele>120.0</ele><time>2026-04-19T10:17:57.208Z</time></trkpt><trkpt lat="43.8407255" lon="12.6370579"><ele>120.0</ele><time>2026-04-19T10:17:58.208Z</time></trkpt><trkpt lat="43.8407605" lon="12.6369048"><ele>120.0</ele><time>2026-04-19T10:17:59.207Z</time></trkpt><trkpt lat="43.8407952" lon="12.6367552"><ele>120.0</ele><time>2026-04-19T10:18:00.208Z</time></trkpt><trkpt lat="43.8407987" lon="12.6366102"><ele>120.0</ele><time>2026-04-19T10:18:01.21Z</time></trkpt><trkpt lat="43.8407762" lon="12.6364826"><ele>120.0</ele><time>2026-04-19T10:18:02.21Z</time></trkpt><trkpt lat="43.8407401" lon="12.6363664"><ele>120.0</ele><time>2026-04-19T10:18:03.208Z</time></trkpt><trkpt lat="43.8406752" lon="12.6362559"><ele>120.0</ele><time>2026-04-19T10:18:04.21Z</time></trkpt><trkpt lat="43.8405874" lon="12.6361484"><ele>120.8</ele><time>2026-04-19T10:18:05.208Z</time></trkpt><trkpt lat="43.8405021" lon="12.6360428"><ele>121.6</ele><time>2026-04-19T10:18:06.209Z</time></trkpt><trkpt lat="43.8404259" lon="12.6359461"><ele>122.4</ele><time>2026-04-19T10:18:07.209Z</time></trkpt><trkpt lat="43.8403579" lon="12.6358488"><ele>123.2</ele><time>2026-04-19T10:18:08.211Z</time></trkpt><trkpt lat="43.8402991" lon="12.6357535"><ele>124.0</ele><time>2026-04-19T10:18:09.209Z</time></trkpt><trkpt lat="43.8402439" lon="12.6356621"><ele>124.0</ele><time>2026-04-19T10:18:10.21Z</time></trkpt><trkpt lat="43.84019" lon="12.6355613"><ele>124.0</ele><time>2026-04-19T10:18:11.21Z</time></trkpt><trkpt lat="43.8401265" lon="12.6354663"><ele>124.0</ele><time>2026-04-19T10:18:12.217Z</time></trkpt><trkpt lat="43.8400576" lon="12.6353766"><ele>124.0</ele><time>2026-04-19T10:18:13.21Z</time></trkpt><trkpt lat="43.8399848" lon="12.6352969"><ele>124.0</ele><time>2026-04-19T10:18:14.21Z</time></trkpt><trkpt lat="43.8399147" lon="12.6352192"><ele>124.2</ele><time>2026-04-19T10:18:15.216Z</time></trkpt><trkpt lat="43.8398439" lon="12.6351412"><ele>124.4</ele><time>2026-04-19T10:18:16.213Z</time></trkpt><trkpt lat="43.8397616" lon="12.6350726"><ele>124.6</ele><time>2026-04-19T10:18:17.208Z</time></trkpt><trkpt lat="43.8396747" lon="12.635008"><ele>124.8</ele><time>2026-04-19T10:18:18.208Z</time></trkpt><trkpt lat="43.8395741" lon="12.6349553"><ele>125.0</ele><time>2026-04-19T10:18:19.21Z</time></trkpt><trkpt lat="43.8394701" lon="12.6348964"><ele>124.99999999999999</ele><time>2026-04-19T10:18:20.209Z</time></trkpt><trkpt lat="43.8393708" lon="12.6348425"><ele>125.0</ele><time>2026-04-19T10:18:21.211Z</time></trkpt><trkpt lat="43.839279" lon="12.6347933"><ele>125.0</ele><time>2026-04-19T10:18:22.21Z</time></trkpt><trkpt lat="43.8392022" lon="12.6347703"><ele>125.0</ele><time>2026-04-19T10:18:23.21Z</time></trkpt><trkpt lat="43.839129" lon="12.6347487"><ele>124.99999999999999</ele><time>2026-04-19T10:18:24.211Z</time></trkpt><trkpt lat="43.8390553" lon="12.6347297"><ele>125.0</ele><time>2026-04-19T10:18:25.208Z</time></trkpt><trkpt lat="43.8389758" lon="12.6347031"><ele>125.0</ele><time>2026-04-19T10:18:26.21Z</time></trkpt><trkpt lat="43.8388931" lon="12.6346718"><ele>125.0</ele><time>2026-04-19T10:18:27.215Z</time></trkpt><trkpt lat="43.8388102" lon="12.6346357"><ele>125.0</ele><time>2026-04-19T10:18:28.208Z</time></trkpt><trkpt lat="43.8387317" lon="12.6345697"><ele>125.0</ele><time>2026-04-19T10:18:29.209Z</time></trkpt><trkpt lat="43.8386521" lon="12.6345068"><ele>125.0</ele><time>2026-04-19T10:18:30.209Z</time></trkpt><trkpt lat="43.8385761" lon="12.634409"><ele>125.0</ele><time>2026-04-19T10:18:31.209Z</time></trkpt><trkpt lat="43.8385069" lon="12.6342713"><ele>125.0</ele><time>2026-04-19T10:18:32.209Z</time></trkpt><trkpt lat="43.8384361" lon="12.6341475"><ele>125.0</ele><time>2026-04-19T10:18:33.209Z</time></trkpt><trkpt lat="43.8383723" lon="12.6340352"><ele>125.0</ele><time>2026-04-19T10:18:34.209Z</time></trkpt><trkpt lat="43.8383103" lon="12.6339408"><ele>125.0</ele><time>2026-04-19T10:18:35.209Z</time></trkpt><trkpt lat="43.838251" lon="12.633866"><ele>124.99999999999999</ele><time>2026-04-19T10:18:36.212Z</time></trkpt><trkpt lat="43.8381982" lon="12.6337971"><ele>125.0</ele><time>2026-04-19T10:18:37.209Z</time></trkpt><trkpt lat="43.8381527" lon="12.6337324"><ele>125.0</ele><time>2026-04-19T10:18:38.209Z</time></trkpt><trkpt lat="43.8380806" lon="12.6336115"><ele>125.0</ele><time>2026-04-19T10:18:40.209Z</time></trkpt><trkpt lat="43.8380271" lon="12.633469"><ele>124.99999999999999</ele><time>2026-04-19T10:18:42.21Z</time></trkpt><trkpt lat="43.8380142" lon="12.6333746"><ele>125.0</ele><time>2026-04-19T10:18:43.209Z</time></trkpt><trkpt lat="43.8379796" lon="12.6332835"><ele>125.16666666666666</ele><time>2026-04-19T10:18:44.209Z</time></trkpt><trkpt lat="43.8379315" lon="12.6331983"><ele>125.33333333333333</ele><time>2026-04-19T10:18:45.213Z</time></trkpt><trkpt lat="43.8378788" lon="12.6331185"><ele>125.5</ele><time>2026-04-19T10:18:46.208Z</time></trkpt><trkpt lat="43.8378143" lon="12.6330487"><ele>125.66666666666666</ele><time>2026-04-19T10:18:47.21Z</time></trkpt><trkpt lat="43.837743" lon="12.6329722"><ele>125.83333333333333</ele><time>2026-04-19T10:18:48.208Z</time></trkpt><trkpt lat="43.8376727" lon="12.6328766"><ele>126.0</ele><time>2026-04-19T10:18:49.209Z</time></trkpt><trkpt lat="43.8376123" lon="12.6327706"><ele>126.0</ele><time>2026-04-19T10:18:50.209Z</time></trkpt><trkpt lat="43.8375536" lon="12.6326671"><ele>126.0</ele><time>2026-04-19T10:18:51.207Z</time></trkpt><trkpt lat="43.8375009" lon="12.6325607"><ele>126.0</ele><time>2026-04-19T10:18:52.207Z</time></trkpt><trkpt lat="43.8374513" lon="12.6324502"><ele>126.0</ele><time>2026-04-19T10:18:53.208Z</time></trkpt><trkpt lat="43.837409" lon="12.6323291"><ele>126.0</ele><time>2026-04-19T10:18:54.21Z</time></trkpt><trkpt lat="43.837359" lon="12.6322157"><ele>126.0</ele><time>2026-04-19T10:18:55.208Z</time></trkpt><trkpt lat="43.8373116" lon="12.6320982"><ele>126.0</ele><time>2026-04-19T10:18:56.209Z</time></trkpt><trkpt lat="43.8372619" lon="12.6319813"><ele>126.0</ele><time>2026-04-19T10:18:57.208Z</time></trkpt><trkpt lat="43.8372157" lon="12.6318607"><ele>126.0</ele><time>2026-04-19T10:18:58.209Z</time></trkpt><trkpt lat="43.8371746" lon="12.6317351"><ele>126.0</ele><time>2026-04-19T10:18:59.208Z</time></trkpt><trkpt lat="43.8371417" lon="12.6316042"><ele>126.6</ele><time>2026-04-19T10:19:00.209Z</time></trkpt><trkpt lat="43.8371163" lon="12.6314735"><ele>127.19999999999999</ele><time>2026-04-19T10:19:01.211Z</time></trkpt><trkpt lat="43.8370993" lon="12.631346"><ele>127.80000000000001</ele><time>2026-04-19T10:19:02.208Z</time></trkpt><trkpt lat="43.8370867" lon="12.6312221"><ele>128.4</ele><time>2026-04-19T10:19:03.208Z</time></trkpt><trkpt lat="43.8370742" lon="12.6310971"><ele>129.0</ele><time>2026-04-19T10:19:04.208Z</time></trkpt><trkpt lat="43.8370551" lon="12.630977"><ele>129.5</ele><time>2026-04-19T10:19:05.208Z</time></trkpt><trkpt lat="43.8370352" lon="12.6308628"><ele>130.0</ele><time>2026-04-19T10:19:06.208Z</time></trkpt><trkpt lat="43.8370129" lon="12.6307561"><ele>130.5</ele><time>2026-04-19T10:19:07.208Z</time></trkpt><trkpt lat="43.8369935" lon="12.6306473"><ele>131.0</ele><time>2026-04-19T10:19:08.208Z</time></trkpt><trkpt lat="43.8369762" lon="12.6305352"><ele>131.5</ele><time>2026-04-19T10:19:09.208Z</time></trkpt><trkpt lat="43.8369637" lon="12.63042"><ele>132.0</ele><time>2026-04-19T10:19:10.208Z</time></trkpt><trkpt lat="43.8369521" lon="12.6303047"><ele>132.0</ele><time>2026-04-19T10:19:11.208Z</time></trkpt><trkpt lat="43.8369405" lon="12.6301882"><ele>132.0</ele><time>2026-04-19T10:19:12.209Z</time></trkpt><trkpt lat="43.836929" lon="12.6300728"><ele>132.0</ele><time>2026-04-19T10:19:13.209Z</time></trkpt><trkpt lat="43.8369218" lon="12.6299515"><ele>132.0</ele><time>2026-04-19T10:19:14.208Z</time></trkpt><trkpt lat="43.8369075" lon="12.6298422"><ele>132.0</ele><time>2026-04-19T10:19:15.208Z</time></trkpt><trkpt lat="43.8368897" lon="12.6297351"><ele>132.0</ele><time>2026-04-19T10:19:16.209Z</time></trkpt><trkpt lat="43.8368778" lon="12.6296298"><ele>132.0</ele><time>2026-04-19T10:19:17.209Z</time></trkpt><trkpt lat="43.8368747" lon="12.6295263"><ele>132.0</ele><time>2026-04-19T10:19:18.212Z</time></trkpt><trkpt lat="43.8368805" lon="12.6294236"><ele>132.0</ele><time>2026-04-19T10:19:19.209Z</time></trkpt><trkpt lat="43.8369017" lon="12.6293249"><ele>132.0</ele><time>2026-04-19T10:19:20.209Z</time></trkpt><trkpt lat="43.8369311" lon="12.6292294"><ele>132.0</ele><time>2026-04-19T10:19:21.208Z</time></trkpt><trkpt lat="43.8369669" lon="12.6291269"><ele>132.0</ele><time>2026-04-19T10:19:22.211Z</time></trkpt><trkpt lat="43.8370008" lon="12.6290185"><ele>132.0</ele><time>2026-04-19T10:19:23.21Z</time></trkpt><trkpt lat="43.837031" lon="12.628908"><ele>132.0</ele><time>2026-04-19T10:19:24.208Z</time></trkpt><trkpt lat="43.8370548" lon="12.6287932"><ele>132.0</ele><time>2026-04-19T10:19:25.208Z</time></trkpt><trkpt lat="43.8370723" lon="12.6286762"><ele>132.0</ele><time>2026-04-19T10:19:26.207Z</time></trkpt><trkpt lat="43.8370844" lon="12.6285563"><ele>132.0</ele><time>2026-04-19T10:19:27.209Z</time></trkpt><trkpt lat="43.8370968" lon="12.6284442"><ele>132.0</ele><time>2026-04-19T10:19:28.208Z</time></trkpt><trkpt lat="43.8371085" lon="12.6283342"><ele>132.33333333333334</ele><time>2026-04-19T10:19:29.208Z</time></trkpt><trkpt lat="43.8371273" lon="12.6282221"><ele>132.66666666666666</ele><time>2026-04-19T10:19:30.208Z</time></trkpt><trkpt lat="43.8371431" lon="12.6281057"><ele>133.0</ele><time>2026-04-19T10:19:31.208Z</time></trkpt><trkpt lat="43.8371595" lon="12.6279954"><ele>133.33333333333331</ele><time>2026-04-19T10:19:32.208Z</time></trkpt><trkpt lat="43.8371772" lon="12.6278995"><ele>133.66666666666666</ele><time>2026-04-19T10:19:33.208Z</time></trkpt><trkpt lat="43.837189" lon="12.6278108"><ele>134.0</ele><time>2026-04-19T10:19:34.208Z</time></trkpt><trkpt lat="43.8371805" lon="12.6276595"><ele>134.33333333333331</ele><time>2026-04-19T10:19:36.209Z</time></trkpt><trkpt lat="43.8370765" lon="12.6275907"><ele>134.66666666666666</ele><time>2026-04-19T10:19:38.208Z</time></trkpt><trkpt lat="43.837003" lon="12.6275658"><ele>135.0</ele><time>2026-04-19T10:19:39.208Z</time></trkpt><trkpt lat="43.8369268" lon="12.6275467"><ele>135.33333333333334</ele><time>2026-04-19T10:19:40.209Z</time></trkpt><trkpt lat="43.8368518" lon="12.6275269"><ele>135.66666666666669</ele><time>2026-04-19T10:19:41.208Z</time></trkpt><trkpt lat="43.8367833" lon="12.6274959"><ele>136.0</ele><time>2026-04-19T10:19:42.208Z</time></trkpt><trkpt lat="43.8367224" lon="12.6274583"><ele>136.14285714285714</ele><time>2026-04-19T10:19:43.208Z</time></trkpt><trkpt lat="43.8366616" lon="12.6274153"><ele>136.28571428571428</ele><time>2026-04-19T10:19:44.208Z</time></trkpt><trkpt lat="43.8366006" lon="12.6273687"><ele>136.42857142857144</ele><time>2026-04-19T10:19:45.208Z</time></trkpt><trkpt lat="43.8365407" lon="12.6273153"><ele>136.57142857142856</ele><time>2026-04-19T10:19:46.208Z</time></trkpt><trkpt lat="43.836482" lon="12.6272576"><ele>136.71428571428572</ele><time>2026-04-19T10:19:47.209Z</time></trkpt><trkpt lat="43.8364261" lon="12.6272001"><ele>136.85714285714286</ele><time>2026-04-19T10:19:48.208Z</time></trkpt><trkpt lat="43.8363707" lon="12.6271376"><ele>137.0</ele><time>2026-04-19T10:19:49.209Z</time></trkpt><trkpt lat="43.8363142" lon="12.6270671"><ele>137.0</ele><time>2026-04-19T10:19:50.208Z</time></trkpt><trkpt lat="43.8362566" lon="12.6269829"><ele>137.0</ele><time>2026-04-19T10:19:51.208Z</time></trkpt><trkpt lat="43.8362006" lon="12.6268881"><ele>137.0</ele><time>2026-04-19T10:19:52.209Z</time></trkpt><trkpt lat="43.8361474" lon="12.6267824"><ele>137.0</ele><time>2026-04-19T10:19:53.208Z</time></trkpt><trkpt lat="43.8361008" lon="12.6266647"><ele>137.0</ele><time>2026-04-19T10:19:54.208Z</time></trkpt><trkpt lat="43.8360577" lon="12.6265424"><ele>137.79999999999998</ele><time>2026-04-19T10:19:55.209Z</time></trkpt><trkpt lat="43.8360206" lon="12.6264185"><ele>138.6</ele><time>2026-04-19T10:19:56.207Z</time></trkpt><trkpt lat="43.8359775" lon="12.6263021"><ele>139.39999999999998</ele><time>2026-04-19T10:19:57.208Z</time></trkpt><trkpt lat="43.8359279" lon="12.6261953"><ele>140.2</ele><time>2026-04-19T10:19:58.209Z</time></trkpt><trkpt lat="43.8358778" lon="12.6260913"><ele>141.0</ele><time>2026-04-19T10:19:59.208Z</time></trkpt><trkpt lat="43.8358155" lon="12.6259996"><ele>141.0</ele><time>2026-04-19T10:20:00.212Z</time></trkpt><trkpt lat="43.8357443" lon="12.6259007"><ele>141.0</ele><time>2026-04-19T10:20:01.389Z</time></trkpt><trkpt lat="43.8356298" lon="12.6256992"><ele>141.0</ele><time>2026-04-19T10:20:03.207Z</time></trkpt><trkpt lat="43.8355789" lon="12.6255904"><ele>141.0</ele><time>2026-04-19T10:20:04.209Z</time></trkpt><trkpt lat="43.835528" lon="12.6254856"><ele>141.0</ele><time>2026-04-19T10:20:05.209Z</time></trkpt><trkpt lat="43.8354813" lon="12.6253816"><ele>141.0</ele><time>2026-04-19T10:20:06.208Z</time></trkpt><trkpt lat="43.8354311" lon="12.6252831"><ele>141.0</ele><time>2026-04-19T10:20:07.21Z</time></trkpt><trkpt lat="43.835385" lon="12.6251813"><ele>141.0</ele><time>2026-04-19T10:20:08.208Z</time></trkpt><trkpt lat="43.8353471" lon="12.6250758"><ele>141.0</ele><time>2026-04-19T10:20:09.208Z</time></trkpt><trkpt lat="43.8353102" lon="12.624972"><ele>141.0</ele><time>2026-04-19T10:20:10.207Z</time></trkpt><trkpt lat="43.8352756" lon="12.624866"><ele>141.33333333333334</ele><time>2026-04-19T10:20:11.207Z</time></trkpt><trkpt lat="43.8352418" lon="12.6247616"><ele>141.66666666666666</ele><time>2026-04-19T10:20:12.209Z</time></trkpt><trkpt lat="43.8352147" lon="12.6246496"><ele>142.0</ele><time>2026-04-19T10:20:13.207Z</time></trkpt><trkpt lat="43.8351997" lon="12.6245326"><ele>142.33333333333331</ele><time>2026-04-19T10:20:14.207Z</time></trkpt><trkpt lat="43.8351908" lon="12.6244102"><ele>142.66666666666666</ele><time>2026-04-19T10:20:15.208Z</time></trkpt><trkpt lat="43.8351811" lon="12.624284"><ele>143.0</ele><time>2026-04-19T10:20:16.206Z</time></trkpt><trkpt lat="43.8351732" lon="12.6241543"><ele>143.83333333333331</ele><time>2026-04-19T10:20:17.207Z</time></trkpt><trkpt lat="43.8351708" lon="12.6240334"><ele>144.66666666666666</ele><time>2026-04-19T10:20:18.208Z</time></trkpt><trkpt lat="43.8351743" lon="12.62392"><ele>145.5</ele><time>2026-04-19T10:20:19.207Z</time></trkpt><trkpt lat="43.8351698" lon="12.623806"><ele>146.33333333333334</ele><time>2026-04-19T10:20:20.208Z</time></trkpt><trkpt lat="43.8351629" lon="12.6236885"><ele>147.16666666666669</ele><time>2026-04-19T10:20:21.21Z</time></trkpt><trkpt lat="43.8351573" lon="12.623567"><ele>148.0</ele><time>2026-04-19T10:20:22.207Z</time></trkpt><trkpt lat="43.8351506" lon="12.6234494"><ele>147.5</ele><time>2026-04-19T10:20:23.207Z</time></trkpt><trkpt lat="43.8351428" lon="12.6233394"><ele>147.0</ele><time>2026-04-19T10:20:24.208Z</time></trkpt><trkpt lat="43.8351314" lon="12.6232232"><ele>146.5</ele><time>2026-04-19T10:20:25.207Z</time></trkpt><trkpt lat="43.8351254" lon="12.6231035"><ele>146.0</ele><time>2026-04-19T10:20:26.209Z</time></trkpt><trkpt lat="43.8351187" lon="12.6229862"><ele>145.5</ele><time>2026-04-19T10:20:27.208Z</time></trkpt><trkpt lat="43.8351133" lon="12.622871"><ele>145.0</ele><time>2026-04-19T10:20:28.208Z</time></trkpt><trkpt lat="43.8351095" lon="12.6227552"><ele>146.0</ele><time>2026-04-19T10:20:29.207Z</time></trkpt><trkpt lat="43.8351019" lon="12.6226398"><ele>147.0</ele><time>2026-04-19T10:20:30.227Z</time></trkpt><trkpt lat="43.8350934" lon="12.6225335"><ele>148.0</ele><time>2026-04-19T10:20:31.208Z</time></trkpt><trkpt lat="43.8350811" lon="12.6224262"><ele>149.0</ele><time>2026-04-19T10:20:32.209Z</time></trkpt><trkpt lat="43.8350648" lon="12.6223166"><ele>150.0</ele><time>2026-04-19T10:20:33.209Z</time></trkpt><trkpt lat="43.8350447" lon="12.6222103"><ele>151.0</ele><time>2026-04-19T10:20:34.208Z</time></trkpt><trkpt lat="43.8350296" lon="12.6221041"><ele>151.0</ele><time>2026-04-19T10:20:35.208Z</time></trkpt><trkpt lat="43.8350321" lon="12.6219993"><ele>151.0</ele><time>2026-04-19T10:20:36.208Z</time></trkpt><trkpt lat="43.8350403" lon="12.6218922"><ele>151.0</ele><time>2026-04-19T10:20:37.208Z</time></trkpt><trkpt lat="43.8350518" lon="12.621788"><ele>151.0</ele><time>2026-04-19T10:20:38.208Z</time></trkpt><trkpt lat="43.8350739" lon="12.6216825"><ele>151.0</ele><time>2026-04-19T10:20:39.208Z</time></trkpt><trkpt lat="43.8350947" lon="12.6215764"><ele>151.0</ele><time>2026-04-19T10:20:40.208Z</time></trkpt><trkpt lat="43.8351122" lon="12.6214695"><ele>151.16666666666669</ele><time>2026-04-19T10:20:41.209Z</time></trkpt><trkpt lat="43.8351266" lon="12.6213615"><ele>151.33333333333334</ele><time>2026-04-19T10:20:42.208Z</time></trkpt><trkpt lat="43.835142" lon="12.6212527"><ele>151.5</ele><time>2026-04-19T10:20:43.209Z</time></trkpt><trkpt lat="43.8351628" lon="12.6211443"><ele>151.66666666666666</ele><time>2026-04-19T10:20:44.209Z</time></trkpt><trkpt lat="43.8351919" lon="12.6210408"><ele>151.83333333333331</ele><time>2026-04-19T10:20:45.207Z</time></trkpt><trkpt lat="43.8352238" lon="12.6209352"><ele>152.0</ele><time>2026-04-19T10:20:46.208Z</time></trkpt><trkpt lat="43.8352575" lon="12.6208224"><ele>152.5</ele><time>2026-04-19T10:20:47.208Z</time></trkpt><trkpt lat="43.8352907" lon="12.6207085"><ele>153.0</ele><time>2026-04-19T10:20:48.207Z</time></trkpt><trkpt lat="43.8353063" lon="12.620596"><ele>153.5</ele><time>2026-04-19T10:20:49.207Z</time></trkpt><trkpt lat="43.8353151" lon="12.620481"><ele>154.0</ele><time>2026-04-19T10:20:50.207Z</time></trkpt><trkpt lat="43.8353202" lon="12.6203649"><ele>154.5</ele><time>2026-04-19T10:20:51.206Z</time></trkpt><trkpt lat="43.835329" lon="12.6202576"><ele>155.0</ele><time>2026-04-19T10:20:52.206Z</time></trkpt><trkpt lat="43.8353238" lon="12.6201554"><ele>155.4</ele><time>2026-04-19T10:20:53.208Z</time></trkpt><trkpt lat="43.8353073" lon="12.6200475"><ele>155.8</ele><time>2026-04-19T10:20:54.208Z</time></trkpt><trkpt lat="43.8352678" lon="12.6199273"><ele>156.2</ele><time>2026-04-19T10:20:55.208Z</time></trkpt><trkpt lat="43.8352156" lon="12.6197987"><ele>156.6</ele><time>2026-04-19T10:20:56.21Z</time></trkpt><trkpt lat="43.8351662" lon="12.6196664"><ele>157.0</ele><time>2026-04-19T10:20:57.208Z</time></trkpt><trkpt lat="43.8351246" lon="12.6195335"><ele>161.0</ele><time>2026-04-19T10:20:58.208Z</time></trkpt><trkpt lat="43.8350883" lon="12.6193983"><ele>165.0</ele><time>2026-04-19T10:20:59.208Z</time></trkpt><trkpt lat="43.8350599" lon="12.6192629"><ele>169.0</ele><time>2026-04-19T10:21:00.209Z</time></trkpt><trkpt lat="43.8350329" lon="12.6191261"><ele>173.0</ele><time>2026-04-19T10:21:01.209Z</time></trkpt><trkpt lat="43.8350244" lon="12.6189828"><ele>177.0</ele><time>2026-04-19T10:21:02.222Z</time></trkpt><trkpt lat="43.8350233" lon="12.6188257"><ele>179.25</ele><time>2026-04-19T10:21:03.206Z</time></trkpt><trkpt lat="43.835032" lon="12.6186485"><ele>181.5</ele><time>2026-04-19T10:21:04.209Z</time></trkpt><trkpt lat="43.8350522" lon="12.6184622"><ele>183.75</ele><time>2026-04-19T10:21:05.21Z</time></trkpt><trkpt lat="43.8350848" lon="12.6182625"><ele>186.0</ele><time>2026-04-19T10:21:06.209Z</time></trkpt><trkpt lat="43.8351069" lon="12.6180504"><ele>186.0</ele><time>2026-04-19T10:21:07.208Z</time></trkpt><trkpt lat="43.8351286" lon="12.6178494"><ele>186.0</ele><time>2026-04-19T10:21:08.211Z</time></trkpt><trkpt lat="43.835154" lon="12.6176782"><ele>186.0</ele><time>2026-04-19T10:21:09.207Z</time></trkpt><trkpt lat="43.8351771" lon="12.6175291"><ele>186.0</ele><time>2026-04-19T10:21:10.209Z</time></trkpt><trkpt lat="43.8351974" lon="12.6173913"><ele>186.5</ele><time>2026-04-19T10:21:11.209Z</time></trkpt><trkpt lat="43.8352227" lon="12.617263"><ele>187.0</ele><time>2026-04-19T10:21:12.208Z</time></trkpt><trkpt lat="43.8352285" lon="12.6171509"><ele>187.5</ele><time>2026-04-19T10:21:13.212Z</time></trkpt><trkpt lat="43.8352249" lon="12.6170473"><ele>188.0</ele><time>2026-04-19T10:21:14.211Z</time></trkpt><trkpt lat="43.8351979" lon="12.6169584"><ele>188.5</ele><time>2026-04-19T10:21:15.207Z</time></trkpt><trkpt lat="43.8351485" lon="12.6168984"><ele>189.0</ele><time>2026-04-19T10:21:16.208Z</time></trkpt><trkpt lat="43.8350813" lon="12.6168717"><ele>190.5</ele><time>2026-04-19T10:21:17.206Z</time></trkpt><trkpt lat="43.8349853" lon="12.6169085"><ele>192.0</ele><time>2026-04-19T10:21:18.207Z</time></trkpt><trkpt lat="43.834871" lon="12.6169997"><ele>193.5</ele><time>2026-04-19T10:21:19.207Z</time></trkpt><trkpt lat="43.8347451" lon="12.6170771"><ele>195.0</ele><time>2026-04-19T10:21:20.207Z</time></trkpt><trkpt lat="43.8346179" lon="12.6171261"><ele>195.0</ele><time>2026-04-19T10:21:21.206Z</time></trkpt><trkpt lat="43.8345051" lon="12.6171392"><ele>195.0</ele><time>2026-04-19T10:21:22.211Z</time></trkpt><trkpt lat="43.8344213" lon="12.6171627"><ele>195.0</ele><time>2026-04-19T10:21:23.21Z</time></trkpt><trkpt lat="43.8343588" lon="12.6171735"><ele>195.0</ele><time>2026-04-19T10:21:24.206Z</time></trkpt><trkpt lat="43.8343027" lon="12.6170977"><ele>195.0</ele><time>2026-04-19T10:21:26.207Z</time></trkpt><trkpt lat="43.8343363" lon="12.6169531"><ele>196.16666666666666</ele><time>2026-04-19T10:21:28.206Z</time></trkpt><trkpt lat="43.8343563" lon="12.6168271"><ele>197.33333333333331</ele><time>2026-04-19T10:21:30.207Z</time></trkpt><trkpt lat="43.8342973" lon="12.6167902"><ele>198.5</ele><time>2026-04-19T10:21:32.206Z</time></trkpt><trkpt lat="43.8341954" lon="12.6168959"><ele>199.66666666666666</ele><time>2026-04-19T10:21:34.206Z</time></trkpt><trkpt lat="43.834133" lon="12.6169135"><ele>200.83333333333331</ele><time>2026-04-19T10:21:35.207Z</time></trkpt><trkpt lat="43.8340454" lon="12.6169376"><ele>202.0</ele><time>2026-04-19T10:21:36.207Z</time></trkpt><trkpt lat="43.8339503" lon="12.616953"><ele>205.16666666666666</ele><time>2026-04-19T10:21:37.208Z</time></trkpt><trkpt lat="43.833875" lon="12.6169306"><ele>208.33333333333331</ele><time>2026-04-19T10:21:38.207Z</time></trkpt><trkpt lat="43.8338232" lon="12.6168741"><ele>211.5</ele><time>2026-04-19T10:21:39.206Z</time></trkpt><trkpt lat="43.8337975" lon="12.6167797"><ele>214.66666666666669</ele><time>2026-04-19T10:21:40.206Z</time></trkpt><trkpt lat="43.8337975" lon="12.6166475"><ele>217.83333333333334</ele><time>2026-04-19T10:21:41.207Z</time></trkpt><trkpt lat="43.8338015" lon="12.6165065"><ele>221.0</ele><time>2026-04-19T10:21:42.207Z</time></trkpt><trkpt lat="43.8338039" lon="12.6163571"><ele>221.0</ele><time>2026-04-19T10:21:43.207Z</time></trkpt><trkpt lat="43.8338025" lon="12.6162048"><ele>221.00000000000003</ele><time>2026-04-19T10:21:44.207Z</time></trkpt><trkpt lat="43.8338008" lon="12.6160519"><ele>221.00000000000003</ele><time>2026-04-19T10:21:45.207Z</time></trkpt><trkpt lat="43.8337967" lon="12.615898"><ele>221.0</ele><time>2026-04-19T10:21:46.208Z</time></trkpt><trkpt lat="43.8337915" lon="12.6157372"><ele>221.0</ele><time>2026-04-19T10:21:47.206Z</time></trkpt><trkpt lat="43.8337873" lon="12.615559"><ele>223.5</ele><time>2026-04-19T10:21:48.206Z</time></trkpt><trkpt lat="43.8337849" lon="12.6153816"><ele>226.0</ele><time>2026-04-19T10:21:49.207Z</time></trkpt><trkpt lat="43.8337808" lon="12.6152117"><ele>228.5</ele><time>2026-04-19T10:21:50.206Z</time></trkpt><trkpt lat="43.8337802" lon="12.615061"><ele>231.0</ele><time>2026-04-19T10:21:51.207Z</time></trkpt><trkpt lat="43.8337815" lon="12.6149338"><ele>232.33333333333334</ele><time>2026-04-19T10:21:52.207Z</time></trkpt><trkpt lat="43.8337805" lon="12.614828"><ele>233.66666666666669</ele><time>2026-04-19T10:21:53.208Z</time></trkpt><trkpt lat="43.8337778" lon="12.6147293"><ele>235.0</ele><time>2026-04-19T10:21:54.207Z</time></trkpt><trkpt lat="43.8337732" lon="12.6146317"><ele>236.33333333333334</ele><time>2026-04-19T10:21:55.209Z</time></trkpt><trkpt lat="43.8337717" lon="12.6145386"><ele>237.66666666666669</ele><time>2026-04-19T10:21:56.215Z</time></trkpt><trkpt lat="43.8337637" lon="12.6143642"><ele>239.0</ele><time>2026-04-19T10:21:58.207Z</time></trkpt><trkpt lat="43.8337441" lon="12.6142705"><ele>239.33333333333334</ele><time>2026-04-19T10:21:59.207Z</time></trkpt><trkpt lat="43.8337111" lon="12.6141741"><ele>239.66666666666669</ele><time>2026-04-19T10:22:00.208Z</time></trkpt><trkpt lat="43.8336631" lon="12.6140901"><ele>240.0</ele><time>2026-04-19T10:22:01.207Z</time></trkpt><trkpt lat="43.8336044" lon="12.6140247"><ele>240.33333333333331</ele><time>2026-04-19T10:22:02.207Z</time></trkpt><trkpt lat="43.833535" lon="12.613984"><ele>240.66666666666666</ele><time>2026-04-19T10:22:03.206Z</time></trkpt><trkpt lat="43.8334524" lon="12.6139747"><ele>241.0</ele><time>2026-04-19T10:22:04.206Z</time></trkpt><trkpt lat="43.8333594" lon="12.613986"><ele>244.66666666666666</ele><time>2026-04-19T10:22:05.207Z</time></trkpt><trkpt lat="43.8332716" lon="12.6139916"><ele>248.33333333333331</ele><time>2026-04-19T10:22:06.207Z</time></trkpt><trkpt lat="43.8331814" lon="12.6139932"><ele>252.0</ele><time>2026-04-19T10:22:07.207Z</time></trkpt><trkpt lat="43.8330955" lon="12.6139884"><ele>255.66666666666669</ele><time>2026-04-19T10:22:08.207Z</time></trkpt><trkpt lat="43.8330145" lon="12.6139707"><ele>259.33333333333337</ele><time>2026-04-19T10:22:09.207Z</time></trkpt><trkpt lat="43.8329408" lon="12.6139449"><ele>263.0</ele><time>2026-04-19T10:22:10.209Z</time></trkpt><trkpt lat="43.8328782" lon="12.6139037"><ele>263.0</ele><time>2026-04-19T10:22:11.207Z</time></trkpt><trkpt lat="43.832828" lon="12.613829"><ele>263.0</ele><time>2026-04-19T10:22:12.207Z</time></trkpt><trkpt lat="43.832801" lon="12.6137424"><ele>263.0</ele><time>2026-04-19T10:22:13.207Z</time></trkpt><trkpt lat="43.832803" lon="12.61365"><ele>263.0</ele><time>2026-04-19T10:22:14.21Z</time></trkpt><trkpt lat="43.8328304" lon="12.6135658"><ele>263.0</ele><time>2026-04-19T10:22:15.207Z</time></trkpt><trkpt lat="43.8328957" lon="12.6135109"><ele>263.0</ele><time>2026-04-19T10:22:16.206Z</time></trkpt><trkpt lat="43.8329739" lon="12.6134778"><ele>263.0</ele><time>2026-04-19T10:22:17.208Z</time></trkpt><trkpt lat="43.8330512" lon="12.6134458"><ele>266.1666666666667</ele><time>2026-04-19T10:22:18.208Z</time></trkpt><trkpt lat="43.8331168" lon="12.6133975"><ele>269.33333333333337</ele><time>2026-04-19T10:22:19.21Z</time></trkpt><trkpt lat="43.833175" lon="12.6133328"><ele>272.5</ele><time>2026-04-19T10:22:20.21Z</time></trkpt><trkpt lat="43.8332268" lon="12.6132544"><ele>275.6666666666667</ele><time>2026-04-19T10:22:21.208Z</time></trkpt><trkpt lat="43.8332718" lon="12.613169"><ele>278.8333333333333</ele><time>2026-04-19T10:22:22.208Z</time></trkpt><trkpt lat="43.833307" lon="12.6130623"><ele>282.0</ele><time>2026-04-19T10:22:23.208Z</time></trkpt><trkpt lat="43.8333334" lon="12.6129388"><ele>284.6666666666667</ele><time>2026-04-19T10:22:24.208Z</time></trkpt><trkpt lat="43.8333565" lon="12.6128132"><ele>287.3333333333333</ele><time>2026-04-19T10:22:25.208Z</time></trkpt><trkpt lat="43.8333788" lon="12.6126958"><ele>290.0</ele><time>2026-04-19T10:22:26.209Z</time></trkpt><trkpt lat="43.8333998" lon="12.6125785"><ele>292.66666666666663</ele><time>2026-04-19T10:22:27.208Z</time></trkpt><trkpt lat="43.8334165" lon="12.6124574"><ele>295.3333333333333</ele><time>2026-04-19T10:22:28.207Z</time></trkpt><trkpt lat="43.8334357" lon="12.612343"><ele>298.0</ele><time>2026-04-19T10:22:29.208Z</time></trkpt><trkpt lat="43.8334569" lon="12.6122326"><ele>298.0</ele><time>2026-04-19T10:22:30.208Z</time></trkpt><trkpt lat="43.8334793" lon="12.6121318"><ele>298.0</ele><time>2026-04-19T10:22:31.208Z</time></trkpt><trkpt lat="43.8334973" lon="12.6119763"><ele>298.0</ele><time>2026-04-19T10:22:33.206Z</time></trkpt><trkpt lat="43.8334501" lon="12.6118861"><ele>298.0</ele><time>2026-04-19T10:22:35.204Z</time></trkpt><trkpt lat="43.8333532" lon="12.6119739"><ele>298.0</ele><time>2026-04-19T10:22:37.205Z</time></trkpt><trkpt lat="43.8332969" lon="12.6120828"><ele>298.0</ele><time>2026-04-19T10:22:38.206Z</time></trkpt><trkpt lat="43.8332265" lon="12.6122246"><ele>298.0</ele><time>2026-04-19T10:22:39.206Z</time></trkpt><trkpt lat="43.8331434" lon="12.6123627"><ele>298.0</ele><time>2026-04-19T10:22:40.207Z</time></trkpt><trkpt lat="43.8330564" lon="12.6124657"><ele>298.0</ele><time>2026-04-19T10:22:41.205Z</time></trkpt><trkpt lat="43.832983" lon="12.6125231"><ele>298.0</ele><time>2026-04-19T10:22:42.205Z</time></trkpt><trkpt lat="43.8329202" lon="12.6125484"><ele>298.0</ele><time>2026-04-19T10:22:43.205Z</time></trkpt><trkpt lat="43.8328378" lon="12.6124906"><ele>298.0</ele><time>2026-04-19T10:22:45.205Z</time></trkpt><trkpt lat="43.8328542" lon="12.6123305"><ele>298.0</ele><time>2026-04-19T10:22:47.206Z</time></trkpt><trkpt lat="43.8328857" lon="12.6122315"><ele>298.0</ele><time>2026-04-19T10:22:48.206Z</time></trkpt><trkpt lat="43.832926" lon="12.6121093"><ele>298.0</ele><time>2026-04-19T10:22:49.206Z</time></trkpt><trkpt lat="43.8329799" lon="12.6119591"><ele>300.0</ele><time>2026-04-19T10:22:50.206Z</time></trkpt><trkpt lat="43.8330275" lon="12.6118218"><ele>302.0</ele><time>2026-04-19T10:22:51.209Z</time></trkpt><trkpt lat="43.8330613" lon="12.6117069"><ele>304.0</ele><time>2026-04-19T10:22:52.209Z</time></trkpt><trkpt lat="43.8330805" lon="12.6116132"><ele>306.0</ele><time>2026-04-19T10:22:53.206Z</time></trkpt><trkpt lat="43.8330494" lon="12.6114716"><ele>308.0</ele><time>2026-04-19T10:22:55.209Z</time></trkpt><trkpt lat="43.8329216" lon="12.611454"><ele>308.0</ele><time>2026-04-19T10:22:57.209Z</time></trkpt><trkpt lat="43.832817" lon="12.6114918"><ele>308.0</ele><time>2026-04-19T10:22:58.209Z</time></trkpt><trkpt lat="43.8326997" lon="12.611546"><ele>308.0</ele><time>2026-04-19T10:22:59.215Z</time></trkpt><trkpt lat="43.8325886" lon="12.611589"><ele>308.0</ele><time>2026-04-19T10:23:00.216Z</time></trkpt><trkpt lat="43.8324725" lon="12.6116034"><ele>313.25</ele><time>2026-04-19T10:23:01.206Z</time></trkpt><trkpt lat="43.832349" lon="12.6115865"><ele>318.5</ele><time>2026-04-19T10:23:02.205Z</time></trkpt><trkpt lat="43.8322338" lon="12.6115524"><ele>323.75</ele><time>2026-04-19T10:23:03.206Z</time></trkpt><trkpt lat="43.8321297" lon="12.6115116"><ele>329.0</ele><time>2026-04-19T10:23:04.206Z</time></trkpt><trkpt lat="43.8320308" lon="12.6114652"><ele>329.0</ele><time>2026-04-19T10:23:05.206Z</time></trkpt><trkpt lat="43.8319394" lon="12.6114126"><ele>329.0</ele><time>2026-04-19T10:23:06.206Z</time></trkpt><trkpt lat="43.8318525" lon="12.6113546"><ele>329.0</ele><time>2026-04-19T10:23:07.206Z</time></trkpt><trkpt lat="43.8317734" lon="12.6112925"><ele>329.0</ele><time>2026-04-19T10:23:08.206Z</time></trkpt><trkpt lat="43.8316991" lon="12.6112261"><ele>329.0</ele><time>2026-04-19T10:23:09.207Z</time></trkpt><trkpt lat="43.8316466" lon="12.6111567"><ele>329.0</ele><time>2026-04-19T10:23:10.205Z</time></trkpt><trkpt lat="43.8315922" lon="12.6110928"><ele>333.0</ele><time>2026-04-19T10:23:11.207Z</time></trkpt><trkpt lat="43.8315382" lon="12.6110323"><ele>337.0</ele><time>2026-04-19T10:23:12.207Z</time></trkpt><trkpt lat="43.8314873" lon="12.6109771"><ele>341.0</ele><time>2026-04-19T10:23:13.207Z</time></trkpt><trkpt lat="43.8314108" lon="12.6108557"><ele>345.0</ele><time>2026-04-19T10:23:15.205Z</time></trkpt><trkpt lat="43.8313683" lon="12.6107132"><ele>349.0</ele><time>2026-04-19T10:23:17.205Z</time></trkpt><trkpt lat="43.8313864" lon="12.6105512"><ele>349.0</ele><time>2026-04-19T10:23:19.206Z</time></trkpt><trkpt lat="43.8313966" lon="12.6103963"><ele>349.0</ele><time>2026-04-19T10:23:21.206Z</time></trkpt><trkpt lat="43.8313668" lon="12.6102996"><ele>349.0</ele><time>2026-04-19T10:23:24.206Z</time></trkpt><trkpt lat="43.8312908" lon="12.6103005"><ele>349.0</ele><time>2026-04-19T10:23:26.207Z</time></trkpt><trkpt lat="43.83109" lon="12.6104238"><ele>349.0</ele><time>2026-04-19T10:23:29.207Z</time></trkpt><trkpt lat="43.8309752" lon="12.6104914"><ele>349.0</ele><time>2026-04-19T10:23:30.209Z</time></trkpt><trkpt lat="43.8308563" lon="12.6105571"><ele>349.0</ele><time>2026-04-19T10:23:31.205Z</time></trkpt><trkpt lat="43.8307328" lon="12.6106217"><ele>349.0</ele><time>2026-04-19T10:23:32.205Z</time></trkpt><trkpt lat="43.8305945" lon="12.6106892"><ele>349.25</ele><time>2026-04-19T10:23:33.211Z</time></trkpt><trkpt lat="43.8304527" lon="12.6107568"><ele>349.5</ele><time>2026-04-19T10:23:34.214Z</time></trkpt><trkpt lat="43.8303146" lon="12.6108266"><ele>349.75</ele><time>2026-04-19T10:23:35.205Z</time></trkpt><trkpt lat="43.8301728" lon="12.6108987"><ele>350.0</ele><time>2026-04-19T10:23:36.205Z</time></trkpt><trkpt lat="43.8300307" lon="12.6109665"><ele>349.5</ele><time>2026-04-19T10:23:37.205Z</time></trkpt><trkpt lat="43.829897" lon="12.6110272"><ele>349.0</ele><time>2026-04-19T10:23:38.206Z</time></trkpt><trkpt lat="43.8297726" lon="12.6110839"><ele>348.5</ele><time>2026-04-19T10:23:39.206Z</time></trkpt><trkpt lat="43.8296532" lon="12.6111385"><ele>348.0</ele><time>2026-04-19T10:23:40.205Z</time></trkpt><trkpt lat="43.8295467" lon="12.6111859"><ele>348.2</ele><time>2026-04-19T10:23:41.208Z</time></trkpt><trkpt lat="43.8294645" lon="12.6112274"><ele>348.4</ele><time>2026-04-19T10:23:42.206Z</time></trkpt><trkpt lat="43.829397" lon="12.611274"><ele>348.59999999999997</ele><time>2026-04-19T10:23:43.204Z</time></trkpt><trkpt lat="43.8293383" lon="12.611346"><ele>348.79999999999995</ele><time>2026-04-19T10:23:44.207Z</time></trkpt><trkpt lat="43.8292875" lon="12.6114558"><ele>349.0</ele><time>2026-04-19T10:23:45.205Z</time></trkpt><trkpt lat="43.829236" lon="12.6116112"><ele>349.0</ele><time>2026-04-19T10:23:46.206Z</time></trkpt><trkpt lat="43.8291771" lon="12.6117808"><ele>349.0</ele><time>2026-04-19T10:23:47.207Z</time></trkpt><trkpt lat="43.8291095" lon="12.6119332"><ele>349.0</ele><time>2026-04-19T10:23:48.208Z</time></trkpt><trkpt lat="43.8290303" lon="12.6120633"><ele>349.0</ele><time>2026-04-19T10:23:49.216Z</time></trkpt><trkpt lat="43.828927" lon="12.6121728"><ele>350.0</ele><time>2026-04-19T10:23:50.208Z</time></trkpt><trkpt lat="43.8287922" lon="12.6122743"><ele>351.0</ele><time>2026-04-19T10:23:51.209Z</time></trkpt><trkpt lat="43.8286324" lon="12.6123794"><ele>352.0</ele><time>2026-04-19T10:23:52.209Z</time></trkpt><trkpt lat="43.8284586" lon="12.6124916"><ele>352.0</ele><time>2026-04-19T10:23:53.21Z</time></trkpt><trkpt lat="43.8282842" lon="12.6126068"><ele>352.0</ele><time>2026-04-19T10:23:54.209Z</time></trkpt><trkpt lat="43.8281226" lon="12.6127108"><ele>352.0</ele><time>2026-04-19T10:23:55.211Z</time></trkpt><trkpt lat="43.8279768" lon="12.6128051"><ele>352.0</ele><time>2026-04-19T10:23:56.208Z</time></trkpt><trkpt lat="43.8278448" lon="12.612891"><ele>352.0</ele><time>2026-04-19T10:23:57.205Z</time></trkpt><trkpt lat="43.8277184" lon="12.6129787"><ele>352.0</ele><time>2026-04-19T10:23:58.218Z</time></trkpt><trkpt lat="43.827602" lon="12.6130801"><ele>352.0</ele><time>2026-04-19T10:23:59.205Z</time></trkpt><trkpt lat="43.827389" lon="12.6133518"><ele>352.0</ele><time>2026-04-19T10:24:01.205Z</time></trkpt><trkpt lat="43.827288" lon="12.6135064"><ele>352.0</ele><time>2026-04-19T10:24:02.206Z</time></trkpt><trkpt lat="43.8271832" lon="12.6136614"><ele>352.0</ele><time>2026-04-19T10:24:03.205Z</time></trkpt><trkpt lat="43.8270782" lon="12.6138125"><ele>351.66666666666663</ele><time>2026-04-19T10:24:04.205Z</time></trkpt><trkpt lat="43.8269732" lon="12.6139668"><ele>351.3333333333333</ele><time>2026-04-19T10:24:05.205Z</time></trkpt><trkpt lat="43.8268711" lon="12.6141224"><ele>351.0</ele><time>2026-04-19T10:24:06.205Z</time></trkpt><trkpt lat="43.8267742" lon="12.6142863"><ele>351.0</ele><time>2026-04-19T10:24:07.205Z</time></trkpt><trkpt lat="43.8266881" lon="12.6144647"><ele>351.0</ele><time>2026-04-19T10:24:08.207Z</time></trkpt><trkpt lat="43.8266109" lon="12.6146574"><ele>351.0</ele><time>2026-04-19T10:24:09.205Z</time></trkpt><trkpt lat="43.8265444" lon="12.6148844"><ele>349.0</ele><time>2026-04-19T10:24:10.208Z</time></trkpt><trkpt lat="43.8264752" lon="12.6151532"><ele>347.0</ele><time>2026-04-19T10:24:11.209Z</time></trkpt><trkpt lat="43.8263983" lon="12.6154703"><ele>345.0</ele><time>2026-04-19T10:24:12.206Z</time></trkpt><trkpt lat="43.8263169" lon="12.6157996"><ele>343.3333333333333</ele><time>2026-04-19T10:24:13.207Z</time></trkpt><trkpt lat="43.8262461" lon="12.6161001"><ele>341.66666666666663</ele><time>2026-04-19T10:24:14.208Z</time></trkpt><trkpt lat="43.8261833" lon="12.6163691"><ele>340.0</ele><time>2026-04-19T10:24:15.206Z</time></trkpt><trkpt lat="43.8261269" lon="12.6166075"><ele>339.66666666666663</ele><time>2026-04-19T10:24:16.208Z</time></trkpt><trkpt lat="43.826077" lon="12.6168147"><ele>339.3333333333333</ele><time>2026-04-19T10:24:17.205Z</time></trkpt><trkpt lat="43.8260318" lon="12.6169982"><ele>339.0</ele><time>2026-04-19T10:24:18.207Z</time></trkpt><trkpt lat="43.8259733" lon="12.61756"><ele>338.6666666666667</ele><time>2026-04-19T10:24:21.206Z</time></trkpt><trkpt lat="43.8259807" lon="12.6177967"><ele>338.33333333333337</ele><time>2026-04-19T10:24:22.205Z</time></trkpt><trkpt lat="43.8259839" lon="12.618037"><ele>338.0</ele><time>2026-04-19T10:24:23.21Z</time></trkpt><trkpt lat="43.8259893" lon="12.6182614"><ele>336.75</ele><time>2026-04-19T10:24:24.207Z</time></trkpt><trkpt lat="43.825997" lon="12.61846"><ele>335.5</ele><time>2026-04-19T10:24:25.206Z</time></trkpt><trkpt lat="43.8260027" lon="12.6186398"><ele>334.25</ele><time>2026-04-19T10:24:26.206Z</time></trkpt><trkpt lat="43.8260023" lon="12.6188059"><ele>333.0</ele><time>2026-04-19T10:24:27.206Z</time></trkpt><trkpt lat="43.825993" lon="12.618968"><ele>332.25</ele><time>2026-04-19T10:24:28.211Z</time></trkpt><trkpt lat="43.8259724" lon="12.6191299"><ele>331.5</ele><time>2026-04-19T10:24:29.207Z</time></trkpt><trkpt lat="43.8259377" lon="12.6192915"><ele>330.75</ele><time>2026-04-19T10:24:30.212Z</time></trkpt><trkpt lat="43.8258949" lon="12.6194553"><ele>330.0</ele><time>2026-04-19T10:24:31.206Z</time></trkpt><trkpt lat="43.8258442" lon="12.6196234"><ele>330.0</ele><time>2026-04-19T10:24:32.208Z</time></trkpt><trkpt lat="43.8257787" lon="12.6197906"><ele>330.0</ele><time>2026-04-19T10:24:33.206Z</time></trkpt><trkpt lat="43.8256933" lon="12.6199529"><ele>330.0</ele><time>2026-04-19T10:24:34.206Z</time></trkpt><trkpt lat="43.8255898" lon="12.6201058"><ele>330.0</ele><time>2026-04-19T10:24:35.206Z</time></trkpt><trkpt lat="43.8254671" lon="12.6202464"><ele>330.3333333333333</ele><time>2026-04-19T10:24:36.207Z</time></trkpt><trkpt lat="43.8253299" lon="12.6203904"><ele>330.66666666666663</ele><time>2026-04-19T10:24:37.205Z</time></trkpt><trkpt lat="43.8251765" lon="12.6205489"><ele>331.0</ele><time>2026-04-19T10:24:38.205Z</time></trkpt><trkpt lat="43.8250066" lon="12.6207262"><ele>333.5</ele><time>2026-04-19T10:24:39.207Z</time></trkpt><trkpt lat="43.824824" lon="12.6209194"><ele>336.0</ele><time>2026-04-19T10:24:40.209Z</time></trkpt><trkpt lat="43.8246343" lon="12.6211231"><ele>337.5</ele><time>2026-04-19T10:24:41.211Z</time></trkpt><trkpt lat="43.8244471" lon="12.6213192"><ele>339.0</ele><time>2026-04-19T10:24:42.205Z</time></trkpt><trkpt lat="43.8242695" lon="12.6214912"><ele>339.0</ele><time>2026-04-19T10:24:43.206Z</time></trkpt><trkpt lat="43.824103" lon="12.6216344"><ele>339.0</ele><time>2026-04-19T10:24:44.205Z</time></trkpt><trkpt lat="43.8239417" lon="12.621768"><ele>339.0</ele><time>2026-04-19T10:24:45.206Z</time></trkpt><trkpt lat="43.8237696" lon="12.6219101"><ele>338.6666666666667</ele><time>2026-04-19T10:24:46.205Z</time></trkpt><trkpt lat="43.8235907" lon="12.6220602"><ele>338.33333333333337</ele><time>2026-04-19T10:24:47.205Z</time></trkpt><trkpt lat="43.8234203" lon="12.6222017"><ele>338.0</ele><time>2026-04-19T10:24:48.206Z</time></trkpt><trkpt lat="43.8232593" lon="12.6223352"><ele>338.0</ele><time>2026-04-19T10:24:49.205Z</time></trkpt><trkpt lat="43.8231128" lon="12.6224629"><ele>338.0</ele><time>2026-04-19T10:24:50.232Z</time></trkpt><trkpt lat="43.822981" lon="12.6225771"><ele>338.0</ele><time>2026-04-19T10:24:51.206Z</time></trkpt><trkpt lat="43.8228554" lon="12.6226816"><ele>338.0</ele><time>2026-04-19T10:24:52.206Z</time></trkpt><trkpt lat="43.8227388" lon="12.6227762"><ele>338.0</ele><time>2026-04-19T10:24:53.205Z</time></trkpt><trkpt lat="43.8226244" lon="12.6228558"><ele>338.0</ele><time>2026-04-19T10:24:54.204Z</time></trkpt><trkpt lat="43.822502" lon="12.6229037"><ele>338.0</ele><time>2026-04-19T10:24:55.204Z</time></trkpt><trkpt lat="43.8223664" lon="12.622921"><ele>339.0</ele><time>2026-04-19T10:24:56.206Z</time></trkpt><trkpt lat="43.8222066" lon="12.6229146"><ele>340.0</ele><time>2026-04-19T10:24:57.204Z</time></trkpt><trkpt lat="43.8220281" lon="12.6228943"><ele>341.0</ele><time>2026-04-19T10:24:58.204Z</time></trkpt><trkpt lat="43.8218602" lon="12.6228714"><ele>340.5</ele><time>2026-04-19T10:24:59.205Z</time></trkpt><trkpt lat="43.8217115" lon="12.6228467"><ele>340.0</ele><time>2026-04-19T10:25:00.204Z</time></trkpt><trkpt lat="43.82158" lon="12.6228291"><ele>339.5</ele><time>2026-04-19T10:25:01.204Z</time></trkpt><trkpt lat="43.8214594" lon="12.622822"><ele>339.0</ele><time>2026-04-19T10:25:02.301Z</time></trkpt><trkpt lat="43.8213609" lon="12.6228221"><ele>339.0</ele><time>2026-04-19T10:25:03.205Z</time></trkpt><trkpt lat="43.821267" lon="12.6228285"><ele>339.0</ele><time>2026-04-19T10:25:04.204Z</time></trkpt><trkpt lat="43.8211926" lon="12.6228404"><ele>339.0</ele><time>2026-04-19T10:25:05.203Z</time></trkpt><trkpt lat="43.8210901" lon="12.6229042"><ele>339.0</ele><time>2026-04-19T10:25:07.203Z</time></trkpt><trkpt lat="43.8210124" lon="12.6230247"><ele>339.0</ele><time>2026-04-19T10:25:09.207Z</time></trkpt><trkpt lat="43.8209791" lon="12.6231061"><ele>339.0</ele><time>2026-04-19T10:25:10.204Z</time></trkpt><trkpt lat="43.8209709" lon="12.6232112"><ele>339.0</ele><time>2026-04-19T10:25:11.205Z</time></trkpt><trkpt lat="43.8209824" lon="12.623336"><ele>339.0</ele><time>2026-04-19T10:25:12.206Z</time></trkpt><trkpt lat="43.821007" lon="12.6234784"><ele>339.0</ele><time>2026-04-19T10:25:13.206Z</time></trkpt><trkpt lat="43.8210364" lon="12.6236388"><ele>339.0</ele><time>2026-04-19T10:25:14.206Z</time></trkpt><trkpt lat="43.8210634" lon="12.6238113"><ele>338.75</ele><time>2026-04-19T10:25:15.205Z</time></trkpt><trkpt lat="43.8210739" lon="12.6239952"><ele>338.5</ele><time>2026-04-19T10:25:16.204Z</time></trkpt><trkpt lat="43.821067" lon="12.6241855"><ele>338.25</ele><time>2026-04-19T10:25:17.204Z</time></trkpt><trkpt lat="43.8210501" lon="12.6243674"><ele>338.0</ele><time>2026-04-19T10:25:18.206Z</time></trkpt><trkpt lat="43.8210352" lon="12.6245337"><ele>338.0</ele><time>2026-04-19T10:25:19.205Z</time></trkpt><trkpt lat="43.8210222" lon="12.6246913"><ele>338.0</ele><time>2026-04-19T10:25:20.211Z</time></trkpt><trkpt lat="43.8210143" lon="12.6248382"><ele>338.0</ele><time>2026-04-19T10:25:21.205Z</time></trkpt><trkpt lat="43.8210093" lon="12.6249742"><ele>338.0</ele><time>2026-04-19T10:25:22.205Z</time></trkpt><trkpt lat="43.8210056" lon="12.6251061"><ele>338.0</ele><time>2026-04-19T10:25:23.205Z</time></trkpt><trkpt lat="43.820994" lon="12.6252292"><ele>334.59999999999997</ele><time>2026-04-19T10:25:24.206Z</time></trkpt><trkpt lat="43.820973" lon="12.6253461"><ele>331.2</ele><time>2026-04-19T10:25:25.206Z</time></trkpt><trkpt lat="43.820945" lon="12.6254575"><ele>327.8</ele><time>2026-04-19T10:25:26.206Z</time></trkpt><trkpt lat="43.8209085" lon="12.6255703"><ele>324.4</ele><time>2026-04-19T10:25:27.206Z</time></trkpt><trkpt lat="43.8208637" lon="12.6256911"><ele>321.0</ele><time>2026-04-19T10:25:28.204Z</time></trkpt><trkpt lat="43.8208118" lon="12.6258133"><ele>321.0</ele><time>2026-04-19T10:25:29.204Z</time></trkpt><trkpt lat="43.8207562" lon="12.6259382"><ele>321.0</ele><time>2026-04-19T10:25:30.204Z</time></trkpt><trkpt lat="43.8207025" lon="12.6260617"><ele>321.0</ele><time>2026-04-19T10:25:31.204Z</time></trkpt><trkpt lat="43.8206494" lon="12.6261812"><ele>321.0</ele><time>2026-04-19T10:25:32.219Z</time></trkpt><trkpt lat="43.8205921" lon="12.6263113"><ele>321.0</ele><time>2026-04-19T10:25:33.204Z</time></trkpt><trkpt lat="43.8205315" lon="12.6264438"><ele>320.75</ele><time>2026-04-19T10:25:34.204Z</time></trkpt><trkpt lat="43.8204677" lon="12.626566"><ele>320.5</ele><time>2026-04-19T10:25:35.207Z</time></trkpt><trkpt lat="43.8203972" lon="12.6266785"><ele>320.25</ele><time>2026-04-19T10:25:36.206Z</time></trkpt><trkpt lat="43.8203164" lon="12.6267868"><ele>320.0</ele><time>2026-04-19T10:25:37.204Z</time></trkpt><trkpt lat="43.8202205" lon="12.6268934"><ele>319.25</ele><time>2026-04-19T10:25:38.21Z</time></trkpt><trkpt lat="43.8201175" lon="12.6269978"><ele>318.5</ele><time>2026-04-19T10:25:39.209Z</time></trkpt><trkpt lat="43.8200177" lon="12.6270946"><ele>317.75</ele><time>2026-04-19T10:25:40.205Z</time></trkpt><trkpt lat="43.8199222" lon="12.6271865"><ele>317.0</ele><time>2026-04-19T10:25:41.205Z</time></trkpt><trkpt lat="43.819833" lon="12.6272746"><ele>317.0</ele><time>2026-04-19T10:25:42.207Z</time></trkpt><trkpt lat="43.8197474" lon="12.6273581"><ele>317.0</ele><time>2026-04-19T10:25:43.204Z</time></trkpt><trkpt lat="43.8196579" lon="12.6274376"><ele>317.0</ele><time>2026-04-19T10:25:44.204Z</time></trkpt><trkpt lat="43.8195629" lon="12.6275203"><ele>317.0</ele><time>2026-04-19T10:25:45.204Z</time></trkpt><trkpt lat="43.8194645" lon="12.6276091"><ele>317.0</ele><time>2026-04-19T10:25:46.204Z</time></trkpt><trkpt lat="43.8193694" lon="12.6277021"><ele>314.4</ele><time>2026-04-19T10:25:47.204Z</time></trkpt><trkpt lat="43.8192823" lon="12.6277973"><ele>311.79999999999995</ele><time>2026-04-19T10:25:48.204Z</time></trkpt><trkpt lat="43.8192042" lon="12.6278986"><ele>309.2</ele><time>2026-04-19T10:25:49.231Z</time></trkpt><trkpt lat="43.8191422" lon="12.628008"><ele>306.59999999999997</ele><time>2026-04-19T10:25:50.213Z</time></trkpt><trkpt lat="43.8190938" lon="12.6281301"><ele>304.0</ele><time>2026-04-19T10:25:51.204Z</time></trkpt><trkpt lat="43.8190501" lon="12.6282675"><ele>304.0</ele><time>2026-04-19T10:25:52.205Z</time></trkpt><trkpt lat="43.8190122" lon="12.6284123"><ele>304.0</ele><time>2026-04-19T10:25:53.207Z</time></trkpt><trkpt lat="43.8189804" lon="12.6285554"><ele>304.0</ele><time>2026-04-19T10:25:54.208Z</time></trkpt><trkpt lat="43.8189495" lon="12.6286949"><ele>304.0</ele><time>2026-04-19T10:25:55.205Z</time></trkpt><trkpt lat="43.8188858" lon="12.6289735"><ele>302.25</ele><time>2026-04-19T10:25:57.204Z</time></trkpt><trkpt lat="43.8188497" lon="12.6291083"><ele>300.5</ele><time>2026-04-19T10:25:58.205Z</time></trkpt><trkpt lat="43.8187947" lon="12.6292426"><ele>298.75</ele><time>2026-04-19T10:25:59.397Z</time></trkpt><trkpt lat="43.8186249" lon="12.6294349"><ele>297.0</ele><time>2026-04-19T10:26:01.205Z</time></trkpt><trkpt lat="43.8185043" lon="12.6294986"><ele>293.5</ele><time>2026-04-19T10:26:02.22Z</time></trkpt><trkpt lat="43.8183777" lon="12.6295512"><ele>290.0</ele><time>2026-04-19T10:26:03.204Z</time></trkpt><trkpt lat="43.8182482" lon="12.6296034"><ele>286.5</ele><time>2026-04-19T10:26:04.207Z</time></trkpt><trkpt lat="43.8181209" lon="12.6296565"><ele>283.0</ele><time>2026-04-19T10:26:05.204Z</time></trkpt><trkpt lat="43.8179963" lon="12.6297078"><ele>283.0</ele><time>2026-04-19T10:26:06.204Z</time></trkpt><trkpt lat="43.8178765" lon="12.6297574"><ele>283.0</ele><time>2026-04-19T10:26:07.206Z</time></trkpt><trkpt lat="43.8177638" lon="12.6298054"><ele>283.0</ele><time>2026-04-19T10:26:08.206Z</time></trkpt><trkpt lat="43.8176531" lon="12.6298507"><ele>283.0</ele><time>2026-04-19T10:26:09.207Z</time></trkpt><trkpt lat="43.817543" lon="12.6298946"><ele>284.6</ele><time>2026-04-19T10:26:10.205Z</time></trkpt><trkpt lat="43.8174341" lon="12.6299351"><ele>286.20000000000005</ele><time>2026-04-19T10:26:11.208Z</time></trkpt><trkpt lat="43.8173332" lon="12.6299749"><ele>287.8</ele><time>2026-04-19T10:26:12.208Z</time></trkpt><trkpt lat="43.8172361" lon="12.6300192"><ele>289.40000000000003</ele><time>2026-04-19T10:26:13.204Z</time></trkpt><trkpt lat="43.8171318" lon="12.6300666"><ele>291.0</ele><time>2026-04-19T10:26:14.208Z</time></trkpt><trkpt lat="43.8170151" lon="12.630109"><ele>291.0</ele><time>2026-04-19T10:26:15.209Z</time></trkpt><trkpt lat="43.8168725" lon="12.6301577"><ele>291.0</ele><time>2026-04-19T10:26:16.204Z</time></trkpt><trkpt lat="43.8167181" lon="12.6302151"><ele>291.0</ele><time>2026-04-19T10:26:17.21Z</time></trkpt><trkpt lat="43.8165713" lon="12.6302697"><ele>288.25</ele><time>2026-04-19T10:26:18.214Z</time></trkpt><trkpt lat="43.8164289" lon="12.6303246"><ele>285.5</ele><time>2026-04-19T10:26:19.204Z</time></trkpt><trkpt lat="43.8162872" lon="12.6303813"><ele>282.75</ele><time>2026-04-19T10:26:20.207Z</time></trkpt><trkpt lat="43.816147" lon="12.6304357"><ele>280.0</ele><time>2026-04-19T10:26:21.212Z</time></trkpt><trkpt lat="43.8160105" lon="12.6304908"><ele>280.25</ele><time>2026-04-19T10:26:22.203Z</time></trkpt><trkpt lat="43.8158774" lon="12.630545"><ele>280.5</ele><time>2026-04-19T10:26:23.204Z</time></trkpt><trkpt lat="43.8157475" lon="12.630599"><ele>280.75</ele><time>2026-04-19T10:26:24.204Z</time></trkpt><trkpt lat="43.815618" lon="12.6306501"><ele>281.0</ele><time>2026-04-19T10:26:25.203Z</time></trkpt><trkpt lat="43.8154878" lon="12.630701"><ele>281.0</ele><time>2026-04-19T10:26:26.205Z</time></trkpt><trkpt lat="43.8153614" lon="12.6307549"><ele>281.0</ele><time>2026-04-19T10:26:27.205Z</time></trkpt><trkpt lat="43.8152376" lon="12.6308221"><ele>281.0</ele><time>2026-04-19T10:26:28.206Z</time></trkpt><trkpt lat="43.8151183" lon="12.630906"><ele>281.0</ele><time>2026-04-19T10:26:29.204Z</time></trkpt><trkpt lat="43.815005" lon="12.6309997"><ele>278.6666666666667</ele><time>2026-04-19T10:26:30.204Z</time></trkpt><trkpt lat="43.8148923" lon="12.6311026"><ele>276.3333333333333</ele><time>2026-04-19T10:26:31.31Z</time></trkpt><trkpt lat="43.8146885" lon="12.6312996"><ele>274.0</ele><time>2026-04-19T10:26:33.203Z</time></trkpt><trkpt lat="43.8145854" lon="12.6313843"><ele>274.0</ele><time>2026-04-19T10:26:34.206Z</time></trkpt><trkpt lat="43.8144832" lon="12.6314385"><ele>274.0</ele><time>2026-04-19T10:26:35.206Z</time></trkpt><trkpt lat="43.8143789" lon="12.6314417"><ele>274.0</ele><time>2026-04-19T10:26:36.207Z</time></trkpt><trkpt lat="43.8142825" lon="12.6313994"><ele>274.0</ele><time>2026-04-19T10:26:37.208Z</time></trkpt><trkpt lat="43.8141876" lon="12.6313266"><ele>274.0</ele><time>2026-04-19T10:26:38.204Z</time></trkpt><trkpt lat="43.8141114" lon="12.6312312"><ele>279.4</ele><time>2026-04-19T10:26:39.204Z</time></trkpt><trkpt lat="43.8140634" lon="12.6311016"><ele>284.79999999999995</ele><time>2026-04-19T10:26:40.204Z</time></trkpt><trkpt lat="43.8140343" lon="12.63098"><ele>290.20000000000005</ele><time>2026-04-19T10:26:41.204Z</time></trkpt><trkpt lat="43.8139891" lon="12.6309009"><ele>295.6</ele><time>2026-04-19T10:26:42.297Z</time></trkpt><trkpt lat="43.8138736" lon="12.6309341"><ele>301.0</ele><time>2026-04-19T10:26:44.206Z</time></trkpt><trkpt lat="43.8138287" lon="12.6310593"><ele>299.75</ele><time>2026-04-19T10:26:45.204Z</time></trkpt><trkpt lat="43.8137768" lon="12.6311952"><ele>298.5</ele><time>2026-04-19T10:26:46.205Z</time></trkpt><trkpt lat="43.8137094" lon="12.6313266"><ele>297.25</ele><time>2026-04-19T10:26:47.206Z</time></trkpt><trkpt lat="43.8136259" lon="12.6314336"><ele>296.0</ele><time>2026-04-19T10:26:48.207Z</time></trkpt><trkpt lat="43.8135225" lon="12.631511"><ele>301.25</ele><time>2026-04-19T10:26:49.207Z</time></trkpt><trkpt lat="43.8134118" lon="12.6315719"><ele>306.5</ele><time>2026-04-19T10:26:50.204Z</time></trkpt><trkpt lat="43.8132939" lon="12.6316113"><ele>311.75</ele><time>2026-04-19T10:26:51.205Z</time></trkpt><trkpt lat="43.813169" lon="12.6316453"><ele>317.0</ele><time>2026-04-19T10:26:52.204Z</time></trkpt><trkpt lat="43.8130444" lon="12.6316843"><ele>317.0</ele><time>2026-04-19T10:26:53.207Z</time></trkpt><trkpt lat="43.8129219" lon="12.631723"><ele>317.0</ele><time>2026-04-19T10:26:54.214Z</time></trkpt><trkpt lat="43.8127998" lon="12.631767"><ele>317.0</ele><time>2026-04-19T10:26:55.206Z</time></trkpt><trkpt lat="43.8126795" lon="12.6318127"><ele>317.0</ele><time>2026-04-19T10:26:56.207Z</time></trkpt><trkpt lat="43.8125621" lon="12.631855"><ele>314.2</ele><time>2026-04-19T10:26:57.204Z</time></trkpt><trkpt lat="43.8124502" lon="12.6318962"><ele>311.4</ele><time>2026-04-19T10:26:58.203Z</time></trkpt><trkpt lat="43.812344" lon="12.6319425"><ele>308.6</ele><time>2026-04-19T10:26:59.204Z</time></trkpt><trkpt lat="43.8122455" lon="12.6319863"><ele>305.8</ele><time>2026-04-19T10:27:00.204Z</time></trkpt><trkpt lat="43.8121494" lon="12.6320247"><ele>303.0</ele><time>2026-04-19T10:27:01.204Z</time></trkpt><trkpt lat="43.8120551" lon="12.6320497"><ele>303.0</ele><time>2026-04-19T10:27:02.204Z</time></trkpt><trkpt lat="43.811957" lon="12.6320656"><ele>303.0</ele><time>2026-04-19T10:27:03.205Z</time></trkpt><trkpt lat="43.8118592" lon="12.6320717"><ele>303.0</ele><time>2026-04-19T10:27:04.205Z</time></trkpt><trkpt lat="43.8117624" lon="12.632065"><ele>303.0</ele><time>2026-04-19T10:27:05.205Z</time></trkpt><trkpt lat="43.8116626" lon="12.6320578"><ele>303.0</ele><time>2026-04-19T10:27:06.205Z</time></trkpt><trkpt lat="43.8115717" lon="12.6320568"><ele>307.6</ele><time>2026-04-19T10:27:07.205Z</time></trkpt><trkpt lat="43.8114838" lon="12.6320743"><ele>312.20000000000005</ele><time>2026-04-19T10:27:08.206Z</time></trkpt><trkpt lat="43.8114084" lon="12.6321453"><ele>316.8</ele><time>2026-04-19T10:27:09.205Z</time></trkpt><trkpt lat="43.8113565" lon="12.6322656"><ele>321.40000000000003</ele><time>2026-04-19T10:27:10.205Z</time></trkpt><trkpt lat="43.8113282" lon="12.6324222"><ele>326.0</ele><time>2026-04-19T10:27:11.205Z</time></trkpt><trkpt lat="43.8113043" lon="12.6325823"><ele>326.0</ele><time>2026-04-19T10:27:12.206Z</time></trkpt><trkpt lat="43.8112761" lon="12.6327309"><ele>326.0</ele><time>2026-04-19T10:27:13.205Z</time></trkpt><trkpt lat="43.8112464" lon="12.6328704"><ele>326.0</ele><time>2026-04-19T10:27:14.206Z</time></trkpt><trkpt lat="43.8112247" lon="12.6330121"><ele>326.0</ele><time>2026-04-19T10:27:15.204Z</time></trkpt><trkpt lat="43.8112109" lon="12.6331516"><ele>326.0</ele><time>2026-04-19T10:27:16.204Z</time></trkpt><trkpt lat="43.811194" lon="12.6332924"><ele>322.40000000000003</ele><time>2026-04-19T10:27:17.206Z</time></trkpt><trkpt lat="43.8111851" lon="12.6334344"><ele>318.8</ele><time>2026-04-19T10:27:18.203Z</time></trkpt><trkpt lat="43.8111849" lon="12.6335778"><ele>315.20000000000005</ele><time>2026-04-19T10:27:19.206Z</time></trkpt><trkpt lat="43.8111947" lon="12.6337194"><ele>311.6</ele><time>2026-04-19T10:27:20.203Z</time></trkpt><trkpt lat="43.8112093" lon="12.6338648"><ele>308.0</ele><time>2026-04-19T10:27:21.203Z</time></trkpt><trkpt lat="43.811218" lon="12.6340118"><ele>307.0</ele><time>2026-04-19T10:27:22.203Z</time></trkpt><trkpt lat="43.8112222" lon="12.6341586"><ele>306.0</ele><time>2026-04-19T10:27:23.205Z</time></trkpt><trkpt lat="43.8112202" lon="12.6343056"><ele>305.0</ele><time>2026-04-19T10:27:24.211Z</time></trkpt><trkpt lat="43.8112147" lon="12.634451"><ele>304.0</ele><time>2026-04-19T10:27:25.205Z</time></trkpt><trkpt lat="43.8111996" lon="12.6345962"><ele>303.0</ele><time>2026-04-19T10:27:26.203Z</time></trkpt><trkpt lat="43.8111876" lon="12.6347405"><ele>302.2</ele><time>2026-04-19T10:27:27.207Z</time></trkpt><trkpt lat="43.8111898" lon="12.6348769"><ele>301.4</ele><time>2026-04-19T10:27:28.208Z</time></trkpt><trkpt lat="43.8112041" lon="12.6350135"><ele>300.59999999999997</ele><time>2026-04-19T10:27:29.203Z</time></trkpt><trkpt lat="43.8112277" lon="12.6351471"><ele>299.8</ele><time>2026-04-19T10:27:30.203Z</time></trkpt><trkpt lat="43.8112473" lon="12.6352756"><ele>299.0</ele><time>2026-04-19T10:27:31.203Z</time></trkpt><trkpt lat="43.811251" lon="12.635395"><ele>297.5</ele><time>2026-04-19T10:27:32.204Z</time></trkpt><trkpt lat="43.8112378" lon="12.6355153"><ele>296.0</ele><time>2026-04-19T10:27:33.203Z</time></trkpt><trkpt lat="43.8111961" lon="12.6356112"><ele>294.5</ele><time>2026-04-19T10:27:34.203Z</time></trkpt><trkpt lat="43.8111352" lon="12.6356806"><ele>293.0</ele><time>2026-04-19T10:27:35.203Z</time></trkpt><trkpt lat="43.8110816" lon="12.6357442"><ele>291.5</ele><time>2026-04-19T10:27:36.203Z</time></trkpt><trkpt lat="43.8110424" lon="12.6358147"><ele>290.0</ele><time>2026-04-19T10:27:37.206Z</time></trkpt><trkpt lat="43.8110511" lon="12.635972"><ele>290.0</ele><time>2026-04-19T10:27:39.203Z</time></trkpt><trkpt lat="43.8111054" lon="12.6360252"><ele>290.0</ele><time>2026-04-19T10:27:40.202Z</time></trkpt><trkpt lat="43.811169" lon="12.6360459"><ele>290.0</ele><time>2026-04-19T10:27:41.202Z</time></trkpt><trkpt lat="43.8112465" lon="12.6360262"><ele>290.0</ele><time>2026-04-19T10:27:42.203Z</time></trkpt><trkpt lat="43.8113273" lon="12.6359933"><ele>290.0</ele><time>2026-04-19T10:27:43.204Z</time></trkpt><trkpt lat="43.8114028" lon="12.6359814"><ele>290.0</ele><time>2026-04-19T10:27:44.204Z</time></trkpt><trkpt lat="43.8114623" lon="12.6360186"><ele>290.0</ele><time>2026-04-19T10:27:45.203Z</time></trkpt><trkpt lat="43.811501" lon="12.6360958"><ele>288.6</ele><time>2026-04-19T10:27:46.202Z</time></trkpt><trkpt lat="43.8115044" lon="12.6361996"><ele>287.2</ele><time>2026-04-19T10:27:47.201Z</time></trkpt><trkpt lat="43.8114562" lon="12.6363188"><ele>285.8</ele><time>2026-04-19T10:27:48.203Z</time></trkpt><trkpt lat="43.8113828" lon="12.6364436"><ele>284.4</ele><time>2026-04-19T10:27:49.203Z</time></trkpt><trkpt lat="43.811319" lon="12.6365787"><ele>283.0</ele><time>2026-04-19T10:27:50.203Z</time></trkpt><trkpt lat="43.8112828" lon="12.6367171"><ele>283.0</ele><time>2026-04-19T10:27:51.203Z</time></trkpt><trkpt lat="43.8112822" lon="12.6368682"><ele>283.0</ele><time>2026-04-19T10:27:52.203Z</time></trkpt><trkpt lat="43.8113096" lon="12.6370341"><ele>283.0</ele><time>2026-04-19T10:27:53.206Z</time></trkpt><trkpt lat="43.8113381" lon="12.6371927"><ele>283.0</ele><time>2026-04-19T10:27:54.204Z</time></trkpt><trkpt lat="43.8113543" lon="12.6373473"><ele>281.5</ele><time>2026-04-19T10:27:55.203Z</time></trkpt><trkpt lat="43.811349" lon="12.6375012"><ele>280.0</ele><time>2026-04-19T10:27:56.204Z</time></trkpt><trkpt lat="43.8113271" lon="12.6376525"><ele>278.5</ele><time>2026-04-19T10:27:57.203Z</time></trkpt><trkpt lat="43.8112936" lon="12.6378058"><ele>277.0</ele><time>2026-04-19T10:27:58.217Z</time></trkpt><trkpt lat="43.8112556" lon="12.6379561"><ele>275.75</ele><time>2026-04-19T10:27:59.204Z</time></trkpt><trkpt lat="43.8112135" lon="12.6381219"><ele>274.5</ele><time>2026-04-19T10:28:00.204Z</time></trkpt><trkpt lat="43.81117" lon="12.6382916"><ele>273.25</ele><time>2026-04-19T10:28:01.204Z</time></trkpt><trkpt lat="43.8111239" lon="12.6384654"><ele>272.0</ele><time>2026-04-19T10:28:02.204Z</time></trkpt><trkpt lat="43.8110836" lon="12.6386414"><ele>271.75</ele><time>2026-04-19T10:28:03.206Z</time></trkpt><trkpt lat="43.8110433" lon="12.63882"><ele>271.5</ele><time>2026-04-19T10:28:04.214Z</time></trkpt><trkpt lat="43.8109996" lon="12.6390008"><ele>271.25</ele><time>2026-04-19T10:28:05.205Z</time></trkpt><trkpt lat="43.8109576" lon="12.6391848"><ele>271.0</ele><time>2026-04-19T10:28:06.204Z</time></trkpt><trkpt lat="43.81092" lon="12.6393709"><ele>270.5</ele><time>2026-04-19T10:28:07.209Z</time></trkpt><trkpt lat="43.8108781" lon="12.6395544"><ele>270.0</ele><time>2026-04-19T10:28:08.203Z</time></trkpt><trkpt lat="43.8108439" lon="12.6397401"><ele>269.5</ele><time>2026-04-19T10:28:09.203Z</time></trkpt><trkpt lat="43.8108251" lon="12.6399283"><ele>269.0</ele><time>2026-04-19T10:28:10.202Z</time></trkpt><trkpt lat="43.8108152" lon="12.6401167"><ele>269.0</ele><time>2026-04-19T10:28:11.202Z</time></trkpt><trkpt lat="43.8108135" lon="12.6403093"><ele>269.0</ele><time>2026-04-19T10:28:12.209Z</time></trkpt><trkpt lat="43.8108302" lon="12.6405058"><ele>269.0</ele><time>2026-04-19T10:28:13.207Z</time></trkpt><trkpt lat="43.8108586" lon="12.6407049"><ele>269.0</ele><time>2026-04-19T10:28:14.205Z</time></trkpt><trkpt lat="43.8108996" lon="12.640901"><ele>269.0</ele><time>2026-04-19T10:28:15.207Z</time></trkpt><trkpt lat="43.8109434" lon="12.6410907"><ele>269.0</ele><time>2026-04-19T10:28:16.203Z</time></trkpt><trkpt lat="43.8109902" lon="12.6412798"><ele>269.0</ele><time>2026-04-19T10:28:17.203Z</time></trkpt><trkpt lat="43.8110438" lon="12.6414651"><ele>269.0</ele><time>2026-04-19T10:28:18.206Z</time></trkpt><trkpt lat="43.8111075" lon="12.6416402"><ele>268.0</ele><time>2026-04-19T10:28:19.203Z</time></trkpt><trkpt lat="43.8111757" lon="12.6418123"><ele>267.0</ele><time>2026-04-19T10:28:20.204Z</time></trkpt><trkpt lat="43.8112521" lon="12.6419782"><ele>266.0</ele><time>2026-04-19T10:28:21.215Z</time></trkpt><trkpt lat="43.8113278" lon="12.6421427"><ele>265.0</ele><time>2026-04-19T10:28:22.202Z</time></trkpt><trkpt lat="43.8114012" lon="12.6423087"><ele>265.0</ele><time>2026-04-19T10:28:23.203Z</time></trkpt><trkpt lat="43.8114782" lon="12.6424693"><ele>265.0</ele><time>2026-04-19T10:28:24.204Z</time></trkpt><trkpt lat="43.8115637" lon="12.6426232"><ele>265.0</ele><time>2026-04-19T10:28:25.205Z</time></trkpt><trkpt lat="43.8116536" lon="12.642772"><ele>265.0</ele><time>2026-04-19T10:28:26.203Z</time></trkpt><trkpt lat="43.8117415" lon="12.6429179"><ele>267.0</ele><time>2026-04-19T10:28:27.205Z</time></trkpt><trkpt lat="43.811823" lon="12.6430612"><ele>269.0</ele><time>2026-04-19T10:28:28.204Z</time></trkpt><trkpt lat="43.8119011" lon="12.6431998"><ele>271.0</ele><time>2026-04-19T10:28:29.203Z</time></trkpt><trkpt lat="43.8119751" lon="12.6433353"><ele>273.0</ele><time>2026-04-19T10:28:30.206Z</time></trkpt><trkpt lat="43.8120544" lon="12.643471"><ele>269.75</ele><time>2026-04-19T10:28:31.516Z</time></trkpt><trkpt lat="43.8121905" lon="12.6436974"><ele>266.5</ele><time>2026-04-19T10:28:33.202Z</time></trkpt><trkpt lat="43.8122533" lon="12.6438182"><ele>263.25</ele><time>2026-04-19T10:28:34.205Z</time></trkpt><trkpt lat="43.8123085" lon="12.6439379"><ele>260.0</ele><time>2026-04-19T10:28:35.214Z</time></trkpt><trkpt lat="43.8123662" lon="12.6441858"><ele>260.0</ele><time>2026-04-19T10:28:37.204Z</time></trkpt><trkpt lat="43.812363" lon="12.644313"><ele>260.0</ele><time>2026-04-19T10:28:38.205Z</time></trkpt><trkpt lat="43.8123391" lon="12.644443"><ele>260.0</ele><time>2026-04-19T10:28:39.204Z</time></trkpt><trkpt lat="43.8122948" lon="12.644574"><ele>260.0</ele><time>2026-04-19T10:28:40.205Z</time></trkpt><trkpt lat="43.812241" lon="12.6447104"><ele>260.0</ele><time>2026-04-19T10:28:41.204Z</time></trkpt><trkpt lat="43.8121896" lon="12.6448601"><ele>257.75</ele><time>2026-04-19T10:28:42.206Z</time></trkpt><trkpt lat="43.8121363" lon="12.645015"><ele>255.5</ele><time>2026-04-19T10:28:43.212Z</time></trkpt><trkpt lat="43.8120711" lon="12.6451538"><ele>253.25</ele><time>2026-04-19T10:28:44.207Z</time></trkpt><trkpt lat="43.8120097" lon="12.6452895"><ele>251.0</ele><time>2026-04-19T10:28:45.204Z</time></trkpt><trkpt lat="43.8119496" lon="12.645422"><ele>251.0</ele><time>2026-04-19T10:28:46.205Z</time></trkpt><trkpt lat="43.8118911" lon="12.6455547"><ele>251.0</ele><time>2026-04-19T10:28:47.203Z</time></trkpt><trkpt lat="43.8118325" lon="12.6456894"><ele>251.0</ele><time>2026-04-19T10:28:48.204Z</time></trkpt><trkpt lat="43.8117741" lon="12.6458276"><ele>251.0</ele><time>2026-04-19T10:28:49.203Z</time></trkpt><trkpt lat="43.8117157" lon="12.6459663"><ele>251.0</ele><time>2026-04-19T10:28:50.205Z</time></trkpt><trkpt lat="43.81166" lon="12.6461015"><ele>251.00000000000003</ele><time>2026-04-19T10:28:51.203Z</time></trkpt><trkpt lat="43.811605" lon="12.6462273"><ele>251.00000000000003</ele><time>2026-04-19T10:28:52.203Z</time></trkpt><trkpt lat="43.8115435" lon="12.6463417"><ele>251.0</ele><time>2026-04-19T10:28:53.204Z</time></trkpt><trkpt lat="43.8114713" lon="12.6464405"><ele>251.0</ele><time>2026-04-19T10:28:54.203Z</time></trkpt><trkpt lat="43.8113858" lon="12.6465242"><ele>249.20000000000002</ele><time>2026-04-19T10:28:55.203Z</time></trkpt><trkpt lat="43.8112916" lon="12.6465967"><ele>247.40000000000003</ele><time>2026-04-19T10:28:56.203Z</time></trkpt><trkpt lat="43.8111941" lon="12.6466595"><ele>245.6</ele><time>2026-04-19T10:28:57.203Z</time></trkpt><trkpt lat="43.8110939" lon="12.646717"><ele>243.8</ele><time>2026-04-19T10:28:58.203Z</time></trkpt><trkpt lat="43.8109938" lon="12.646765"><ele>242.0</ele><time>2026-04-19T10:28:59.203Z</time></trkpt><trkpt lat="43.8108929" lon="12.6467984"><ele>242.0</ele><time>2026-04-19T10:29:00.205Z</time></trkpt><trkpt lat="43.8107922" lon="12.6468245"><ele>242.0</ele><time>2026-04-19T10:29:01.204Z</time></trkpt><trkpt lat="43.8106932" lon="12.6468428"><ele>242.0</ele><time>2026-04-19T10:29:02.204Z</time></trkpt><trkpt lat="43.8105936" lon="12.6468608"><ele>242.0</ele><time>2026-04-19T10:29:03.203Z</time></trkpt><trkpt lat="43.8105003" lon="12.6468843"><ele>242.0</ele><time>2026-04-19T10:29:04.205Z</time></trkpt><trkpt lat="43.8104145" lon="12.6469218"><ele>241.39999999999998</ele><time>2026-04-19T10:29:05.204Z</time></trkpt><trkpt lat="43.8103362" lon="12.6469777"><ele>240.79999999999998</ele><time>2026-04-19T10:29:06.203Z</time></trkpt><trkpt lat="43.8102672" lon="12.647053"><ele>240.2</ele><time>2026-04-19T10:29:07.204Z</time></trkpt><trkpt lat="43.8102034" lon="12.6471407"><ele>239.6</ele><time>2026-04-19T10:29:08.206Z</time></trkpt><trkpt lat="43.8101409" lon="12.6472385"><ele>239.0</ele><time>2026-04-19T10:29:09.204Z</time></trkpt><trkpt lat="43.8100765" lon="12.6473461"><ele>238.2</ele><time>2026-04-19T10:29:10.203Z</time></trkpt><trkpt lat="43.8100158" lon="12.6474566"><ele>237.39999999999998</ele><time>2026-04-19T10:29:11.202Z</time></trkpt><trkpt lat="43.8099581" lon="12.6475645"><ele>236.6</ele><time>2026-04-19T10:29:12.204Z</time></trkpt><trkpt lat="43.8099071" lon="12.6476746"><ele>235.8</ele><time>2026-04-19T10:29:13.202Z</time></trkpt><trkpt lat="43.8098631" lon="12.6477798"><ele>235.0</ele><time>2026-04-19T10:29:14.203Z</time></trkpt><trkpt lat="43.8098353" lon="12.647882"><ele>234.33333333333331</ele><time>2026-04-19T10:29:15.202Z</time></trkpt><trkpt lat="43.8098162" lon="12.6479852"><ele>233.66666666666666</ele><time>2026-04-19T10:29:16.202Z</time></trkpt><trkpt lat="43.80982" lon="12.6480921"><ele>233.0</ele><time>2026-04-19T10:29:17.203Z</time></trkpt><trkpt lat="43.8098499" lon="12.6481934"><ele>232.33333333333331</ele><time>2026-04-19T10:29:18.203Z</time></trkpt><trkpt lat="43.8099012" lon="12.6482922"><ele>231.66666666666666</ele><time>2026-04-19T10:29:19.203Z</time></trkpt><trkpt lat="43.8099726" lon="12.648382"><ele>231.0</ele><time>2026-04-19T10:29:20.203Z</time></trkpt><trkpt lat="43.8100585" lon="12.6484614"><ele>231.0</ele><time>2026-04-19T10:29:21.205Z</time></trkpt><trkpt lat="43.8101481" lon="12.6485358"><ele>231.00000000000003</ele><time>2026-04-19T10:29:22.207Z</time></trkpt><trkpt lat="43.8102395" lon="12.6486061"><ele>231.00000000000003</ele><time>2026-04-19T10:29:23.204Z</time></trkpt><trkpt lat="43.8103267" lon="12.6486754"><ele>231.0</ele><time>2026-04-19T10:29:24.204Z</time></trkpt><trkpt lat="43.810411" lon="12.6487424"><ele>231.0</ele><time>2026-04-19T10:29:25.203Z</time></trkpt><trkpt lat="43.8104934" lon="12.6488086"><ele>229.20000000000002</ele><time>2026-04-19T10:29:26.203Z</time></trkpt><trkpt lat="43.8105719" lon="12.6488747"><ele>227.40000000000003</ele><time>2026-04-19T10:29:27.202Z</time></trkpt><trkpt lat="43.8106554" lon="12.6489463"><ele>225.6</ele><time>2026-04-19T10:29:28.204Z</time></trkpt><trkpt lat="43.81074" lon="12.6490289"><ele>223.8</ele><time>2026-04-19T10:29:29.204Z</time></trkpt><trkpt lat="43.810821" lon="12.649121"><ele>222.0</ele><time>2026-04-19T10:29:30.206Z</time></trkpt><trkpt lat="43.8108998" lon="12.6492207"><ele>222.0</ele><time>2026-04-19T10:29:31.204Z</time></trkpt><trkpt lat="43.8109732" lon="12.6493253"><ele>222.0</ele><time>2026-04-19T10:29:32.202Z</time></trkpt><trkpt lat="43.8110348" lon="12.6494357"><ele>222.0</ele><time>2026-04-19T10:29:33.202Z</time></trkpt><trkpt lat="43.8110889" lon="12.6495536"><ele>222.0</ele><time>2026-04-19T10:29:34.201Z</time></trkpt><trkpt lat="43.8111478" lon="12.6496623"><ele>222.0</ele><time>2026-04-19T10:29:35.203Z</time></trkpt><trkpt lat="43.8112149" lon="12.649759"><ele>220.8</ele><time>2026-04-19T10:29:36.202Z</time></trkpt><trkpt lat="43.8112867" lon="12.649846"><ele>219.6</ele><time>2026-04-19T10:29:37.203Z</time></trkpt><trkpt lat="43.8113538" lon="12.6499367"><ele>218.40000000000003</ele><time>2026-04-19T10:29:38.203Z</time></trkpt><trkpt lat="43.8114094" lon="12.6500433"><ele>217.20000000000002</ele><time>2026-04-19T10:29:39.202Z</time></trkpt><trkpt lat="43.8114481" lon="12.6501719"><ele>216.0</ele><time>2026-04-19T10:29:40.202Z</time></trkpt><trkpt lat="43.8114699" lon="12.650311"><ele>214.16666666666666</ele><time>2026-04-19T10:29:41.203Z</time></trkpt><trkpt lat="43.8114836" lon="12.6504483"><ele>212.33333333333331</ele><time>2026-04-19T10:29:42.203Z</time></trkpt><trkpt lat="43.8114987" lon="12.6505791"><ele>210.5</ele><time>2026-04-19T10:29:43.203Z</time></trkpt><trkpt lat="43.8115163" lon="12.6506945"><ele>208.66666666666666</ele><time>2026-04-19T10:29:44.202Z</time></trkpt><trkpt lat="43.811536" lon="12.6507913"><ele>206.83333333333331</ele><time>2026-04-19T10:29:45.201Z</time></trkpt><trkpt lat="43.8115714" lon="12.6508649"><ele>205.0</ele><time>2026-04-19T10:29:46.201Z</time></trkpt><trkpt lat="43.8116288" lon="12.650903"><ele>205.0</ele><time>2026-04-19T10:29:47.203Z</time></trkpt><trkpt lat="43.8117138" lon="12.6508914"><ele>205.0</ele><time>2026-04-19T10:29:48.202Z</time></trkpt><trkpt lat="43.8117996" lon="12.6508418"><ele>205.0</ele><time>2026-04-19T10:29:49.202Z</time></trkpt><trkpt lat="43.8118806" lon="12.6507494"><ele>205.0</ele><time>2026-04-19T10:29:50.203Z</time></trkpt><trkpt lat="43.8119512" lon="12.6506334"><ele>205.0</ele><time>2026-04-19T10:29:51.203Z</time></trkpt><trkpt lat="43.8120124" lon="12.6505248"><ele>203.49999999999997</ele><time>2026-04-19T10:29:52.202Z</time></trkpt><trkpt lat="43.8120651" lon="12.6504392"><ele>202.0</ele><time>2026-04-19T10:29:53.203Z</time></trkpt><trkpt lat="43.8121114" lon="12.6503774"><ele>200.5</ele><time>2026-04-19T10:29:54.203Z</time></trkpt><trkpt lat="43.812223" lon="12.6503264"><ele>199.0</ele><time>2026-04-19T10:29:56.202Z</time></trkpt><trkpt lat="43.8122903" lon="12.6504062"><ele>197.49999999999997</ele><time>2026-04-19T10:29:57.204Z</time></trkpt><trkpt lat="43.812329" lon="12.6505204"><ele>196.0</ele><time>2026-04-19T10:29:58.201Z</time></trkpt><trkpt lat="43.8123551" lon="12.6506524"><ele>196.0</ele><time>2026-04-19T10:29:59.202Z</time></trkpt><trkpt lat="43.8123705" lon="12.6507956"><ele>196.0</ele><time>2026-04-19T10:30:00.208Z</time></trkpt><trkpt lat="43.8123793" lon="12.6509382"><ele>196.0</ele><time>2026-04-19T10:30:01.202Z</time></trkpt><trkpt lat="43.8123865" lon="12.6510755"><ele>196.0</ele><time>2026-04-19T10:30:02.201Z</time></trkpt><trkpt lat="43.8123809" lon="12.651209"><ele>196.0</ele><time>2026-04-19T10:30:03.202Z</time></trkpt><trkpt lat="43.8123535" lon="12.6513345"><ele>194.5</ele><time>2026-04-19T10:30:04.201Z</time></trkpt><trkpt lat="43.8122954" lon="12.6514546"><ele>193.0</ele><time>2026-04-19T10:30:05.201Z</time></trkpt><trkpt lat="43.8122147" lon="12.6515709"><ele>191.5</ele><time>2026-04-19T10:30:06.202Z</time></trkpt><trkpt lat="43.8121236" lon="12.6516906"><ele>190.0</ele><time>2026-04-19T10:30:07.202Z</time></trkpt><trkpt lat="43.8120386" lon="12.6518142"><ele>190.0</ele><time>2026-04-19T10:30:08.204Z</time></trkpt><trkpt lat="43.8119589" lon="12.6519322"><ele>190.0</ele><time>2026-04-19T10:30:09.206Z</time></trkpt><trkpt lat="43.8118834" lon="12.6520438"><ele>190.0</ele><time>2026-04-19T10:30:10.202Z</time></trkpt><trkpt lat="43.8118116" lon="12.6521536"><ele>190.0</ele><time>2026-04-19T10:30:11.202Z</time></trkpt><trkpt lat="43.81175" lon="12.6522701"><ele>190.0</ele><time>2026-04-19T10:30:12.202Z</time></trkpt><trkpt lat="43.8116955" lon="12.6523889"><ele>190.2</ele><time>2026-04-19T10:30:13.201Z</time></trkpt><trkpt lat="43.8116474" lon="12.6525095"><ele>190.4</ele><time>2026-04-19T10:30:14.203Z</time></trkpt><trkpt lat="43.8116034" lon="12.6526341"><ele>190.60000000000002</ele><time>2026-04-19T10:30:15.201Z</time></trkpt><trkpt lat="43.8115586" lon="12.6527669"><ele>190.8</ele><time>2026-04-19T10:30:16.201Z</time></trkpt><trkpt lat="43.8115122" lon="12.652904"><ele>191.0</ele><time>2026-04-19T10:30:17.201Z</time></trkpt><trkpt lat="43.8114641" lon="12.6530464"><ele>188.75</ele><time>2026-04-19T10:30:18.201Z</time></trkpt><trkpt lat="43.8114166" lon="12.6531896"><ele>186.5</ele><time>2026-04-19T10:30:19.201Z</time></trkpt><trkpt lat="43.8113699" lon="12.6533352"><ele>184.25</ele><time>2026-04-19T10:30:20.204Z</time></trkpt><trkpt lat="43.8113243" lon="12.6534774"><ele>182.0</ele><time>2026-04-19T10:30:21.201Z</time></trkpt><trkpt lat="43.8112763" lon="12.6536147"><ele>180.8</ele><time>2026-04-19T10:30:22.203Z</time></trkpt><trkpt lat="43.81123" lon="12.6537504"><ele>179.6</ele><time>2026-04-19T10:30:23.201Z</time></trkpt><trkpt lat="43.8111838" lon="12.6538898"><ele>178.4</ele><time>2026-04-19T10:30:24.201Z</time></trkpt><trkpt lat="43.8111356" lon="12.6540274"><ele>177.20000000000002</ele><time>2026-04-19T10:30:25.202Z</time></trkpt><trkpt lat="43.81109" lon="12.6541636"><ele>176.0</ele><time>2026-04-19T10:30:26.201Z</time></trkpt><trkpt lat="43.8110454" lon="12.6543012"><ele>176.0</ele><time>2026-04-19T10:30:27.207Z</time></trkpt><trkpt lat="43.8110008" lon="12.6544379"><ele>176.0</ele><time>2026-04-19T10:30:28.201Z</time></trkpt><trkpt lat="43.8109531" lon="12.6545663"><ele>176.0</ele><time>2026-04-19T10:30:29.202Z</time></trkpt><trkpt lat="43.8108989" lon="12.6546891"><ele>176.0</ele><time>2026-04-19T10:30:30.202Z</time></trkpt><trkpt lat="43.8108379" lon="12.6548002"><ele>176.0</ele><time>2026-04-19T10:30:31.202Z</time></trkpt><trkpt lat="43.8107702" lon="12.6549026"><ele>176.0</ele><time>2026-04-19T10:30:32.203Z</time></trkpt><trkpt lat="43.8107042" lon="12.6550045"><ele>176.0</ele><time>2026-04-19T10:30:33.202Z</time></trkpt><trkpt lat="43.8106379" lon="12.6551004"><ele>176.0</ele><time>2026-04-19T10:30:34.202Z</time></trkpt><trkpt lat="43.8105751" lon="12.6551923"><ele>176.0</ele><time>2026-04-19T10:30:35.201Z</time></trkpt><trkpt lat="43.8105147" lon="12.6552779"><ele>176.0</ele><time>2026-04-19T10:30:36.204Z</time></trkpt><trkpt lat="43.8104577" lon="12.6553589"><ele>176.0</ele><time>2026-04-19T10:30:37.202Z</time></trkpt><trkpt lat="43.8104069" lon="12.6554357"><ele>176.0</ele><time>2026-04-19T10:30:38.207Z</time></trkpt><trkpt lat="43.8103735" lon="12.6555197"><ele>176.0</ele><time>2026-04-19T10:30:39.204Z</time></trkpt><trkpt lat="43.8103536" lon="12.6556128"><ele>176.0</ele><time>2026-04-19T10:30:40.208Z</time></trkpt><trkpt lat="43.8103585" lon="12.6557145"><ele>176.0</ele><time>2026-04-19T10:30:41.201Z</time></trkpt><trkpt lat="43.8103832" lon="12.6558233"><ele>176.0</ele><time>2026-04-19T10:30:42.205Z</time></trkpt><trkpt lat="43.810418" lon="12.6559374"><ele>176.0</ele><time>2026-04-19T10:30:43.202Z</time></trkpt><trkpt lat="43.8104569" lon="12.6560564"><ele>176.0</ele><time>2026-04-19T10:30:44.206Z</time></trkpt><trkpt lat="43.8104925" lon="12.6561712"><ele>176.0</ele><time>2026-04-19T10:30:45.202Z</time></trkpt><trkpt lat="43.8105239" lon="12.6562779"><ele>176.0</ele><time>2026-04-19T10:30:46.203Z</time></trkpt><trkpt lat="43.8105445" lon="12.6563751"><ele>176.0</ele><time>2026-04-19T10:30:47.202Z</time></trkpt><trkpt lat="43.810549" lon="12.6564695"><ele>176.0</ele><time>2026-04-19T10:30:48.201Z</time></trkpt><trkpt lat="43.8105287" lon="12.6565627"><ele>174.33333333333331</ele><time>2026-04-19T10:30:49.203Z</time></trkpt><trkpt lat="43.8104857" lon="12.6566442"><ele>172.66666666666666</ele><time>2026-04-19T10:30:50.201Z</time></trkpt><trkpt lat="43.8104279" lon="12.6567082"><ele>171.0</ele><time>2026-04-19T10:30:51.201Z</time></trkpt><trkpt lat="43.810355" lon="12.65675"><ele>169.33333333333334</ele><time>2026-04-19T10:30:52.215Z</time></trkpt><trkpt lat="43.8102713" lon="12.656758"><ele>167.66666666666669</ele><time>2026-04-19T10:30:53.201Z</time></trkpt><trkpt lat="43.8101802" lon="12.6567225"><ele>166.0</ele><time>2026-04-19T10:30:54.202Z</time></trkpt><trkpt lat="43.8100949" lon="12.6566563"><ele>164.66666666666669</ele><time>2026-04-19T10:30:55.202Z</time></trkpt><trkpt lat="43.810015" lon="12.6565884"><ele>163.33333333333334</ele><time>2026-04-19T10:30:56.203Z</time></trkpt><trkpt lat="43.8099411" lon="12.6565284"><ele>162.0</ele><time>2026-04-19T10:30:57.203Z</time></trkpt><trkpt lat="43.8098691" lon="12.6564741"><ele>160.66666666666666</ele><time>2026-04-19T10:30:58.203Z</time></trkpt><trkpt lat="43.8098005" lon="12.6564229"><ele>159.33333333333331</ele><time>2026-04-19T10:30:59.202Z</time></trkpt><trkpt lat="43.8097325" lon="12.6563768"><ele>158.0</ele><time>2026-04-19T10:31:00.202Z</time></trkpt><trkpt lat="43.809662" lon="12.6563408"><ele>158.00000000000003</ele><time>2026-04-19T10:31:01.201Z</time></trkpt><trkpt lat="43.8095918" lon="12.656327"><ele>158.0</ele><time>2026-04-19T10:31:02.201Z</time></trkpt><trkpt lat="43.8095293" lon="12.6563636"><ele>158.0</ele><time>2026-04-19T10:31:03.201Z</time></trkpt><trkpt lat="43.8094816" lon="12.6564289"><ele>158.0</ele><time>2026-04-19T10:31:04.201Z</time></trkpt><trkpt lat="43.8094523" lon="12.6565105"><ele>158.0</ele><time>2026-04-19T10:31:05.201Z</time></trkpt><trkpt lat="43.8094461" lon="12.656605"><ele>158.00000000000003</ele><time>2026-04-19T10:31:06.202Z</time></trkpt><trkpt lat="43.8094718" lon="12.6567205"><ele>158.0</ele><time>2026-04-19T10:31:07.201Z</time></trkpt><trkpt lat="43.8095142" lon="12.6568423"><ele>156.4</ele><time>2026-04-19T10:31:08.201Z</time></trkpt><trkpt lat="43.8095583" lon="12.6569634"><ele>154.8</ele><time>2026-04-19T10:31:09.203Z</time></trkpt><trkpt lat="43.8096008" lon="12.6570878"><ele>153.2</ele><time>2026-04-19T10:31:10.201Z</time></trkpt><trkpt lat="43.8096435" lon="12.6572147"><ele>151.6</ele><time>2026-04-19T10:31:11.201Z</time></trkpt><trkpt lat="43.8096834" lon="12.6573375"><ele>150.0</ele><time>2026-04-19T10:31:12.201Z</time></trkpt><trkpt lat="43.8097218" lon="12.6574564"><ele>150.0</ele><time>2026-04-19T10:31:13.201Z</time></trkpt><trkpt lat="43.8097664" lon="12.6575688"><ele>150.0</ele><time>2026-04-19T10:31:14.202Z</time></trkpt><trkpt lat="43.8098182" lon="12.65767"><ele>150.0</ele><time>2026-04-19T10:31:15.202Z</time></trkpt><trkpt lat="43.8098798" lon="12.6577529"><ele>150.0</ele><time>2026-04-19T10:31:16.201Z</time></trkpt><trkpt lat="43.8099471" lon="12.6578198"><ele>150.0</ele><time>2026-04-19T10:31:17.201Z</time></trkpt><trkpt lat="43.8100176" lon="12.6578756"><ele>150.0</ele><time>2026-04-19T10:31:18.201Z</time></trkpt><trkpt lat="43.8100878" lon="12.6579274"><ele>148.85714285714283</ele><time>2026-04-19T10:31:19.201Z</time></trkpt><trkpt lat="43.810158" lon="12.657975"><ele>147.71428571428572</ele><time>2026-04-19T10:31:20.201Z</time></trkpt><trkpt lat="43.8102267" lon="12.6580253"><ele>146.57142857142856</ele><time>2026-04-19T10:31:21.201Z</time></trkpt><trkpt lat="43.8102935" lon="12.6580731"><ele>145.42857142857142</ele><time>2026-04-19T10:31:22.201Z</time></trkpt><trkpt lat="43.810357" lon="12.6581154"><ele>144.28571428571428</ele><time>2026-04-19T10:31:23.201Z</time></trkpt><trkpt lat="43.8104159" lon="12.6581629"><ele>143.14285714285714</ele><time>2026-04-19T10:31:24.201Z</time></trkpt><trkpt lat="43.8104747" lon="12.6582208"><ele>142.0</ele><time>2026-04-19T10:31:25.201Z</time></trkpt><trkpt lat="43.8105233" lon="12.6582875"><ele>142.0</ele><time>2026-04-19T10:31:26.202Z</time></trkpt><trkpt lat="43.8105637" lon="12.6583636"><ele>142.0</ele><time>2026-04-19T10:31:27.201Z</time></trkpt><trkpt lat="43.8105995" lon="12.6584456"><ele>142.0</ele><time>2026-04-19T10:31:28.201Z</time></trkpt><trkpt lat="43.810618" lon="12.6585358"><ele>142.0</ele><time>2026-04-19T10:31:29.201Z</time></trkpt><trkpt lat="43.8106006" lon="12.6586298"><ele>142.0</ele><time>2026-04-19T10:31:30.201Z</time></trkpt><trkpt lat="43.8105521" lon="12.6587104"><ele>142.0</ele><time>2026-04-19T10:31:31.201Z</time></trkpt><trkpt lat="43.810492" lon="12.6587768"><ele>142.0</ele><time>2026-04-19T10:31:32.201Z</time></trkpt><trkpt lat="43.8104327" lon="12.6588411"><ele>140.28571428571428</ele><time>2026-04-19T10:31:33.201Z</time></trkpt><trkpt lat="43.8103866" lon="12.6589095"><ele>138.57142857142856</ele><time>2026-04-19T10:31:34.201Z</time></trkpt><trkpt lat="43.8103657" lon="12.6589941"><ele>136.85714285714286</ele><time>2026-04-19T10:31:35.201Z</time></trkpt><trkpt lat="43.8103743" lon="12.6590823"><ele>135.14285714285714</ele><time>2026-04-19T10:31:36.201Z</time></trkpt><trkpt lat="43.810412" lon="12.6591597"><ele>133.42857142857144</ele><time>2026-04-19T10:31:37.201Z</time></trkpt><trkpt lat="43.810472" lon="12.6592171"><ele>131.71428571428572</ele><time>2026-04-19T10:31:38.202Z</time></trkpt><trkpt lat="43.8105403" lon="12.6592641"><ele>130.0</ele><time>2026-04-19T10:31:39.201Z</time></trkpt><trkpt lat="43.8106131" lon="12.6593061"><ele>130.0</ele><time>2026-04-19T10:31:40.201Z</time></trkpt><trkpt lat="43.8106863" lon="12.6593487"><ele>130.0</ele><time>2026-04-19T10:31:41.201Z</time></trkpt><trkpt lat="43.8107592" lon="12.6593927"><ele>130.0</ele><time>2026-04-19T10:31:42.202Z</time></trkpt><trkpt lat="43.8108306" lon="12.6594335"><ele>130.0</ele><time>2026-04-19T10:31:43.201Z</time></trkpt><trkpt lat="43.8108962" lon="12.6594752"><ele>130.0</ele><time>2026-04-19T10:31:44.201Z</time></trkpt><trkpt lat="43.8109585" lon="12.6595099"><ele>130.0</ele><time>2026-04-19T10:31:45.201Z</time></trkpt><trkpt lat="43.8110439" lon="12.6596266"><ele>128.0</ele><time>2026-04-19T10:31:47.203Z</time></trkpt><trkpt lat="43.8110457" lon="12.6597195"><ele>126.0</ele><time>2026-04-19T10:31:48.213Z</time></trkpt><trkpt lat="43.8110071" lon="12.6598087"><ele>124.0</ele><time>2026-04-19T10:31:49.202Z</time></trkpt><trkpt lat="43.8109382" lon="12.6598717"><ele>122.0</ele><time>2026-04-19T10:31:50.201Z</time></trkpt><trkpt lat="43.8108583" lon="12.6599037"><ele>120.00000000000001</ele><time>2026-04-19T10:31:51.202Z</time></trkpt><trkpt lat="43.8107744" lon="12.6599231"><ele>118.0</ele><time>2026-04-19T10:31:52.201Z</time></trkpt><trkpt lat="43.8106928" lon="12.6599395"><ele>118.00000000000001</ele><time>2026-04-19T10:31:53.201Z</time></trkpt><trkpt lat="43.8106158" lon="12.6599585"><ele>118.0</ele><time>2026-04-19T10:31:54.201Z</time></trkpt><trkpt lat="43.810545" lon="12.6599773"><ele>118.0</ele><time>2026-04-19T10:31:55.201Z</time></trkpt><trkpt lat="43.8104773" lon="12.6599982"><ele>118.0</ele><time>2026-04-19T10:31:56.201Z</time></trkpt><trkpt lat="43.8104209" lon="12.6600375"><ele>118.00000000000001</ele><time>2026-04-19T10:31:57.201Z</time></trkpt><trkpt lat="43.8103468" lon="12.6601788"><ele>118.0</ele><time>2026-04-19T10:31:59.2Z</time></trkpt><trkpt lat="43.8103497" lon="12.6602739"><ele>116.16666666666667</ele><time>2026-04-19T10:32:00.201Z</time></trkpt><trkpt lat="43.810375" lon="12.6603682"><ele>114.33333333333334</ele><time>2026-04-19T10:32:01.201Z</time></trkpt><trkpt lat="43.8104204" lon="12.6604646"><ele>112.5</ele><time>2026-04-19T10:32:02.201Z</time></trkpt><trkpt lat="43.8104725" lon="12.6605598"><ele>110.66666666666666</ele><time>2026-04-19T10:32:03.201Z</time></trkpt><trkpt lat="43.8105205" lon="12.66065"><ele>108.83333333333333</ele><time>2026-04-19T10:32:04.202Z</time></trkpt><trkpt lat="43.8105643" lon="12.6607329"><ele>107.0</ele><time>2026-04-19T10:32:05.202Z</time></trkpt><trkpt lat="43.8106198" lon="12.6608193"><ele>106.99999999999999</ele><time>2026-04-19T10:32:06.201Z</time></trkpt><trkpt lat="43.8106741" lon="12.6609164"><ele>107.0</ele><time>2026-04-19T10:32:07.201Z</time></trkpt><trkpt lat="43.8107293" lon="12.6610045"><ele>107.0</ele><time>2026-04-19T10:32:08.203Z</time></trkpt><trkpt lat="43.8107893" lon="12.6610717"><ele>107.0</ele><time>2026-04-19T10:32:09.204Z</time></trkpt><trkpt lat="43.8108543" lon="12.6611186"><ele>106.99999999999999</ele><time>2026-04-19T10:32:10.201Z</time></trkpt><trkpt lat="43.8109262" lon="12.6611424"><ele>107.0</ele><time>2026-04-19T10:32:11.2Z</time></trkpt><trkpt lat="43.8109945" lon="12.6611466"><ele>105.83333333333333</ele><time>2026-04-19T10:32:12.203Z</time></trkpt><trkpt lat="43.8111182" lon="12.6611168"><ele>104.66666666666666</ele><time>2026-04-19T10:32:14.2Z</time></trkpt><trkpt lat="43.8111839" lon="12.6610887"><ele>103.5</ele><time>2026-04-19T10:32:15.2Z</time></trkpt><trkpt lat="43.811251" lon="12.6610401"><ele>102.33333333333334</ele><time>2026-04-19T10:32:16.205Z</time></trkpt><trkpt lat="43.811321" lon="12.6609919"><ele>101.16666666666667</ele><time>2026-04-19T10:32:17.2Z</time></trkpt><trkpt lat="43.8113868" lon="12.6609466"><ele>100.0</ele><time>2026-04-19T10:32:18.2Z</time></trkpt><trkpt lat="43.8114436" lon="12.6609039"><ele>100.00000000000001</ele><time>2026-04-19T10:32:19.2Z</time></trkpt><trkpt lat="43.8115429" lon="12.66088"><ele>100.0</ele><time>2026-04-19T10:32:21.2Z</time></trkpt><trkpt lat="43.8116198" lon="12.6609708"><ele>100.0</ele><time>2026-04-19T10:32:23.2Z</time></trkpt><trkpt lat="43.8116021" lon="12.6610609"><ele>100.0</ele><time>2026-04-19T10:32:24.2Z</time></trkpt><trkpt lat="43.8115543" lon="12.6611441"><ele>100.00000000000001</ele><time>2026-04-19T10:32:25.199Z</time></trkpt><trkpt lat="43.811518" lon="12.6612219"><ele>100.0</ele><time>2026-04-19T10:32:26.199Z</time></trkpt><trkpt lat="43.8114811" lon="12.6612992"><ele>98.71428571428572</ele><time>2026-04-19T10:32:27.199Z</time></trkpt><trkpt lat="43.8114245" lon="12.6613659"><ele>97.42857142857143</ele><time>2026-04-19T10:32:28.202Z</time></trkpt><trkpt lat="43.8113695" lon="12.6614292"><ele>96.14285714285714</ele><time>2026-04-19T10:32:29.2Z</time></trkpt><trkpt lat="43.8113191" lon="12.6614959"><ele>94.85714285714286</ele><time>2026-04-19T10:32:30.2Z</time></trkpt><trkpt lat="43.8112664" lon="12.6615664"><ele>93.57142857142857</ele><time>2026-04-19T10:32:31.203Z</time></trkpt><trkpt lat="43.811215" lon="12.6616321"><ele>92.28571428571429</ele><time>2026-04-19T10:32:32.2Z</time></trkpt><trkpt lat="43.8111709" lon="12.6616953"><ele>91.0</ele><time>2026-04-19T10:32:33.199Z</time></trkpt><trkpt lat="43.8111036" lon="12.6617955"><ele>91.0</ele><time>2026-04-19T10:32:35.202Z</time></trkpt><trkpt lat="43.8111045" lon="12.6618856"><ele>91.0</ele><time>2026-04-19T10:32:41.202Z</time></trkpt><trkpt lat="43.8112021" lon="12.6620087"><ele>91.0</ele><time>2026-04-19T10:32:43.2Z</time></trkpt><trkpt lat="43.8112922" lon="12.6621"><ele>91.0</ele><time>2026-04-19T10:32:44.205Z</time></trkpt><trkpt lat="43.8114307" lon="12.6622089"><ele>89.66666666666666</ele><time>2026-04-19T10:32:45.202Z</time></trkpt><trkpt lat="43.8116002" lon="12.6623337"><ele>88.33333333333333</ele><time>2026-04-19T10:32:46.2Z</time></trkpt><trkpt lat="43.811777" lon="12.6624697"><ele>87.0</ele><time>2026-04-19T10:32:47.199Z</time></trkpt><trkpt lat="43.8119435" lon="12.6626167"><ele>91.33333333333334</ele><time>2026-04-19T10:32:48.199Z</time></trkpt><trkpt lat="43.8120937" lon="12.6627948"><ele>95.66666666666667</ele><time>2026-04-19T10:32:49.2Z</time></trkpt><trkpt lat="43.8122348" lon="12.663003"><ele>100.0</ele><time>2026-04-19T10:32:50.202Z</time></trkpt><trkpt lat="43.8123864" lon="12.6632066"><ele>100.0</ele><time>2026-04-19T10:32:51.204Z</time></trkpt><trkpt lat="43.8125586" lon="12.6633821"><ele>100.0</ele><time>2026-04-19T10:32:52.2Z</time></trkpt><trkpt lat="43.8127512" lon="12.6635192"><ele>100.0</ele><time>2026-04-19T10:32:53.202Z</time></trkpt><trkpt lat="43.8129639" lon="12.6636211"><ele>102.0</ele><time>2026-04-19T10:32:54.202Z</time></trkpt><trkpt lat="43.8131753" lon="12.6637099"><ele>104.0</ele><time>2026-04-19T10:32:55.2Z</time></trkpt><trkpt lat="43.8133777" lon="12.6637873"><ele>106.0</ele><time>2026-04-19T10:32:56.2Z</time></trkpt><trkpt lat="43.8135587" lon="12.6638521"><ele>106.0</ele><time>2026-04-19T10:32:57.2Z</time></trkpt><trkpt lat="43.8137334" lon="12.6639216"><ele>106.0</ele><time>2026-04-19T10:32:58.2Z</time></trkpt><trkpt lat="43.8139027" lon="12.6639833"><ele>106.0</ele><time>2026-04-19T10:32:59.204Z</time></trkpt><trkpt lat="43.8140643" lon="12.6640388"><ele>106.0</ele><time>2026-04-19T10:33:00.2Z</time></trkpt><trkpt lat="43.8142256" lon="12.6640948"><ele>106.0</ele><time>2026-04-19T10:33:01.202Z</time></trkpt><trkpt lat="43.8143882" lon="12.6641522"><ele>106.0</ele><time>2026-04-19T10:33:02.201Z</time></trkpt><trkpt lat="43.8145504" lon="12.6642086"><ele>106.0</ele><time>2026-04-19T10:33:03.208Z</time></trkpt><trkpt lat="43.8147124" lon="12.664267"><ele>106.0</ele><time>2026-04-19T10:33:04.2Z</time></trkpt><trkpt lat="43.8148768" lon="12.6643255"><ele>106.0</ele><time>2026-04-19T10:33:05.2Z</time></trkpt><trkpt lat="43.8150352" lon="12.6643825"><ele>106.0</ele><time>2026-04-19T10:33:06.2Z</time></trkpt><trkpt lat="43.8151857" lon="12.664438"><ele>106.0</ele><time>2026-04-19T10:33:07.2Z</time></trkpt><trkpt lat="43.8153258" lon="12.6644965"><ele>106.0</ele><time>2026-04-19T10:33:08.203Z</time></trkpt><trkpt lat="43.8154645" lon="12.6645658"><ele>106.0</ele><time>2026-04-19T10:33:09.201Z</time></trkpt><trkpt lat="43.8156008" lon="12.6646438"><ele>105.75</ele><time>2026-04-19T10:33:10.204Z</time></trkpt><trkpt lat="43.8157321" lon="12.6647156"><ele>105.5</ele><time>2026-04-19T10:33:11.201Z</time></trkpt><trkpt lat="43.8158504" lon="12.6647841"><ele>105.25</ele><time>2026-04-19T10:33:12.203Z</time></trkpt><trkpt lat="43.8159504" lon="12.6648479"><ele>105.0</ele><time>2026-04-19T10:33:13.202Z</time></trkpt><trkpt lat="43.8160387" lon="12.6649064"><ele>105.8</ele><time>2026-04-19T10:33:14.202Z</time></trkpt><trkpt lat="43.8161225" lon="12.6649638"><ele>106.6</ele><time>2026-04-19T10:33:15.201Z</time></trkpt><trkpt lat="43.8162094" lon="12.6650228"><ele>107.4</ele><time>2026-04-19T10:33:16.206Z</time></trkpt><trkpt lat="43.8163059" lon="12.6650845"><ele>108.2</ele><time>2026-04-19T10:33:17.203Z</time></trkpt><trkpt lat="43.8164133" lon="12.6651495"><ele>109.0</ele><time>2026-04-19T10:33:18.202Z</time></trkpt><trkpt lat="43.8165355" lon="12.6652188"><ele>108.33333333333334</ele><time>2026-04-19T10:33:19.205Z</time></trkpt><trkpt lat="43.8166703" lon="12.6652935"><ele>107.66666666666666</ele><time>2026-04-19T10:33:20.204Z</time></trkpt><trkpt lat="43.8168178" lon="12.6653766"><ele>107.0</ele><time>2026-04-19T10:33:21.201Z</time></trkpt><trkpt lat="43.8169707" lon="12.665468"><ele>106.66666666666666</ele><time>2026-04-19T10:33:22.2Z</time></trkpt><trkpt lat="43.8171292" lon="12.6655608"><ele>106.33333333333334</ele><time>2026-04-19T10:33:23.201Z</time></trkpt><trkpt lat="43.8172886" lon="12.6656555"><ele>106.0</ele><time>2026-04-19T10:33:24.2Z</time></trkpt><trkpt lat="43.8174504" lon="12.6657502"><ele>106.0</ele><time>2026-04-19T10:33:25.2Z</time></trkpt><trkpt lat="43.8176117" lon="12.6658483"><ele>106.0</ele><time>2026-04-19T10:33:26.201Z</time></trkpt><trkpt lat="43.8177767" lon="12.6659433"><ele>106.0</ele><time>2026-04-19T10:33:27.2Z</time></trkpt><trkpt lat="43.8179417" lon="12.6660367"><ele>105.66666666666667</ele><time>2026-04-19T10:33:28.205Z</time></trkpt><trkpt lat="43.8181017" lon="12.6661317"><ele>105.33333333333334</ele><time>2026-04-19T10:33:29.222Z</time></trkpt><trkpt lat="43.8182567" lon="12.6662233"><ele>105.0</ele><time>2026-04-19T10:33:30.215Z</time></trkpt><trkpt lat="43.818405" lon="12.6663133"><ele>105.5</ele><time>2026-04-19T10:33:31.202Z</time></trkpt><trkpt lat="43.8187083" lon="12.6664917"><ele>106.0</ele><time>2026-04-19T10:33:33.2Z</time></trkpt><trkpt lat="43.8188633" lon="12.6665817"><ele>106.0</ele><time>2026-04-19T10:33:34.202Z</time></trkpt><trkpt lat="43.8190183" lon="12.6666717"><ele>106.0</ele><time>2026-04-19T10:33:35.2Z</time></trkpt><trkpt lat="43.8191717" lon="12.6667583"><ele>106.0</ele><time>2026-04-19T10:33:36.2Z</time></trkpt><trkpt lat="43.819325" lon="12.6668433"><ele>106.0</ele><time>2026-04-19T10:33:37.2Z</time></trkpt><trkpt lat="43.8194783" lon="12.66693"><ele>106.0</ele><time>2026-04-19T10:33:38.201Z</time></trkpt><trkpt lat="43.8196333" lon="12.66702"><ele>106.0</ele><time>2026-04-19T10:33:39.2Z</time></trkpt><trkpt lat="43.8197867" lon="12.667115"><ele>105.33333333333334</ele><time>2026-04-19T10:33:40.202Z</time></trkpt><trkpt lat="43.8199433" lon="12.6672083"><ele>104.66666666666666</ele><time>2026-04-19T10:33:41.201Z</time></trkpt><trkpt lat="43.8200983" lon="12.6673017"><ele>104.0</ele><time>2026-04-19T10:33:42.2Z</time></trkpt><trkpt lat="43.8202583" lon="12.6673967"><ele>104.0</ele><time>2026-04-19T10:33:43.2Z</time></trkpt><trkpt lat="43.8204167" lon="12.6674917"><ele>104.0</ele><time>2026-04-19T10:33:44.201Z</time></trkpt><trkpt lat="43.8205717" lon="12.6675983"><ele>104.0</ele><time>2026-04-19T10:33:45.199Z</time></trkpt><trkpt lat="43.8207233" lon="12.66771"><ele>103.0</ele><time>2026-04-19T10:33:46.213Z</time></trkpt><trkpt lat="43.8208733" lon="12.6678283"><ele>102.0</ele><time>2026-04-19T10:33:47.203Z</time></trkpt><trkpt lat="43.8210217" lon="12.6679483"><ele>101.0</ele><time>2026-04-19T10:33:48.205Z</time></trkpt><trkpt lat="43.8211683" lon="12.668075"><ele>101.0</ele><time>2026-04-19T10:33:49.2Z</time></trkpt><trkpt lat="43.82132" lon="12.6682"><ele>101.0</ele><time>2026-04-19T10:33:50.2Z</time></trkpt><trkpt lat="43.82147" lon="12.668325"><ele>101.0</ele><time>2026-04-19T10:33:51.2Z</time></trkpt><trkpt lat="43.8216167" lon="12.6684583"><ele>101.0</ele><time>2026-04-19T10:33:52.201Z</time></trkpt><trkpt lat="43.8217617" lon="12.668595"><ele>101.0</ele><time>2026-04-19T10:33:53.201Z</time></trkpt><trkpt lat="43.82189" lon="12.6687467"><ele>101.0</ele><time>2026-04-19T10:33:54.2Z</time></trkpt><trkpt lat="43.82199" lon="12.6689383"><ele>100.0</ele><time>2026-04-19T10:33:55.2Z</time></trkpt><trkpt lat="43.8220617" lon="12.669155"><ele>99.0</ele><time>2026-04-19T10:33:56.201Z</time></trkpt><trkpt lat="43.8221017" lon="12.669385"><ele>98.0</ele><time>2026-04-19T10:33:57.2Z</time></trkpt><trkpt lat="43.8221067" lon="12.6696217"><ele>98.0</ele><time>2026-04-19T10:33:58.203Z</time></trkpt><trkpt lat="43.8220867" lon="12.6698633"><ele>98.0</ele><time>2026-04-19T10:33:59.204Z</time></trkpt><trkpt lat="43.82205" lon="12.6701017"><ele>98.0</ele><time>2026-04-19T10:34:00.303Z</time></trkpt><trkpt lat="43.8219783" lon="12.6705817"><ele>97.0</ele><time>2026-04-19T10:34:02.202Z</time></trkpt><trkpt lat="43.8219433" lon="12.67082"><ele>96.0</ele><time>2026-04-19T10:34:03.201Z</time></trkpt><trkpt lat="43.8219167" lon="12.67106"><ele>95.0</ele><time>2026-04-19T10:34:04.201Z</time></trkpt><trkpt lat="43.82189" lon="12.671295"><ele>93.66666666666667</ele><time>2026-04-19T10:34:05.202Z</time></trkpt><trkpt lat="43.82186" lon="12.6715267"><ele>92.33333333333333</ele><time>2026-04-19T10:34:06.201Z</time></trkpt><trkpt lat="43.8218333" lon="12.6717533"><ele>91.0</ele><time>2026-04-19T10:34:07.201Z</time></trkpt><trkpt lat="43.8218133" lon="12.6719833"><ele>90.33333333333333</ele><time>2026-04-19T10:34:08.202Z</time></trkpt><trkpt lat="43.8218017" lon="12.6722167"><ele>89.66666666666667</ele><time>2026-04-19T10:34:09.201Z</time></trkpt><trkpt lat="43.8217917" lon="12.6724533"><ele>89.0</ele><time>2026-04-19T10:34:10.201Z</time></trkpt><trkpt lat="43.8217833" lon="12.6726933"><ele>89.33333333333334</ele><time>2026-04-19T10:34:11.201Z</time></trkpt><trkpt lat="43.8217733" lon="12.6729367"><ele>89.66666666666667</ele><time>2026-04-19T10:34:12.2Z</time></trkpt><trkpt lat="43.8217667" lon="12.6731783"><ele>90.0</ele><time>2026-04-19T10:34:13.206Z</time></trkpt><trkpt lat="43.82176" lon="12.673425"><ele>90.0</ele><time>2026-04-19T10:34:14.202Z</time></trkpt><trkpt lat="43.821755" lon="12.6736717"><ele>90.0</ele><time>2026-04-19T10:34:15.203Z</time></trkpt><trkpt lat="43.82175" lon="12.6739233"><ele>90.0</ele><time>2026-04-19T10:34:16.2Z</time></trkpt><trkpt lat="43.8217483" lon="12.674175"><ele>90.0</ele><time>2026-04-19T10:34:17.2Z</time></trkpt><trkpt lat="43.8217483" lon="12.6744283"><ele>90.0</ele><time>2026-04-19T10:34:18.201Z</time></trkpt><trkpt lat="43.8217567" lon="12.6746817"><ele>90.0</ele><time>2026-04-19T10:34:19.201Z</time></trkpt><trkpt lat="43.8217767" lon="12.6749383"><ele>91.0</ele><time>2026-04-19T10:34:20.2Z</time></trkpt><trkpt lat="43.8218233" lon="12.67519"><ele>92.0</ele><time>2026-04-19T10:34:21.201Z</time></trkpt><trkpt lat="43.8218817" lon="12.6754383"><ele>93.0</ele><time>2026-04-19T10:34:22.2Z</time></trkpt><trkpt lat="43.8219467" lon="12.6756833"><ele>93.0</ele><time>2026-04-19T10:34:23.2Z</time></trkpt><trkpt lat="43.8220133" lon="12.6759283"><ele>93.0</ele><time>2026-04-19T10:34:24.2Z</time></trkpt><trkpt lat="43.8220783" lon="12.6761733"><ele>93.0</ele><time>2026-04-19T10:34:25.2Z</time></trkpt><trkpt lat="43.8221417" lon="12.6764167"><ele>92.33333333333333</ele><time>2026-04-19T10:34:26.2Z</time></trkpt><trkpt lat="43.8222083" lon="12.67666"><ele>91.66666666666666</ele><time>2026-04-19T10:34:27.203Z</time></trkpt><trkpt lat="43.822275" lon="12.6769017"><ele>91.0</ele><time>2026-04-19T10:34:28.198Z</time></trkpt><trkpt lat="43.8223417" lon="12.6771433"><ele>90.66666666666666</ele><time>2026-04-19T10:34:29.199Z</time></trkpt><trkpt lat="43.822405" lon="12.6773867"><ele>90.33333333333333</ele><time>2026-04-19T10:34:30.199Z</time></trkpt><trkpt lat="43.8224683" lon="12.6776267"><ele>90.0</ele><time>2026-04-19T10:34:31.199Z</time></trkpt><trkpt lat="43.82253" lon="12.677865"><ele>90.0</ele><time>2026-04-19T10:34:32.199Z</time></trkpt><trkpt lat="43.8225917" lon="12.678105"><ele>90.0</ele><time>2026-04-19T10:34:33.199Z</time></trkpt><trkpt lat="43.822655" lon="12.6783383"><ele>90.0</ele><time>2026-04-19T10:34:34.197Z</time></trkpt><trkpt lat="43.8227183" lon="12.67857"><ele>89.66666666666667</ele><time>2026-04-19T10:34:35.199Z</time></trkpt><trkpt lat="43.8227831" lon="12.6788026"><ele>89.33333333333334</ele><time>2026-04-19T10:34:36.199Z</time></trkpt><trkpt lat="43.8228489" lon="12.6790322"><ele>89.0</ele><time>2026-04-19T10:34:37.199Z</time></trkpt><trkpt lat="43.8229168" lon="12.6792603"><ele>88.33333333333334</ele><time>2026-04-19T10:34:38.199Z</time></trkpt><trkpt lat="43.8229917" lon="12.6794802"><ele>87.66666666666667</ele><time>2026-04-19T10:34:39.198Z</time></trkpt><trkpt lat="43.823073" lon="12.679695"><ele>87.0</ele><time>2026-04-19T10:34:40.198Z</time></trkpt><trkpt lat="43.823167" lon="12.6799001"><ele>87.0</ele><time>2026-04-19T10:34:41.199Z</time></trkpt><trkpt lat="43.8232788" lon="12.6800851"><ele>87.0</ele><time>2026-04-19T10:34:42.199Z</time></trkpt><trkpt lat="43.8234006" lon="12.6802539"><ele>87.0</ele><time>2026-04-19T10:34:43.198Z</time></trkpt><trkpt lat="43.8235354" lon="12.6804053"><ele>86.66666666666667</ele><time>2026-04-19T10:34:44.199Z</time></trkpt><trkpt lat="43.8236792" lon="12.6805418"><ele>86.33333333333334</ele><time>2026-04-19T10:34:45.198Z</time></trkpt><trkpt lat="43.8238301" lon="12.6806605"><ele>86.0</ele><time>2026-04-19T10:34:46.198Z</time></trkpt><trkpt lat="43.8239871" lon="12.6807576"><ele>86.0</ele><time>2026-04-19T10:34:47.198Z</time></trkpt><trkpt lat="43.8241477" lon="12.6808375"><ele>86.0</ele><time>2026-04-19T10:34:48.199Z</time></trkpt><trkpt lat="43.8243115" lon="12.6808968"><ele>86.0</ele><time>2026-04-19T10:34:49.199Z</time></trkpt><trkpt lat="43.8244793" lon="12.6809407"><ele>86.66666666666667</ele><time>2026-04-19T10:34:50.199Z</time></trkpt><trkpt lat="43.8246507" lon="12.6809608"><ele>87.33333333333333</ele><time>2026-04-19T10:34:51.198Z</time></trkpt><trkpt lat="43.8248189" lon="12.6809568"><ele>88.0</ele><time>2026-04-19T10:34:52.198Z</time></trkpt><trkpt lat="43.8249871" lon="12.6809382"><ele>87.66666666666666</ele><time>2026-04-19T10:34:53.2Z</time></trkpt><trkpt lat="43.8251538" lon="12.6808942"><ele>87.33333333333333</ele><time>2026-04-19T10:34:54.199Z</time></trkpt><trkpt lat="43.8253189" lon="12.6808348"><ele>87.0</ele><time>2026-04-19T10:34:55.199Z</time></trkpt><trkpt lat="43.8254821" lon="12.6807632"><ele>87.0</ele><time>2026-04-19T10:34:56.199Z</time></trkpt><trkpt lat="43.8256448" lon="12.6806834"><ele>87.0</ele><time>2026-04-19T10:34:57.198Z</time></trkpt><trkpt lat="43.8258067" lon="12.6806013"><ele>87.0</ele><time>2026-04-19T10:34:58.198Z</time></trkpt><trkpt lat="43.8259721" lon="12.6805179"><ele>87.0</ele><time>2026-04-19T10:34:59.199Z</time></trkpt><trkpt lat="43.8261362" lon="12.6804423"><ele>87.0</ele><time>2026-04-19T10:35:00.199Z</time></trkpt><trkpt lat="43.8263024" lon="12.6803797"><ele>87.0</ele><time>2026-04-19T10:35:01.199Z</time></trkpt><trkpt lat="43.8264669" lon="12.6803197"><ele>87.0</ele><time>2026-04-19T10:35:02.199Z</time></trkpt><trkpt lat="43.8266387" lon="12.6802893"><ele>87.0</ele><time>2026-04-19T10:35:03.199Z</time></trkpt><trkpt lat="43.8268129" lon="12.680292"><ele>87.0</ele><time>2026-04-19T10:35:04.202Z</time></trkpt><trkpt lat="43.8269913" lon="12.6803252"><ele>84.0</ele><time>2026-04-19T10:35:05.199Z</time></trkpt><trkpt lat="43.8271671" lon="12.6803816"><ele>81.0</ele><time>2026-04-19T10:35:06.199Z</time></trkpt><trkpt lat="43.8273378" lon="12.6804612"><ele>78.0</ele><time>2026-04-19T10:35:07.203Z</time></trkpt><trkpt lat="43.8274999" lon="12.6805663"><ele>78.0</ele><time>2026-04-19T10:35:08.2Z</time></trkpt><trkpt lat="43.827656" lon="12.6806966"><ele>78.0</ele><time>2026-04-19T10:35:09.201Z</time></trkpt><trkpt lat="43.8278023" lon="12.6808282"><ele>78.0</ele><time>2026-04-19T10:35:10.198Z</time></trkpt><trkpt lat="43.8279396" lon="12.6809549"><ele>78.0</ele><time>2026-04-19T10:35:11.199Z</time></trkpt><trkpt lat="43.8280687" lon="12.6810759"><ele>78.0</ele><time>2026-04-19T10:35:12.2Z</time></trkpt><trkpt lat="43.8281891" lon="12.6811876"><ele>78.0</ele><time>2026-04-19T10:35:13.198Z</time></trkpt><trkpt lat="43.8283" lon="12.681294"><ele>78.0</ele><time>2026-04-19T10:35:14.199Z</time></trkpt><trkpt lat="43.828408" lon="12.6813922"><ele>79.2</ele><time>2026-04-19T10:35:15.198Z</time></trkpt><trkpt lat="43.8285076" lon="12.6814812"><ele>80.4</ele><time>2026-04-19T10:35:16.198Z</time></trkpt><trkpt lat="43.8285996" lon="12.6815597"><ele>81.60000000000001</ele><time>2026-04-19T10:35:17.198Z</time></trkpt><trkpt lat="43.8286856" lon="12.6816359"><ele>82.8</ele><time>2026-04-19T10:35:18.199Z</time></trkpt><trkpt lat="43.8287683" lon="12.6817108"><ele>84.0</ele><time>2026-04-19T10:35:19.202Z</time></trkpt><trkpt lat="43.828853" lon="12.6817825"><ele>84.0</ele><time>2026-04-19T10:35:20.199Z</time></trkpt><trkpt lat="43.8289312" lon="12.6818475"><ele>84.0</ele><time>2026-04-19T10:35:21.198Z</time></trkpt><trkpt lat="43.8289976" lon="12.6819065"><ele>84.0</ele><time>2026-04-19T10:35:22.202Z</time></trkpt><trkpt lat="43.8290608" lon="12.6819585"><ele>84.0</ele><time>2026-04-19T10:35:23.199Z</time></trkpt><trkpt lat="43.8291191" lon="12.6820064"><ele>84.0</ele><time>2026-04-19T10:35:24.206Z</time></trkpt><trkpt lat="43.8292158" lon="12.6820889"><ele>84.0</ele><time>2026-04-19T10:35:26.199Z</time></trkpt><trkpt lat="43.8292948" lon="12.6821573"><ele>83.66666666666667</ele><time>2026-04-19T10:35:28.199Z</time></trkpt><trkpt lat="43.8293632" lon="12.6822104"><ele>83.33333333333333</ele><time>2026-04-19T10:35:30.199Z</time></trkpt><trkpt lat="43.8294483" lon="12.6822517"><ele>83.0</ele><time>2026-04-19T10:35:43.198Z</time></trkpt><trkpt lat="43.8295" lon="12.6823033"><ele>82.66666666666666</ele><time>2026-04-19T10:35:44.198Z</time></trkpt><trkpt lat="43.829555" lon="12.6823633"><ele>82.33333333333333</ele><time>2026-04-19T10:35:45.198Z</time></trkpt><trkpt lat="43.8296267" lon="12.682435"><ele>82.0</ele><time>2026-04-19T10:35:46.198Z</time></trkpt><trkpt lat="43.82971" lon="12.6825233"><ele>82.0</ele><time>2026-04-19T10:35:47.199Z</time></trkpt><trkpt lat="43.8298083" lon="12.6826217"><ele>82.0</ele><time>2026-04-19T10:35:48.199Z</time></trkpt><trkpt lat="43.8299067" lon="12.6827133"><ele>82.0</ele><time>2026-04-19T10:35:49.199Z</time></trkpt><trkpt lat="43.8300083" lon="12.6828033"><ele>82.0</ele><time>2026-04-19T10:35:50.198Z</time></trkpt><trkpt lat="43.8301133" lon="12.6829"><ele>82.0</ele><time>2026-04-19T10:35:51.201Z</time></trkpt><trkpt lat="43.8302217" lon="12.683"><ele>82.0</ele><time>2026-04-19T10:35:52.2Z</time></trkpt><trkpt lat="43.8303367" lon="12.6831117"><ele>82.0</ele><time>2026-04-19T10:35:53.2Z</time></trkpt><trkpt lat="43.8304517" lon="12.6832183"><ele>82.0</ele><time>2026-04-19T10:35:54.201Z</time></trkpt><trkpt lat="43.830565" lon="12.6833283"><ele>82.0</ele><time>2026-04-19T10:35:55.198Z</time></trkpt><trkpt lat="43.830685" lon="12.6834367"><ele>82.0</ele><time>2026-04-19T10:35:56.205Z</time></trkpt><trkpt lat="43.83081" lon="12.6835467"><ele>82.0</ele><time>2026-04-19T10:35:57.201Z</time></trkpt><trkpt lat="43.8309317" lon="12.6836517"><ele>82.0</ele><time>2026-04-19T10:35:58.2Z</time></trkpt><trkpt lat="43.8310483" lon="12.683755"><ele>82.0</ele><time>2026-04-19T10:35:59.201Z</time></trkpt><trkpt lat="43.8311567" lon="12.6838533"><ele>82.0</ele><time>2026-04-19T10:36:00.199Z</time></trkpt><trkpt lat="43.8312583" lon="12.6839467"><ele>82.0</ele><time>2026-04-19T10:36:01.203Z</time></trkpt><trkpt lat="43.8313483" lon="12.6840267"><ele>82.0</ele><time>2026-04-19T10:36:02.198Z</time></trkpt><trkpt lat="43.8314283" lon="12.6841033"><ele>82.0</ele><time>2026-04-19T10:36:03.2Z</time></trkpt><trkpt lat="43.831495" lon="12.684165"><ele>82.0</ele><time>2026-04-19T10:36:04.206Z</time></trkpt><trkpt lat="43.8315517" lon="12.6842133"><ele>82.0</ele><time>2026-04-19T10:36:05.199Z</time></trkpt><trkpt lat="43.8316183" lon="12.68433"><ele>82.0</ele><time>2026-04-19T10:36:07.205Z</time></trkpt><trkpt lat="43.8315583" lon="12.68451"><ele>82.0</ele><time>2026-04-19T10:36:09.199Z</time></trkpt><trkpt lat="43.8314817" lon="12.6846383"><ele>81.75</ele><time>2026-04-19T10:36:10.199Z</time></trkpt><trkpt lat="43.831405" lon="12.68477"><ele>81.5</ele><time>2026-04-19T10:36:11.198Z</time></trkpt><trkpt lat="43.8313317" lon="12.6848917"><ele>81.25</ele><time>2026-04-19T10:36:12.2Z</time></trkpt><trkpt lat="43.8312633" lon="12.6850083"><ele>81.0</ele><time>2026-04-19T10:36:13.2Z</time></trkpt><trkpt lat="43.8311933" lon="12.685125"><ele>81.0</ele><time>2026-04-19T10:36:14.201Z</time></trkpt><trkpt lat="43.8311217" lon="12.68522"><ele>81.0</ele><time>2026-04-19T10:36:15.2Z</time></trkpt><trkpt lat="43.8310433" lon="12.6852867"><ele>81.0</ele><time>2026-04-19T10:36:16.201Z</time></trkpt><trkpt lat="43.8309633" lon="12.6853233"><ele>81.0</ele><time>2026-04-19T10:36:17.202Z</time></trkpt><trkpt lat="43.8308883" lon="12.6853317"><ele>81.0</ele><time>2026-04-19T10:36:18.201Z</time></trkpt><trkpt lat="43.8307833" lon="12.6852683"><ele>81.0</ele><time>2026-04-19T10:36:20.209Z</time></trkpt><trkpt lat="43.8308233" lon="12.685125"><ele>81.0</ele><time>2026-04-19T10:36:23.2Z</time></trkpt><trkpt lat="43.830865" lon="12.6850267"><ele>81.0</ele><time>2026-04-19T10:36:25.2Z</time></trkpt><trkpt lat="43.83081" lon="12.6849183"><ele>81.0</ele><time>2026-04-19T10:36:27.198Z</time></trkpt><trkpt lat="43.8307433" lon="12.6848583"><ele>81.0</ele><time>2026-04-19T10:36:28.212Z</time></trkpt><trkpt lat="43.8306867" lon="12.6848083"><ele>81.0</ele><time>2026-04-19T10:36:29.198Z</time></trkpt><trkpt lat="43.8306083" lon="12.6847517"><ele>81.0</ele><time>2026-04-19T10:36:31.198Z</time></trkpt></trkseg></trk></gpx>